<?xml version='1.0' encoding='UTF-8'?><gpx version="1.1" creator="JPX - https://github.com/jenetics/jpx" xmlns="http://www.topografix.com/GPX/1/1"><trk><trkseg><trkpt lat="41.65428975600925" lon="-4.727006563921203"><ele>701.0</ele><time>2026-04-11T06:29:05.007Z</time></trkpt><trkpt lat="41.65425022576696" lon="-4.727100125152134"><ele>701.0</ele><time>2026-04-11T06:29:15.003Z</time></trkpt><trkpt lat="41.65430582665057" lon="-4.727146766234595"><ele>701.0</ele><time>2026-04-11T06:29:38.999Z</time></trkpt><trkpt lat="41.654414984245314" lon="-4.727131604957661"><ele>701.0</ele><time>2026-04-11T06:29:41.999Z</time></trkpt><trkpt lat="41.65447797346954" lon="-4.727124627430372"><ele>701.0</ele><time>2026-04-11T06:29:42.999Z</time></trkpt><trkpt lat="41.65458174558723" lon="-4.7271162917555625"><ele>701.0</ele><time>2026-04-11T06:29:44.999Z</time></trkpt><trkpt lat="41.65466955373811" lon="-4.727077521206531"><ele>701.0</ele><time>2026-04-11T06:29:46.999Z</time></trkpt><trkpt lat="41.654754090581044" lon="-4.727063857763356"><ele>701.0</ele><time>2026-04-11T06:29:48.999Z</time></trkpt><trkpt lat="41.65480267363461" lon="-4.727007843269411"><ele>701.0</ele><time>2026-04-11T06:29:49.999Z</time></trkpt><trkpt lat="41.65486607543716" lon="-4.7270149343537105"><ele>701.0</ele><time>2026-04-11T06:29:50.999Z</time></trkpt><trkpt lat="41.654878338691816" lon="-4.727115459828797"><ele>701.0</ele><time>2026-04-11T06:29:52.998Z</time></trkpt><trkpt lat="41.65486994556782" lon="-4.727209343870256"><ele>701.0</ele><time>2026-04-11T06:29:53.998Z</time></trkpt><trkpt lat="41.65486714688346" lon="-4.727315249185029"><ele>701.0</ele><time>2026-04-11T06:29:55.998Z</time></trkpt><trkpt lat="41.65486733136605" lon="-4.7274096179277585"><ele>701.0</ele><time>2026-04-11T06:29:57.998Z</time></trkpt><trkpt lat="41.65485659488242" lon="-4.727511971392522"><ele>701.0</ele><time>2026-04-11T06:29:59.998Z</time></trkpt><trkpt lat="41.65485970770846" lon="-4.727641593306165"><ele>701.0</ele><time>2026-04-11T06:30:02.998Z</time></trkpt><trkpt lat="41.65485113229678" lon="-4.727754102834539"><ele>701.0</ele><time>2026-04-11T06:30:04.998Z</time></trkpt><trkpt lat="41.65485743181867" lon="-4.72787368857674"><ele>701.0</ele><time>2026-04-11T06:30:06.998Z</time></trkpt><trkpt lat="41.65484526954633" lon="-4.727964765134812"><ele>701.0</ele><time>2026-04-11T06:30:08.998Z</time></trkpt><trkpt lat="41.65482426928816" lon="-4.728087118671124"><ele>701.0</ele><time>2026-04-11T06:30:10.998Z</time></trkpt><trkpt lat="41.65481957978569" lon="-4.728185275260731"><ele>701.0</ele><time>2026-04-11T06:30:12.998Z</time></trkpt><trkpt lat="41.654809602466706" lon="-4.728298567433839"><ele>701.0</ele><time>2026-04-11T06:30:14.998Z</time></trkpt><trkpt lat="41.654811925462866" lon="-4.728416791351845"><ele>701.0</ele><time>2026-04-11T06:30:16.998Z</time></trkpt><trkpt lat="41.65479121418733" lon="-4.7285727439747"><ele>701.0</ele><time>2026-04-11T06:30:18.998Z</time></trkpt><trkpt lat="41.6547709841039" lon="-4.728726863549467"><ele>701.25</ele><time>2026-04-11T06:30:20.998Z</time></trkpt><trkpt lat="41.654791193042776" lon="-4.728974830709968"><ele>701.5</ele><time>2026-04-11T06:30:22.997Z</time></trkpt><trkpt lat="41.654815476781245" lon="-4.729116614774648"><ele>701.75</ele><time>2026-04-11T06:30:23.997Z</time></trkpt><trkpt lat="41.65481971897878" lon="-4.729255020264637"><ele>702.0</ele><time>2026-04-11T06:30:24.997Z</time></trkpt><trkpt lat="41.65481261224398" lon="-4.7293536550686275"><ele>701.6</ele><time>2026-04-11T06:30:25.997Z</time></trkpt><trkpt lat="41.654782164258805" lon="-4.729550386016886"><ele>701.2</ele><time>2026-04-11T06:30:27.997Z</time></trkpt><trkpt lat="41.654758609276826" lon="-4.729668771354379"><ele>700.8</ele><time>2026-04-11T06:30:28.997Z</time></trkpt><trkpt lat="41.654774938824076" lon="-4.729797260272377"><ele>700.4</ele><time>2026-04-11T06:30:29.997Z</time></trkpt><trkpt lat="41.654805729655585" lon="-4.729933703612883"><ele>700.0</ele><time>2026-04-11T06:30:30.997Z</time></trkpt><trkpt lat="41.654830957600495" lon="-4.730064627058031"><ele>700.0</ele><time>2026-04-11T06:30:31.997Z</time></trkpt><trkpt lat="41.65484968759285" lon="-4.730189685976892"><ele>700.0</ele><time>2026-04-11T06:30:32.997Z</time></trkpt><trkpt lat="41.65489917784857" lon="-4.730318180826286"><ele>700.0</ele><time>2026-04-11T06:30:33.997Z</time></trkpt><trkpt lat="41.65493444401751" lon="-4.730454877047662"><ele>700.0</ele><time>2026-04-11T06:30:34.997Z</time></trkpt><trkpt lat="41.65495860552915" lon="-4.73058535993946"><ele>700.0</ele><time>2026-04-11T06:30:35.997Z</time></trkpt><trkpt lat="41.654995360766975" lon="-4.730731368653111"><ele>698.25</ele><time>2026-04-11T06:30:36.997Z</time></trkpt><trkpt lat="41.65502322442104" lon="-4.730904863269392"><ele>696.5</ele><time>2026-04-11T06:30:37.997Z</time></trkpt><trkpt lat="41.65505268537669" lon="-4.731089663360235"><ele>694.75</ele><time>2026-04-11T06:30:38.997Z</time></trkpt><trkpt lat="41.655078214120444" lon="-4.731251577257315"><ele>693.0</ele><time>2026-04-11T06:30:39.997Z</time></trkpt><trkpt lat="41.65507793249231" lon="-4.731394597626158"><ele>692.6666666666666</ele><time>2026-04-11T06:30:40.997Z</time></trkpt><trkpt lat="41.65508453190334" lon="-4.731511607734393"><ele>692.3333333333334</ele><time>2026-04-11T06:30:41.997Z</time></trkpt><trkpt lat="41.65509208206485" lon="-4.731622074363662"><ele>692.0</ele><time>2026-04-11T06:30:42.997Z</time></trkpt><trkpt lat="41.65509628867948" lon="-4.73171379240094"><ele>691.6666666666667</ele><time>2026-04-11T06:30:43.997Z</time></trkpt><trkpt lat="41.65509029653074" lon="-4.731815503975016"><ele>691.3333333333334</ele><time>2026-04-11T06:30:44.997Z</time></trkpt><trkpt lat="41.65507845280454" lon="-4.73191999747232"><ele>691.0</ele><time>2026-04-11T06:30:45.997Z</time></trkpt><trkpt lat="41.65503482830766" lon="-4.7320067904919405"><ele>690.6666666666667</ele><time>2026-04-11T06:30:46.997Z</time></trkpt><trkpt lat="41.65495393317349" lon="-4.732047793604427"><ele>690.3333333333334</ele><time>2026-04-11T06:30:47.997Z</time></trkpt><trkpt lat="41.654855780536735" lon="-4.732052286851331"><ele>690.0</ele><time>2026-04-11T06:30:48.997Z</time></trkpt><trkpt lat="41.65476488973798" lon="-4.732060094584343"><ele>689.6666666666666</ele><time>2026-04-11T06:30:49.997Z</time></trkpt><trkpt lat="41.654682834281026" lon="-4.732063216971085"><ele>689.3333333333333</ele><time>2026-04-11T06:30:50.997Z</time></trkpt><trkpt lat="41.65461673143795" lon="-4.732071529134964"><ele>689.0</ele><time>2026-04-11T06:30:51.997Z</time></trkpt><trkpt lat="41.65454342863128" lon="-4.732083550005939"><ele>689.0</ele><time>2026-04-11T06:30:52.997Z</time></trkpt><trkpt lat="41.654479395319015" lon="-4.7320967265974865"><ele>689.0</ele><time>2026-04-11T06:30:53.999Z</time></trkpt><trkpt lat="41.65436397225171" lon="-4.732113737420233"><ele>689.0</ele><time>2026-04-11T06:30:55.999Z</time></trkpt><trkpt lat="41.65424578334174" lon="-4.732126492681577"><ele>689.0</ele><time>2026-04-11T06:30:57.999Z</time></trkpt><trkpt lat="41.654148084671675" lon="-4.732139205388598"><ele>689.0</ele><time>2026-04-11T06:30:59.999Z</time></trkpt><trkpt lat="41.65407791783686" lon="-4.73215640804102"><ele>689.2</ele><time>2026-04-11T06:31:01.999Z</time></trkpt><trkpt lat="41.65400281042958" lon="-4.732172350994375"><ele>689.4000000000001</ele><time>2026-04-11T06:31:04.999Z</time></trkpt><trkpt lat="41.65390255840718" lon="-4.732193149531384"><ele>689.6</ele><time>2026-04-11T06:31:09Z</time></trkpt><trkpt lat="41.65378288065738" lon="-4.732214367385472"><ele>689.8</ele><time>2026-04-11T06:31:11Z</time></trkpt><trkpt lat="41.65364941073197" lon="-4.732231678455944"><ele>690.0</ele><time>2026-04-11T06:31:13Z</time></trkpt><trkpt lat="41.65355887252041" lon="-4.732242382881088"><ele>690.0</ele><time>2026-04-11T06:31:14Z</time></trkpt><trkpt lat="41.65345674109335" lon="-4.732254935057507"><ele>690.0</ele><time>2026-04-11T06:31:15Z</time></trkpt><trkpt lat="41.653352035003685" lon="-4.7322698401787955"><ele>690.0</ele><time>2026-04-11T06:31:16Z</time></trkpt><trkpt lat="41.65324577061966" lon="-4.732286354606807"><ele>690.0</ele><time>2026-04-11T06:31:17Z</time></trkpt><trkpt lat="41.65313705125793" lon="-4.73230547659065"><ele>690.0</ele><time>2026-04-11T06:31:18Z</time></trkpt><trkpt lat="41.65302887111922" lon="-4.732323646989823"><ele>690.0</ele><time>2026-04-11T06:31:19Z</time></trkpt><trkpt lat="41.652908991682374" lon="-4.732341608925608"><ele>690.0</ele><time>2026-04-11T06:31:20Z</time></trkpt><trkpt lat="41.65278243197475" lon="-4.732359630397211"><ele>690.0</ele><time>2026-04-11T06:31:21Z</time></trkpt><trkpt lat="41.65265594246359" lon="-4.73237828878968"><ele>690.0</ele><time>2026-04-11T06:31:22Z</time></trkpt><trkpt lat="41.65252999234395" lon="-4.732394378150811"><ele>690.5</ele><time>2026-04-11T06:31:23Z</time></trkpt><trkpt lat="41.65240114308971" lon="-4.732422274898587"><ele>691.0</ele><time>2026-04-11T06:31:24Z</time></trkpt><trkpt lat="41.65227416603333" lon="-4.732437883172953"><ele>691.5</ele><time>2026-04-11T06:31:24.999Z</time></trkpt><trkpt lat="41.65214347233652" lon="-4.732456473061267"><ele>692.0</ele><time>2026-04-11T06:31:25.999Z</time></trkpt><trkpt lat="41.65201414990686" lon="-4.732472668671682"><ele>693.25</ele><time>2026-04-11T06:31:26.999Z</time></trkpt><trkpt lat="41.65187961228078" lon="-4.732487885040661"><ele>694.5</ele><time>2026-04-11T06:31:27.999Z</time></trkpt><trkpt lat="41.65174310216527" lon="-4.732508112981956"><ele>695.75</ele><time>2026-04-11T06:31:28.999Z</time></trkpt><trkpt lat="41.65161053873238" lon="-4.732525555649186"><ele>697.0</ele><time>2026-04-11T06:31:29.999Z</time></trkpt><trkpt lat="41.65147378428845" lon="-4.732540565584918"><ele>697.0</ele><time>2026-04-11T06:31:30.999Z</time></trkpt><trkpt lat="41.651338944179805" lon="-4.7325619730956365"><ele>697.0</ele><time>2026-04-11T06:31:31.999Z</time></trkpt><trkpt lat="41.65121148705723" lon="-4.732583970318362"><ele>697.0</ele><time>2026-04-11T06:31:32.999Z</time></trkpt><trkpt lat="41.65108564066084" lon="-4.732598723909999"><ele>697.0</ele><time>2026-04-11T06:31:33.999Z</time></trkpt><trkpt lat="41.65095987221068" lon="-4.732622004763175"><ele>697.0</ele><time>2026-04-11T06:31:34.999Z</time></trkpt><trkpt lat="41.650847616781796" lon="-4.732625430921775"><ele>697.0</ele><time>2026-04-11T06:31:35.999Z</time></trkpt><trkpt lat="41.65073574331266" lon="-4.732641749181534"><ele>697.0</ele><time>2026-04-11T06:31:36.999Z</time></trkpt><trkpt lat="41.65061958314538" lon="-4.732655117526849"><ele>697.0</ele><time>2026-04-11T06:31:37.999Z</time></trkpt><trkpt lat="41.65049778993357" lon="-4.7326710708991175"><ele>697.0</ele><time>2026-04-11T06:31:38.999Z</time></trkpt><trkpt lat="41.650365497628385" lon="-4.7326947226941565"><ele>697.0</ele><time>2026-04-11T06:31:39.999Z</time></trkpt><trkpt lat="41.650236377173655" lon="-4.732715329174027"><ele>697.0</ele><time>2026-04-11T06:31:40.999Z</time></trkpt><trkpt lat="41.65009653616934" lon="-4.732739129733677"><ele>697.0</ele><time>2026-04-11T06:31:41.999Z</time></trkpt><trkpt lat="41.64995398412842" lon="-4.732767617686332"><ele>694.5</ele><time>2026-04-11T06:31:42.999Z</time></trkpt><trkpt lat="41.64981161924818" lon="-4.732801679461749"><ele>692.0</ele><time>2026-04-11T06:31:43.999Z</time></trkpt><trkpt lat="41.64966853043255" lon="-4.732845233771086"><ele>689.5</ele><time>2026-04-11T06:31:44.999Z</time></trkpt><trkpt lat="41.649535215011895" lon="-4.732890616383418"><ele>687.0</ele><time>2026-04-11T06:31:45.999Z</time></trkpt><trkpt lat="41.64941314293747" lon="-4.73292421080702"><ele>686.75</ele><time>2026-04-11T06:31:46.999Z</time></trkpt><trkpt lat="41.6492787658388" lon="-4.732966380469506"><ele>686.5</ele><time>2026-04-11T06:31:47.999Z</time></trkpt><trkpt lat="41.64914158521009" lon="-4.7330044832905545"><ele>686.25</ele><time>2026-04-11T06:31:48.999Z</time></trkpt><trkpt lat="41.64901181231598" lon="-4.733019064368352"><ele>686.0</ele><time>2026-04-11T06:31:49.999Z</time></trkpt><trkpt lat="41.64887426576757" lon="-4.732999378042179"><ele>686.0</ele><time>2026-04-11T06:31:50.999Z</time></trkpt><trkpt lat="41.64873432868208" lon="-4.732946591711282"><ele>686.0</ele><time>2026-04-11T06:31:51.999Z</time></trkpt><trkpt lat="41.648618793802456" lon="-4.732857256607168"><ele>686.0</ele><time>2026-04-11T06:31:52.999Z</time></trkpt><trkpt lat="41.64851630164872" lon="-4.732732813830655"><ele>686.0</ele><time>2026-04-11T06:31:53.999Z</time></trkpt><trkpt lat="41.64842003226311" lon="-4.732578409495513"><ele>690.3333333333333</ele><time>2026-04-11T06:31:54.999Z</time></trkpt><trkpt lat="41.64832077934132" lon="-4.73241166534873"><ele>694.6666666666666</ele><time>2026-04-11T06:31:55.999Z</time></trkpt><trkpt lat="41.64820831605539" lon="-4.732236200315472"><ele>699.0</ele><time>2026-04-11T06:31:56.999Z</time></trkpt><trkpt lat="41.648093485697665" lon="-4.732066416894789"><ele>698.0</ele><time>2026-04-11T06:31:57.999Z</time></trkpt><trkpt lat="41.64797443245085" lon="-4.731885078831929"><ele>697.0</ele><time>2026-04-11T06:31:58.999Z</time></trkpt><trkpt lat="41.64784626850968" lon="-4.7316908460698"><ele>696.0</ele><time>2026-04-11T06:31:59.999Z</time></trkpt><trkpt lat="41.64771928779181" lon="-4.731513315525254"><ele>697.0</ele><time>2026-04-11T06:32:00.999Z</time></trkpt><trkpt lat="41.64760656434424" lon="-4.731337945495959"><ele>698.0</ele><time>2026-04-11T06:32:01.999Z</time></trkpt><trkpt lat="41.6475133134391" lon="-4.73118581340758"><ele>699.0</ele><time>2026-04-11T06:32:02.999Z</time></trkpt><trkpt lat="41.64744083468398" lon="-4.731074428933287"><ele>700.0</ele><time>2026-04-11T06:32:03.999Z</time></trkpt><trkpt lat="41.64736952242095" lon="-4.731010817561423"><ele>700.0</ele><time>2026-04-11T06:32:04.999Z</time></trkpt><trkpt lat="41.64732737300605" lon="-4.730947796422404"><ele>700.0</ele><time>2026-04-11T06:32:05.999Z</time></trkpt><trkpt lat="41.6472150923245" lon="-4.7310019501827725"><ele>700.0</ele><time>2026-04-11T06:32:07.999Z</time></trkpt><trkpt lat="41.64712831417594" lon="-4.731140978761181"><ele>700.0</ele><time>2026-04-11T06:32:09.999Z</time></trkpt><trkpt lat="41.64705857851987" lon="-4.731251278618214"><ele>700.0</ele><time>2026-04-11T06:32:11.999Z</time></trkpt><trkpt lat="41.64699012692943" lon="-4.731325644154448"><ele>701.0</ele><time>2026-04-11T06:32:13.999Z</time></trkpt><trkpt lat="41.64691422429255" lon="-4.731407178897806"><ele>702.0</ele><time>2026-04-11T06:32:15.999Z</time></trkpt><trkpt lat="41.64685586479832" lon="-4.731476799774139"><ele>703.0</ele><time>2026-04-11T06:32:17.999Z</time></trkpt><trkpt lat="41.64682044432149" lon="-4.731548620848344"><ele>704.0</ele><time>2026-04-11T06:32:19.999Z</time></trkpt><trkpt lat="41.64676319520545" lon="-4.731617840663821"><ele>705.0</ele><time>2026-04-11T06:32:22.999Z</time></trkpt><trkpt lat="41.646685384511684" lon="-4.731732627484803"><ele>706.0</ele><time>2026-04-11T06:32:24.998Z</time></trkpt><trkpt lat="41.6465961407477" lon="-4.731835830781032"><ele>705.5</ele><time>2026-04-11T06:32:26.998Z</time></trkpt><trkpt lat="41.64654382707364" lon="-4.7319041926079946"><ele>705.0</ele><time>2026-04-11T06:32:27.998Z</time></trkpt><trkpt lat="41.64649307699068" lon="-4.73198642878609"><ele>704.5</ele><time>2026-04-11T06:32:28.998Z</time></trkpt><trkpt lat="41.64643685421616" lon="-4.7320691532113885"><ele>704.0</ele><time>2026-04-11T06:32:29.998Z</time></trkpt><trkpt lat="41.64637752445179" lon="-4.732145480050096"><ele>703.5</ele><time>2026-04-11T06:32:30.998Z</time></trkpt><trkpt lat="41.646311230885296" lon="-4.7322169313072635"><ele>703.0</ele><time>2026-04-11T06:32:31.998Z</time></trkpt><trkpt lat="41.646241014154306" lon="-4.73229280155847"><ele>703.0</ele><time>2026-04-11T06:32:32.998Z</time></trkpt><trkpt lat="41.64617401350123" lon="-4.732366779668604"><ele>703.0</ele><time>2026-04-11T06:32:33.998Z</time></trkpt><trkpt lat="41.64610806348579" lon="-4.732424589886621"><ele>703.0</ele><time>2026-04-11T06:32:34.998Z</time></trkpt><trkpt lat="41.64604209102213" lon="-4.732507733564851"><ele>703.0</ele><time>2026-04-11T06:32:35.998Z</time></trkpt><trkpt lat="41.64598077940429" lon="-4.73258560112037"><ele>703.0</ele><time>2026-04-11T06:32:36.998Z</time></trkpt><trkpt lat="41.6459214243092" lon="-4.732673151319099"><ele>703.0</ele><time>2026-04-11T06:32:37.998Z</time></trkpt><trkpt lat="41.64583832256999" lon="-4.732762377296489"><ele>703.0</ele><time>2026-04-11T06:32:38.998Z</time></trkpt><trkpt lat="41.645747497852" lon="-4.732879873769841"><ele>703.0</ele><time>2026-04-11T06:32:39.998Z</time></trkpt><trkpt lat="41.64566769904358" lon="-4.733001547302173"><ele>703.0</ele><time>2026-04-11T06:32:40.998Z</time></trkpt><trkpt lat="41.645566444334314" lon="-4.733116584399608"><ele>703.0</ele><time>2026-04-11T06:32:41.998Z</time></trkpt><trkpt lat="41.645472175162524" lon="-4.733232626975219"><ele>703.0</ele><time>2026-04-11T06:32:42.998Z</time></trkpt><trkpt lat="41.64538695142899" lon="-4.733341914244366"><ele>703.0</ele><time>2026-04-11T06:32:43.998Z</time></trkpt><trkpt lat="41.64529139603678" lon="-4.733447015009714"><ele>703.0</ele><time>2026-04-11T06:32:44.998Z</time></trkpt><trkpt lat="41.6451838151104" lon="-4.733548531084745"><ele>703.0</ele><time>2026-04-11T06:32:45.998Z</time></trkpt><trkpt lat="41.64509333856316" lon="-4.733666167359337"><ele>702.0</ele><time>2026-04-11T06:32:46.998Z</time></trkpt><trkpt lat="41.64500609812398" lon="-4.733795987566816"><ele>701.0</ele><time>2026-04-11T06:32:47.998Z</time></trkpt><trkpt lat="41.64491961083583" lon="-4.733913949937019"><ele>700.0</ele><time>2026-04-11T06:32:48.998Z</time></trkpt><trkpt lat="41.64483051902767" lon="-4.734033928426432"><ele>699.0</ele><time>2026-04-11T06:32:49.998Z</time></trkpt><trkpt lat="41.64474049432596" lon="-4.734144846073107"><ele>699.0</ele><time>2026-04-11T06:32:50.998Z</time></trkpt><trkpt lat="41.644655459892704" lon="-4.734248901316956"><ele>699.0</ele><time>2026-04-11T06:32:51.998Z</time></trkpt><trkpt lat="41.644575914994235" lon="-4.7343478333169084"><ele>699.0</ele><time>2026-04-11T06:32:52.998Z</time></trkpt><trkpt lat="41.64449411964526" lon="-4.734451022816596"><ele>699.0</ele><time>2026-04-11T06:32:53.998Z</time></trkpt><trkpt lat="41.64442027969569" lon="-4.734558797656727"><ele>699.0</ele><time>2026-04-11T06:32:54.998Z</time></trkpt><trkpt lat="41.64433917323622" lon="-4.734656230782666"><ele>700.5</ele><time>2026-04-11T06:32:55.998Z</time></trkpt><trkpt lat="41.64425493080465" lon="-4.734759662782116"><ele>702.0</ele><time>2026-04-11T06:32:56.998Z</time></trkpt><trkpt lat="41.64416344662096" lon="-4.734878321905658"><ele>703.5</ele><time>2026-04-11T06:32:57.998Z</time></trkpt><trkpt lat="41.644073347814654" lon="-4.735012207320394"><ele>705.0</ele><time>2026-04-11T06:32:58.998Z</time></trkpt><trkpt lat="41.64397845169737" lon="-4.73515520875288"><ele>704.75</ele><time>2026-04-11T06:33:00Z</time></trkpt><trkpt lat="41.6438792537742" lon="-4.735299650630138"><ele>704.5</ele><time>2026-04-11T06:33:01Z</time></trkpt><trkpt lat="41.64377673462669" lon="-4.735444986201698"><ele>704.25</ele><time>2026-04-11T06:33:02Z</time></trkpt><trkpt lat="41.643686119595905" lon="-4.735572077152321"><ele>704.0</ele><time>2026-04-11T06:33:03Z</time></trkpt><trkpt lat="41.64357884245778" lon="-4.73570954743991"><ele>702.6666666666666</ele><time>2026-04-11T06:33:04Z</time></trkpt><trkpt lat="41.64346259534606" lon="-4.735864254930451"><ele>701.3333333333334</ele><time>2026-04-11T06:33:05Z</time></trkpt><trkpt lat="41.64334463128598" lon="-4.736012796056225"><ele>700.0</ele><time>2026-04-11T06:33:06Z</time></trkpt><trkpt lat="41.64322425447347" lon="-4.736150483558093"><ele>700.0</ele><time>2026-04-11T06:33:07Z</time></trkpt><trkpt lat="41.64307321942266" lon="-4.7363386984699725"><ele>700.0</ele><time>2026-04-11T06:33:08Z</time></trkpt><trkpt lat="41.64293219697904" lon="-4.736510118622313"><ele>700.0</ele><time>2026-04-11T06:33:09Z</time></trkpt><trkpt lat="41.64278822888074" lon="-4.736674536717974"><ele>700.0</ele><time>2026-04-11T06:33:10Z</time></trkpt><trkpt lat="41.64264685413458" lon="-4.736816952314165"><ele>700.0</ele><time>2026-04-11T06:33:11Z</time></trkpt><trkpt lat="41.64248063591553" lon="-4.7369421199072566"><ele>700.0</ele><time>2026-04-11T06:33:12Z</time></trkpt><trkpt lat="41.64230510538459" lon="-4.737052996113315"><ele>700.0</ele><time>2026-04-11T06:33:13Z</time></trkpt><trkpt lat="41.642133263771896" lon="-4.737141038253072"><ele>700.0</ele><time>2026-04-11T06:33:14Z</time></trkpt><trkpt lat="41.641968217552396" lon="-4.737210982799977"><ele>700.0</ele><time>2026-04-11T06:33:15Z</time></trkpt><trkpt lat="41.64177579442325" lon="-4.737301202435009"><ele>699.6666666666667</ele><time>2026-04-11T06:33:16Z</time></trkpt><trkpt lat="41.64157163189892" lon="-4.7373865700381685"><ele>699.3333333333334</ele><time>2026-04-11T06:33:17Z</time></trkpt><trkpt lat="41.64136056295648" lon="-4.737481207771323"><ele>699.0</ele><time>2026-04-11T06:33:18Z</time></trkpt><trkpt lat="41.64115737652836" lon="-4.737561287505698"><ele>698.3333333333334</ele><time>2026-04-11T06:33:19Z</time></trkpt><trkpt lat="41.64095362491714" lon="-4.7376446670718755"><ele>697.6666666666667</ele><time>2026-04-11T06:33:20Z</time></trkpt><trkpt lat="41.64077079413464" lon="-4.737724557771066"><ele>697.0</ele><time>2026-04-11T06:33:21Z</time></trkpt><trkpt lat="41.64060518098045" lon="-4.737794155309417"><ele>696.0</ele><time>2026-04-11T06:33:22Z</time></trkpt><trkpt lat="41.640447083036925" lon="-4.737859722345678"><ele>695.0</ele><time>2026-04-11T06:33:23Z</time></trkpt><trkpt lat="41.64029702388913" lon="-4.73792453213825"><ele>694.0</ele><time>2026-04-11T06:33:24Z</time></trkpt><trkpt lat="41.64014166166346" lon="-4.737988681859651"><ele>696.0</ele><time>2026-04-11T06:33:25Z</time></trkpt><trkpt lat="41.639987414105676" lon="-4.7380496375168555"><ele>698.0</ele><time>2026-04-11T06:33:26Z</time></trkpt><trkpt lat="41.639829020647575" lon="-4.738109819733818"><ele>700.0</ele><time>2026-04-11T06:33:27Z</time></trkpt><trkpt lat="41.63966941417916" lon="-4.738168766451686"><ele>700.0</ele><time>2026-04-11T06:33:28Z</time></trkpt><trkpt lat="41.639511842512526" lon="-4.738233926061953"><ele>700.0</ele><time>2026-04-11T06:33:29Z</time></trkpt><trkpt lat="41.639353683255294" lon="-4.738296495157165"><ele>700.0</ele><time>2026-04-11T06:33:30Z</time></trkpt><trkpt lat="41.639195783268974" lon="-4.738363674216843"><ele>700.5</ele><time>2026-04-11T06:33:31Z</time></trkpt><trkpt lat="41.63906522760958" lon="-4.738421007568242"><ele>701.0</ele><time>2026-04-11T06:33:32Z</time></trkpt><trkpt lat="41.63896028386861" lon="-4.738456075104622"><ele>701.5</ele><time>2026-04-11T06:33:33Z</time></trkpt><trkpt lat="41.63884821192776" lon="-4.738504788586221"><ele>702.0</ele><time>2026-04-11T06:33:34Z</time></trkpt><trkpt lat="41.63872948301645" lon="-4.738546266403421"><ele>702.4000000000001</ele><time>2026-04-11T06:33:35Z</time></trkpt><trkpt lat="41.6386296089092" lon="-4.738580142327604"><ele>702.8000000000001</ele><time>2026-04-11T06:33:36Z</time></trkpt><trkpt lat="41.63853914570074" lon="-4.738622930804093"><ele>703.2</ele><time>2026-04-11T06:33:37Z</time></trkpt><trkpt lat="41.6384433933042" lon="-4.738654961408273"><ele>703.6</ele><time>2026-04-11T06:33:37.999Z</time></trkpt><trkpt lat="41.638350001083495" lon="-4.738688544839213"><ele>704.0</ele><time>2026-04-11T06:33:38.999Z</time></trkpt><trkpt lat="41.638252122963486" lon="-4.738730340170018"><ele>704.0</ele><time>2026-04-11T06:33:39.999Z</time></trkpt><trkpt lat="41.638161376982694" lon="-4.738765304661305"><ele>704.0</ele><time>2026-04-11T06:33:40.999Z</time></trkpt><trkpt lat="41.638083144561264" lon="-4.7387847922750765"><ele>704.0</ele><time>2026-04-11T06:33:41.999Z</time></trkpt><trkpt lat="41.63802081316371" lon="-4.738804990824817"><ele>704.0</ele><time>2026-04-11T06:33:42.999Z</time></trkpt><trkpt lat="41.63795242491833" lon="-4.738837446903055"><ele>704.0</ele><time>2026-04-11T06:34:34.998Z</time></trkpt><trkpt lat="41.637880262186" lon="-4.738857339467417"><ele>704.0</ele><time>2026-04-11T06:34:36.998Z</time></trkpt><trkpt lat="41.63779343155636" lon="-4.738896412223823"><ele>702.6</ele><time>2026-04-11T06:34:38.998Z</time></trkpt><trkpt lat="41.637689918166714" lon="-4.738928455779997"><ele>701.2</ele><time>2026-04-11T06:34:40.998Z</time></trkpt><trkpt lat="41.6375643736425" lon="-4.738972705546191"><ele>699.8000000000001</ele><time>2026-04-11T06:34:42.998Z</time></trkpt><trkpt lat="41.6374966691194" lon="-4.738998177649714"><ele>698.4000000000001</ele><time>2026-04-11T06:34:43.998Z</time></trkpt><trkpt lat="41.63741467054231" lon="-4.739028503469839"><ele>697.0</ele><time>2026-04-11T06:34:44.998Z</time></trkpt><trkpt lat="41.63733069667456" lon="-4.739060178992291"><ele>697.0</ele><time>2026-04-11T06:34:45.998Z</time></trkpt><trkpt lat="41.637236114786226" lon="-4.739094521064828"><ele>697.0</ele><time>2026-04-11T06:34:46.998Z</time></trkpt><trkpt lat="41.63713287971386" lon="-4.739137683650493"><ele>697.0</ele><time>2026-04-11T06:34:47.998Z</time></trkpt><trkpt lat="41.63702190836437" lon="-4.739179912613783"><ele>697.0</ele><time>2026-04-11T06:34:48.998Z</time></trkpt><trkpt lat="41.63690269265445" lon="-4.739223548484695"><ele>697.0</ele><time>2026-04-11T06:34:49.998Z</time></trkpt><trkpt lat="41.636780730235806" lon="-4.739269613523888"><ele>697.0</ele><time>2026-04-11T06:34:50.998Z</time></trkpt><trkpt lat="41.63667015417878" lon="-4.739304018004283"><ele>697.0</ele><time>2026-04-11T06:34:51.998Z</time></trkpt><trkpt lat="41.63654934911386" lon="-4.73934405853522"><ele>697.0</ele><time>2026-04-11T06:34:52.998Z</time></trkpt><trkpt lat="41.63641831352594" lon="-4.739382578125467"><ele>697.0</ele><time>2026-04-11T06:34:53.998Z</time></trkpt><trkpt lat="41.63627951906678" lon="-4.739429284310042"><ele>697.0</ele><time>2026-04-11T06:34:54.998Z</time></trkpt><trkpt lat="41.636138024429656" lon="-4.7394800891923055"><ele>697.0</ele><time>2026-04-11T06:34:55.998Z</time></trkpt><trkpt lat="41.635991454495745" lon="-4.739532342567458"><ele>697.0</ele><time>2026-04-11T06:34:56.998Z</time></trkpt><trkpt lat="41.63584462796324" lon="-4.739586901115919"><ele>695.6666666666667</ele><time>2026-04-11T06:34:57.998Z</time></trkpt><trkpt lat="41.635693706930546" lon="-4.739636591666998"><ele>694.3333333333334</ele><time>2026-04-11T06:34:58.998Z</time></trkpt><trkpt lat="41.635541743121166" lon="-4.7396827085158595"><ele>693.0</ele><time>2026-04-11T06:34:59.998Z</time></trkpt><trkpt lat="41.635395713623" lon="-4.739735739108334"><ele>694.0</ele><time>2026-04-11T06:35:00.998Z</time></trkpt><trkpt lat="41.63525075879687" lon="-4.739774775863993"><ele>695.0</ele><time>2026-04-11T06:35:01.998Z</time></trkpt><trkpt lat="41.63510121046963" lon="-4.739825384342212"><ele>696.0</ele><time>2026-04-11T06:35:02.998Z</time></trkpt><trkpt lat="41.63494417427682" lon="-4.7398812789818665"><ele>696.0</ele><time>2026-04-11T06:35:03.998Z</time></trkpt><trkpt lat="41.63477699170186" lon="-4.739919297367146"><ele>696.0</ele><time>2026-04-11T06:35:04.998Z</time></trkpt><trkpt lat="41.634610505180646" lon="-4.739927194985516"><ele>696.0</ele><time>2026-04-11T06:35:06Z</time></trkpt><trkpt lat="41.6344353972072" lon="-4.73996266149164"><ele>696.3333333333334</ele><time>2026-04-11T06:35:07Z</time></trkpt><trkpt lat="41.63426891173074" lon="-4.7399852755309375"><ele>696.6666666666667</ele><time>2026-04-11T06:35:08Z</time></trkpt><trkpt lat="41.63410034791359" lon="-4.740013608044401"><ele>697.0</ele><time>2026-04-11T06:35:09Z</time></trkpt><trkpt lat="41.63394409166255" lon="-4.74004169849848"><ele>697.0</ele><time>2026-04-11T06:35:10Z</time></trkpt><trkpt lat="41.63377590048205" lon="-4.7400746462620855"><ele>697.0</ele><time>2026-04-11T06:35:11Z</time></trkpt><trkpt lat="41.633615343245445" lon="-4.7400964379037"><ele>697.0</ele><time>2026-04-11T06:35:12Z</time></trkpt><trkpt lat="41.633449640352055" lon="-4.740120062283781"><ele>697.0</ele><time>2026-04-11T06:35:13Z</time></trkpt><trkpt lat="41.6332826142869" lon="-4.7401336080295575"><ele>697.0</ele><time>2026-04-11T06:35:14Z</time></trkpt><trkpt lat="41.63313008388204" lon="-4.740156169984746"><ele>697.0</ele><time>2026-04-11T06:35:15Z</time></trkpt><trkpt lat="41.632960019839146" lon="-4.740164686836413"><ele>696.3333333333334</ele><time>2026-04-11T06:35:16Z</time></trkpt><trkpt lat="41.63280523977724" lon="-4.740196103494261"><ele>695.6666666666666</ele><time>2026-04-11T06:35:17Z</time></trkpt><trkpt lat="41.63264798364049" lon="-4.740245651574718"><ele>695.0</ele><time>2026-04-11T06:35:18Z</time></trkpt><trkpt lat="41.63249690626125" lon="-4.74027839312251"><ele>694.75</ele><time>2026-04-11T06:35:19Z</time></trkpt><trkpt lat="41.632356965274774" lon="-4.740306811323979"><ele>694.5</ele><time>2026-04-11T06:35:20Z</time></trkpt><trkpt lat="41.63224230758947" lon="-4.740347292719078"><ele>694.25</ele><time>2026-04-11T06:35:21Z</time></trkpt><trkpt lat="41.632157562252736" lon="-4.740403466269873"><ele>694.0</ele><time>2026-04-11T06:35:22Z</time></trkpt><trkpt lat="41.63206152217723" lon="-4.740454054954599"><ele>693.0</ele><time>2026-04-11T06:35:23Z</time></trkpt><trkpt lat="41.631950913242115" lon="-4.740512962101355"><ele>692.0</ele><time>2026-04-11T06:35:24Z</time></trkpt><trkpt lat="41.63183444467429" lon="-4.74059770877337"><ele>691.0</ele><time>2026-04-11T06:35:25Z</time></trkpt><trkpt lat="41.63171488385582" lon="-4.740684244582304"><ele>690.0</ele><time>2026-04-11T06:35:26Z</time></trkpt><trkpt lat="41.631591761420445" lon="-4.740777093748502"><ele>690.0</ele><time>2026-04-11T06:35:27Z</time></trkpt><trkpt lat="41.63146514606486" lon="-4.740870323620512"><ele>690.0</ele><time>2026-04-11T06:35:28Z</time></trkpt><trkpt lat="41.63133058126628" lon="-4.7409660272747765"><ele>690.0</ele><time>2026-04-11T06:35:29Z</time></trkpt><trkpt lat="41.63119304748642" lon="-4.741054713636207"><ele>690.0</ele><time>2026-04-11T06:35:30Z</time></trkpt><trkpt lat="41.63105298012017" lon="-4.7411510389857"><ele>690.0</ele><time>2026-04-11T06:35:31Z</time></trkpt><trkpt lat="41.6309005093979" lon="-4.741253905714244"><ele>690.0</ele><time>2026-04-11T06:35:32Z</time></trkpt><trkpt lat="41.63074982735316" lon="-4.741362194130142"><ele>690.0</ele><time>2026-04-11T06:35:33Z</time></trkpt><trkpt lat="41.63059648914575" lon="-4.741468539024488"><ele>690.0</ele><time>2026-04-11T06:35:34Z</time></trkpt><trkpt lat="41.63044183215663" lon="-4.741563486793668"><ele>690.0</ele><time>2026-04-11T06:35:35Z</time></trkpt><trkpt lat="41.630285681595026" lon="-4.7416820147562"><ele>690.0</ele><time>2026-04-11T06:35:36Z</time></trkpt><trkpt lat="41.63013011991501" lon="-4.74179734682956"><ele>690.0</ele><time>2026-04-11T06:35:37Z</time></trkpt><trkpt lat="41.62998340878796" lon="-4.741912203036469"><ele>690.0</ele><time>2026-04-11T06:35:38Z</time></trkpt><trkpt lat="41.62984285183954" lon="-4.742031169077567"><ele>690.6666666666666</ele><time>2026-04-11T06:35:39Z</time></trkpt><trkpt lat="41.62969781581052" lon="-4.74216526948442"><ele>691.3333333333333</ele><time>2026-04-11T06:35:40Z</time></trkpt><trkpt lat="41.62955364077295" lon="-4.742301582851695"><ele>692.0</ele><time>2026-04-11T06:35:41Z</time></trkpt><trkpt lat="41.62941249798246" lon="-4.742428508579511"><ele>691.75</ele><time>2026-04-11T06:35:42Z</time></trkpt><trkpt lat="41.629281913315005" lon="-4.7425327346658275"><ele>691.5</ele><time>2026-04-11T06:35:43Z</time></trkpt><trkpt lat="41.6291598810778" lon="-4.742629166160808"><ele>691.25</ele><time>2026-04-11T06:35:44Z</time></trkpt><trkpt lat="41.62904124045611" lon="-4.742726258219187"><ele>691.0</ele><time>2026-04-11T06:35:45Z</time></trkpt><trkpt lat="41.62893213244976" lon="-4.742818135744794"><ele>691.0</ele><time>2026-04-11T06:35:46Z</time></trkpt><trkpt lat="41.62883113041305" lon="-4.742900270072579"><ele>691.0</ele><time>2026-04-11T06:35:47Z</time></trkpt><trkpt lat="41.628735898950126" lon="-4.742969521311019"><ele>691.0</ele><time>2026-04-11T06:35:48Z</time></trkpt><trkpt lat="41.62864528679351" lon="-4.743028283484837"><ele>691.0</ele><time>2026-04-11T06:35:49Z</time></trkpt><trkpt lat="41.6285689487544" lon="-4.743071638185692"><ele>691.0</ele><time>2026-04-11T06:35:49.999Z</time></trkpt><trkpt lat="41.62850670210025" lon="-4.743110768246923"><ele>691.5</ele><time>2026-04-11T06:35:50.999Z</time></trkpt><trkpt lat="41.628451139918205" lon="-4.743182428784685"><ele>692.0</ele><time>2026-04-11T06:35:52.999Z</time></trkpt><trkpt lat="41.62842000772351" lon="-4.743279590367317"><ele>692.5</ele><time>2026-04-11T06:36:18.999Z</time></trkpt><trkpt lat="41.62828232485598" lon="-4.7435718081414935"><ele>693.0</ele><time>2026-04-11T06:36:23.999Z</time></trkpt><trkpt lat="41.628222744788694" lon="-4.743664600287221"><ele>693.0</ele><time>2026-04-11T06:36:24.999Z</time></trkpt><trkpt lat="41.628134657938" lon="-4.743720698598913"><ele>693.0</ele><time>2026-04-11T06:36:25.999Z</time></trkpt><trkpt lat="41.62803613730038" lon="-4.743719404770076"><ele>693.0</ele><time>2026-04-11T06:36:26.999Z</time></trkpt><trkpt lat="41.627940846442534" lon="-4.743743038927288"><ele>693.0</ele><time>2026-04-11T06:36:27.999Z</time></trkpt><trkpt lat="41.627846435952605" lon="-4.743802235069209"><ele>693.0</ele><time>2026-04-11T06:36:28.999Z</time></trkpt><trkpt lat="41.627753237116" lon="-4.743883413327347"><ele>693.0</ele><time>2026-04-11T06:36:29.999Z</time></trkpt><trkpt lat="41.62765325831606" lon="-4.7439812462285875"><ele>693.0</ele><time>2026-04-11T06:36:30.999Z</time></trkpt><trkpt lat="41.62753061065186" lon="-4.744088703804795"><ele>693.0</ele><time>2026-04-11T06:36:31.999Z</time></trkpt><trkpt lat="41.62739909335476" lon="-4.744204523293789"><ele>693.0</ele><time>2026-04-11T06:36:32.999Z</time></trkpt><trkpt lat="41.627265783123484" lon="-4.744327284846001"><ele>692.6666666666666</ele><time>2026-04-11T06:36:33.999Z</time></trkpt><trkpt lat="41.62713230209206" lon="-4.744446614324401"><ele>692.3333333333333</ele><time>2026-04-11T06:36:34.999Z</time></trkpt><trkpt lat="41.62700637342196" lon="-4.744563099155763"><ele>692.0</ele><time>2026-04-11T06:36:35.999Z</time></trkpt><trkpt lat="41.62686966763283" lon="-4.744684101646755"><ele>691.6666666666666</ele><time>2026-04-11T06:36:36.999Z</time></trkpt><trkpt lat="41.62672492886006" lon="-4.744818170460165"><ele>691.3333333333334</ele><time>2026-04-11T06:36:37.999Z</time></trkpt><trkpt lat="41.62658054390892" lon="-4.744948366056093"><ele>691.0</ele><time>2026-04-11T06:36:38.999Z</time></trkpt><trkpt lat="41.626459731250634" lon="-4.745064970657042"><ele>691.0</ele><time>2026-04-11T06:36:39.999Z</time></trkpt><trkpt lat="41.626351368837774" lon="-4.745191816156583"><ele>691.0</ele><time>2026-04-11T06:36:40.998Z</time></trkpt><trkpt lat="41.62627137095091" lon="-4.74532274209292"><ele>691.0</ele><time>2026-04-11T06:36:41.998Z</time></trkpt><trkpt lat="41.626220102699136" lon="-4.7454615026387295"><ele>691.0</ele><time>2026-04-11T06:36:42.998Z</time></trkpt><trkpt lat="41.6261638170483" lon="-4.745569656395019"><ele>690.4</ele><time>2026-04-11T06:36:43.998Z</time></trkpt><trkpt lat="41.6260826960519" lon="-4.745608125305414"><ele>689.8</ele><time>2026-04-11T06:36:44.998Z</time></trkpt><trkpt lat="41.62598856635214" lon="-4.745593862181005"><ele>689.1999999999999</ele><time>2026-04-11T06:36:45.998Z</time></trkpt><trkpt lat="41.62588440892558" lon="-4.745582327497531"><ele>688.5999999999999</ele><time>2026-04-11T06:36:46.998Z</time></trkpt><trkpt lat="41.62577937509339" lon="-4.745624725479931"><ele>688.0</ele><time>2026-04-11T06:36:47.998Z</time></trkpt><trkpt lat="41.62566972862268" lon="-4.7457010132014"><ele>688.0</ele><time>2026-04-11T06:36:48.998Z</time></trkpt><trkpt lat="41.62556201837908" lon="-4.745799534685"><ele>688.0</ele><time>2026-04-11T06:36:49.998Z</time></trkpt><trkpt lat="41.625442969795365" lon="-4.7459046146685555"><ele>688.0</ele><time>2026-04-11T06:36:50.998Z</time></trkpt><trkpt lat="41.6253152080138" lon="-4.746009365287345"><ele>688.0</ele><time>2026-04-11T06:36:51.998Z</time></trkpt><trkpt lat="41.62517914002921" lon="-4.746130809272432"><ele>688.3333333333334</ele><time>2026-04-11T06:36:52.998Z</time></trkpt><trkpt lat="41.62504242353451" lon="-4.7462537324200005"><ele>688.6666666666666</ele><time>2026-04-11T06:36:53.998Z</time></trkpt><trkpt lat="41.62492069309282" lon="-4.746362047692224"><ele>689.0</ele><time>2026-04-11T06:36:54.998Z</time></trkpt><trkpt lat="41.624800987237954" lon="-4.74647156861157"><ele>689.0</ele><time>2026-04-11T06:36:55.998Z</time></trkpt><trkpt lat="41.62468325048916" lon="-4.746572085667475"><ele>689.0</ele><time>2026-04-11T06:36:56.998Z</time></trkpt><trkpt lat="41.624576300625534" lon="-4.746661209380316"><ele>689.0</ele><time>2026-04-11T06:36:57.998Z</time></trkpt><trkpt lat="41.62448048345279" lon="-4.7467459284258275"><ele>689.0</ele><time>2026-04-11T06:36:58.998Z</time></trkpt><trkpt lat="41.62439945633499" lon="-4.746832819990273"><ele>689.0</ele><time>2026-04-11T06:36:59.998Z</time></trkpt><trkpt lat="41.62431968985043" lon="-4.746906971571262"><ele>689.0</ele><time>2026-04-11T06:37:00.998Z</time></trkpt><trkpt lat="41.62424470544197" lon="-4.746974820885454"><ele>689.0</ele><time>2026-04-11T06:37:01.998Z</time></trkpt><trkpt lat="41.62418049687835" lon="-4.747035030870077"><ele>689.0</ele><time>2026-04-11T06:37:02.998Z</time></trkpt><trkpt lat="41.6241180486855" lon="-4.747078094818974"><ele>689.0</ele><time>2026-04-11T06:37:03.998Z</time></trkpt><trkpt lat="41.62404753834881" lon="-4.747146226012878"><ele>689.0</ele><time>2026-04-11T06:37:05.998Z</time></trkpt><trkpt lat="41.62398735758284" lon="-4.747218795962022"><ele>689.0</ele><time>2026-04-11T06:37:37Z</time></trkpt><trkpt lat="41.6239112577591" lon="-4.747277918436162"><ele>689.0</ele><time>2026-04-11T06:37:39Z</time></trkpt><trkpt lat="41.62381448364015" lon="-4.747374654466934"><ele>689.0</ele><time>2026-04-11T06:37:41Z</time></trkpt><trkpt lat="41.62375782752904" lon="-4.747425100141265"><ele>689.0</ele><time>2026-04-11T06:37:42Z</time></trkpt><trkpt lat="41.62368643583731" lon="-4.747482473541723"><ele>689.0</ele><time>2026-04-11T06:37:43Z</time></trkpt><trkpt lat="41.62360637356577" lon="-4.747551931560141"><ele>689.0</ele><time>2026-04-11T06:37:44Z</time></trkpt><trkpt lat="41.6235205963889" lon="-4.747617286472444"><ele>689.0</ele><time>2026-04-11T06:37:45Z</time></trkpt><trkpt lat="41.62344180948476" lon="-4.747672744102545"><ele>689.0</ele><time>2026-04-11T06:37:46Z</time></trkpt><trkpt lat="41.623350064159354" lon="-4.74772888999476"><ele>689.0</ele><time>2026-04-11T06:37:47Z</time></trkpt><trkpt lat="41.62323496583445" lon="-4.747787862408547"><ele>689.0</ele><time>2026-04-11T06:37:48Z</time></trkpt><trkpt lat="41.623116321750906" lon="-4.747850428340989"><ele>689.0</ele><time>2026-04-11T06:37:49Z</time></trkpt><trkpt lat="41.622989140530116" lon="-4.747916953449574"><ele>689.0</ele><time>2026-04-11T06:37:50Z</time></trkpt><trkpt lat="41.62287092496832" lon="-4.747993919433941"><ele>689.0</ele><time>2026-04-11T06:37:51Z</time></trkpt><trkpt lat="41.62277305681305" lon="-4.748088792940399"><ele>689.0</ele><time>2026-04-11T06:37:52Z</time></trkpt><trkpt lat="41.62268439547982" lon="-4.748205801743628"><ele>689.5</ele><time>2026-04-11T06:37:53Z</time></trkpt><trkpt lat="41.62260586607343" lon="-4.748314800645673"><ele>690.0</ele><time>2026-04-11T06:37:54Z</time></trkpt><trkpt lat="41.62251298153627" lon="-4.74838918068919"><ele>690.5</ele><time>2026-04-11T06:37:55Z</time></trkpt><trkpt lat="41.62239513390914" lon="-4.748414722091375"><ele>691.0</ele><time>2026-04-11T06:37:56Z</time></trkpt><trkpt lat="41.622278424197866" lon="-4.748402708317998"><ele>691.0</ele><time>2026-04-11T06:37:57Z</time></trkpt><trkpt lat="41.6221831695055" lon="-4.7484086367049025"><ele>691.0</ele><time>2026-04-11T06:37:58Z</time></trkpt><trkpt lat="41.62209060800624" lon="-4.748587734779915"><ele>691.0</ele><time>2026-04-11T06:37:59.999Z</time></trkpt><trkpt lat="41.62207809109791" lon="-4.748730300934257"><ele>691.0</ele><time>2026-04-11T06:38:00.999Z</time></trkpt><trkpt lat="41.622063457434116" lon="-4.748894470696427"><ele>691.0</ele><time>2026-04-11T06:38:01.999Z</time></trkpt><trkpt lat="41.62202636104252" lon="-4.749065944387769"><ele>691.0</ele><time>2026-04-11T06:38:02.999Z</time></trkpt><trkpt lat="41.62195607835225" lon="-4.749221263269438"><ele>691.0</ele><time>2026-04-11T06:38:03.999Z</time></trkpt><trkpt lat="41.62185492810735" lon="-4.749335956669683"><ele>691.0</ele><time>2026-04-11T06:38:04.999Z</time></trkpt><trkpt lat="41.62173580152827" lon="-4.749426105511484"><ele>689.75</ele><time>2026-04-11T06:38:05.999Z</time></trkpt><trkpt lat="41.62161887627168" lon="-4.7495216488899805"><ele>688.5</ele><time>2026-04-11T06:38:06.999Z</time></trkpt><trkpt lat="41.621503949827606" lon="-4.749627830072772"><ele>687.25</ele><time>2026-04-11T06:38:07.999Z</time></trkpt><trkpt lat="41.62139347711308" lon="-4.749740767337097"><ele>686.0</ele><time>2026-04-11T06:38:08.999Z</time></trkpt><trkpt lat="41.62128079644655" lon="-4.749851793224062"><ele>686.0</ele><time>2026-04-11T06:38:09.999Z</time></trkpt><trkpt lat="41.62117559470929" lon="-4.749953308309315"><ele>686.0</ele><time>2026-04-11T06:38:10.999Z</time></trkpt><trkpt lat="41.621076603439306" lon="-4.75004340401374"><ele>686.0</ele><time>2026-04-11T06:38:11.999Z</time></trkpt><trkpt lat="41.62097941364575" lon="-4.750131368313531"><ele>686.0</ele><time>2026-04-11T06:38:12.999Z</time></trkpt><trkpt lat="41.62088332210781" lon="-4.7502272273672475"><ele>686.0</ele><time>2026-04-11T06:38:13.999Z</time></trkpt><trkpt lat="41.620780142282136" lon="-4.750332956624634"><ele>686.0</ele><time>2026-04-11T06:38:14.999Z</time></trkpt><trkpt lat="41.62067092532067" lon="-4.7504427061391725"><ele>686.0</ele><time>2026-04-11T06:38:15.999Z</time></trkpt><trkpt lat="41.62055812558829" lon="-4.750555256122543"><ele>686.0</ele><time>2026-04-11T06:38:16.999Z</time></trkpt><trkpt lat="41.620444612052374" lon="-4.750668586762143"><ele>686.0</ele><time>2026-04-11T06:38:17.999Z</time></trkpt><trkpt lat="41.62032790981384" lon="-4.7507819646721945"><ele>686.0</ele><time>2026-04-11T06:38:18.999Z</time></trkpt><trkpt lat="41.62020840900942" lon="-4.750896042756678"><ele>686.0</ele><time>2026-04-11T06:38:19.999Z</time></trkpt><trkpt lat="41.62009135130665" lon="-4.751010057204825"><ele>686.0</ele><time>2026-04-11T06:38:20.999Z</time></trkpt><trkpt lat="41.61998690413044" lon="-4.751110599349664"><ele>686.0</ele><time>2026-04-11T06:38:21.999Z</time></trkpt><trkpt lat="41.61988847732179" lon="-4.7512026615356735"><ele>686.0</ele><time>2026-04-11T06:38:22.999Z</time></trkpt><trkpt lat="41.61979597540391" lon="-4.751288463598093"><ele>686.0</ele><time>2026-04-11T06:38:23.999Z</time></trkpt><trkpt lat="41.61969289266861" lon="-4.751379842439171"><ele>686.0</ele><time>2026-04-11T06:38:24.999Z</time></trkpt><trkpt lat="41.619586079811924" lon="-4.751467705831988"><ele>686.75</ele><time>2026-04-11T06:38:25.999Z</time></trkpt><trkpt lat="41.61948059753465" lon="-4.7515553131028"><ele>687.5</ele><time>2026-04-11T06:38:26.999Z</time></trkpt><trkpt lat="41.61937175054942" lon="-4.751640878335201"><ele>688.25</ele><time>2026-04-11T06:38:27.999Z</time></trkpt><trkpt lat="41.619261406404455" lon="-4.751721958564672"><ele>689.0</ele><time>2026-04-11T06:38:28.999Z</time></trkpt><trkpt lat="41.61915027210321" lon="-4.751804457740773"><ele>688.0</ele><time>2026-04-11T06:38:29.999Z</time></trkpt><trkpt lat="41.61904222006393" lon="-4.751882393503957"><ele>687.0</ele><time>2026-04-11T06:38:30.999Z</time></trkpt><trkpt lat="41.61892905835192" lon="-4.751965477832739"><ele>686.0</ele><time>2026-04-11T06:38:31.999Z</time></trkpt><trkpt lat="41.618810893242895" lon="-4.752048229303573"><ele>685.0</ele><time>2026-04-11T06:38:32.999Z</time></trkpt><trkpt lat="41.618709075609154" lon="-4.752120978419348"><ele>685.5</ele><time>2026-04-11T06:38:33.999Z</time></trkpt><trkpt lat="41.61861321127462" lon="-4.752186112428867"><ele>686.0</ele><time>2026-04-11T06:38:34.999Z</time></trkpt><trkpt lat="41.61850758859342" lon="-4.752252356025807"><ele>686.5</ele><time>2026-04-11T06:38:35.999Z</time></trkpt><trkpt lat="41.61839686619632" lon="-4.752320650232299"><ele>687.0</ele><time>2026-04-11T06:38:36.999Z</time></trkpt><trkpt lat="41.61829004729856" lon="-4.752385900693964"><ele>687.0</ele><time>2026-04-11T06:38:37.999Z</time></trkpt><trkpt lat="41.61820103749902" lon="-4.75244411888317"><ele>687.0</ele><time>2026-04-11T06:38:38.999Z</time></trkpt><trkpt lat="41.61810602137605" lon="-4.752505875886158"><ele>687.0</ele><time>2026-04-11T06:38:39.999Z</time></trkpt><trkpt lat="41.618007134332814" lon="-4.7525661060799544"><ele>687.0</ele><time>2026-04-11T06:38:40.999Z</time></trkpt><trkpt lat="41.61791449482241" lon="-4.752626372721404"><ele>687.0</ele><time>2026-04-11T06:38:41.999Z</time></trkpt><trkpt lat="41.617825955307566" lon="-4.752682107710727"><ele>686.2</ele><time>2026-04-11T06:38:42.999Z</time></trkpt><trkpt lat="41.61773258411573" lon="-4.752741545897572"><ele>685.4000000000001</ele><time>2026-04-11T06:38:43.999Z</time></trkpt><trkpt lat="41.617644105257185" lon="-4.752802167595264"><ele>684.5999999999999</ele><time>2026-04-11T06:38:44.999Z</time></trkpt><trkpt lat="41.6175532606733" lon="-4.7528567005316695"><ele>683.8</ele><time>2026-04-11T06:38:45.999Z</time></trkpt><trkpt lat="41.61744806318204" lon="-4.752920511769952"><ele>683.0</ele><time>2026-04-11T06:38:46.999Z</time></trkpt><trkpt lat="41.6173372274882" lon="-4.7529865268847065"><ele>683.0</ele><time>2026-04-11T06:38:47.999Z</time></trkpt><trkpt lat="41.61723253914754" lon="-4.7530505090874"><ele>683.0</ele><time>2026-04-11T06:38:48.998Z</time></trkpt><trkpt lat="41.617110005335284" lon="-4.753112467183817"><ele>683.0</ele><time>2026-04-11T06:38:49.998Z</time></trkpt><trkpt lat="41.61698412774743" lon="-4.7531744409588335"><ele>683.0</ele><time>2026-04-11T06:38:50.998Z</time></trkpt><trkpt lat="41.61685865576592" lon="-4.753226182009834"><ele>683.4</ele><time>2026-04-11T06:38:51.998Z</time></trkpt><trkpt lat="41.6167502186097" lon="-4.753278825827955"><ele>683.8</ele><time>2026-04-11T06:38:52.998Z</time></trkpt><trkpt lat="41.616649129573965" lon="-4.753331974795044"><ele>684.2</ele><time>2026-04-11T06:38:53.998Z</time></trkpt><trkpt lat="41.61655441115756" lon="-4.753388510332613"><ele>684.6</ele><time>2026-04-11T06:38:54.998Z</time></trkpt><trkpt lat="41.61645154480037" lon="-4.753451045681715"><ele>685.0</ele><time>2026-04-11T06:38:55.998Z</time></trkpt><trkpt lat="41.61634410465007" lon="-4.753519499826827"><ele>685.0</ele><time>2026-04-11T06:38:56.998Z</time></trkpt><trkpt lat="41.6162353124167" lon="-4.75359443723015"><ele>685.0</ele><time>2026-04-11T06:38:57.998Z</time></trkpt><trkpt lat="41.61612579466269" lon="-4.753677745166014"><ele>685.0</ele><time>2026-04-11T06:38:58.998Z</time></trkpt><trkpt lat="41.616019482589074" lon="-4.753776714006234"><ele>685.0</ele><time>2026-04-11T06:38:59.998Z</time></trkpt><trkpt lat="41.615921959776216" lon="-4.753885465455138"><ele>685.75</ele><time>2026-04-11T06:39:00.998Z</time></trkpt><trkpt lat="41.61582901413502" lon="-4.754006113566336"><ele>686.5</ele><time>2026-04-11T06:39:01.998Z</time></trkpt><trkpt lat="41.61574519092" lon="-4.754129388376104"><ele>687.25</ele><time>2026-04-11T06:39:02.998Z</time></trkpt><trkpt lat="41.61565679999353" lon="-4.754249068207893"><ele>688.0</ele><time>2026-04-11T06:39:03.998Z</time></trkpt><trkpt lat="41.6155602491415" lon="-4.754352729418681"><ele>688.0</ele><time>2026-04-11T06:39:04.998Z</time></trkpt><trkpt lat="41.61544875632549" lon="-4.754429436542703"><ele>688.0</ele><time>2026-04-11T06:39:05.998Z</time></trkpt><trkpt lat="41.61533289973895" lon="-4.7545035082264695"><ele>688.0</ele><time>2026-04-11T06:39:06.998Z</time></trkpt><trkpt lat="41.61522026037751" lon="-4.754583889717199"><ele>688.0</ele><time>2026-04-11T06:39:07.998Z</time></trkpt><trkpt lat="41.6151146425864" lon="-4.754667555278265"><ele>688.25</ele><time>2026-04-11T06:39:08.998Z</time></trkpt><trkpt lat="41.6150041248531" lon="-4.7547492034008725"><ele>688.5</ele><time>2026-04-11T06:39:09.998Z</time></trkpt><trkpt lat="41.61488674827605" lon="-4.75483803307879"><ele>688.75</ele><time>2026-04-11T06:39:10.998Z</time></trkpt><trkpt lat="41.61477264256568" lon="-4.754918216781702"><ele>689.0</ele><time>2026-04-11T06:39:11.998Z</time></trkpt><trkpt lat="41.61465975967533" lon="-4.754996827634169"><ele>689.0</ele><time>2026-04-11T06:39:12.998Z</time></trkpt><trkpt lat="41.61455212537371" lon="-4.7550777192270965"><ele>689.0</ele><time>2026-04-11T06:39:13.998Z</time></trkpt><trkpt lat="41.61443881686769" lon="-4.755162899899376"><ele>689.0</ele><time>2026-04-11T06:39:14.998Z</time></trkpt><trkpt lat="41.61432642199188" lon="-4.755245853462351"><ele>689.0</ele><time>2026-04-11T06:39:15.998Z</time></trkpt><trkpt lat="41.61420905148559" lon="-4.755330590732754"><ele>688.75</ele><time>2026-04-11T06:39:16.998Z</time></trkpt><trkpt lat="41.61408917901532" lon="-4.75542234312041"><ele>688.5</ele><time>2026-04-11T06:39:18Z</time></trkpt><trkpt lat="41.613970331220834" lon="-4.755514375206375"><ele>688.25</ele><time>2026-04-11T06:39:19Z</time></trkpt><trkpt lat="41.61384917605799" lon="-4.7556025414145235"><ele>688.0</ele><time>2026-04-11T06:39:20Z</time></trkpt><trkpt lat="41.613723580378235" lon="-4.755683829938402"><ele>688.5</ele><time>2026-04-11T06:39:21Z</time></trkpt><trkpt lat="41.61359457441006" lon="-4.755755529681203"><ele>689.0</ele><time>2026-04-11T06:39:22Z</time></trkpt><trkpt lat="41.61346245881225" lon="-4.7558258682821615"><ele>689.5</ele><time>2026-04-11T06:39:23Z</time></trkpt><trkpt lat="41.61333054512039" lon="-4.755893605678499"><ele>690.0</ele><time>2026-04-11T06:39:24Z</time></trkpt><trkpt lat="41.613198405657066" lon="-4.755966332663155"><ele>689.5</ele><time>2026-04-11T06:39:25Z</time></trkpt><trkpt lat="41.613067335385615" lon="-4.756045858364964"><ele>689.0</ele><time>2026-04-11T06:39:26Z</time></trkpt><trkpt lat="41.61293195670381" lon="-4.756123508630109"><ele>688.5</ele><time>2026-04-11T06:39:27Z</time></trkpt><trkpt lat="41.61279365254797" lon="-4.756201333694788"><ele>688.0</ele><time>2026-04-11T06:39:28Z</time></trkpt><trkpt lat="41.6126541746296" lon="-4.7562833438347445"><ele>688.0</ele><time>2026-04-11T06:39:29Z</time></trkpt><trkpt lat="41.61251982219817" lon="-4.756357234471742"><ele>688.0</ele><time>2026-04-11T06:39:30Z</time></trkpt><trkpt lat="41.61240492987654" lon="-4.75642657025534"><ele>688.0</ele><time>2026-04-11T06:39:31Z</time></trkpt><trkpt lat="41.61230022450346" lon="-4.756488020564468"><ele>688.0</ele><time>2026-04-11T06:39:32Z</time></trkpt><trkpt lat="41.61219885328229" lon="-4.756556496119974"><ele>688.0</ele><time>2026-04-11T06:39:33Z</time></trkpt><trkpt lat="41.61208969501855" lon="-4.75663678766164"><ele>688.0</ele><time>2026-04-11T06:39:34Z</time></trkpt><trkpt lat="41.61197046968949" lon="-4.756737003113466"><ele>688.0</ele><time>2026-04-11T06:39:35Z</time></trkpt><trkpt lat="41.61184336063339" lon="-4.756845799267483"><ele>688.0</ele><time>2026-04-11T06:39:36Z</time></trkpt><trkpt lat="41.611714603137315" lon="-4.75695047474854"><ele>687.5</ele><time>2026-04-11T06:39:37Z</time></trkpt><trkpt lat="41.61158780082106" lon="-4.757051211153276"><ele>687.0</ele><time>2026-04-11T06:39:38Z</time></trkpt><trkpt lat="41.6114738308156" lon="-4.7571402538406735"><ele>686.5</ele><time>2026-04-11T06:39:39Z</time></trkpt><trkpt lat="41.61136775854264" lon="-4.7572233935450985"><ele>686.0</ele><time>2026-04-11T06:39:40Z</time></trkpt><trkpt lat="41.61125698118993" lon="-4.757312481706903"><ele>686.5</ele><time>2026-04-11T06:39:41Z</time></trkpt><trkpt lat="41.61114064041413" lon="-4.757407691069007"><ele>687.0</ele><time>2026-04-11T06:39:42Z</time></trkpt><trkpt lat="41.61102948377311" lon="-4.75749620681549"><ele>687.5</ele><time>2026-04-11T06:39:43Z</time></trkpt><trkpt lat="41.610924142028985" lon="-4.757580895246372"><ele>688.0</ele><time>2026-04-11T06:39:44Z</time></trkpt><trkpt lat="41.61081043974144" lon="-4.757665844228916"><ele>688.0</ele><time>2026-04-11T06:39:45Z</time></trkpt><trkpt lat="41.61068899367179" lon="-4.757757456898566"><ele>688.0</ele><time>2026-04-11T06:39:46Z</time></trkpt><trkpt lat="41.61057937643787" lon="-4.757862034924963"><ele>688.0</ele><time>2026-04-11T06:39:47Z</time></trkpt><trkpt lat="41.610475085275915" lon="-4.757998948485738"><ele>688.0</ele><time>2026-04-11T06:39:48Z</time></trkpt><trkpt lat="41.61037707520103" lon="-4.758143177384265"><ele>688.5</ele><time>2026-04-11T06:39:49Z</time></trkpt><trkpt lat="41.61027732682477" lon="-4.758286516112001"><ele>689.0</ele><time>2026-04-11T06:39:50Z</time></trkpt><trkpt lat="41.61017831509415" lon="-4.758416649941727"><ele>689.5</ele><time>2026-04-11T06:39:51Z</time></trkpt><trkpt lat="41.610090039903824" lon="-4.758531480258153"><ele>690.0</ele><time>2026-04-11T06:39:52Z</time></trkpt><trkpt lat="41.610012731586295" lon="-4.758609586951573"><ele>690.0</ele><time>2026-04-11T06:39:53Z</time></trkpt><trkpt lat="41.60994520441189" lon="-4.758637250521678"><ele>690.0</ele><time>2026-04-11T06:39:54Z</time></trkpt><trkpt lat="41.60987440525488" lon="-4.758619165446706"><ele>690.0</ele><time>2026-04-11T06:39:55Z</time></trkpt><trkpt lat="41.60980861573209" lon="-4.758557273930075"><ele>690.0</ele><time>2026-04-11T06:39:56Z</time></trkpt><trkpt lat="41.60973925495206" lon="-4.758488312870577"><ele>690.0</ele><time>2026-04-11T06:39:57Z</time></trkpt><trkpt lat="41.6096838785008" lon="-4.758446708895358"><ele>690.0</ele><time>2026-04-11T06:39:58Z</time></trkpt><trkpt lat="41.609582292838596" lon="-4.7585657821187315"><ele>690.5</ele><time>2026-04-11T06:39:59Z</time></trkpt><trkpt lat="41.609480277622666" lon="-4.758618227445413"><ele>691.0</ele><time>2026-04-11T06:40:00Z</time></trkpt><trkpt lat="41.60937405098476" lon="-4.758684951130001"><ele>691.5</ele><time>2026-04-11T06:40:01Z</time></trkpt><trkpt lat="41.609259670409294" lon="-4.758748344530452"><ele>692.0</ele><time>2026-04-11T06:40:02Z</time></trkpt><trkpt lat="41.60914156533392" lon="-4.758818513065378"><ele>692.0</ele><time>2026-04-11T06:40:03Z</time></trkpt><trkpt lat="41.609021367681606" lon="-4.758891348461321"><ele>692.0</ele><time>2026-04-11T06:40:04Z</time></trkpt><trkpt lat="41.608891837127416" lon="-4.7589637160286715"><ele>692.0</ele><time>2026-04-11T06:40:04.999Z</time></trkpt><trkpt lat="41.608761527875785" lon="-4.759044262061937"><ele>692.0</ele><time>2026-04-11T06:40:05.999Z</time></trkpt><trkpt lat="41.608628303432695" lon="-4.759121926486071"><ele>690.3333333333333</ele><time>2026-04-11T06:40:06.999Z</time></trkpt><trkpt lat="41.6084932612186" lon="-4.759203530227015"><ele>688.6666666666666</ele><time>2026-04-11T06:40:07.999Z</time></trkpt><trkpt lat="41.608354746756035" lon="-4.759293845834022"><ele>687.0</ele><time>2026-04-11T06:40:08.999Z</time></trkpt><trkpt lat="41.60820542276304" lon="-4.759372621759969"><ele>687.0</ele><time>2026-04-11T06:40:09.999Z</time></trkpt><trkpt lat="41.60805729468576" lon="-4.759461854226172"><ele>687.0</ele><time>2026-04-11T06:40:10.999Z</time></trkpt><trkpt lat="41.60790299818958" lon="-4.7595503608612795"><ele>687.0</ele><time>2026-04-11T06:40:11.999Z</time></trkpt><trkpt lat="41.607747162976445" lon="-4.759644374446438"><ele>687.0</ele><time>2026-04-11T06:40:12.999Z</time></trkpt><trkpt lat="41.60760327194349" lon="-4.75974500338187"><ele>687.0</ele><time>2026-04-11T06:40:13.999Z</time></trkpt><trkpt lat="41.607470516819795" lon="-4.759864326214686"><ele>687.0</ele><time>2026-04-11T06:40:14.999Z</time></trkpt><trkpt lat="41.60734668766869" lon="-4.760007733601843"><ele>687.0</ele><time>2026-04-11T06:40:15.999Z</time></trkpt><trkpt lat="41.60721974834004" lon="-4.760170770222355"><ele>687.0</ele><time>2026-04-11T06:40:16.999Z</time></trkpt><trkpt lat="41.60709160266652" lon="-4.7603386957082465"><ele>687.0</ele><time>2026-04-11T06:40:17.999Z</time></trkpt><trkpt lat="41.60694708860317" lon="-4.760485644852197"><ele>688.0</ele><time>2026-04-11T06:40:18.999Z</time></trkpt><trkpt lat="41.60678563880004" lon="-4.760598078952633"><ele>689.0</ele><time>2026-04-11T06:40:19.999Z</time></trkpt><trkpt lat="41.60662365635793" lon="-4.76071939983536"><ele>690.0</ele><time>2026-04-11T06:40:20.999Z</time></trkpt><trkpt lat="41.606461011851195" lon="-4.760821236210009"><ele>690.0</ele><time>2026-04-11T06:40:21.999Z</time></trkpt><trkpt lat="41.606300685976535" lon="-4.7609168073812596"><ele>690.0</ele><time>2026-04-11T06:40:22.999Z</time></trkpt><trkpt lat="41.60613477688802" lon="-4.761011426501079"><ele>690.0</ele><time>2026-04-11T06:40:23.999Z</time></trkpt><trkpt lat="41.60596657765763" lon="-4.761110112693308"><ele>688.6666666666666</ele><time>2026-04-11T06:40:24.999Z</time></trkpt><trkpt lat="41.605799562178646" lon="-4.761210062519874"><ele>687.3333333333333</ele><time>2026-04-11T06:40:25.999Z</time></trkpt><trkpt lat="41.60563007181485" lon="-4.761311493442851"><ele>686.0</ele><time>2026-04-11T06:40:26.999Z</time></trkpt><trkpt lat="41.6054656529514" lon="-4.761410633532944"><ele>686.3333333333333</ele><time>2026-04-11T06:40:27.999Z</time></trkpt><trkpt lat="41.605296763919235" lon="-4.761515334534351"><ele>686.6666666666666</ele><time>2026-04-11T06:40:28.999Z</time></trkpt><trkpt lat="41.60513307148648" lon="-4.7616167659475614"><ele>687.0</ele><time>2026-04-11T06:40:29.999Z</time></trkpt><trkpt lat="41.60495641224511" lon="-4.761723438144204"><ele>687.0</ele><time>2026-04-11T06:40:30.999Z</time></trkpt><trkpt lat="41.60477394180917" lon="-4.761833619224314"><ele>687.0</ele><time>2026-04-11T06:40:31.999Z</time></trkpt><trkpt lat="41.604579503851866" lon="-4.761946232735518"><ele>687.0</ele><time>2026-04-11T06:40:32.999Z</time></trkpt><trkpt lat="41.604385317598215" lon="-4.7620490173745305"><ele>687.6666666666666</ele><time>2026-04-11T06:40:33.999Z</time></trkpt><trkpt lat="41.60418772165114" lon="-4.762131832995707"><ele>688.3333333333333</ele><time>2026-04-11T06:40:34.999Z</time></trkpt><trkpt lat="41.604001767894026" lon="-4.762223381150483"><ele>689.0</ele><time>2026-04-11T06:40:35.999Z</time></trkpt><trkpt lat="41.60382433577061" lon="-4.762321870075932"><ele>689.0</ele><time>2026-04-11T06:40:36.999Z</time></trkpt><trkpt lat="41.603630033143794" lon="-4.7624009660336215"><ele>689.0</ele><time>2026-04-11T06:40:37.999Z</time></trkpt><trkpt lat="41.60343910527574" lon="-4.762445396818486"><ele>689.0</ele><time>2026-04-11T06:40:38.999Z</time></trkpt><trkpt lat="41.60326634056537" lon="-4.7624714960064605"><ele>689.0</ele><time>2026-04-11T06:40:39.999Z</time></trkpt><trkpt lat="41.60312149362545" lon="-4.76250746826291"><ele>689.0</ele><time>2026-04-11T06:40:40.999Z</time></trkpt><trkpt lat="41.60297857643904" lon="-4.762557580152573"><ele>689.0</ele><time>2026-04-11T06:40:41.999Z</time></trkpt><trkpt lat="41.602837306345414" lon="-4.762688323684637"><ele>690.0</ele><time>2026-04-11T06:40:42.999Z</time></trkpt><trkpt lat="41.60269485679886" lon="-4.762839389541793"><ele>691.0</ele><time>2026-04-11T06:40:43.999Z</time></trkpt><trkpt lat="41.6025385604426" lon="-4.762984588481599"><ele>692.0</ele><time>2026-04-11T06:40:44.999Z</time></trkpt><trkpt lat="41.60237640200214" lon="-4.763125225270839"><ele>692.0</ele><time>2026-04-11T06:40:45.999Z</time></trkpt><trkpt lat="41.60220957430096" lon="-4.763270381781014"><ele>692.0</ele><time>2026-04-11T06:40:46.999Z</time></trkpt><trkpt lat="41.60202945946239" lon="-4.763417759936488"><ele>692.0</ele><time>2026-04-11T06:40:47.999Z</time></trkpt><trkpt lat="41.60183964845401" lon="-4.763553987853465"><ele>690.6666666666666</ele><time>2026-04-11T06:40:48.999Z</time></trkpt><trkpt lat="41.60164280579197" lon="-4.763688437613918"><ele>689.3333333333334</ele><time>2026-04-11T06:40:49.999Z</time></trkpt><trkpt lat="41.601438039350676" lon="-4.7638152507016605"><ele>688.0</ele><time>2026-04-11T06:40:50.999Z</time></trkpt><trkpt lat="41.60122602217373" lon="-4.763931402254565"><ele>689.0</ele><time>2026-04-11T06:40:51.998Z</time></trkpt><trkpt lat="41.601011271188725" lon="-4.764043119049551"><ele>690.0</ele><time>2026-04-11T06:40:52.998Z</time></trkpt><trkpt lat="41.600797442677155" lon="-4.764155111807056"><ele>690.0</ele><time>2026-04-11T06:40:53.998Z</time></trkpt><trkpt lat="41.60058074844334" lon="-4.76426888791598"><ele>690.0</ele><time>2026-04-11T06:40:54.998Z</time></trkpt><trkpt lat="41.60036415373957" lon="-4.764401445834692"><ele>689.5</ele><time>2026-04-11T06:40:55.998Z</time></trkpt><trkpt lat="41.60015401398539" lon="-4.764534626933267"><ele>689.0</ele><time>2026-04-11T06:40:56.998Z</time></trkpt><trkpt lat="41.599942188315694" lon="-4.764659760184684"><ele>689.0</ele><time>2026-04-11T06:40:57.998Z</time></trkpt><trkpt lat="41.599727408195456" lon="-4.764781627220649"><ele>689.0</ele><time>2026-04-11T06:40:58.998Z</time></trkpt><trkpt lat="41.599510449102894" lon="-4.764896652098726"><ele>690.0</ele><time>2026-04-11T06:40:59.998Z</time></trkpt><trkpt lat="41.59929102453762" lon="-4.764994090681277"><ele>691.0</ele><time>2026-04-11T06:41:00.998Z</time></trkpt><trkpt lat="41.59906704965553" lon="-4.7650776155037775"><ele>691.0</ele><time>2026-04-11T06:41:01.998Z</time></trkpt><trkpt lat="41.59885119488858" lon="-4.765175020343289"><ele>691.0</ele><time>2026-04-11T06:41:02.998Z</time></trkpt><trkpt lat="41.59864572028631" lon="-4.765301126020107"><ele>690.0</ele><time>2026-04-11T06:41:03.998Z</time></trkpt><trkpt lat="41.59844373675524" lon="-4.76543764592864"><ele>689.0</ele><time>2026-04-11T06:41:04.998Z</time></trkpt><trkpt lat="41.59824110363206" lon="-4.765573881982209"><ele>689.0</ele><time>2026-04-11T06:41:05.998Z</time></trkpt><trkpt lat="41.59803598537634" lon="-4.765704414633418"><ele>689.0</ele><time>2026-04-11T06:41:06.998Z</time></trkpt><trkpt lat="41.59782846660814" lon="-4.765834967144898"><ele>689.0</ele><time>2026-04-11T06:41:07.998Z</time></trkpt><trkpt lat="41.59762283237173" lon="-4.76596515969505"><ele>689.0</ele><time>2026-04-11T06:41:08.998Z</time></trkpt><trkpt lat="41.597414439050716" lon="-4.766097032672893"><ele>689.0</ele><time>2026-04-11T06:41:09.998Z</time></trkpt><trkpt lat="41.597207935084896" lon="-4.766226730934662"><ele>689.0</ele><time>2026-04-11T06:41:10.998Z</time></trkpt><trkpt lat="41.59699482460634" lon="-4.766362461499346"><ele>688.5</ele><time>2026-04-11T06:41:11.998Z</time></trkpt><trkpt lat="41.59677531960617" lon="-4.766503065714993"><ele>688.0</ele><time>2026-04-11T06:41:12.998Z</time></trkpt><trkpt lat="41.596559692984876" lon="-4.766641464570743"><ele>688.0</ele><time>2026-04-11T06:41:13.998Z</time></trkpt><trkpt lat="41.596340818519295" lon="-4.766779425200373"><ele>688.0</ele><time>2026-04-11T06:41:14.998Z</time></trkpt><trkpt lat="41.59612386724098" lon="-4.766919235524312"><ele>688.6666666666667</ele><time>2026-04-11T06:41:15.998Z</time></trkpt><trkpt lat="41.59592010610063" lon="-4.767052104367688"><ele>689.3333333333334</ele><time>2026-04-11T06:41:16.998Z</time></trkpt><trkpt lat="41.59573889130715" lon="-4.767168841640701"><ele>690.0</ele><time>2026-04-11T06:41:17.998Z</time></trkpt><trkpt lat="41.595586544359264" lon="-4.767264565540218"><ele>690.0</ele><time>2026-04-11T06:41:18.998Z</time></trkpt><trkpt lat="41.59545451998289" lon="-4.767340245924729"><ele>690.0</ele><time>2026-04-11T06:41:19.998Z</time></trkpt><trkpt lat="41.59533212762954" lon="-4.7673872066541865"><ele>690.0</ele><time>2026-04-11T06:41:20.998Z</time></trkpt><trkpt lat="41.59521172392127" lon="-4.767392182966957"><ele>690.0</ele><time>2026-04-11T06:41:21.998Z</time></trkpt><trkpt lat="41.59508715918978" lon="-4.767346592389424"><ele>689.3333333333334</ele><time>2026-04-11T06:41:22.998Z</time></trkpt><trkpt lat="41.594948008506265" lon="-4.767291501869144"><ele>688.6666666666667</ele><time>2026-04-11T06:41:24Z</time></trkpt><trkpt lat="41.59479519949108" lon="-4.767273542562422"><ele>688.0</ele><time>2026-04-11T06:41:25Z</time></trkpt><trkpt lat="41.594643355524724" lon="-4.767240536358453"><ele>688.6666666666667</ele><time>2026-04-11T06:41:26Z</time></trkpt><trkpt lat="41.59447885005613" lon="-4.767228886738768"><ele>689.3333333333334</ele><time>2026-04-11T06:41:27Z</time></trkpt><trkpt lat="41.59430589721739" lon="-4.767258894659224"><ele>690.0</ele><time>2026-04-11T06:41:28Z</time></trkpt><trkpt lat="41.59412428639951" lon="-4.767311563149245"><ele>690.0</ele><time>2026-04-11T06:41:29Z</time></trkpt><trkpt lat="41.59394267525284" lon="-4.767353126398826"><ele>690.0</ele><time>2026-04-11T06:41:30Z</time></trkpt><trkpt lat="41.59377180096462" lon="-4.767412046639378"><ele>690.0</ele><time>2026-04-11T06:41:31Z</time></trkpt><trkpt lat="41.59361811566239" lon="-4.767453625841914"><ele>691.0</ele><time>2026-04-11T06:41:32Z</time></trkpt><trkpt lat="41.59348412527334" lon="-4.767459608220013"><ele>692.0</ele><time>2026-04-11T06:41:33Z</time></trkpt><trkpt lat="41.59337833545993" lon="-4.767428724785642"><ele>693.0</ele><time>2026-04-11T06:41:34Z</time></trkpt><trkpt lat="41.59330586335135" lon="-4.767350385136329"><ele>694.0</ele><time>2026-04-11T06:41:35Z</time></trkpt><trkpt lat="41.59321809937001" lon="-4.767222040716975"><ele>694.0</ele><time>2026-04-11T06:41:36Z</time></trkpt><trkpt lat="41.59311961198175" lon="-4.767074524653756"><ele>694.0</ele><time>2026-04-11T06:41:37Z</time></trkpt><trkpt lat="41.59300163439123" lon="-4.766972457657416"><ele>694.0</ele><time>2026-04-11T06:41:38Z</time></trkpt><trkpt lat="41.59287330635508" lon="-4.766912359294469"><ele>694.0</ele><time>2026-04-11T06:41:39Z</time></trkpt><trkpt lat="41.592742777810415" lon="-4.766876160952214"><ele>694.5</ele><time>2026-04-11T06:41:40Z</time></trkpt><trkpt lat="41.59260037412713" lon="-4.766845750879316"><ele>695.0</ele><time>2026-04-11T06:41:41Z</time></trkpt><trkpt lat="41.59248564639385" lon="-4.766851671050719"><ele>695.5</ele><time>2026-04-11T06:41:42Z</time></trkpt><trkpt lat="41.592393636416936" lon="-4.766808954153176"><ele>696.0</ele><time>2026-04-11T06:41:43Z</time></trkpt><trkpt lat="41.592300423339715" lon="-4.7667012134412685"><ele>696.0</ele><time>2026-04-11T06:41:44Z</time></trkpt><trkpt lat="41.59220444832039" lon="-4.766543321336131"><ele>696.0</ele><time>2026-04-11T06:41:45Z</time></trkpt><trkpt lat="41.59209029630947" lon="-4.766390138384289"><ele>696.0</ele><time>2026-04-11T06:41:46Z</time></trkpt><trkpt lat="41.59198040385605" lon="-4.7662131037028015"><ele>696.3333333333334</ele><time>2026-04-11T06:41:47Z</time></trkpt><trkpt lat="41.5918546788733" lon="-4.766044169624821"><ele>696.6666666666667</ele><time>2026-04-11T06:41:48Z</time></trkpt><trkpt lat="41.59173196496527" lon="-4.76587502070688"><ele>697.0</ele><time>2026-04-11T06:41:49Z</time></trkpt><trkpt lat="41.591624784903004" lon="-4.7657243992055776"><ele>697.0</ele><time>2026-04-11T06:41:50Z</time></trkpt><trkpt lat="41.59151736588956" lon="-4.765600247423381"><ele>697.0</ele><time>2026-04-11T06:41:51Z</time></trkpt><trkpt lat="41.59141825401253" lon="-4.765469180855417"><ele>697.0</ele><time>2026-04-11T06:41:52Z</time></trkpt><trkpt lat="41.59125937054434" lon="-4.7654381522589135"><ele>697.0</ele><time>2026-04-11T06:41:53Z</time></trkpt><trkpt lat="41.59112601586612" lon="-4.765340958229369"><ele>697.75</ele><time>2026-04-11T06:41:54Z</time></trkpt><trkpt lat="41.5909997194054" lon="-4.765257409694597"><ele>698.5</ele><time>2026-04-11T06:41:55Z</time></trkpt><trkpt lat="41.590887630915034" lon="-4.765127838410352"><ele>699.25</ele><time>2026-04-11T06:41:56Z</time></trkpt><trkpt lat="41.590781939433626" lon="-4.764969046647097"><ele>700.0</ele><time>2026-04-11T06:41:57Z</time></trkpt><trkpt lat="41.5906756696537" lon="-4.7648035114458125"><ele>700.0</ele><time>2026-04-11T06:41:58Z</time></trkpt><trkpt lat="41.59056539248858" lon="-4.764618141830766"><ele>700.0</ele><time>2026-04-11T06:41:59Z</time></trkpt><trkpt lat="41.59045909747864" lon="-4.764419873531537"><ele>700.0</ele><time>2026-04-11T06:42:00Z</time></trkpt><trkpt lat="41.59035219053238" lon="-4.764208420364606"><ele>699.3333333333334</ele><time>2026-04-11T06:42:01Z</time></trkpt><trkpt lat="41.59024487573046" lon="-4.763992083378985"><ele>698.6666666666666</ele><time>2026-04-11T06:42:02Z</time></trkpt><trkpt lat="41.59014348389497" lon="-4.763788898488895"><ele>698.0</ele><time>2026-04-11T06:42:03Z</time></trkpt><trkpt lat="41.59003873331827" lon="-4.7635697206211285"><ele>697.3333333333333</ele><time>2026-04-11T06:42:04Z</time></trkpt><trkpt lat="41.589945314279994" lon="-4.763355940658693"><ele>696.6666666666666</ele><time>2026-04-11T06:42:05Z</time></trkpt><trkpt lat="41.58984201343299" lon="-4.763153576348992"><ele>696.0</ele><time>2026-04-11T06:42:06Z</time></trkpt><trkpt lat="41.58975308773459" lon="-4.7629198325492395"><ele>696.3333333333334</ele><time>2026-04-11T06:42:06.999Z</time></trkpt><trkpt lat="41.58966480779854" lon="-4.762682870715915"><ele>696.6666666666667</ele><time>2026-04-11T06:42:07.999Z</time></trkpt><trkpt lat="41.58958098418846" lon="-4.762450056122466"><ele>697.0</ele><time>2026-04-11T06:42:08.999Z</time></trkpt><trkpt lat="41.58949633375175" lon="-4.762210983732887"><ele>697.3333333333334</ele><time>2026-04-11T06:42:09.999Z</time></trkpt><trkpt lat="41.58940567874172" lon="-4.7619753455210585"><ele>697.6666666666666</ele><time>2026-04-11T06:42:10.999Z</time></trkpt><trkpt lat="41.58930933283224" lon="-4.761765938159352"><ele>698.0</ele><time>2026-04-11T06:42:11.999Z</time></trkpt><trkpt lat="41.58920735312916" lon="-4.761573020740465"><ele>698.3333333333333</ele><time>2026-04-11T06:42:12.999Z</time></trkpt><trkpt lat="41.58915917415785" lon="-4.761373033727135"><ele>698.6666666666666</ele><time>2026-04-11T06:42:13.999Z</time></trkpt><trkpt lat="41.589092549164086" lon="-4.761156845884007"><ele>699.0</ele><time>2026-04-11T06:42:14.999Z</time></trkpt><trkpt lat="41.589046159527605" lon="-4.760931149444731"><ele>699.0</ele><time>2026-04-11T06:42:15.999Z</time></trkpt><trkpt lat="41.588990822291315" lon="-4.760709282583522"><ele>699.0</ele><time>2026-04-11T06:42:16.999Z</time></trkpt><trkpt lat="41.588916381733966" lon="-4.760487098331849"><ele>699.0</ele><time>2026-04-11T06:42:17.999Z</time></trkpt><trkpt lat="41.58884032582943" lon="-4.7602643963604"><ele>699.3333333333334</ele><time>2026-04-11T06:42:18.999Z</time></trkpt><trkpt lat="41.58876369218049" lon="-4.760057923095762"><ele>699.6666666666667</ele><time>2026-04-11T06:42:19.999Z</time></trkpt><trkpt lat="41.588681111183995" lon="-4.759879027982751"><ele>700.0</ele><time>2026-04-11T06:42:20.999Z</time></trkpt><trkpt lat="41.588602954686095" lon="-4.759713990809899"><ele>700.25</ele><time>2026-04-11T06:42:21.999Z</time></trkpt><trkpt lat="41.58853086691856" lon="-4.759561768491849"><ele>700.5</ele><time>2026-04-11T06:42:22.999Z</time></trkpt><trkpt lat="41.588462611259615" lon="-4.759416963310779"><ele>700.75</ele><time>2026-04-11T06:42:23.999Z</time></trkpt><trkpt lat="41.58840507944878" lon="-4.759291081073709"><ele>701.0</ele><time>2026-04-11T06:42:24.999Z</time></trkpt><trkpt lat="41.588359483593365" lon="-4.759178063488118"><ele>701.0</ele><time>2026-04-11T06:42:25.999Z</time></trkpt><trkpt lat="41.5883460808153" lon="-4.759071075885401"><ele>701.0</ele><time>2026-04-11T06:42:26.999Z</time></trkpt><trkpt lat="41.58831234047393" lon="-4.758978770022416"><ele>701.0</ele><time>2026-04-11T06:42:27.999Z</time></trkpt><trkpt lat="41.588318980257924" lon="-4.758876819318879"><ele>701.0</ele><time>2026-04-11T06:42:28.999Z</time></trkpt><trkpt lat="41.58832111364252" lon="-4.7587902949451735"><ele>701.0</ele><time>2026-04-11T06:42:29.999Z</time></trkpt><trkpt lat="41.58833253764639" lon="-4.758689109085451"><ele>701.0</ele><time>2026-04-11T06:42:31.999Z</time></trkpt><trkpt lat="41.58827576747127" lon="-4.758650360756178"><ele>701.0</ele><time>2026-04-11T06:42:38.999Z</time></trkpt><trkpt lat="41.588164152344" lon="-4.758598828181578"><ele>701.0</ele><time>2026-04-11T06:42:40.999Z</time></trkpt><trkpt lat="41.5880942736884" lon="-4.758580977114324"><ele>701.0</ele><time>2026-04-11T06:42:41.999Z</time></trkpt><trkpt lat="41.58801755072717" lon="-4.758574312218775"><ele>701.0</ele><time>2026-04-11T06:42:42.999Z</time></trkpt><trkpt lat="41.58791520957679" lon="-4.75858016003562"><ele>701.0</ele><time>2026-04-11T06:42:43.999Z</time></trkpt><trkpt lat="41.587795338376345" lon="-4.758588483299113"><ele>701.0</ele><time>2026-04-11T06:42:44.999Z</time></trkpt><trkpt lat="41.587665595286786" lon="-4.7586039324224965"><ele>700.25</ele><time>2026-04-11T06:42:45.999Z</time></trkpt><trkpt lat="41.58753199225698" lon="-4.7586268764174235"><ele>699.5</ele><time>2026-04-11T06:42:46.999Z</time></trkpt><trkpt lat="41.5873859303744" lon="-4.7586581766795994"><ele>698.75</ele><time>2026-04-11T06:42:47.999Z</time></trkpt><trkpt lat="41.58723515313813" lon="-4.758695082450544"><ele>698.0</ele><time>2026-04-11T06:42:48.999Z</time></trkpt><trkpt lat="41.587079288345" lon="-4.758739267559988"><ele>698.6666666666666</ele><time>2026-04-11T06:42:49.999Z</time></trkpt><trkpt lat="41.5869148342648" lon="-4.75879705849762"><ele>699.3333333333334</ele><time>2026-04-11T06:42:50.999Z</time></trkpt><trkpt lat="41.58674683265208" lon="-4.758862149303245"><ele>700.0</ele><time>2026-04-11T06:42:51.998Z</time></trkpt><trkpt lat="41.58659146033653" lon="-4.758934210315664"><ele>700.0</ele><time>2026-04-11T06:42:52.998Z</time></trkpt><trkpt lat="41.58644747048215" lon="-4.759005543193026"><ele>700.0</ele><time>2026-04-11T06:42:53.998Z</time></trkpt><trkpt lat="41.58628960865237" lon="-4.759091461403706"><ele>700.0</ele><time>2026-04-11T06:42:54.998Z</time></trkpt><trkpt lat="41.58613487298078" lon="-4.75918749285519"><ele>700.0</ele><time>2026-04-11T06:42:55.998Z</time></trkpt><trkpt lat="41.585979367432415" lon="-4.75929029859441"><ele>700.0</ele><time>2026-04-11T06:42:56.998Z</time></trkpt><trkpt lat="41.58582590608938" lon="-4.759398319829065"><ele>700.0</ele><time>2026-04-11T06:42:57.998Z</time></trkpt><trkpt lat="41.585682452610946" lon="-4.759507164126479"><ele>700.0</ele><time>2026-04-11T06:42:58.998Z</time></trkpt><trkpt lat="41.58554720766671" lon="-4.759616778135568"><ele>700.0</ele><time>2026-04-11T06:42:59.998Z</time></trkpt><trkpt lat="41.58541545662832" lon="-4.75973447407635"><ele>700.0</ele><time>2026-04-11T06:43:00.998Z</time></trkpt><trkpt lat="41.58528766472051" lon="-4.759866113428999"><ele>701.3333333333334</ele><time>2026-04-11T06:43:01.998Z</time></trkpt><trkpt lat="41.585156247939956" lon="-4.76001495398702"><ele>702.6666666666666</ele><time>2026-04-11T06:43:02.998Z</time></trkpt><trkpt lat="41.58502377969358" lon="-4.760167198329652"><ele>704.0</ele><time>2026-04-11T06:43:03.998Z</time></trkpt><trkpt lat="41.584888382298274" lon="-4.760319406049368"><ele>704.0</ele><time>2026-04-11T06:43:04.998Z</time></trkpt><trkpt lat="41.58475224410232" lon="-4.760466979315356"><ele>704.0</ele><time>2026-04-11T06:43:05.998Z</time></trkpt><trkpt lat="41.584620244832536" lon="-4.7606048323206736"><ele>704.0</ele><time>2026-04-11T06:43:06.998Z</time></trkpt><trkpt lat="41.58448939923249" lon="-4.760734225237303"><ele>704.0</ele><time>2026-04-11T06:43:07.998Z</time></trkpt><trkpt lat="41.58435420984119" lon="-4.76087185735271"><ele>704.0</ele><time>2026-04-11T06:43:08.998Z</time></trkpt><trkpt lat="41.58421396811418" lon="-4.761015180039768"><ele>704.0</ele><time>2026-04-11T06:43:09.998Z</time></trkpt><trkpt lat="41.58407197984137" lon="-4.761153878124798"><ele>703.6666666666666</ele><time>2026-04-11T06:43:10.998Z</time></trkpt><trkpt lat="41.583924187872036" lon="-4.761276641495934"><ele>703.3333333333334</ele><time>2026-04-11T06:43:11.998Z</time></trkpt><trkpt lat="41.583765242999284" lon="-4.761389344908695"><ele>703.0</ele><time>2026-04-11T06:43:12.998Z</time></trkpt><trkpt lat="41.583597173860085" lon="-4.761505622417646"><ele>702.6666666666667</ele><time>2026-04-11T06:43:13.998Z</time></trkpt><trkpt lat="41.58343579077088" lon="-4.761612305155042"><ele>702.3333333333334</ele><time>2026-04-11T06:43:14.998Z</time></trkpt><trkpt lat="41.583270660713104" lon="-4.761723508262281"><ele>702.0</ele><time>2026-04-11T06:43:15.998Z</time></trkpt><trkpt lat="41.58311052625066" lon="-4.761834105667574"><ele>702.6666666666666</ele><time>2026-04-11T06:43:16.998Z</time></trkpt><trkpt lat="41.582943820573085" lon="-4.76195078964305"><ele>703.3333333333333</ele><time>2026-04-11T06:43:17.998Z</time></trkpt><trkpt lat="41.58277878243913" lon="-4.762063751176621"><ele>704.0</ele><time>2026-04-11T06:43:18.998Z</time></trkpt><trkpt lat="41.582611807208515" lon="-4.762173859146369"><ele>704.0</ele><time>2026-04-11T06:43:19.998Z</time></trkpt><trkpt lat="41.58245030397405" lon="-4.762285107720434"><ele>704.0</ele><time>2026-04-11T06:43:20.998Z</time></trkpt><trkpt lat="41.58228926187995" lon="-4.762397578749086"><ele>704.0</ele><time>2026-04-11T06:43:21.998Z</time></trkpt><trkpt lat="41.58213854419192" lon="-4.762499922360804"><ele>704.0</ele><time>2026-04-11T06:43:22.998Z</time></trkpt><trkpt lat="41.581996806942215" lon="-4.762593804353609"><ele>704.0</ele><time>2026-04-11T06:43:23.998Z</time></trkpt><trkpt lat="41.58184815679988" lon="-4.7626939050355945"><ele>704.0</ele><time>2026-04-11T06:43:24.998Z</time></trkpt><trkpt lat="41.58169946976362" lon="-4.762796368992115"><ele>704.0</ele><time>2026-04-11T06:43:25.998Z</time></trkpt><trkpt lat="41.58155022304997" lon="-4.762897358660466"><ele>704.0</ele><time>2026-04-11T06:43:26.998Z</time></trkpt><trkpt lat="41.58140003859769" lon="-4.7630039242890625"><ele>704.0</ele><time>2026-04-11T06:43:27.998Z</time></trkpt><trkpt lat="41.58125156383467" lon="-4.76310738826321"><ele>702.6666666666666</ele><time>2026-04-11T06:43:28.998Z</time></trkpt><trkpt lat="41.58110455538029" lon="-4.763206146255066"><ele>701.3333333333334</ele><time>2026-04-11T06:43:30Z</time></trkpt><trkpt lat="41.580950830275405" lon="-4.763311819074198"><ele>700.0</ele><time>2026-04-11T06:43:31Z</time></trkpt><trkpt lat="41.58079249813256" lon="-4.763424657907548"><ele>699.6666666666667</ele><time>2026-04-11T06:43:32Z</time></trkpt><trkpt lat="41.58063679031192" lon="-4.763544575203654"><ele>699.3333333333334</ele><time>2026-04-11T06:43:33Z</time></trkpt><trkpt lat="41.58048409478616" lon="-4.763673261778161"><ele>699.0</ele><time>2026-04-11T06:43:34Z</time></trkpt><trkpt lat="41.58033286131164" lon="-4.763810777603546"><ele>699.0</ele><time>2026-04-11T06:43:35Z</time></trkpt><trkpt lat="41.580185701723494" lon="-4.763950502739076"><ele>699.0</ele><time>2026-04-11T06:43:36Z</time></trkpt><trkpt lat="41.58005061382758" lon="-4.764088416617094"><ele>699.0</ele><time>2026-04-11T06:43:37Z</time></trkpt><trkpt lat="41.5799227087984" lon="-4.764230239639504"><ele>699.6666666666666</ele><time>2026-04-11T06:43:38Z</time></trkpt><trkpt lat="41.579803453726846" lon="-4.764367489449133"><ele>700.3333333333333</ele><time>2026-04-11T06:43:39Z</time></trkpt><trkpt lat="41.57968999856462" lon="-4.764503448344311"><ele>701.0</ele><time>2026-04-11T06:43:40Z</time></trkpt><trkpt lat="41.57957358452963" lon="-4.764646756693214"><ele>700.6666666666666</ele><time>2026-04-11T06:43:41Z</time></trkpt><trkpt lat="41.57946023579876" lon="-4.764799687244134"><ele>700.3333333333334</ele><time>2026-04-11T06:43:42Z</time></trkpt><trkpt lat="41.57934995401929" lon="-4.764947200243967"><ele>700.0</ele><time>2026-04-11T06:43:43Z</time></trkpt><trkpt lat="41.57923769715443" lon="-4.765096541151382"><ele>700.6666666666667</ele><time>2026-04-11T06:43:44Z</time></trkpt><trkpt lat="41.57913154483538" lon="-4.7652487431805275"><ele>701.3333333333334</ele><time>2026-04-11T06:43:45Z</time></trkpt><trkpt lat="41.579030149517585" lon="-4.765408789070678"><ele>702.0</ele><time>2026-04-11T06:43:46Z</time></trkpt><trkpt lat="41.57892099115361" lon="-4.765564616174518"><ele>702.0</ele><time>2026-04-11T06:43:47Z</time></trkpt><trkpt lat="41.57881059184051" lon="-4.765716238659113"><ele>702.0</ele><time>2026-04-11T06:43:48Z</time></trkpt><trkpt lat="41.5787018827645" lon="-4.765869952529496"><ele>702.0</ele><time>2026-04-11T06:43:49Z</time></trkpt><trkpt lat="41.57860209756609" lon="-4.766040930157397"><ele>701.0</ele><time>2026-04-11T06:43:50Z</time></trkpt><trkpt lat="41.57849531546191" lon="-4.766196940852915"><ele>700.0</ele><time>2026-04-11T06:43:51Z</time></trkpt><trkpt lat="41.57838009038457" lon="-4.766344580179388"><ele>699.0</ele><time>2026-04-11T06:43:52Z</time></trkpt><trkpt lat="41.578274461461696" lon="-4.766506307032235"><ele>699.0</ele><time>2026-04-11T06:43:53Z</time></trkpt><trkpt lat="41.57816636393892" lon="-4.7666631425825905"><ele>699.0</ele><time>2026-04-11T06:43:54Z</time></trkpt><trkpt lat="41.57805173400046" lon="-4.76681480481801"><ele>699.0</ele><time>2026-04-11T06:43:55Z</time></trkpt><trkpt lat="41.57794090244437" lon="-4.766979595959826"><ele>700.3333333333334</ele><time>2026-04-11T06:43:56Z</time></trkpt><trkpt lat="41.57783065559627" lon="-4.767136355460775"><ele>701.6666666666667</ele><time>2026-04-11T06:43:57Z</time></trkpt><trkpt lat="41.57772093208605" lon="-4.767291831347314"><ele>703.0</ele><time>2026-04-11T06:43:58Z</time></trkpt><trkpt lat="41.57761280635727" lon="-4.767446119308004"><ele>703.0</ele><time>2026-04-11T06:43:59Z</time></trkpt><trkpt lat="41.577503069696746" lon="-4.767605406682586"><ele>703.0</ele><time>2026-04-11T06:44:00Z</time></trkpt><trkpt lat="41.57739514783749" lon="-4.767761705044795"><ele>703.0</ele><time>2026-04-11T06:44:01Z</time></trkpt><trkpt lat="41.57728774711137" lon="-4.767914626009609"><ele>703.0</ele><time>2026-04-11T06:44:02Z</time></trkpt><trkpt lat="41.57717924496737" lon="-4.768074019600445"><ele>703.0</ele><time>2026-04-11T06:44:03Z</time></trkpt><trkpt lat="41.57706982321784" lon="-4.768226324424907"><ele>703.0</ele><time>2026-04-11T06:44:04Z</time></trkpt><trkpt lat="41.57696670824052" lon="-4.768375955388337"><ele>703.0</ele><time>2026-04-11T06:44:05Z</time></trkpt><trkpt lat="41.57686207837635" lon="-4.768531273601123"><ele>703.0</ele><time>2026-04-11T06:44:06Z</time></trkpt><trkpt lat="41.57675942556013" lon="-4.768681897061205"><ele>703.0</ele><time>2026-04-11T06:44:07Z</time></trkpt><trkpt lat="41.576660432082214" lon="-4.768828523791096"><ele>703.0</ele><time>2026-04-11T06:44:08Z</time></trkpt><trkpt lat="41.576550023883264" lon="-4.768976886347579"><ele>703.0</ele><time>2026-04-11T06:44:09Z</time></trkpt><trkpt lat="41.57643742094021" lon="-4.769141738921683"><ele>703.0</ele><time>2026-04-11T06:44:10Z</time></trkpt><trkpt lat="41.5763107783964" lon="-4.769315955181136"><ele>702.6666666666667</ele><time>2026-04-11T06:44:11Z</time></trkpt><trkpt lat="41.57618360677514" lon="-4.769499444064763"><ele>702.3333333333334</ele><time>2026-04-11T06:44:12Z</time></trkpt><trkpt lat="41.57605743450784" lon="-4.769695011781975"><ele>702.0</ele><time>2026-04-11T06:44:12.999Z</time></trkpt><trkpt lat="41.575921480896746" lon="-4.769881873091965"><ele>702.0</ele><time>2026-04-11T06:44:13.999Z</time></trkpt><trkpt lat="41.575788152406815" lon="-4.770084111891998"><ele>702.0</ele><time>2026-04-11T06:44:14.999Z</time></trkpt><trkpt lat="41.575647868781786" lon="-4.77028301145267"><ele>702.0</ele><time>2026-04-11T06:44:15.999Z</time></trkpt><trkpt lat="41.575506034267974" lon="-4.770480134708936"><ele>702.0</ele><time>2026-04-11T06:44:16.999Z</time></trkpt><trkpt lat="41.575370007433776" lon="-4.770688592900093"><ele>702.0</ele><time>2026-04-11T06:44:17.999Z</time></trkpt><trkpt lat="41.57522400582554" lon="-4.770891794060798"><ele>702.0</ele><time>2026-04-11T06:44:18.999Z</time></trkpt><trkpt lat="41.57507628000606" lon="-4.771089681631253"><ele>701.3333333333334</ele><time>2026-04-11T06:44:19.999Z</time></trkpt><trkpt lat="41.574936433729604" lon="-4.7713070482091755"><ele>700.6666666666667</ele><time>2026-04-11T06:44:20.999Z</time></trkpt><trkpt lat="41.57479340396163" lon="-4.771517171946332"><ele>700.0</ele><time>2026-04-11T06:44:21.999Z</time></trkpt><trkpt lat="41.574644303143394" lon="-4.771719919149072"><ele>700.3333333333334</ele><time>2026-04-11T06:44:22.999Z</time></trkpt><trkpt lat="41.57450492111053" lon="-4.7719320669071985"><ele>700.6666666666666</ele><time>2026-04-11T06:44:23.999Z</time></trkpt><trkpt lat="41.57437206187944" lon="-4.772143220361113"><ele>701.0</ele><time>2026-04-11T06:44:24.999Z</time></trkpt><trkpt lat="41.574234505411596" lon="-4.772338226016403"><ele>701.0</ele><time>2026-04-11T06:44:25.999Z</time></trkpt><trkpt lat="41.574109034013155" lon="-4.772518884436931"><ele>701.0</ele><time>2026-04-11T06:44:26.999Z</time></trkpt><trkpt lat="41.57398307085633" lon="-4.772706620509842"><ele>701.0</ele><time>2026-04-11T06:44:27.999Z</time></trkpt><trkpt lat="41.573856725261095" lon="-4.772897259058858"><ele>700.6666666666666</ele><time>2026-04-11T06:44:28.999Z</time></trkpt><trkpt lat="41.573730997942114" lon="-4.77308276969956"><ele>700.3333333333334</ele><time>2026-04-11T06:44:29.999Z</time></trkpt><trkpt lat="41.57360143994479" lon="-4.773264475515098"><ele>700.0</ele><time>2026-04-11T06:44:30.999Z</time></trkpt><trkpt lat="41.573477993885625" lon="-4.773446648016712"><ele>699.6666666666667</ele><time>2026-04-11T06:44:31.999Z</time></trkpt><trkpt lat="41.57336374912669" lon="-4.773622776491453"><ele>699.3333333333334</ele><time>2026-04-11T06:44:32.999Z</time></trkpt><trkpt lat="41.57325379538481" lon="-4.773791892247228"><ele>699.0</ele><time>2026-04-11T06:44:33.999Z</time></trkpt><trkpt lat="41.573148536490386" lon="-4.773951760111666"><ele>699.0</ele><time>2026-04-11T06:44:34.999Z</time></trkpt><trkpt lat="41.57303354128477" lon="-4.774117962186948"><ele>699.0</ele><time>2026-04-11T06:44:35.999Z</time></trkpt><trkpt lat="41.572919794641585" lon="-4.774278420657687"><ele>699.0</ele><time>2026-04-11T06:44:36.999Z</time></trkpt><trkpt lat="41.57280198213035" lon="-4.774443694293435"><ele>699.0</ele><time>2026-04-11T06:44:37.999Z</time></trkpt><trkpt lat="41.57268659303675" lon="-4.774612383555961"><ele>699.0</ele><time>2026-04-11T06:44:38.999Z</time></trkpt><trkpt lat="41.57257071418238" lon="-4.774785780240639"><ele>699.0</ele><time>2026-04-11T06:44:39.999Z</time></trkpt><trkpt lat="41.57245521170928" lon="-4.774960316039841"><ele>699.0</ele><time>2026-04-11T06:44:40.999Z</time></trkpt><trkpt lat="41.57233448653228" lon="-4.775134731403644"><ele>699.0</ele><time>2026-04-11T06:44:41.999Z</time></trkpt><trkpt lat="41.572212884687225" lon="-4.775310485048858"><ele>699.0</ele><time>2026-04-11T06:44:42.999Z</time></trkpt><trkpt lat="41.572092290533014" lon="-4.775490084788944"><ele>698.6666666666666</ele><time>2026-04-11T06:44:43.999Z</time></trkpt><trkpt lat="41.57196855037886" lon="-4.775670056608961"><ele>698.3333333333333</ele><time>2026-04-11T06:44:44.999Z</time></trkpt><trkpt lat="41.57184477954258" lon="-4.775856307515718"><ele>698.0</ele><time>2026-04-11T06:44:45.999Z</time></trkpt><trkpt lat="41.571720727103845" lon="-4.776038295810051"><ele>698.0</ele><time>2026-04-11T06:44:46.999Z</time></trkpt><trkpt lat="41.57159440528989" lon="-4.776221432161086"><ele>698.0</ele><time>2026-04-11T06:44:47.999Z</time></trkpt><trkpt lat="41.57146539211872" lon="-4.776407999398899"><ele>698.0</ele><time>2026-04-11T06:44:48.999Z</time></trkpt><trkpt lat="41.57134277888067" lon="-4.776590855094204"><ele>698.0</ele><time>2026-04-11T06:44:49.999Z</time></trkpt><trkpt lat="41.57121580084161" lon="-4.776776091157081"><ele>698.0</ele><time>2026-04-11T06:44:50.999Z</time></trkpt><trkpt lat="41.571081860298115" lon="-4.7769717682492"><ele>698.0</ele><time>2026-04-11T06:44:51.999Z</time></trkpt><trkpt lat="41.57094699119185" lon="-4.777165216375471"><ele>698.0</ele><time>2026-04-11T06:44:52.999Z</time></trkpt><trkpt lat="41.57081680935888" lon="-4.7773574489998785"><ele>698.0</ele><time>2026-04-11T06:44:53.999Z</time></trkpt><trkpt lat="41.570689335500255" lon="-4.777546208306078"><ele>698.0</ele><time>2026-04-11T06:44:54.999Z</time></trkpt><trkpt lat="41.57056215772224" lon="-4.777728019676586"><ele>698.0</ele><time>2026-04-11T06:44:55.999Z</time></trkpt><trkpt lat="41.5704337897099" lon="-4.777913992016007"><ele>698.0</ele><time>2026-04-11T06:44:56.998Z</time></trkpt><trkpt lat="41.570304659617875" lon="-4.778103766477757"><ele>698.0</ele><time>2026-04-11T06:44:57.998Z</time></trkpt><trkpt lat="41.57017168779646" lon="-4.778300003044961"><ele>697.3333333333333</ele><time>2026-04-11T06:44:58.998Z</time></trkpt><trkpt lat="41.570035558533284" lon="-4.778498811264536"><ele>696.6666666666666</ele><time>2026-04-11T06:44:59.998Z</time></trkpt><trkpt lat="41.569900401047484" lon="-4.778698068058071"><ele>696.0</ele><time>2026-04-11T06:45:00.998Z</time></trkpt><trkpt lat="41.56976347447934" lon="-4.778898836050994"><ele>696.0</ele><time>2026-04-11T06:45:01.998Z</time></trkpt><trkpt lat="41.569624837340044" lon="-4.779105328379417"><ele>696.0</ele><time>2026-04-11T06:45:02.998Z</time></trkpt><trkpt lat="41.569485838659816" lon="-4.7793167461919"><ele>696.0</ele><time>2026-04-11T06:45:03.998Z</time></trkpt><trkpt lat="41.56934479542314" lon="-4.779525681339404"><ele>696.0</ele><time>2026-04-11T06:45:04.998Z</time></trkpt><trkpt lat="41.56919958340476" lon="-4.7797364149113974"><ele>696.0</ele><time>2026-04-11T06:45:05.998Z</time></trkpt><trkpt lat="41.569051968832895" lon="-4.779945628299816"><ele>696.0</ele><time>2026-04-11T06:45:06.998Z</time></trkpt><trkpt lat="41.56891692341159" lon="-4.780144283103792"><ele>696.3333333333334</ele><time>2026-04-11T06:45:07.998Z</time></trkpt><trkpt lat="41.56879290432956" lon="-4.780327546233389"><ele>696.6666666666667</ele><time>2026-04-11T06:45:08.998Z</time></trkpt><trkpt lat="41.56868104239605" lon="-4.780500183853232"><ele>697.0</ele><time>2026-04-11T06:45:09.998Z</time></trkpt><trkpt lat="41.56856849967635" lon="-4.780670714656713"><ele>696.3333333333334</ele><time>2026-04-11T06:45:10.998Z</time></trkpt><trkpt lat="41.56844568525117" lon="-4.780853533438973"><ele>695.6666666666666</ele><time>2026-04-11T06:45:11.998Z</time></trkpt><trkpt lat="41.56831837709016" lon="-4.781038191139574"><ele>695.0</ele><time>2026-04-11T06:45:12.998Z</time></trkpt><trkpt lat="41.56818756578867" lon="-4.781231214289562"><ele>694.6666666666666</ele><time>2026-04-11T06:45:13.998Z</time></trkpt><trkpt lat="41.56804799361994" lon="-4.781433841618327"><ele>694.3333333333334</ele><time>2026-04-11T06:45:14.998Z</time></trkpt><trkpt lat="41.56789912258022" lon="-4.781648718272355"><ele>694.0</ele><time>2026-04-11T06:45:15.998Z</time></trkpt><trkpt lat="41.56775227807683" lon="-4.781857897503236"><ele>693.6666666666667</ele><time>2026-04-11T06:45:16.998Z</time></trkpt><trkpt lat="41.56760189357099" lon="-4.782072939410872"><ele>693.3333333333334</ele><time>2026-04-11T06:45:17.998Z</time></trkpt><trkpt lat="41.56744818583174" lon="-4.782286586729628"><ele>693.0</ele><time>2026-04-11T06:45:18.998Z</time></trkpt><trkpt lat="41.567284300824625" lon="-4.782493508521877"><ele>693.3333333333334</ele><time>2026-04-11T06:45:19.998Z</time></trkpt><trkpt lat="41.56711876294354" lon="-4.782681963793777"><ele>693.6666666666667</ele><time>2026-04-11T06:45:20.998Z</time></trkpt><trkpt lat="41.56695044236736" lon="-4.782862187686277"><ele>694.0</ele><time>2026-04-11T06:45:21.998Z</time></trkpt><trkpt lat="41.56677457569399" lon="-4.7830278581870065"><ele>693.3333333333334</ele><time>2026-04-11T06:45:22.998Z</time></trkpt><trkpt lat="41.56659094162374" lon="-4.783179815807223"><ele>692.6666666666666</ele><time>2026-04-11T06:45:23.998Z</time></trkpt><trkpt lat="41.56641977678879" lon="-4.783311244270587"><ele>692.0</ele><time>2026-04-11T06:45:24.998Z</time></trkpt><trkpt lat="41.566263768171034" lon="-4.783433026090373"><ele>692.6666666666666</ele><time>2026-04-11T06:45:25.998Z</time></trkpt><trkpt lat="41.566118721603" lon="-4.7835474557657855"><ele>693.3333333333334</ele><time>2026-04-11T06:45:26.998Z</time></trkpt><trkpt lat="41.56598571976373" lon="-4.783657499025713"><ele>694.0</ele><time>2026-04-11T06:45:27.998Z</time></trkpt><trkpt lat="41.56584899975616" lon="-4.783774480169036"><ele>694.0</ele><time>2026-04-11T06:45:28.998Z</time></trkpt><trkpt lat="41.56570277912085" lon="-4.78389715677135"><ele>694.0</ele><time>2026-04-11T06:45:29.998Z</time></trkpt><trkpt lat="41.56555401640096" lon="-4.784023151165259"><ele>694.0</ele><time>2026-04-11T06:45:30.998Z</time></trkpt><trkpt lat="41.565404355469674" lon="-4.784153375563534"><ele>693.6666666666667</ele><time>2026-04-11T06:45:31.998Z</time></trkpt><trkpt lat="41.565251704564254" lon="-4.784278211847724"><ele>693.3333333333334</ele><time>2026-04-11T06:45:32.998Z</time></trkpt><trkpt lat="41.56509335502215" lon="-4.784402733721484"><ele>693.0</ele><time>2026-04-11T06:45:33.998Z</time></trkpt><trkpt lat="41.56492566773008" lon="-4.784535456388271"><ele>693.0</ele><time>2026-04-11T06:45:34.998Z</time></trkpt><trkpt lat="41.56475119434985" lon="-4.784673957885916"><ele>693.0</ele><time>2026-04-11T06:45:36Z</time></trkpt><trkpt lat="41.564571466148365" lon="-4.784817905204051"><ele>693.0</ele><time>2026-04-11T06:45:37Z</time></trkpt><trkpt lat="41.56438533998708" lon="-4.784969554060217"><ele>692.3333333333334</ele><time>2026-04-11T06:45:38Z</time></trkpt><trkpt lat="41.564199350279786" lon="-4.785124751173389"><ele>691.6666666666667</ele><time>2026-04-11T06:45:39Z</time></trkpt><trkpt lat="41.564014046298986" lon="-4.78527572104069"><ele>691.0</ele><time>2026-04-11T06:45:40Z</time></trkpt><trkpt lat="41.563829932297324" lon="-4.785424629517869"><ele>690.6666666666667</ele><time>2026-04-11T06:45:41Z</time></trkpt><trkpt lat="41.56364863437968" lon="-4.7855732170161245"><ele>690.3333333333334</ele><time>2026-04-11T06:45:42Z</time></trkpt><trkpt lat="41.563473985035856" lon="-4.785714953175569"><ele>690.0</ele><time>2026-04-11T06:45:43Z</time></trkpt><trkpt lat="41.56331489233484" lon="-4.785842542598164"><ele>690.0</ele><time>2026-04-11T06:45:44Z</time></trkpt><trkpt lat="41.563167653205305" lon="-4.785959250339334"><ele>690.0</ele><time>2026-04-11T06:45:45Z</time></trkpt><trkpt lat="41.56302802394569" lon="-4.786064860367463"><ele>690.0</ele><time>2026-04-11T06:45:46Z</time></trkpt><trkpt lat="41.56289547646851" lon="-4.786158967201666"><ele>690.0</ele><time>2026-04-11T06:45:47Z</time></trkpt><trkpt lat="41.56276788331362" lon="-4.7862509148346986"><ele>690.0</ele><time>2026-04-11T06:45:48Z</time></trkpt><trkpt lat="41.56265322296995" lon="-4.786357129103323"><ele>690.0</ele><time>2026-04-11T06:45:49Z</time></trkpt><trkpt lat="41.56256148148432" lon="-4.786491841907512"><ele>690.0</ele><time>2026-04-11T06:45:50Z</time></trkpt><trkpt lat="41.562494496239005" lon="-4.786649780385305"><ele>690.0</ele><time>2026-04-11T06:45:51Z</time></trkpt><trkpt lat="41.562415088378515" lon="-4.786812963342356"><ele>690.0</ele><time>2026-04-11T06:45:52Z</time></trkpt><trkpt lat="41.56237129198843" lon="-4.786999144293827"><ele>690.0</ele><time>2026-04-11T06:45:53Z</time></trkpt><trkpt lat="41.56229343927909" lon="-4.787136604735386"><ele>690.0</ele><time>2026-04-11T06:45:54Z</time></trkpt><trkpt lat="41.562229132535755" lon="-4.787272581837287"><ele>689.75</ele><time>2026-04-11T06:45:55Z</time></trkpt><trkpt lat="41.562160495634494" lon="-4.787394271598473"><ele>689.5</ele><time>2026-04-11T06:45:56Z</time></trkpt><trkpt lat="41.56211216874945" lon="-4.787541904985237"><ele>689.25</ele><time>2026-04-11T06:45:57Z</time></trkpt><trkpt lat="41.56214290989518" lon="-4.78776679207144"><ele>689.0</ele><time>2026-04-11T06:45:58Z</time></trkpt><trkpt lat="41.562176837885495" lon="-4.787993750052478"><ele>689.0</ele><time>2026-04-11T06:45:59Z</time></trkpt><trkpt lat="41.56221042703572" lon="-4.7882268073850485"><ele>689.0</ele><time>2026-04-11T06:46:00Z</time></trkpt><trkpt lat="41.56224087446814" lon="-4.788473086977351"><ele>689.0</ele><time>2026-04-11T06:46:01Z</time></trkpt><trkpt lat="41.56228125736349" lon="-4.788725716948807"><ele>689.0</ele><time>2026-04-11T06:46:02Z</time></trkpt><trkpt lat="41.56233383202366" lon="-4.78896109601509"><ele>689.0</ele><time>2026-04-11T06:46:03Z</time></trkpt><trkpt lat="41.56239971440472" lon="-4.789199266746616"><ele>689.0</ele><time>2026-04-11T06:46:04Z</time></trkpt><trkpt lat="41.562477865047605" lon="-4.789449434728188"><ele>688.6666666666666</ele><time>2026-04-11T06:46:05Z</time></trkpt><trkpt lat="41.56257365220777" lon="-4.78969471378507"><ele>688.3333333333334</ele><time>2026-04-11T06:46:06Z</time></trkpt><trkpt lat="41.56268671217873" lon="-4.78993986041284"><ele>688.0</ele><time>2026-04-11T06:46:07Z</time></trkpt><trkpt lat="41.56281055964961" lon="-4.790185900197681"><ele>689.3333333333334</ele><time>2026-04-11T06:46:08Z</time></trkpt><trkpt lat="41.56293662566379" lon="-4.790436619913676"><ele>690.6666666666666</ele><time>2026-04-11T06:46:09Z</time></trkpt><trkpt lat="41.563056210264094" lon="-4.79068799149723"><ele>692.0</ele><time>2026-04-11T06:46:10Z</time></trkpt><trkpt lat="41.56317321081186" lon="-4.790938236073625"><ele>690.5</ele><time>2026-04-11T06:46:11Z</time></trkpt><trkpt lat="41.56329356262908" lon="-4.791189772599837"><ele>689.0</ele><time>2026-04-11T06:46:12Z</time></trkpt><trkpt lat="41.563417611263795" lon="-4.791447495145425"><ele>689.0</ele><time>2026-04-11T06:46:13Z</time></trkpt><trkpt lat="41.56354004224029" lon="-4.791707477114272"><ele>689.0</ele><time>2026-04-11T06:46:13.999Z</time></trkpt><trkpt lat="41.56366640152471" lon="-4.7919717822620855"><ele>690.0</ele><time>2026-04-11T06:46:14.999Z</time></trkpt><trkpt lat="41.563793968631686" lon="-4.7922402071230294"><ele>691.0</ele><time>2026-04-11T06:46:15.999Z</time></trkpt><trkpt lat="41.56391288621005" lon="-4.792517941388127"><ele>690.5</ele><time>2026-04-11T06:46:16.999Z</time></trkpt><trkpt lat="41.56402464541277" lon="-4.79280605977753"><ele>690.0</ele><time>2026-04-11T06:46:17.999Z</time></trkpt><trkpt lat="41.564120242960115" lon="-4.793102353297525"><ele>690.0</ele><time>2026-04-11T06:46:18.999Z</time></trkpt><trkpt lat="41.564209368286484" lon="-4.793407651915625"><ele>690.0</ele><time>2026-04-11T06:46:19.999Z</time></trkpt><trkpt lat="41.564292600668686" lon="-4.793716203284087"><ele>691.0</ele><time>2026-04-11T06:46:20.999Z</time></trkpt><trkpt lat="41.56436906177205" lon="-4.794035596730002"><ele>692.0</ele><time>2026-04-11T06:46:21.999Z</time></trkpt><trkpt lat="41.564438062051074" lon="-4.794343976588488"><ele>692.5</ele><time>2026-04-11T06:46:22.999Z</time></trkpt><trkpt lat="41.56451039839612" lon="-4.794658897610714"><ele>693.0</ele><time>2026-04-11T06:46:23.999Z</time></trkpt><trkpt lat="41.5645842450854" lon="-4.79497489487747"><ele>693.0</ele><time>2026-04-11T06:46:24.999Z</time></trkpt><trkpt lat="41.56466166037547" lon="-4.795295212452335"><ele>693.0</ele><time>2026-04-11T06:46:25.999Z</time></trkpt><trkpt lat="41.56474244076431" lon="-4.795614222189885"><ele>693.0</ele><time>2026-04-11T06:46:26.999Z</time></trkpt><trkpt lat="41.56481373221408" lon="-4.795932457015517"><ele>693.0</ele><time>2026-04-11T06:46:27.999Z</time></trkpt><trkpt lat="41.564889208018" lon="-4.796252381022627"><ele>693.0</ele><time>2026-04-11T06:46:28.999Z</time></trkpt><trkpt lat="41.56496288710619" lon="-4.796572358203727"><ele>693.0</ele><time>2026-04-11T06:46:29.999Z</time></trkpt><trkpt lat="41.56503636801058" lon="-4.796894778725233"><ele>692.0</ele><time>2026-04-11T06:46:30.999Z</time></trkpt><trkpt lat="41.56510771081469" lon="-4.797214038628507"><ele>691.0</ele><time>2026-04-11T06:46:31.999Z</time></trkpt><trkpt lat="41.565181053899884" lon="-4.797532503657957"><ele>689.0</ele><time>2026-04-11T06:46:32.999Z</time></trkpt><trkpt lat="41.56525730885424" lon="-4.797849262973111"><ele>687.0</ele><time>2026-04-11T06:46:33.999Z</time></trkpt><trkpt lat="41.56534047708444" lon="-4.7981632564572285"><ele>687.0</ele><time>2026-04-11T06:46:34.999Z</time></trkpt><trkpt lat="41.56543449746855" lon="-4.798473725245315"><ele>687.0</ele><time>2026-04-11T06:46:35.999Z</time></trkpt><trkpt lat="41.56553663136711" lon="-4.798775828006094"><ele>687.0</ele><time>2026-04-11T06:46:36.999Z</time></trkpt><trkpt lat="41.56564327403228" lon="-4.799071644339293"><ele>687.0</ele><time>2026-04-11T06:46:37.999Z</time></trkpt><trkpt lat="41.56575574655027" lon="-4.799358838655618"><ele>685.0</ele><time>2026-04-11T06:46:38.999Z</time></trkpt><trkpt lat="41.56587131879443" lon="-4.7996378668762505"><ele>683.0</ele><time>2026-04-11T06:46:39.999Z</time></trkpt><trkpt lat="41.56600529256057" lon="-4.799919029733854"><ele>684.5</ele><time>2026-04-11T06:46:40.999Z</time></trkpt><trkpt lat="41.56614021941273" lon="-4.800190574457273"><ele>686.0</ele><time>2026-04-11T06:46:41.999Z</time></trkpt><trkpt lat="41.56627850430293" lon="-4.80045222987481"><ele>686.0</ele><time>2026-04-11T06:46:42.999Z</time></trkpt><trkpt lat="41.566420376420616" lon="-4.800707033247269"><ele>686.0</ele><time>2026-04-11T06:46:43.999Z</time></trkpt><trkpt lat="41.56657299174965" lon="-4.800954493360459"><ele>687.5</ele><time>2026-04-11T06:46:44.999Z</time></trkpt><trkpt lat="41.566729209798915" lon="-4.801194120648862"><ele>689.0</ele><time>2026-04-11T06:46:45.999Z</time></trkpt><trkpt lat="41.5668916395185" lon="-4.801425214472326"><ele>690.0</ele><time>2026-04-11T06:46:46.999Z</time></trkpt><trkpt lat="41.567059230262174" lon="-4.801650986217718"><ele>691.0</ele><time>2026-04-11T06:46:47.999Z</time></trkpt><trkpt lat="41.56723430448976" lon="-4.801868040463957"><ele>691.0</ele><time>2026-04-11T06:46:48.999Z</time></trkpt><trkpt lat="41.56741327961207" lon="-4.8020791690092395"><ele>691.0</ele><time>2026-04-11T06:46:49.999Z</time></trkpt><trkpt lat="41.56759802130626" lon="-4.802281871343602"><ele>691.0</ele><time>2026-04-11T06:46:50.999Z</time></trkpt><trkpt lat="41.56779122706486" lon="-4.802477879604905"><ele>691.0</ele><time>2026-04-11T06:46:51.999Z</time></trkpt><trkpt lat="41.56798544510963" lon="-4.802664270288039"><ele>690.0</ele><time>2026-04-11T06:46:52.999Z</time></trkpt><trkpt lat="41.568185083316415" lon="-4.802846052403286"><ele>689.0</ele><time>2026-04-11T06:46:53.999Z</time></trkpt><trkpt lat="41.56838408256605" lon="-4.8030291887618075"><ele>689.0</ele><time>2026-04-11T06:46:54.999Z</time></trkpt><trkpt lat="41.56858006694516" lon="-4.803214195045475"><ele>689.0</ele><time>2026-04-11T06:46:55.998Z</time></trkpt><trkpt lat="41.56877810331569" lon="-4.803397694444349"><ele>690.0</ele><time>2026-04-11T06:46:56.998Z</time></trkpt><trkpt lat="41.56897562767718" lon="-4.803583556395596"><ele>691.0</ele><time>2026-04-11T06:46:57.998Z</time></trkpt><trkpt lat="41.56917222242292" lon="-4.803770943609724"><ele>691.0</ele><time>2026-04-11T06:46:58.998Z</time></trkpt><trkpt lat="41.56936737929823" lon="-4.803957461326956"><ele>691.0</ele><time>2026-04-11T06:46:59.998Z</time></trkpt><trkpt lat="41.56956494776239" lon="-4.804144381365135"><ele>691.0</ele><time>2026-04-11T06:47:00.998Z</time></trkpt><trkpt lat="41.56976699520059" lon="-4.804334699801429"><ele>691.0</ele><time>2026-04-11T06:47:01.998Z</time></trkpt><trkpt lat="41.56996724250094" lon="-4.804524279989236"><ele>691.0</ele><time>2026-04-11T06:47:02.998Z</time></trkpt><trkpt lat="41.570172061867616" lon="-4.804712705750228"><ele>691.0</ele><time>2026-04-11T06:47:03.998Z</time></trkpt><trkpt lat="41.57036546353995" lon="-4.804897873652004"><ele>690.0</ele><time>2026-04-11T06:47:04.998Z</time></trkpt><trkpt lat="41.570569878870124" lon="-4.8050852608559484"><ele>689.0</ele><time>2026-04-11T06:47:05.998Z</time></trkpt><trkpt lat="41.57077318534155" lon="-4.805275188744874"><ele>689.0</ele><time>2026-04-11T06:47:06.998Z</time></trkpt><trkpt lat="41.570965897432245" lon="-4.805461475959836"><ele>689.0</ele><time>2026-04-11T06:47:07.998Z</time></trkpt><trkpt lat="41.57116919218637" lon="-4.805655698953866"><ele>689.0</ele><time>2026-04-11T06:47:08.998Z</time></trkpt><trkpt lat="41.57136436501065" lon="-4.805847088273193"><ele>689.0</ele><time>2026-04-11T06:47:09.998Z</time></trkpt><trkpt lat="41.57156598310229" lon="-4.806035089234479"><ele>689.0</ele><time>2026-04-11T06:47:10.998Z</time></trkpt><trkpt lat="41.571761685629646" lon="-4.806217945738004"><ele>689.0</ele><time>2026-04-11T06:47:11.998Z</time></trkpt><trkpt lat="41.57195847296971" lon="-4.806401520459078"><ele>689.0</ele><time>2026-04-11T06:47:12.998Z</time></trkpt><trkpt lat="41.572156977898246" lon="-4.806585515253106"><ele>689.0</ele><time>2026-04-11T06:47:13.998Z</time></trkpt><trkpt lat="41.57235341581504" lon="-4.806767147833855"><ele>688.5</ele><time>2026-04-11T06:47:14.998Z</time></trkpt><trkpt lat="41.57255433092648" lon="-4.8069491355108465"><ele>688.0</ele><time>2026-04-11T06:47:15.998Z</time></trkpt><trkpt lat="41.572751890055066" lon="-4.807134575556643"><ele>689.0</ele><time>2026-04-11T06:47:16.998Z</time></trkpt><trkpt lat="41.57295111869854" lon="-4.807321596651645"><ele>690.0</ele><time>2026-04-11T06:47:17.998Z</time></trkpt><trkpt lat="41.57315013767646" lon="-4.807511700833181"><ele>691.0</ele><time>2026-04-11T06:47:18.998Z</time></trkpt><trkpt lat="41.573348326250944" lon="-4.807702353713532"><ele>692.0</ele><time>2026-04-11T06:47:19.998Z</time></trkpt><trkpt lat="41.57354323514885" lon="-4.807891978547721"><ele>690.5</ele><time>2026-04-11T06:47:20.998Z</time></trkpt><trkpt lat="41.57374168096188" lon="-4.808080591281034"><ele>689.0</ele><time>2026-04-11T06:47:21.998Z</time></trkpt><trkpt lat="41.57394252914928" lon="-4.808266330191191"><ele>689.0</ele><time>2026-04-11T06:47:22.998Z</time></trkpt><trkpt lat="41.57414357835192" lon="-4.808448239062794"><ele>689.0</ele><time>2026-04-11T06:47:23.998Z</time></trkpt><trkpt lat="41.574338316395824" lon="-4.808628623869254"><ele>689.5</ele><time>2026-04-11T06:47:24.998Z</time></trkpt><trkpt lat="41.57453568510689" lon="-4.8088128293663495"><ele>690.0</ele><time>2026-04-11T06:47:25.998Z</time></trkpt><trkpt lat="41.57473098560933" lon="-4.809001141269468"><ele>690.0</ele><time>2026-04-11T06:47:26.998Z</time></trkpt><trkpt lat="41.57492581728102" lon="-4.809187791497637"><ele>690.0</ele><time>2026-04-11T06:47:27.998Z</time></trkpt><trkpt lat="41.57512066411765" lon="-4.809370924455657"><ele>690.0</ele><time>2026-04-11T06:47:28.998Z</time></trkpt><trkpt lat="41.57531633038208" lon="-4.809554052079172"><ele>690.0</ele><time>2026-04-11T06:47:29.998Z</time></trkpt><trkpt lat="41.5755147545275" lon="-4.809739881409591"><ele>689.5</ele><time>2026-04-11T06:47:30.998Z</time></trkpt><trkpt lat="41.57571463905144" lon="-4.809928854192057"><ele>689.0</ele><time>2026-04-11T06:47:31.998Z</time></trkpt><trkpt lat="41.57591177288385" lon="-4.810115349932788"><ele>689.0</ele><time>2026-04-11T06:47:32.998Z</time></trkpt><trkpt lat="41.57610681372576" lon="-4.810299180189448"><ele>689.0</ele><time>2026-04-11T06:47:33.998Z</time></trkpt><trkpt lat="41.57630879278095" lon="-4.8104851778587046"><ele>688.5</ele><time>2026-04-11T06:47:34.998Z</time></trkpt><trkpt lat="41.57650504074184" lon="-4.810672672858681"><ele>688.0</ele><time>2026-04-11T06:47:35.998Z</time></trkpt><trkpt lat="41.57670395536368" lon="-4.810863398080989"><ele>688.0</ele><time>2026-04-11T06:47:36.998Z</time></trkpt><trkpt lat="41.57689724387012" lon="-4.81105596737002"><ele>688.0</ele><time>2026-04-11T06:47:37.998Z</time></trkpt><trkpt lat="41.57709710831385" lon="-4.8112506265586"><ele>688.0</ele><time>2026-04-11T06:47:38.997Z</time></trkpt><trkpt lat="41.57729428732316" lon="-4.8114428097749995"><ele>688.0</ele><time>2026-04-11T06:47:39.997Z</time></trkpt><trkpt lat="41.57750182533441" lon="-4.811640703237149"><ele>687.5</ele><time>2026-04-11T06:47:40.997Z</time></trkpt><trkpt lat="41.57770359477035" lon="-4.811832167606099"><ele>687.0</ele><time>2026-04-11T06:47:42Z</time></trkpt><trkpt lat="41.57789446871896" lon="-4.812020711908026"><ele>686.5</ele><time>2026-04-11T06:47:43Z</time></trkpt><trkpt lat="41.578090387839445" lon="-4.812211625953258"><ele>686.0</ele><time>2026-04-11T06:47:44Z</time></trkpt><trkpt lat="41.57829269201381" lon="-4.8124032477349585"><ele>686.0</ele><time>2026-04-11T06:47:45Z</time></trkpt><trkpt lat="41.578502035370526" lon="-4.8126046492864365"><ele>686.0</ele><time>2026-04-11T06:47:46Z</time></trkpt><trkpt lat="41.578735165246755" lon="-4.812809846566365"><ele>686.5</ele><time>2026-04-11T06:47:47Z</time></trkpt><trkpt lat="41.57896677949925" lon="-4.813011884779074"><ele>687.0</ele><time>2026-04-11T06:47:48Z</time></trkpt><trkpt lat="41.57909568048485" lon="-4.813194141186666"><ele>687.0</ele><time>2026-04-11T06:47:49Z</time></trkpt><trkpt lat="41.57929691808375" lon="-4.8133850534630165"><ele>687.0</ele><time>2026-04-11T06:47:50Z</time></trkpt><trkpt lat="41.579490890473714" lon="-4.813575978855491"><ele>687.5</ele><time>2026-04-11T06:47:51Z</time></trkpt><trkpt lat="41.57968690668802" lon="-4.813766888443673"><ele>688.0</ele><time>2026-04-11T06:47:52Z</time></trkpt><trkpt lat="41.579883090119004" lon="-4.81394943167367"><ele>688.0</ele><time>2026-04-11T06:47:53Z</time></trkpt><trkpt lat="41.58006542025397" lon="-4.8141091465415204"><ele>688.0</ele><time>2026-04-11T06:47:54Z</time></trkpt><trkpt lat="41.580235733801636" lon="-4.8142547514488845"><ele>688.0</ele><time>2026-04-11T06:47:55Z</time></trkpt><trkpt lat="41.58039281334832" lon="-4.814390402788301"><ele>686.6666666666667</ele><time>2026-04-11T06:47:56Z</time></trkpt><trkpt lat="41.58054504847278" lon="-4.8145183967462275"><ele>685.3333333333334</ele><time>2026-04-11T06:47:57Z</time></trkpt><trkpt lat="41.580689738747346" lon="-4.814636073288657"><ele>684.0</ele><time>2026-04-11T06:47:58Z</time></trkpt><trkpt lat="41.58082220916915" lon="-4.814739890952285"><ele>684.0</ele><time>2026-04-11T06:47:59Z</time></trkpt><trkpt lat="41.58095279322402" lon="-4.814831485306799"><ele>684.0</ele><time>2026-04-11T06:48:00Z</time></trkpt><trkpt lat="41.581074361051776" lon="-4.814901570148162"><ele>684.0</ele><time>2026-04-11T06:48:01Z</time></trkpt><trkpt lat="41.58120060515248" lon="-4.814941379511806"><ele>684.0</ele><time>2026-04-11T06:48:02Z</time></trkpt><trkpt lat="41.58132430953617" lon="-4.81496358848952"><ele>684.2</ele><time>2026-04-11T06:48:03Z</time></trkpt><trkpt lat="41.58142895428632" lon="-4.815003499297697"><ele>684.4000000000001</ele><time>2026-04-11T06:48:04Z</time></trkpt><trkpt lat="41.58150901113742" lon="-4.815083671503975"><ele>684.6</ele><time>2026-04-11T06:48:05Z</time></trkpt><trkpt lat="41.581575797886735" lon="-4.815196688777711"><ele>684.8</ele><time>2026-04-11T06:48:06Z</time></trkpt><trkpt lat="41.58164310870926" lon="-4.81530241971172"><ele>685.0</ele><time>2026-04-11T06:48:07Z</time></trkpt><trkpt lat="41.581735458089554" lon="-4.815377006411331"><ele>685.0</ele><time>2026-04-11T06:48:08Z</time></trkpt><trkpt lat="41.58184631865243" lon="-4.815440116175621"><ele>685.0</ele><time>2026-04-11T06:48:09Z</time></trkpt><trkpt lat="41.581981179366764" lon="-4.815510389272894"><ele>685.0</ele><time>2026-04-11T06:48:10Z</time></trkpt><trkpt lat="41.582125508906124" lon="-4.815595255725456"><ele>685.0</ele><time>2026-04-11T06:48:11Z</time></trkpt><trkpt lat="41.58228629431785" lon="-4.815686317718413"><ele>685.0</ele><time>2026-04-11T06:48:12Z</time></trkpt><trkpt lat="41.58245067861908" lon="-4.815776578119418"><ele>685.0</ele><time>2026-04-11T06:48:13Z</time></trkpt><trkpt lat="41.58262714468575" lon="-4.815867311669752"><ele>685.0</ele><time>2026-04-11T06:48:14Z</time></trkpt><trkpt lat="41.582794439999354" lon="-4.815949685120993"><ele>683.6666666666667</ele><time>2026-04-11T06:48:15Z</time></trkpt><trkpt lat="41.58297508514415" lon="-4.816032864394186"><ele>682.3333333333334</ele><time>2026-04-11T06:48:16Z</time></trkpt><trkpt lat="41.58316227703819" lon="-4.816117535381106"><ele>681.0</ele><time>2026-04-11T06:48:17Z</time></trkpt><trkpt lat="41.5833666125615" lon="-4.8162096973773965"><ele>681.0</ele><time>2026-04-11T06:48:17.999Z</time></trkpt><trkpt lat="41.58356858084463" lon="-4.8163054089252215"><ele>681.0</ele><time>2026-04-11T06:48:18.999Z</time></trkpt><trkpt lat="41.58378161335008" lon="-4.816392041248479"><ele>681.0</ele><time>2026-04-11T06:48:19.999Z</time></trkpt><trkpt lat="41.58400208957508" lon="-4.816472949589167"><ele>680.6666666666666</ele><time>2026-04-11T06:48:20.999Z</time></trkpt><trkpt lat="41.58420950549577" lon="-4.816541741311127"><ele>680.3333333333333</ele><time>2026-04-11T06:48:21.999Z</time></trkpt><trkpt lat="41.58440957836416" lon="-4.816606230861713"><ele>680.0</ele><time>2026-04-11T06:48:22.999Z</time></trkpt><trkpt lat="41.58461791949484" lon="-4.8166747542002675"><ele>681.0</ele><time>2026-04-11T06:48:23.999Z</time></trkpt><trkpt lat="41.58483735171964" lon="-4.816754191527833"><ele>682.0</ele><time>2026-04-11T06:48:24.999Z</time></trkpt><trkpt lat="41.58505693921356" lon="-4.816838792465778"><ele>682.0</ele><time>2026-04-11T06:48:25.999Z</time></trkpt><trkpt lat="41.585277191242504" lon="-4.816923458096619"><ele>682.0</ele><time>2026-04-11T06:48:26.999Z</time></trkpt><trkpt lat="41.58549726649669" lon="-4.8170038587205966"><ele>682.5</ele><time>2026-04-11T06:48:27.999Z</time></trkpt><trkpt lat="41.58571764448527" lon="-4.817082640514646"><ele>683.0</ele><time>2026-04-11T06:48:28.999Z</time></trkpt><trkpt lat="41.58593640184036" lon="-4.817163198719204"><ele>683.0</ele><time>2026-04-11T06:48:29.999Z</time></trkpt><trkpt lat="41.586144030022595" lon="-4.817246562384206"><ele>683.0</ele><time>2026-04-11T06:48:30.999Z</time></trkpt><trkpt lat="41.58633934664264" lon="-4.817324793440385"><ele>683.0</ele><time>2026-04-11T06:48:31.999Z</time></trkpt><trkpt lat="41.58652514525012" lon="-4.817396575558818"><ele>682.6666666666666</ele><time>2026-04-11T06:48:32.999Z</time></trkpt><trkpt lat="41.58670039466813" lon="-4.817461991201667"><ele>682.3333333333334</ele><time>2026-04-11T06:48:33.999Z</time></trkpt><trkpt lat="41.586858979023425" lon="-4.817528458848238"><ele>682.0</ele><time>2026-04-11T06:48:34.999Z</time></trkpt><trkpt lat="41.5870094771451" lon="-4.81759596628239"><ele>682.0</ele><time>2026-04-11T06:48:35.999Z</time></trkpt><trkpt lat="41.58715362280988" lon="-4.817662161695763"><ele>682.0</ele><time>2026-04-11T06:48:36.999Z</time></trkpt><trkpt lat="41.5872893907632" lon="-4.817722944265691"><ele>682.0</ele><time>2026-04-11T06:48:37.999Z</time></trkpt><trkpt lat="41.5874194786435" lon="-4.817779613963265"><ele>682.0</ele><time>2026-04-11T06:48:38.999Z</time></trkpt><trkpt lat="41.5875385121925" lon="-4.817830931033254"><ele>682.0</ele><time>2026-04-11T06:48:39.999Z</time></trkpt><trkpt lat="41.587656064405095" lon="-4.817878723833405"><ele>682.0</ele><time>2026-04-11T06:48:40.999Z</time></trkpt><trkpt lat="41.58776730980542" lon="-4.817915619855843"><ele>682.0</ele><time>2026-04-11T06:48:41.999Z</time></trkpt><trkpt lat="41.587884457677376" lon="-4.817937755502226"><ele>682.0</ele><time>2026-04-11T06:48:42.999Z</time></trkpt><trkpt lat="41.58799862024904" lon="-4.817938151079869"><ele>681.8</ele><time>2026-04-11T06:48:43.999Z</time></trkpt><trkpt lat="41.58810749026693" lon="-4.817939294331945"><ele>681.6</ele><time>2026-04-11T06:48:44.999Z</time></trkpt><trkpt lat="41.5882088394051" lon="-4.8179613453718595"><ele>681.4</ele><time>2026-04-11T06:48:45.999Z</time></trkpt><trkpt lat="41.588310296376385" lon="-4.818013791007579"><ele>681.1999999999999</ele><time>2026-04-11T06:48:46.999Z</time></trkpt><trkpt lat="41.58841048083855" lon="-4.818061170584552"><ele>681.0</ele><time>2026-04-11T06:48:47.999Z</time></trkpt><trkpt lat="41.58852317921433" lon="-4.818082548703749"><ele>681.0</ele><time>2026-04-11T06:48:48.999Z</time></trkpt><trkpt lat="41.58866205872866" lon="-4.818084270008805"><ele>681.0</ele><time>2026-04-11T06:48:49.999Z</time></trkpt><trkpt lat="41.58881404547215" lon="-4.818076080366533"><ele>681.0</ele><time>2026-04-11T06:48:50.999Z</time></trkpt><trkpt lat="41.58898036902755" lon="-4.818074421879295"><ele>681.0</ele><time>2026-04-11T06:48:51.999Z</time></trkpt><trkpt lat="41.58915685829238" lon="-4.818080395080923"><ele>681.0</ele><time>2026-04-11T06:48:52.999Z</time></trkpt><trkpt lat="41.589326696589396" lon="-4.818073665402779"><ele>681.0</ele><time>2026-04-11T06:48:53.999Z</time></trkpt><trkpt lat="41.58948688564906" lon="-4.818081674711138"><ele>680.6666666666666</ele><time>2026-04-11T06:48:54.999Z</time></trkpt><trkpt lat="41.58966280434562" lon="-4.818085615323156"><ele>680.3333333333333</ele><time>2026-04-11T06:48:55.999Z</time></trkpt><trkpt lat="41.589851037024204" lon="-4.8180890940951215"><ele>680.0</ele><time>2026-04-11T06:48:56.999Z</time></trkpt><trkpt lat="41.59004491208407" lon="-4.818091798112327"><ele>680.0</ele><time>2026-04-11T06:48:57.999Z</time></trkpt><trkpt lat="41.59024547351656" lon="-4.818095649314144"><ele>680.0</ele><time>2026-04-11T06:48:58.999Z</time></trkpt><trkpt lat="41.59043690419519" lon="-4.818102211699176"><ele>680.0</ele><time>2026-04-11T06:48:59.998Z</time></trkpt><trkpt lat="41.5906306548076" lon="-4.818109109905495"><ele>680.6666666666666</ele><time>2026-04-11T06:49:00.998Z</time></trkpt><trkpt lat="41.59083678297353" lon="-4.818113837551658"><ele>681.3333333333334</ele><time>2026-04-11T06:49:01.998Z</time></trkpt><trkpt lat="41.591051341811884" lon="-4.818117462071468"><ele>682.0</ele><time>2026-04-11T06:49:02.998Z</time></trkpt><trkpt lat="41.59126925025901" lon="-4.818120488041141"><ele>682.3333333333334</ele><time>2026-04-11T06:49:03.998Z</time></trkpt><trkpt lat="41.59148686821205" lon="-4.818123051366292"><ele>682.6666666666666</ele><time>2026-04-11T06:49:04.998Z</time></trkpt><trkpt lat="41.591706358600284" lon="-4.818128480582445"><ele>683.0</ele><time>2026-04-11T06:49:05.998Z</time></trkpt><trkpt lat="41.59192817249643" lon="-4.8181373830378105"><ele>682.3333333333333</ele><time>2026-04-11T06:49:06.998Z</time></trkpt><trkpt lat="41.59214904853247" lon="-4.818154067652443"><ele>681.6666666666666</ele><time>2026-04-11T06:49:07.998Z</time></trkpt><trkpt lat="41.59236724220944" lon="-4.818180225788687"><ele>681.0</ele><time>2026-04-11T06:49:08.998Z</time></trkpt><trkpt lat="41.592584342997924" lon="-4.81821387871484"><ele>681.0</ele><time>2026-04-11T06:49:09.998Z</time></trkpt><trkpt lat="41.59280190389133" lon="-4.8182507637548175"><ele>681.0</ele><time>2026-04-11T06:49:10.998Z</time></trkpt><trkpt lat="41.593022623581724" lon="-4.818295604897899"><ele>681.0</ele><time>2026-04-11T06:49:11.998Z</time></trkpt><trkpt lat="41.593237827114365" lon="-4.818357075453908"><ele>682.0</ele><time>2026-04-11T06:49:12.998Z</time></trkpt><trkpt lat="41.59345135869414" lon="-4.818428790389587"><ele>683.0</ele><time>2026-04-11T06:49:13.998Z</time></trkpt><trkpt lat="41.59366112579992" lon="-4.818508197329045"><ele>684.0</ele><time>2026-04-11T06:49:14.998Z</time></trkpt><trkpt lat="41.59386614306585" lon="-4.818588831849312"><ele>684.6666666666666</ele><time>2026-04-11T06:49:15.998Z</time></trkpt><trkpt lat="41.59407068788635" lon="-4.818675493060423"><ele>685.3333333333333</ele><time>2026-04-11T06:49:16.998Z</time></trkpt><trkpt lat="41.5942681476419" lon="-4.818767660623216"><ele>686.0</ele><time>2026-04-11T06:49:17.998Z</time></trkpt><trkpt lat="41.594464334470864" lon="-4.818865769106404"><ele>685.6666666666666</ele><time>2026-04-11T06:49:18.998Z</time></trkpt><trkpt lat="41.5946541485143" lon="-4.818965677406675"><ele>685.3333333333334</ele><time>2026-04-11T06:49:19.998Z</time></trkpt><trkpt lat="41.59483990476045" lon="-4.81907247998291"><ele>685.0</ele><time>2026-04-11T06:49:20.998Z</time></trkpt><trkpt lat="41.59500768170158" lon="-4.81917256678215"><ele>685.0</ele><time>2026-04-11T06:49:21.998Z</time></trkpt><trkpt lat="41.5951572034414" lon="-4.8192687198726105"><ele>685.0</ele><time>2026-04-11T06:49:22.998Z</time></trkpt><trkpt lat="41.59528277004178" lon="-4.819349570653188"><ele>685.0</ele><time>2026-04-11T06:49:23.998Z</time></trkpt><trkpt lat="41.595411356996706" lon="-4.819417619013298"><ele>685.0</ele><time>2026-04-11T06:49:24.998Z</time></trkpt><trkpt lat="41.59553651949349" lon="-4.8194532634332266"><ele>686.0</ele><time>2026-04-11T06:49:25.998Z</time></trkpt><trkpt lat="41.59565190808299" lon="-4.819460764144992"><ele>687.0</ele><time>2026-04-11T06:49:26.998Z</time></trkpt><trkpt lat="41.595749210076235" lon="-4.819480848344584"><ele>688.0</ele><time>2026-04-11T06:49:27.998Z</time></trkpt><trkpt lat="41.595832209052254" lon="-4.8195462004217005"><ele>689.0</ele><time>2026-04-11T06:49:28.998Z</time></trkpt><trkpt lat="41.59589488638714" lon="-4.819652981445287"><ele>690.0</ele><time>2026-04-11T06:49:29.998Z</time></trkpt><trkpt lat="41.59594001702943" lon="-4.819762973792848"><ele>690.0</ele><time>2026-04-11T06:49:30.998Z</time></trkpt><trkpt lat="41.59598710753218" lon="-4.819859776024934"><ele>690.0</ele><time>2026-04-11T06:49:31.998Z</time></trkpt><trkpt lat="41.596042404890966" lon="-4.819940520687916"><ele>690.0</ele><time>2026-04-11T06:49:32.998Z</time></trkpt><trkpt lat="41.596097092590675" lon="-4.819983532629719"><ele>690.0</ele><time>2026-04-11T06:49:33.998Z</time></trkpt><trkpt lat="41.596191734664" lon="-4.820026617518927"><ele>690.0</ele><time>2026-04-11T06:49:35.998Z</time></trkpt><trkpt lat="41.596265947144374" lon="-4.820075689987991"><ele>690.0</ele><time>2026-04-11T06:49:37.998Z</time></trkpt><trkpt lat="41.59615198604509" lon="-4.820037267490737"><ele>690.0</ele><time>2026-04-11T06:49:43.997Z</time></trkpt><trkpt lat="41.5960825150554" lon="-4.819981729653474"><ele>690.0</ele><time>2026-04-11T06:49:44.997Z</time></trkpt><trkpt lat="41.59599754466249" lon="-4.8199487514959625"><ele>690.0</ele><time>2026-04-11T06:49:45.997Z</time></trkpt><trkpt lat="41.59590975767484" lon="-4.819916220280435"><ele>690.0</ele><time>2026-04-11T06:49:46.997Z</time></trkpt><trkpt lat="41.59581316643578" lon="-4.819895366922556"><ele>690.0</ele><time>2026-04-11T06:49:48Z</time></trkpt><trkpt lat="41.59572265975049" lon="-4.819890645634792"><ele>690.0</ele><time>2026-04-11T06:49:49Z</time></trkpt><trkpt lat="41.59564366905308" lon="-4.8199014871923955"><ele>690.0</ele><time>2026-04-11T06:49:50Z</time></trkpt><trkpt lat="41.59557279035056" lon="-4.819927251545769"><ele>690.0</ele><time>2026-04-11T06:49:51Z</time></trkpt><trkpt lat="41.59553244287287" lon="-4.8200745159553575"><ele>690.0</ele><time>2026-04-11T06:49:53Z</time></trkpt><trkpt lat="41.595620718125346" lon="-4.8201837262668255"><ele>690.0</ele><time>2026-04-11T06:49:55Z</time></trkpt><trkpt lat="41.595687869768874" lon="-4.820176366940722"><ele>690.0</ele><time>2026-04-11T06:49:56Z</time></trkpt><trkpt lat="41.59576095145819" lon="-4.820142434839478"><ele>690.0</ele><time>2026-04-11T06:49:57Z</time></trkpt><trkpt lat="41.59584006226796" lon="-4.820117582303918"><ele>690.0</ele><time>2026-04-11T06:49:58Z</time></trkpt><trkpt lat="41.59592844805374" lon="-4.82015493559659"><ele>690.0</ele><time>2026-04-11T06:49:59Z</time></trkpt><trkpt lat="41.5960251009249" lon="-4.820198422991467"><ele>690.0</ele><time>2026-04-11T06:50:00Z</time></trkpt><trkpt lat="41.59613709043487" lon="-4.820248753780086"><ele>690.0</ele><time>2026-04-11T06:50:01Z</time></trkpt><trkpt lat="41.59623419188901" lon="-4.820325331076614"><ele>691.8333333333334</ele><time>2026-04-11T06:50:02Z</time></trkpt><trkpt lat="41.596318593281545" lon="-4.820391638796523"><ele>693.6666666666666</ele><time>2026-04-11T06:50:03Z</time></trkpt><trkpt lat="41.59639026107023" lon="-4.820486782322004"><ele>695.5</ele><time>2026-04-11T06:50:04Z</time></trkpt><trkpt lat="41.59645806613756" lon="-4.82055760868643"><ele>697.3333333333333</ele><time>2026-04-11T06:50:05Z</time></trkpt><trkpt lat="41.5964969805749" lon="-4.820636255763303"><ele>699.1666666666666</ele><time>2026-04-11T06:50:06Z</time></trkpt><trkpt lat="41.596528947470105" lon="-4.820709152542884"><ele>701.0</ele><time>2026-04-11T06:50:07Z</time></trkpt><trkpt lat="41.5965098675292" lon="-4.820790398187025"><ele>701.0</ele><time>2026-04-11T06:50:08Z</time></trkpt><trkpt lat="41.59647206838999" lon="-4.820866699620742"><ele>701.0</ele><time>2026-04-11T06:50:09Z</time></trkpt><trkpt lat="41.59639488775018" lon="-4.820947122526414"><ele>701.0</ele><time>2026-04-11T06:50:10Z</time></trkpt><trkpt lat="41.59626520152581" lon="-4.820986284492062"><ele>701.0</ele><time>2026-04-11T06:50:11Z</time></trkpt><trkpt lat="41.596159732440654" lon="-4.821068922640436"><ele>701.0</ele><time>2026-04-11T06:50:12Z</time></trkpt><trkpt lat="41.596049836799345" lon="-4.821161098830507"><ele>699.0</ele><time>2026-04-11T06:50:13Z</time></trkpt><trkpt lat="41.5959319556486" lon="-4.82126392833558"><ele>697.0</ele><time>2026-04-11T06:50:14Z</time></trkpt><trkpt lat="41.59580910412958" lon="-4.821381264142669"><ele>695.0</ele><time>2026-04-11T06:50:15Z</time></trkpt><trkpt lat="41.595685896436414" lon="-4.821519095526417"><ele>695.0</ele><time>2026-04-11T06:50:16Z</time></trkpt><trkpt lat="41.595567164076144" lon="-4.8216554106705365"><ele>695.0</ele><time>2026-04-11T06:50:17Z</time></trkpt><trkpt lat="41.595448667865725" lon="-4.821781766126849"><ele>695.0</ele><time>2026-04-11T06:50:18Z</time></trkpt><trkpt lat="41.59533655507989" lon="-4.821904745004401"><ele>694.75</ele><time>2026-04-11T06:50:19Z</time></trkpt><trkpt lat="41.595221329990714" lon="-4.822037299468213"><ele>694.5</ele><time>2026-04-11T06:50:20Z</time></trkpt><trkpt lat="41.59511403879926" lon="-4.822167398126342"><ele>694.25</ele><time>2026-04-11T06:50:21Z</time></trkpt><trkpt lat="41.59500279861468" lon="-4.8222998231321235"><ele>694.0</ele><time>2026-04-11T06:50:21.999Z</time></trkpt><trkpt lat="41.59489175227736" lon="-4.822430607943469"><ele>694.0</ele><time>2026-04-11T06:50:22.999Z</time></trkpt><trkpt lat="41.5947794936386" lon="-4.822555984531696"><ele>694.0</ele><time>2026-04-11T06:50:23.999Z</time></trkpt><trkpt lat="41.594674964696516" lon="-4.822683230372569"><ele>694.0</ele><time>2026-04-11T06:50:24.999Z</time></trkpt><trkpt lat="41.59457098455929" lon="-4.822814424901138"><ele>694.0</ele><time>2026-04-11T06:50:25.999Z</time></trkpt><trkpt lat="41.59445836592394" lon="-4.822964875643968"><ele>692.6666666666667</ele><time>2026-04-11T06:50:26.999Z</time></trkpt><trkpt lat="41.59434186080099" lon="-4.823122507686054"><ele>691.3333333333334</ele><time>2026-04-11T06:50:27.999Z</time></trkpt><trkpt lat="41.59421668407282" lon="-4.823283779002295"><ele>690.0</ele><time>2026-04-11T06:50:28.999Z</time></trkpt><trkpt lat="41.59408382850485" lon="-4.823438846861288"><ele>691.3333333333334</ele><time>2026-04-11T06:50:29.999Z</time></trkpt><trkpt lat="41.59395061436326" lon="-4.823586780284841"><ele>692.6666666666667</ele><time>2026-04-11T06:50:30.999Z</time></trkpt><trkpt lat="41.5938229635064" lon="-4.823726849486765"><ele>694.0</ele><time>2026-04-11T06:50:31.999Z</time></trkpt><trkpt lat="41.59370648476399" lon="-4.8238521835155375"><ele>693.5</ele><time>2026-04-11T06:50:32.999Z</time></trkpt><trkpt lat="41.59360532685499" lon="-4.823966144478996"><ele>693.0</ele><time>2026-04-11T06:50:33.999Z</time></trkpt><trkpt lat="41.59350720244926" lon="-4.824075942991455"><ele>692.5</ele><time>2026-04-11T06:50:34.999Z</time></trkpt><trkpt lat="41.59340788495956" lon="-4.824176122247743"><ele>692.0</ele><time>2026-04-11T06:50:35.999Z</time></trkpt><trkpt lat="41.59331729222277" lon="-4.824271492531956"><ele>692.4000000000001</ele><time>2026-04-11T06:50:36.999Z</time></trkpt><trkpt lat="41.593244182540346" lon="-4.824346589393727"><ele>692.8000000000001</ele><time>2026-04-11T06:50:37.999Z</time></trkpt><trkpt lat="41.59319325709187" lon="-4.824402902844977"><ele>693.2</ele><time>2026-04-11T06:50:38.999Z</time></trkpt><trkpt lat="41.59311753473228" lon="-4.824510436158837"><ele>693.6</ele><time>2026-04-11T06:50:40.999Z</time></trkpt><trkpt lat="41.593055953709616" lon="-4.824578226759169"><ele>694.0</ele><time>2026-04-11T06:50:41.999Z</time></trkpt><trkpt lat="41.59297705267163" lon="-4.8246717758043935"><ele>694.0</ele><time>2026-04-11T06:50:42.999Z</time></trkpt><trkpt lat="41.59288922455289" lon="-4.8247731163179814"><ele>694.0</ele><time>2026-04-11T06:50:43.999Z</time></trkpt><trkpt lat="41.59279013135978" lon="-4.824878967535764"><ele>694.0</ele><time>2026-04-11T06:50:44.999Z</time></trkpt><trkpt lat="41.59269024629917" lon="-4.824995337688763"><ele>694.0</ele><time>2026-04-11T06:50:45.999Z</time></trkpt><trkpt lat="41.592583426954114" lon="-4.825110527202619"><ele>695.75</ele><time>2026-04-11T06:50:46.999Z</time></trkpt><trkpt lat="41.5924681067367" lon="-4.825215599476069"><ele>697.5</ele><time>2026-04-11T06:50:47.999Z</time></trkpt><trkpt lat="41.592344689225754" lon="-4.825314645065601"><ele>699.25</ele><time>2026-04-11T06:50:48.999Z</time></trkpt><trkpt lat="41.592219728192035" lon="-4.825407756136915"><ele>701.0</ele><time>2026-04-11T06:50:49.999Z</time></trkpt><trkpt lat="41.59210832393071" lon="-4.825489184003095"><ele>701.0</ele><time>2026-04-11T06:50:50.999Z</time></trkpt><trkpt lat="41.59201700309806" lon="-4.825550681502125"><ele>701.0</ele><time>2026-04-11T06:50:51.999Z</time></trkpt><trkpt lat="41.59195070387148" lon="-4.825600032989148"><ele>701.0</ele><time>2026-04-11T06:50:52.999Z</time></trkpt><trkpt lat="41.591890142917684" lon="-4.825671347471362"><ele>701.0</ele><time>2026-04-11T06:50:59.999Z</time></trkpt><trkpt lat="41.591920241184596" lon="-4.825855566597919"><ele>701.0</ele><time>2026-04-11T06:51:01.999Z</time></trkpt><trkpt lat="41.59194864172721" lon="-4.825950621370046"><ele>702.8333333333333</ele><time>2026-04-11T06:51:02.999Z</time></trkpt><trkpt lat="41.591969859130394" lon="-4.8260629829947215"><ele>704.6666666666666</ele><time>2026-04-11T06:51:03.998Z</time></trkpt><trkpt lat="41.591987239607626" lon="-4.826158344750112"><ele>706.5</ele><time>2026-04-11T06:51:04.998Z</time></trkpt><trkpt lat="41.59200827484082" lon="-4.826253755639582"><ele>708.3333333333334</ele><time>2026-04-11T06:51:05.998Z</time></trkpt><trkpt lat="41.59202793641591" lon="-4.826378035382665"><ele>710.1666666666667</ele><time>2026-04-11T06:51:06.998Z</time></trkpt><trkpt lat="41.592045754837436" lon="-4.826519968756788"><ele>712.0</ele><time>2026-04-11T06:51:07.998Z</time></trkpt><trkpt lat="41.592062988565424" lon="-4.826681900100844"><ele>714.0</ele><time>2026-04-11T06:51:08.998Z</time></trkpt><trkpt lat="41.59207796250229" lon="-4.826842912282424"><ele>716.0</ele><time>2026-04-11T06:51:09.998Z</time></trkpt><trkpt lat="41.59209668780333" lon="-4.826986773720601"><ele>718.0</ele><time>2026-04-11T06:51:10.998Z</time></trkpt><trkpt lat="41.592111047235605" lon="-4.827137888090269"><ele>720.0</ele><time>2026-04-11T06:51:11.998Z</time></trkpt><trkpt lat="41.59213289470651" lon="-4.827304639901839"><ele>720.0</ele><time>2026-04-11T06:51:12.998Z</time></trkpt><trkpt lat="41.59215481139818" lon="-4.827476544237853"><ele>720.0</ele><time>2026-04-11T06:51:13.998Z</time></trkpt><trkpt lat="41.592176245305886" lon="-4.827652285936795"><ele>720.0</ele><time>2026-04-11T06:51:14.998Z</time></trkpt><trkpt lat="41.592213237600625" lon="-4.827827538743358"><ele>720.0</ele><time>2026-04-11T06:51:15.998Z</time></trkpt><trkpt lat="41.592263822082245" lon="-4.827997054543713"><ele>720.0</ele><time>2026-04-11T06:51:16.998Z</time></trkpt><trkpt lat="41.592312949824915" lon="-4.8281637053612725"><ele>720.0</ele><time>2026-04-11T06:51:17.998Z</time></trkpt><trkpt lat="41.59236483097744" lon="-4.8283184616473855"><ele>720.0</ele><time>2026-04-11T06:51:18.998Z</time></trkpt><trkpt lat="41.59240399195307" lon="-4.828453453532904"><ele>720.0</ele><time>2026-04-11T06:51:19.998Z</time></trkpt><trkpt lat="41.592447665860966" lon="-4.828570020724592"><ele>720.0</ele><time>2026-04-11T06:51:20.998Z</time></trkpt><trkpt lat="41.59248199459114" lon="-4.828692224351142"><ele>720.0</ele><time>2026-04-11T06:51:21.998Z</time></trkpt><trkpt lat="41.59249336794376" lon="-4.828827056554474"><ele>720.0</ele><time>2026-04-11T06:51:22.998Z</time></trkpt><trkpt lat="41.59248670932289" lon="-4.828960565122272"><ele>720.0</ele><time>2026-04-11T06:51:23.998Z</time></trkpt><trkpt lat="41.592469146181315" lon="-4.82909051281634"><ele>720.0</ele><time>2026-04-11T06:51:24.998Z</time></trkpt><trkpt lat="41.592445164064955" lon="-4.829218864395903"><ele>719.6</ele><time>2026-04-11T06:51:25.998Z</time></trkpt><trkpt lat="41.59240158925818" lon="-4.8293275341823145"><ele>719.2</ele><time>2026-04-11T06:51:26.998Z</time></trkpt><trkpt lat="41.59234065280873" lon="-4.8294139659131075"><ele>718.8</ele><time>2026-04-11T06:51:27.998Z</time></trkpt><trkpt lat="41.59225221300763" lon="-4.829479201576032"><ele>718.4</ele><time>2026-04-11T06:51:28.998Z</time></trkpt><trkpt lat="41.59215444455372" lon="-4.829537209542438"><ele>718.0</ele><time>2026-04-11T06:51:29.998Z</time></trkpt><trkpt lat="41.59205832264695" lon="-4.829604650103482"><ele>718.0</ele><time>2026-04-11T06:51:30.998Z</time></trkpt><trkpt lat="41.591956701589076" lon="-4.8296784705934055"><ele>718.0</ele><time>2026-04-11T06:51:31.998Z</time></trkpt><trkpt lat="41.591851833024045" lon="-4.829739542988678"><ele>718.0</ele><time>2026-04-11T06:51:32.998Z</time></trkpt><trkpt lat="41.59175980437414" lon="-4.829778937659943"><ele>718.0</ele><time>2026-04-11T06:51:33.998Z</time></trkpt><trkpt lat="41.59168141509632" lon="-4.82984874818194"><ele>718.0</ele><time>2026-04-11T06:51:34.998Z</time></trkpt><trkpt lat="41.59159435024896" lon="-4.82988056089715"><ele>718.0</ele><time>2026-04-11T06:51:35.998Z</time></trkpt><trkpt lat="41.59153103825352" lon="-4.829935654900066"><ele>718.0</ele><time>2026-04-11T06:51:36.998Z</time></trkpt><trkpt lat="41.59144595285287" lon="-4.830040245120818"><ele>718.0</ele><time>2026-04-11T06:51:38.998Z</time></trkpt><trkpt lat="41.59140090641686" lon="-4.830100571468767"><ele>718.0</ele><time>2026-04-11T06:51:39.998Z</time></trkpt><trkpt lat="41.59135654360845" lon="-4.830197911820724"><ele>718.0</ele><time>2026-04-11T06:51:40.998Z</time></trkpt><trkpt lat="41.59133269858572" lon="-4.8303211932712395"><ele>718.0</ele><time>2026-04-11T06:51:41.998Z</time></trkpt><trkpt lat="41.59133315308592" lon="-4.830439349060911"><ele>717.3333333333334</ele><time>2026-04-11T06:51:42.998Z</time></trkpt><trkpt lat="41.59133350902548" lon="-4.830528689669885"><ele>716.6666666666667</ele><time>2026-04-11T06:51:43.998Z</time></trkpt><trkpt lat="41.59132094550527" lon="-4.830619644612275"><ele>716.0</ele><time>2026-04-11T06:51:46.997Z</time></trkpt><trkpt lat="41.591281165826274" lon="-4.8307444826899415"><ele>715.3333333333334</ele><time>2026-04-11T06:51:48.997Z</time></trkpt><trkpt lat="41.59122466802722" lon="-4.830809993659252"><ele>714.6666666666666</ele><time>2026-04-11T06:51:49.997Z</time></trkpt><trkpt lat="41.59114729168902" lon="-4.830848397426052"><ele>714.0</ele><time>2026-04-11T06:51:50.997Z</time></trkpt><trkpt lat="41.59106803883396" lon="-4.830863636459561"><ele>713.6</ele><time>2026-04-11T06:51:51.997Z</time></trkpt><trkpt lat="41.590981550180736" lon="-4.8308648264583605"><ele>713.2</ele><time>2026-04-11T06:51:52.997Z</time></trkpt><trkpt lat="41.590878508553224" lon="-4.830883655640811"><ele>712.8000000000001</ele><time>2026-04-11T06:51:54Z</time></trkpt><trkpt lat="41.590764734829264" lon="-4.830925717993254"><ele>712.4000000000001</ele><time>2026-04-11T06:51:55Z</time></trkpt><trkpt lat="41.590659514696526" lon="-4.830973422344709"><ele>712.0</ele><time>2026-04-11T06:51:56Z</time></trkpt><trkpt lat="41.59055557181055" lon="-4.831024602993384"><ele>712.0</ele><time>2026-04-11T06:51:57Z</time></trkpt><trkpt lat="41.59043806633176" lon="-4.831075375755288"><ele>712.0</ele><time>2026-04-11T06:51:58Z</time></trkpt><trkpt lat="41.590318980953136" lon="-4.83112478341739"><ele>712.0</ele><time>2026-04-11T06:51:59Z</time></trkpt><trkpt lat="41.590212049414255" lon="-4.831170571375072"><ele>712.0</ele><time>2026-04-11T06:52:00Z</time></trkpt><trkpt lat="41.59011365830742" lon="-4.831222256038591"><ele>710.6</ele><time>2026-04-11T06:52:01Z</time></trkpt><trkpt lat="41.59003506938088" lon="-4.831290880634947"><ele>709.2</ele><time>2026-04-11T06:52:02Z</time></trkpt><trkpt lat="41.5899821822675" lon="-4.831392548011737"><ele>707.8</ele><time>2026-04-11T06:52:03Z</time></trkpt><trkpt lat="41.58995873308778" lon="-4.831502193747917"><ele>706.4</ele><time>2026-04-11T06:52:04Z</time></trkpt><trkpt lat="41.58991515497035" lon="-4.8315889165902535"><ele>705.0</ele><time>2026-04-11T06:52:05Z</time></trkpt><trkpt lat="41.58998477009576" lon="-4.8317342507064955"><ele>705.75</ele><time>2026-04-11T06:52:06Z</time></trkpt><trkpt lat="41.59001803289003" lon="-4.831861547973975"><ele>706.5</ele><time>2026-04-11T06:52:07Z</time></trkpt><trkpt lat="41.590049514487596" lon="-4.831999986183448"><ele>707.25</ele><time>2026-04-11T06:52:08Z</time></trkpt><trkpt lat="41.59008845906129" lon="-4.832164833516717"><ele>708.0</ele><time>2026-04-11T06:52:09Z</time></trkpt><trkpt lat="41.590123249272004" lon="-4.832320845341107"><ele>708.0</ele><time>2026-04-11T06:52:10Z</time></trkpt><trkpt lat="41.59015511126304" lon="-4.832494122489712"><ele>708.0</ele><time>2026-04-11T06:52:11Z</time></trkpt><trkpt lat="41.59019152701776" lon="-4.832655516061166"><ele>708.0</ele><time>2026-04-11T06:52:12Z</time></trkpt><trkpt lat="41.59022927029526" lon="-4.83278246301867"><ele>708.0</ele><time>2026-04-11T06:52:13Z</time></trkpt><trkpt lat="41.59028040630654" lon="-4.832872762892885"><ele>708.0</ele><time>2026-04-11T06:52:14Z</time></trkpt><trkpt lat="41.59035938554553" lon="-4.832929353486606"><ele>710.5</ele><time>2026-04-11T06:52:15Z</time></trkpt><trkpt lat="41.59045802403468" lon="-4.832952806676154"><ele>713.0</ele><time>2026-04-11T06:52:16Z</time></trkpt><trkpt lat="41.59056965896877" lon="-4.83295999593564"><ele>715.5</ele><time>2026-04-11T06:52:17Z</time></trkpt><trkpt lat="41.59068980122734" lon="-4.832970146310421"><ele>718.0</ele><time>2026-04-11T06:52:18Z</time></trkpt><trkpt lat="41.5908111211756" lon="-4.832992644174943"><ele>718.0</ele><time>2026-04-11T06:52:19Z</time></trkpt><trkpt lat="41.59092764670452" lon="-4.833015337086549"><ele>718.0</ele><time>2026-04-11T06:52:20Z</time></trkpt><trkpt lat="41.59102930858713" lon="-4.833034834629685"><ele>718.0</ele><time>2026-04-11T06:52:21Z</time></trkpt><trkpt lat="41.59110274491593" lon="-4.833047833424325"><ele>718.0</ele><time>2026-04-11T06:52:22Z</time></trkpt><trkpt lat="41.5912092037035" lon="-4.833062308891665"><ele>718.0</ele><time>2026-04-11T06:52:24Z</time></trkpt><trkpt lat="41.59126671428544" lon="-4.833111248406328"><ele>718.8</ele><time>2026-04-11T06:52:30.999Z</time></trkpt><trkpt lat="41.591263610577734" lon="-4.833230386124477"><ele>719.5999999999999</ele><time>2026-04-11T06:52:32.999Z</time></trkpt><trkpt lat="41.5912244506688" lon="-4.833375400411851"><ele>720.4000000000001</ele><time>2026-04-11T06:52:34.999Z</time></trkpt><trkpt lat="41.591187609001295" lon="-4.833527303667073"><ele>721.2</ele><time>2026-04-11T06:52:36.999Z</time></trkpt><trkpt lat="41.59116206330817" lon="-4.833620362912598"><ele>722.0</ele><time>2026-04-11T06:52:37.999Z</time></trkpt><trkpt lat="41.59113004699322" lon="-4.833722930921191"><ele>722.0</ele><time>2026-04-11T06:52:38.999Z</time></trkpt><trkpt lat="41.591093432088385" lon="-4.8338386894526035"><ele>722.0</ele><time>2026-04-11T06:52:39.999Z</time></trkpt><trkpt lat="41.59105777639235" lon="-4.833958849412489"><ele>722.0</ele><time>2026-04-11T06:52:40.999Z</time></trkpt><trkpt lat="41.591023364042364" lon="-4.834087548710218"><ele>722.0</ele><time>2026-04-11T06:52:41.999Z</time></trkpt><trkpt lat="41.59098121948094" lon="-4.834223118349226"><ele>722.0</ele><time>2026-04-11T06:52:42.999Z</time></trkpt><trkpt lat="41.5909382780549" lon="-4.834360441999515"><ele>722.5</ele><time>2026-04-11T06:52:43.999Z</time></trkpt><trkpt lat="41.590900567366454" lon="-4.834490144029308"><ele>723.0</ele><time>2026-04-11T06:52:44.999Z</time></trkpt><trkpt lat="41.590862175964354" lon="-4.8346197538512286"><ele>723.5</ele><time>2026-04-11T06:52:45.999Z</time></trkpt><trkpt lat="41.59081991239531" lon="-4.834765759021583"><ele>724.0</ele><time>2026-04-11T06:52:46.999Z</time></trkpt><trkpt lat="41.59077006895205" lon="-4.834919525095564"><ele>724.0</ele><time>2026-04-11T06:52:47.999Z</time></trkpt><trkpt lat="41.59071832798555" lon="-4.835080691470899"><ele>724.0</ele><time>2026-04-11T06:52:48.999Z</time></trkpt><trkpt lat="41.59066885471574" lon="-4.835251594008078"><ele>724.0</ele><time>2026-04-11T06:52:49.999Z</time></trkpt><trkpt lat="41.590617717452076" lon="-4.8354290876797865"><ele>724.0</ele><time>2026-04-11T06:52:50.999Z</time></trkpt><trkpt lat="41.59056377643551" lon="-4.835613128495664"><ele>724.75</ele><time>2026-04-11T06:52:51.999Z</time></trkpt><trkpt lat="41.59051018643572" lon="-4.835802401421161"><ele>725.5</ele><time>2026-04-11T06:52:52.999Z</time></trkpt><trkpt lat="41.59045681560739" lon="-4.835980564331451"><ele>726.25</ele><time>2026-04-11T06:52:53.999Z</time></trkpt><trkpt lat="41.5904060543267" lon="-4.836147383570175"><ele>727.0</ele><time>2026-04-11T06:52:54.999Z</time></trkpt><trkpt lat="41.590354452909665" lon="-4.836323197534947"><ele>726.5</ele><time>2026-04-11T06:52:55.999Z</time></trkpt><trkpt lat="41.59030333774088" lon="-4.836502706176133"><ele>726.0</ele><time>2026-04-11T06:52:56.999Z</time></trkpt><trkpt lat="41.590250811534155" lon="-4.8366822399697"><ele>725.5</ele><time>2026-04-11T06:52:57.999Z</time></trkpt><trkpt lat="41.59019704923542" lon="-4.836857310643314"><ele>725.0</ele><time>2026-04-11T06:52:58.999Z</time></trkpt><trkpt lat="41.590144674657815" lon="-4.837033078859881"><ele>725.0</ele><time>2026-04-11T06:52:59.999Z</time></trkpt><trkpt lat="41.59009244349604" lon="-4.837205469842772"><ele>725.0</ele><time>2026-04-11T06:53:00.999Z</time></trkpt><trkpt lat="41.59003819831363" lon="-4.837383656669255"><ele>725.0</ele><time>2026-04-11T06:53:01.999Z</time></trkpt><trkpt lat="41.5899853911078" lon="-4.837554266890303"><ele>725.0</ele><time>2026-04-11T06:53:02.999Z</time></trkpt><trkpt lat="41.589932511417025" lon="-4.837726138012442"><ele>726.5</ele><time>2026-04-11T06:53:03.999Z</time></trkpt><trkpt lat="41.589883012642375" lon="-4.837908815693799"><ele>728.0</ele><time>2026-04-11T06:53:04.999Z</time></trkpt><trkpt lat="41.58983571759525" lon="-4.838098790372304"><ele>729.5</ele><time>2026-04-11T06:53:05.999Z</time></trkpt><trkpt lat="41.58979236672959" lon="-4.8382951184077365"><ele>731.0</ele><time>2026-04-11T06:53:06.999Z</time></trkpt><trkpt lat="41.589753532187935" lon="-4.83850114151827"><ele>732.3333333333333</ele><time>2026-04-11T06:53:07.998Z</time></trkpt><trkpt lat="41.58971944486905" lon="-4.838721565454915"><ele>733.6666666666666</ele><time>2026-04-11T06:53:08.998Z</time></trkpt><trkpt lat="41.58968726772583" lon="-4.838948162492971"><ele>735.0</ele><time>2026-04-11T06:53:09.998Z</time></trkpt><trkpt lat="41.58965576860367" lon="-4.839181202149175"><ele>736.6666666666666</ele><time>2026-04-11T06:53:10.998Z</time></trkpt><trkpt lat="41.58961990665248" lon="-4.839424656473519"><ele>738.3333333333333</ele><time>2026-04-11T06:53:11.998Z</time></trkpt><trkpt lat="41.589582165505725" lon="-4.839664864104052"><ele>740.0</ele><time>2026-04-11T06:53:12.998Z</time></trkpt><trkpt lat="41.589542117747506" lon="-4.839914078362719"><ele>740.3333333333333</ele><time>2026-04-11T06:53:13.998Z</time></trkpt><trkpt lat="41.58950880525958" lon="-4.840159925545205"><ele>740.6666666666666</ele><time>2026-04-11T06:53:14.998Z</time></trkpt><trkpt lat="41.589482400076406" lon="-4.840400720091439"><ele>741.0</ele><time>2026-04-11T06:53:15.998Z</time></trkpt><trkpt lat="41.58945428161963" lon="-4.8406364490732"><ele>741.0</ele><time>2026-04-11T06:53:16.998Z</time></trkpt><trkpt lat="41.589417621644955" lon="-4.840879448930257"><ele>741.0</ele><time>2026-04-11T06:53:17.998Z</time></trkpt><trkpt lat="41.589376117985786" lon="-4.841147226366933"><ele>741.0</ele><time>2026-04-11T06:53:18.998Z</time></trkpt><trkpt lat="41.589340946312475" lon="-4.841420950940705"><ele>740.0</ele><time>2026-04-11T06:53:19.998Z</time></trkpt><trkpt lat="41.589304307561" lon="-4.841690555707312"><ele>739.0</ele><time>2026-04-11T06:53:20.998Z</time></trkpt><trkpt lat="41.58926461158508" lon="-4.841955101491206"><ele>738.0</ele><time>2026-04-11T06:53:21.998Z</time></trkpt><trkpt lat="41.5892285028164" lon="-4.84218904179608"><ele>735.3333333333334</ele><time>2026-04-11T06:53:22.998Z</time></trkpt><trkpt lat="41.58919517249491" lon="-4.842412452597413"><ele>732.6666666666667</ele><time>2026-04-11T06:53:23.998Z</time></trkpt><trkpt lat="41.58916484463749" lon="-4.8426270432712615"><ele>730.0</ele><time>2026-04-11T06:53:24.998Z</time></trkpt><trkpt lat="41.58913653269134" lon="-4.842825848654657"><ele>728.25</ele><time>2026-04-11T06:53:25.998Z</time></trkpt><trkpt lat="41.5891072583551" lon="-4.843015635920146"><ele>726.5</ele><time>2026-04-11T06:53:26.998Z</time></trkpt><trkpt lat="41.589077539256856" lon="-4.843193875194162"><ele>724.75</ele><time>2026-04-11T06:53:27.998Z</time></trkpt><trkpt lat="41.589041538714" lon="-4.8433644557522"><ele>723.0</ele><time>2026-04-11T06:53:28.998Z</time></trkpt><trkpt lat="41.58900190301946" lon="-4.843526865075465"><ele>722.75</ele><time>2026-04-11T06:53:29.998Z</time></trkpt><trkpt lat="41.58896199347163" lon="-4.843682865088564"><ele>722.5</ele><time>2026-04-11T06:53:30.998Z</time></trkpt><trkpt lat="41.58891151153421" lon="-4.843854722500695"><ele>722.25</ele><time>2026-04-11T06:53:31.998Z</time></trkpt><trkpt lat="41.58884945420504" lon="-4.844038891352943"><ele>722.0</ele><time>2026-04-11T06:53:32.998Z</time></trkpt><trkpt lat="41.58877489576517" lon="-4.844228129622274"><ele>721.3333333333333</ele><time>2026-04-11T06:53:33.998Z</time></trkpt><trkpt lat="41.58869147034876" lon="-4.844422337094148"><ele>720.6666666666666</ele><time>2026-04-11T06:53:34.998Z</time></trkpt><trkpt lat="41.58860439693517" lon="-4.8446168326935455"><ele>720.0</ele><time>2026-04-11T06:53:35.998Z</time></trkpt><trkpt lat="41.58851322029053" lon="-4.84481391590768"><ele>718.6666666666666</ele><time>2026-04-11T06:53:36.998Z</time></trkpt><trkpt lat="41.588418321983276" lon="-4.845010937092233"><ele>717.3333333333333</ele><time>2026-04-11T06:53:37.998Z</time></trkpt><trkpt lat="41.588322240496474" lon="-4.845217356339064"><ele>716.0</ele><time>2026-04-11T06:53:38.998Z</time></trkpt><trkpt lat="41.58822621664596" lon="-4.845428491758519"><ele>716.0</ele><time>2026-04-11T06:53:39.998Z</time></trkpt><trkpt lat="41.58812730272581" lon="-4.8456487786213405"><ele>716.0</ele><time>2026-04-11T06:53:40.998Z</time></trkpt><trkpt lat="41.58802641076221" lon="-4.845869389201575"><ele>716.0</ele><time>2026-04-11T06:53:41.998Z</time></trkpt><trkpt lat="41.58791926001308" lon="-4.846103380904452"><ele>715.3333333333333</ele><time>2026-04-11T06:53:42.998Z</time></trkpt><trkpt lat="41.587808090575564" lon="-4.846346927253412"><ele>714.6666666666666</ele><time>2026-04-11T06:53:43.998Z</time></trkpt><trkpt lat="41.587694058583594" lon="-4.846596585573822"><ele>714.0</ele><time>2026-04-11T06:53:44.998Z</time></trkpt><trkpt lat="41.58758478158033" lon="-4.84683480027785"><ele>714.0</ele><time>2026-04-11T06:53:45.998Z</time></trkpt><trkpt lat="41.587469626016194" lon="-4.8470776142396135"><ele>714.0</ele><time>2026-04-11T06:53:46.998Z</time></trkpt><trkpt lat="41.587349067380394" lon="-4.84732217285888"><ele>714.0</ele><time>2026-04-11T06:53:47.998Z</time></trkpt><trkpt lat="41.58722177787569" lon="-4.847566880984764"><ele>713.5</ele><time>2026-04-11T06:53:48.998Z</time></trkpt><trkpt lat="41.5870863479798" lon="-4.8478109264085845"><ele>713.0</ele><time>2026-04-11T06:53:49.998Z</time></trkpt><trkpt lat="41.58694803524006" lon="-4.848054041107962"><ele>713.0</ele><time>2026-04-11T06:53:50.997Z</time></trkpt><trkpt lat="41.58681052519878" lon="-4.848300368830808"><ele>713.0</ele><time>2026-04-11T06:53:51.997Z</time></trkpt><trkpt lat="41.58667473926859" lon="-4.848550980744307"><ele>714.5</ele><time>2026-04-11T06:53:52.997Z</time></trkpt><trkpt lat="41.58653797343299" lon="-4.84880040457018"><ele>716.0</ele><time>2026-04-11T06:53:53.997Z</time></trkpt><trkpt lat="41.58640200729412" lon="-4.849044994315062"><ele>716.0</ele><time>2026-04-11T06:53:54.997Z</time></trkpt><trkpt lat="41.58626575646098" lon="-4.849290599567759"><ele>716.0</ele><time>2026-04-11T06:53:55.997Z</time></trkpt><trkpt lat="41.5861311930472" lon="-4.849536720328241"><ele>716.3333333333333</ele><time>2026-04-11T06:53:56.997Z</time></trkpt><trkpt lat="41.5859980125878" lon="-4.849780390337866"><ele>716.6666666666666</ele><time>2026-04-11T06:53:57.997Z</time></trkpt><trkpt lat="41.585866464165996" lon="-4.850018551021222"><ele>717.0</ele><time>2026-04-11T06:53:58.997Z</time></trkpt><trkpt lat="41.5857348827713" lon="-4.850252734337259"><ele>718.0</ele><time>2026-04-11T06:54:00Z</time></trkpt><trkpt lat="41.58560345368064" lon="-4.850485121728986"><ele>719.0</ele><time>2026-04-11T06:54:01Z</time></trkpt><trkpt lat="41.585477784367775" lon="-4.8507138287610605"><ele>720.0</ele><time>2026-04-11T06:54:02Z</time></trkpt><trkpt lat="41.585345065611385" lon="-4.850955099288711"><ele>722.0</ele><time>2026-04-11T06:54:03Z</time></trkpt><trkpt lat="41.585220203492966" lon="-4.851194044705028"><ele>724.0</ele><time>2026-04-11T06:54:04Z</time></trkpt><trkpt lat="41.58510627521696" lon="-4.851440071991696"><ele>726.0</ele><time>2026-04-11T06:54:05Z</time></trkpt><trkpt lat="41.58500903237571" lon="-4.851689461152831"><ele>727.3333333333334</ele><time>2026-04-11T06:54:06Z</time></trkpt><trkpt lat="41.584927749452426" lon="-4.851945388682602"><ele>728.6666666666667</ele><time>2026-04-11T06:54:07Z</time></trkpt><trkpt lat="41.58485905599415" lon="-4.852196545038677"><ele>730.0</ele><time>2026-04-11T06:54:08Z</time></trkpt><trkpt lat="41.58480367682924" lon="-4.852451616986277"><ele>730.3333333333334</ele><time>2026-04-11T06:54:09Z</time></trkpt><trkpt lat="41.58475500307915" lon="-4.852711249296296"><ele>730.6666666666666</ele><time>2026-04-11T06:54:10Z</time></trkpt><trkpt lat="41.58471626107741" lon="-4.852978627312824"><ele>731.0</ele><time>2026-04-11T06:54:11Z</time></trkpt><trkpt lat="41.58468631263475" lon="-4.853258407366824"><ele>731.6666666666666</ele><time>2026-04-11T06:54:12Z</time></trkpt><trkpt lat="41.58465845580973" lon="-4.85354511420499"><ele>732.3333333333334</ele><time>2026-04-11T06:54:13Z</time></trkpt><trkpt lat="41.58463097076938" lon="-4.853845313946703"><ele>733.0</ele><time>2026-04-11T06:54:14Z</time></trkpt><trkpt lat="41.58460355904443" lon="-4.854144707408685"><ele>732.0</ele><time>2026-04-11T06:54:15Z</time></trkpt><trkpt lat="41.584577907835374" lon="-4.854445391076992"><ele>731.0</ele><time>2026-04-11T06:54:16Z</time></trkpt><trkpt lat="41.584552757935334" lon="-4.8547471761917915"><ele>731.0</ele><time>2026-04-11T06:54:17Z</time></trkpt><trkpt lat="41.58452686110422" lon="-4.855044237020783"><ele>731.0</ele><time>2026-04-11T06:54:18Z</time></trkpt><trkpt lat="41.5844998952575" lon="-4.855339148481566"><ele>731.0</ele><time>2026-04-11T06:54:19Z</time></trkpt><trkpt lat="41.58447004096924" lon="-4.855632775271731"><ele>731.3333333333333</ele><time>2026-04-11T06:54:20Z</time></trkpt><trkpt lat="41.58444154551472" lon="-4.8559188340783175"><ele>731.6666666666666</ele><time>2026-04-11T06:54:21Z</time></trkpt><trkpt lat="41.58441562571178" lon="-4.856201808426743"><ele>732.0</ele><time>2026-04-11T06:54:22Z</time></trkpt><trkpt lat="41.58439162038541" lon="-4.856485942515439"><ele>733.0</ele><time>2026-04-11T06:54:23Z</time></trkpt><trkpt lat="41.584368514647835" lon="-4.856757230717078"><ele>734.0</ele><time>2026-04-11T06:54:24Z</time></trkpt><trkpt lat="41.58434642019563" lon="-4.857029531358325"><ele>735.0</ele><time>2026-04-11T06:54:25Z</time></trkpt><trkpt lat="41.58432439617082" lon="-4.857296926812393"><ele>735.3333333333334</ele><time>2026-04-11T06:54:26Z</time></trkpt><trkpt lat="41.58429958902155" lon="-4.8575601969045925"><ele>735.6666666666667</ele><time>2026-04-11T06:54:27Z</time></trkpt><trkpt lat="41.584273566641286" lon="-4.857831932130769"><ele>736.0</ele><time>2026-04-11T06:54:28Z</time></trkpt><trkpt lat="41.584247569428825" lon="-4.858109127168259"><ele>737.3333333333334</ele><time>2026-04-11T06:54:29Z</time></trkpt><trkpt lat="41.58421791673778" lon="-4.8583903194306615"><ele>738.6666666666666</ele><time>2026-04-11T06:54:30Z</time></trkpt><trkpt lat="41.58418915384264" lon="-4.858680264250294"><ele>740.0</ele><time>2026-04-11T06:54:31Z</time></trkpt><trkpt lat="41.584160961149706" lon="-4.8589756462006575"><ele>740.5</ele><time>2026-04-11T06:54:32Z</time></trkpt><trkpt lat="41.5841335552152" lon="-4.859272371863057"><ele>741.0</ele><time>2026-04-11T06:54:33Z</time></trkpt><trkpt lat="41.58410574390151" lon="-4.859572441573028"><ele>742.5</ele><time>2026-04-11T06:54:34Z</time></trkpt><trkpt lat="41.58407928188238" lon="-4.859872699631396"><ele>744.0</ele><time>2026-04-11T06:54:35Z</time></trkpt><trkpt lat="41.5840528183627" lon="-4.860173149616878"><ele>745.0</ele><time>2026-04-11T06:54:35.999Z</time></trkpt><trkpt lat="41.58402403486516" lon="-4.860470653460094"><ele>746.0</ele><time>2026-04-11T06:54:36.999Z</time></trkpt><trkpt lat="41.58399778576539" lon="-4.860746998304209"><ele>747.0</ele><time>2026-04-11T06:54:37.999Z</time></trkpt><trkpt lat="41.5839754942247" lon="-4.86101688042284"><ele>747.3333333333334</ele><time>2026-04-11T06:54:38.999Z</time></trkpt><trkpt lat="41.58395279971612" lon="-4.86129789296106"><ele>747.6666666666667</ele><time>2026-04-11T06:54:39.999Z</time></trkpt><trkpt lat="41.583927877535004" lon="-4.861582791416521"><ele>748.0</ele><time>2026-04-11T06:54:40.999Z</time></trkpt><trkpt lat="41.58389845640811" lon="-4.861883046230108"><ele>749.0</ele><time>2026-04-11T06:54:41.999Z</time></trkpt><trkpt lat="41.583868715197156" lon="-4.862195311315995"><ele>750.0</ele><time>2026-04-11T06:54:42.999Z</time></trkpt><trkpt lat="41.58383796406215" lon="-4.8625160383890975"><ele>751.5</ele><time>2026-04-11T06:54:43.999Z</time></trkpt><trkpt lat="41.58380972571685" lon="-4.862844484574178"><ele>753.0</ele><time>2026-04-11T06:54:44.999Z</time></trkpt><trkpt lat="41.58378120924743" lon="-4.863177951552524"><ele>754.0</ele><time>2026-04-11T06:54:45.999Z</time></trkpt><trkpt lat="41.583752158663934" lon="-4.863507193963362"><ele>755.0</ele><time>2026-04-11T06:54:46.999Z</time></trkpt><trkpt lat="41.58371963980476" lon="-4.863839297305489"><ele>755.0</ele><time>2026-04-11T06:54:47.999Z</time></trkpt><trkpt lat="41.583688624321724" lon="-4.8641681694137855"><ele>755.0</ele><time>2026-04-11T06:54:48.999Z</time></trkpt><trkpt lat="41.58366061203353" lon="-4.8644930603005205"><ele>753.5</ele><time>2026-04-11T06:54:49.999Z</time></trkpt><trkpt lat="41.58363882429828" lon="-4.864809938303632"><ele>752.0</ele><time>2026-04-11T06:54:50.999Z</time></trkpt><trkpt lat="41.58362621991755" lon="-4.865125568568231"><ele>751.0</ele><time>2026-04-11T06:54:51.999Z</time></trkpt><trkpt lat="41.5836198664996" lon="-4.865452928473421"><ele>750.0</ele><time>2026-04-11T06:54:52.999Z</time></trkpt><trkpt lat="41.583619388007506" lon="-4.8657769029322955"><ele>749.0</ele><time>2026-04-11T06:54:53.999Z</time></trkpt><trkpt lat="41.58362171060305" lon="-4.8661194713147475"><ele>748.0</ele><time>2026-04-11T06:54:54.999Z</time></trkpt><trkpt lat="41.58362190779777" lon="-4.866462627770886"><ele>747.0</ele><time>2026-04-11T06:54:55.999Z</time></trkpt><trkpt lat="41.58361783380185" lon="-4.866801503442667"><ele>746.0</ele><time>2026-04-11T06:54:56.999Z</time></trkpt><trkpt lat="41.58360600292602" lon="-4.867145555515204"><ele>746.0</ele><time>2026-04-11T06:54:57.999Z</time></trkpt><trkpt lat="41.583585647098765" lon="-4.867485029251875"><ele>746.0</ele><time>2026-04-11T06:54:58.999Z</time></trkpt><trkpt lat="41.583577268212416" lon="-4.867825073470769"><ele>745.0</ele><time>2026-04-11T06:54:59.999Z</time></trkpt><trkpt lat="41.58352671685274" lon="-4.868166037934557"><ele>744.0</ele><time>2026-04-11T06:55:00.999Z</time></trkpt><trkpt lat="41.58349292374298" lon="-4.868499277357806"><ele>743.5</ele><time>2026-04-11T06:55:01.999Z</time></trkpt><trkpt lat="41.583454895945906" lon="-4.868832371913366"><ele>743.0</ele><time>2026-04-11T06:55:02.999Z</time></trkpt><trkpt lat="41.58341939368284" lon="-4.869166243126985"><ele>742.5</ele><time>2026-04-11T06:55:03.999Z</time></trkpt><trkpt lat="41.583385213219714" lon="-4.869500474149172"><ele>742.0</ele><time>2026-04-11T06:55:04.999Z</time></trkpt><trkpt lat="41.583351184303744" lon="-4.869830687896708"><ele>741.5</ele><time>2026-04-11T06:55:05.999Z</time></trkpt><trkpt lat="41.58331669521012" lon="-4.870161547108628"><ele>741.0</ele><time>2026-04-11T06:55:06.999Z</time></trkpt><trkpt lat="41.583285282507966" lon="-4.870486379720536"><ele>741.0</ele><time>2026-04-11T06:55:07.999Z</time></trkpt><trkpt lat="41.583251176502905" lon="-4.870817085266282"><ele>741.0</ele><time>2026-04-11T06:55:08.999Z</time></trkpt><trkpt lat="41.583217503775586" lon="-4.871145601379579"><ele>740.0</ele><time>2026-04-11T06:55:09.999Z</time></trkpt><trkpt lat="41.58318643395248" lon="-4.871467441121467"><ele>739.0</ele><time>2026-04-11T06:55:10.999Z</time></trkpt><trkpt lat="41.58315088104906" lon="-4.8718012638935635"><ele>738.5</ele><time>2026-04-11T06:55:11.999Z</time></trkpt><trkpt lat="41.58312285397031" lon="-4.872117207720694"><ele>738.0</ele><time>2026-04-11T06:55:12.999Z</time></trkpt><trkpt lat="41.58309204957029" lon="-4.8724292478787605"><ele>736.0</ele><time>2026-04-11T06:55:13.999Z</time></trkpt><trkpt lat="41.58305725945415" lon="-4.872741286442202"><ele>734.0</ele><time>2026-04-11T06:55:14.999Z</time></trkpt><trkpt lat="41.58302238882432" lon="-4.873056455627199"><ele>734.0</ele><time>2026-04-11T06:55:15.999Z</time></trkpt><trkpt lat="41.58299182735596" lon="-4.873365436956587"><ele>734.0</ele><time>2026-04-11T06:55:16.999Z</time></trkpt><trkpt lat="41.582963334489456" lon="-4.873651247242252"><ele>734.0</ele><time>2026-04-11T06:55:17.999Z</time></trkpt><trkpt lat="41.582938046597576" lon="-4.873924329290415"><ele>733.3333333333333</ele><time>2026-04-11T06:55:18.999Z</time></trkpt><trkpt lat="41.582914009202256" lon="-4.874180690797154"><ele>732.6666666666666</ele><time>2026-04-11T06:55:19.998Z</time></trkpt><trkpt lat="41.58289086830169" lon="-4.8744199462101925"><ele>732.0</ele><time>2026-04-11T06:55:20.998Z</time></trkpt><trkpt lat="41.582868108326124" lon="-4.874628567493859"><ele>731.8</ele><time>2026-04-11T06:55:21.998Z</time></trkpt><trkpt lat="41.58284882387472" lon="-4.874813137290249"><ele>731.6</ele><time>2026-04-11T06:55:22.998Z</time></trkpt><trkpt lat="41.58283416123203" lon="-4.874968813105878"><ele>731.4</ele><time>2026-04-11T06:55:23.998Z</time></trkpt><trkpt lat="41.58282424281779" lon="-4.8751041509961786"><ele>731.1999999999999</ele><time>2026-04-11T06:55:24.998Z</time></trkpt><trkpt lat="41.58281610966954" lon="-4.875213038536447"><ele>731.0</ele><time>2026-04-11T06:55:25.998Z</time></trkpt><trkpt lat="41.58280715330383" lon="-4.875306419968329"><ele>731.0</ele><time>2026-04-11T06:55:26.998Z</time></trkpt><trkpt lat="41.582802115974005" lon="-4.875421255932726"><ele>731.0</ele><time>2026-04-11T06:55:28.998Z</time></trkpt><trkpt lat="41.58284875751986" lon="-4.875541927225096"><ele>731.0</ele><time>2026-04-11T06:55:30.998Z</time></trkpt><trkpt lat="41.58290264917266" lon="-4.8756036802905225"><ele>731.0</ele><time>2026-04-11T06:55:31.998Z</time></trkpt><trkpt lat="41.58297460527998" lon="-4.87566422715926"><ele>731.0</ele><time>2026-04-11T06:55:32.998Z</time></trkpt><trkpt lat="41.58305719757189" lon="-4.875735601251807"><ele>731.0</ele><time>2026-04-11T06:55:33.998Z</time></trkpt><trkpt lat="41.58314594014046" lon="-4.875810432836428"><ele>731.0</ele><time>2026-04-11T06:55:34.998Z</time></trkpt><trkpt lat="41.583242847548746" lon="-4.875891328928505"><ele>731.0</ele><time>2026-04-11T06:55:35.998Z</time></trkpt><trkpt lat="41.58334606051572" lon="-4.875973758495376"><ele>731.0</ele><time>2026-04-11T06:55:36.998Z</time></trkpt><trkpt lat="41.58345802371923" lon="-4.876063495378074"><ele>731.0</ele><time>2026-04-11T06:55:37.998Z</time></trkpt><trkpt lat="41.58357533688186" lon="-4.876163907575177"><ele>731.6666666666666</ele><time>2026-04-11T06:55:38.998Z</time></trkpt><trkpt lat="41.58370353352463" lon="-4.87626972579299"><ele>732.3333333333334</ele><time>2026-04-11T06:55:39.998Z</time></trkpt><trkpt lat="41.583840145130765" lon="-4.876374431948581"><ele>733.0</ele><time>2026-04-11T06:55:40.998Z</time></trkpt><trkpt lat="41.583984615010586" lon="-4.876464839756842"><ele>733.0</ele><time>2026-04-11T06:55:41.998Z</time></trkpt><trkpt lat="41.584128821672" lon="-4.87653731951334"><ele>733.0</ele><time>2026-04-11T06:55:42.998Z</time></trkpt><trkpt lat="41.58428159087519" lon="-4.876623415010095"><ele>733.0</ele><time>2026-04-11T06:55:43.998Z</time></trkpt><trkpt lat="41.58442815027209" lon="-4.876711859770309"><ele>733.75</ele><time>2026-04-11T06:55:44.998Z</time></trkpt><trkpt lat="41.58456643198655" lon="-4.876793711863585"><ele>734.5</ele><time>2026-04-11T06:55:45.998Z</time></trkpt><trkpt lat="41.58470198998004" lon="-4.876871762088213"><ele>735.25</ele><time>2026-04-11T06:55:46.998Z</time></trkpt><trkpt lat="41.58483337862421" lon="-4.87695349421349"><ele>736.0</ele><time>2026-04-11T06:55:47.998Z</time></trkpt><trkpt lat="41.58495841764993" lon="-4.877041740086029"><ele>736.0</ele><time>2026-04-11T06:55:48.998Z</time></trkpt><trkpt lat="41.58507609849564" lon="-4.877143267498686"><ele>736.0</ele><time>2026-04-11T06:55:49.998Z</time></trkpt><trkpt lat="41.58518186309425" lon="-4.877259617467761"><ele>736.0</ele><time>2026-04-11T06:55:50.998Z</time></trkpt><trkpt lat="41.58528307784716" lon="-4.877387753454179"><ele>736.0</ele><time>2026-04-11T06:55:51.998Z</time></trkpt><trkpt lat="41.58539663055671" lon="-4.877515580713636"><ele>736.6666666666667</ele><time>2026-04-11T06:55:52.998Z</time></trkpt><trkpt lat="41.58552084601713" lon="-4.877650242797129"><ele>737.3333333333334</ele><time>2026-04-11T06:55:53.998Z</time></trkpt><trkpt lat="41.58565203261476" lon="-4.877792964104641"><ele>738.0</ele><time>2026-04-11T06:55:54.998Z</time></trkpt><trkpt lat="41.58578595118503" lon="-4.877940593992273"><ele>738.0</ele><time>2026-04-11T06:55:55.998Z</time></trkpt><trkpt lat="41.58592547016919" lon="-4.878095173683308"><ele>738.0</ele><time>2026-04-11T06:55:56.998Z</time></trkpt><trkpt lat="41.58606475677803" lon="-4.878252195783197"><ele>738.0</ele><time>2026-04-11T06:55:57.998Z</time></trkpt><trkpt lat="41.586207191502744" lon="-4.8784106668915745"><ele>740.0</ele><time>2026-04-11T06:55:58.998Z</time></trkpt><trkpt lat="41.58636093073716" lon="-4.878561416451402"><ele>742.0</ele><time>2026-04-11T06:55:59.998Z</time></trkpt><trkpt lat="41.58652244580145" lon="-4.878675701073219"><ele>744.0</ele><time>2026-04-11T06:56:00.998Z</time></trkpt><trkpt lat="41.58669107412788" lon="-4.878747796303058"><ele>744.0</ele><time>2026-04-11T06:56:01.997Z</time></trkpt><trkpt lat="41.58687342178516" lon="-4.8787899448204355"><ele>744.0</ele><time>2026-04-11T06:56:02.997Z</time></trkpt><trkpt lat="41.58705572958666" lon="-4.878832459356146"><ele>744.0</ele><time>2026-04-11T06:56:03.997Z</time></trkpt><trkpt lat="41.58723377404988" lon="-4.878882457788597"><ele>744.6666666666666</ele><time>2026-04-11T06:56:04.997Z</time></trkpt><trkpt lat="41.58742060975508" lon="-4.878945178428135"><ele>745.3333333333333</ele><time>2026-04-11T06:56:06Z</time></trkpt><trkpt lat="41.58759963871962" lon="-4.8790051394616745"><ele>746.0</ele><time>2026-04-11T06:56:07Z</time></trkpt><trkpt lat="41.587779520788146" lon="-4.879041274241149"><ele>747.0</ele><time>2026-04-11T06:56:08Z</time></trkpt><trkpt lat="41.58796414350698" lon="-4.879043959964884"><ele>748.0</ele><time>2026-04-11T06:56:09Z</time></trkpt><trkpt lat="41.58814012062589" lon="-4.87901445715759"><ele>749.0</ele><time>2026-04-11T06:56:10Z</time></trkpt><trkpt lat="41.588319231985224" lon="-4.878983418756652"><ele>749.0</ele><time>2026-04-11T06:56:11Z</time></trkpt><trkpt lat="41.58850038503383" lon="-4.8789585730350025"><ele>749.0</ele><time>2026-04-11T06:56:12Z</time></trkpt><trkpt lat="41.58868106923205" lon="-4.878941112395061"><ele>749.0</ele><time>2026-04-11T06:56:13Z</time></trkpt><trkpt lat="41.58886245014178" lon="-4.878923593479723"><ele>749.3333333333333</ele><time>2026-04-11T06:56:14Z</time></trkpt><trkpt lat="41.589044481854046" lon="-4.8789036797179755"><ele>749.6666666666666</ele><time>2026-04-11T06:56:15Z</time></trkpt><trkpt lat="41.58922225221706" lon="-4.878886825336666"><ele>750.0</ele><time>2026-04-11T06:56:16Z</time></trkpt><trkpt lat="41.58940539801731" lon="-4.878870567045445"><ele>751.6666666666666</ele><time>2026-04-11T06:56:17Z</time></trkpt><trkpt lat="41.589585221346454" lon="-4.878856076802481"><ele>753.3333333333333</ele><time>2026-04-11T06:56:18Z</time></trkpt><trkpt lat="41.58976236402707" lon="-4.878845710687107"><ele>755.0</ele><time>2026-04-11T06:56:19Z</time></trkpt><trkpt lat="41.58994072385025" lon="-4.878855574322632"><ele>755.0</ele><time>2026-04-11T06:56:20Z</time></trkpt><trkpt lat="41.590118383936755" lon="-4.878895674563398"><ele>755.0</ele><time>2026-04-11T06:56:21Z</time></trkpt><trkpt lat="41.590289559713405" lon="-4.878963944207224"><ele>755.0</ele><time>2026-04-11T06:56:22Z</time></trkpt><trkpt lat="41.59044980865352" lon="-4.87907204482161"><ele>756.6666666666666</ele><time>2026-04-11T06:56:23Z</time></trkpt><trkpt lat="41.59061081399966" lon="-4.879199544405611"><ele>758.3333333333334</ele><time>2026-04-11T06:56:24Z</time></trkpt><trkpt lat="41.590771789730205" lon="-4.879329586421848"><ele>760.0</ele><time>2026-04-11T06:56:25Z</time></trkpt><trkpt lat="41.590943130749906" lon="-4.879442527815889"><ele>760.3333333333334</ele><time>2026-04-11T06:56:26Z</time></trkpt><trkpt lat="41.591087147706" lon="-4.879511591223343"><ele>760.6666666666666</ele><time>2026-04-11T06:56:27Z</time></trkpt><trkpt lat="41.591250013142094" lon="-4.879552335698864"><ele>761.0</ele><time>2026-04-11T06:56:28Z</time></trkpt><trkpt lat="41.59142957692736" lon="-4.87955915540944"><ele>762.3333333333333</ele><time>2026-04-11T06:56:29Z</time></trkpt><trkpt lat="41.5916165153649" lon="-4.879570633808574"><ele>763.6666666666666</ele><time>2026-04-11T06:56:30Z</time></trkpt><trkpt lat="41.5918015816003" lon="-4.879593071040892"><ele>765.0</ele><time>2026-04-11T06:56:31Z</time></trkpt><trkpt lat="41.59199777755117" lon="-4.879610996483165"><ele>766.6666666666667</ele><time>2026-04-11T06:56:32Z</time></trkpt><trkpt lat="41.59219524629792" lon="-4.879626231515327"><ele>768.3333333333334</ele><time>2026-04-11T06:56:33Z</time></trkpt><trkpt lat="41.59238456768458" lon="-4.879640921638769"><ele>770.0</ele><time>2026-04-11T06:56:34Z</time></trkpt><trkpt lat="41.59259004890947" lon="-4.879651048622636"><ele>770.0</ele><time>2026-04-11T06:56:35Z</time></trkpt><trkpt lat="41.59279658846991" lon="-4.879660367553701"><ele>770.0</ele><time>2026-04-11T06:56:36Z</time></trkpt><trkpt lat="41.593007335222616" lon="-4.879668063397528"><ele>770.0</ele><time>2026-04-11T06:56:37Z</time></trkpt><trkpt lat="41.59322594087623" lon="-4.8796750773671365"><ele>771.3333333333334</ele><time>2026-04-11T06:56:38Z</time></trkpt><trkpt lat="41.59344276702248" lon="-4.879679597455983"><ele>772.6666666666667</ele><time>2026-04-11T06:56:38.999Z</time></trkpt><trkpt lat="41.593652751835805" lon="-4.879678447390257"><ele>774.0</ele><time>2026-04-11T06:56:39.999Z</time></trkpt><trkpt lat="41.5938398502626" lon="-4.879672076747152"><ele>775.25</ele><time>2026-04-11T06:56:40.999Z</time></trkpt><trkpt lat="41.5940076503821" lon="-4.879663575394717"><ele>776.5</ele><time>2026-04-11T06:56:41.999Z</time></trkpt><trkpt lat="41.5941543653442" lon="-4.879656720395302"><ele>777.75</ele><time>2026-04-11T06:56:42.999Z</time></trkpt><trkpt lat="41.594286574924716" lon="-4.879666301862276"><ele>779.0</ele><time>2026-04-11T06:56:43.999Z</time></trkpt><trkpt lat="41.59441247236965" lon="-4.879710325193146"><ele>781.25</ele><time>2026-04-11T06:56:44.999Z</time></trkpt><trkpt lat="41.59453225940846" lon="-4.8797982871228625"><ele>783.5</ele><time>2026-04-11T06:56:45.999Z</time></trkpt><trkpt lat="41.594642743783986" lon="-4.879932727323235"><ele>785.75</ele><time>2026-04-11T06:56:46.999Z</time></trkpt><trkpt lat="41.59475379226165" lon="-4.88008849553007"><ele>788.0</ele><time>2026-04-11T06:56:47.999Z</time></trkpt><trkpt lat="41.59485823777185" lon="-4.880250080160614"><ele>789.0</ele><time>2026-04-11T06:56:48.999Z</time></trkpt><trkpt lat="41.59495734109388" lon="-4.880427596392891"><ele>790.0</ele><time>2026-04-11T06:56:49.999Z</time></trkpt><trkpt lat="41.595029441235106" lon="-4.880632763905535"><ele>791.0</ele><time>2026-04-11T06:56:50.999Z</time></trkpt><trkpt lat="41.59508259129101" lon="-4.880865477496038"><ele>791.6666666666667</ele><time>2026-04-11T06:56:51.999Z</time></trkpt><trkpt lat="41.595131953941866" lon="-4.881105386261432"><ele>792.3333333333333</ele><time>2026-04-11T06:56:52.999Z</time></trkpt><trkpt lat="41.59519025653796" lon="-4.8813068055226125"><ele>793.0</ele><time>2026-04-11T06:56:53.999Z</time></trkpt><trkpt lat="41.5952647110407" lon="-4.881502065862708"><ele>794.3333333333333</ele><time>2026-04-11T06:56:54.999Z</time></trkpt><trkpt lat="41.595353256991" lon="-4.881681449592036"><ele>795.6666666666667</ele><time>2026-04-11T06:56:55.999Z</time></trkpt><trkpt lat="41.59546364954199" lon="-4.881824868577332"><ele>797.0</ele><time>2026-04-11T06:56:56.999Z</time></trkpt><trkpt lat="41.595597083852766" lon="-4.881932462924969"><ele>797.0</ele><time>2026-04-11T06:56:57.999Z</time></trkpt><trkpt lat="41.5957585808596" lon="-4.882008376850952"><ele>797.0</ele><time>2026-04-11T06:56:58.999Z</time></trkpt><trkpt lat="41.5959357959622" lon="-4.882061798520295"><ele>797.0</ele><time>2026-04-11T06:56:59.999Z</time></trkpt><trkpt lat="41.5961152978358" lon="-4.882113260416216"><ele>798.3333333333334</ele><time>2026-04-11T06:57:00.999Z</time></trkpt><trkpt lat="41.59629366771635" lon="-4.882165868554173"><ele>799.6666666666667</ele><time>2026-04-11T06:57:01.999Z</time></trkpt><trkpt lat="41.59647354667865" lon="-4.882190047099239"><ele>801.0</ele><time>2026-04-11T06:57:02.999Z</time></trkpt><trkpt lat="41.596657238023965" lon="-4.882167116059666"><ele>801.0</ele><time>2026-04-11T06:57:03.999Z</time></trkpt><trkpt lat="41.59684980093965" lon="-4.882133634722299"><ele>801.0</ele><time>2026-04-11T06:57:04.999Z</time></trkpt><trkpt lat="41.59703815629062" lon="-4.882098276156246"><ele>801.0</ele><time>2026-04-11T06:57:05.999Z</time></trkpt><trkpt lat="41.59722372712835" lon="-4.882073600438768"><ele>802.3333333333333</ele><time>2026-04-11T06:57:06.999Z</time></trkpt><trkpt lat="41.59741392885901" lon="-4.882053333395512"><ele>803.6666666666666</ele><time>2026-04-11T06:57:07.999Z</time></trkpt><trkpt lat="41.59760311132885" lon="-4.882004917652869"><ele>805.0</ele><time>2026-04-11T06:57:08.999Z</time></trkpt><trkpt lat="41.59779061845117" lon="-4.881916626043191"><ele>807.0</ele><time>2026-04-11T06:57:09.999Z</time></trkpt><trkpt lat="41.59797879466334" lon="-4.88179369931369"><ele>809.0</ele><time>2026-04-11T06:57:10.999Z</time></trkpt><trkpt lat="41.598167932327904" lon="-4.881652285842367"><ele>811.0</ele><time>2026-04-11T06:57:11.999Z</time></trkpt><trkpt lat="41.59835786779714" lon="-4.881526143992484"><ele>811.0</ele><time>2026-04-11T06:57:12.999Z</time></trkpt><trkpt lat="41.59855329367252" lon="-4.88141065536934"><ele>811.0</ele><time>2026-04-11T06:57:13.999Z</time></trkpt><trkpt lat="41.598744605741544" lon="-4.8812828124964485"><ele>811.0</ele><time>2026-04-11T06:57:14.999Z</time></trkpt><trkpt lat="41.59891559483966" lon="-4.8811229451564735"><ele>811.6666666666666</ele><time>2026-04-11T06:57:15.999Z</time></trkpt><trkpt lat="41.5990567940969" lon="-4.880957333222642"><ele>812.3333333333333</ele><time>2026-04-11T06:57:16.999Z</time></trkpt><trkpt lat="41.599177901164396" lon="-4.880814870737743"><ele>813.0</ele><time>2026-04-11T06:57:17.999Z</time></trkpt><trkpt lat="41.59927596255994" lon="-4.880733374142726"><ele>813.0</ele><time>2026-04-11T06:57:18.999Z</time></trkpt><trkpt lat="41.59937351299205" lon="-4.880703790341172"><ele>813.0</ele><time>2026-04-11T06:57:19.999Z</time></trkpt><trkpt lat="41.59950297149867" lon="-4.8807153751325165"><ele>813.0</ele><time>2026-04-11T06:57:20.998Z</time></trkpt><trkpt lat="41.599638030178326" lon="-4.880773560756751"><ele>813.0</ele><time>2026-04-11T06:57:21.998Z</time></trkpt><trkpt lat="41.59976414185663" lon="-4.8808800310751295"><ele>819.0</ele><time>2026-04-11T06:57:22.998Z</time></trkpt><trkpt lat="41.59988942287148" lon="-4.881017292608196"><ele>825.0</ele><time>2026-04-11T06:57:23.998Z</time></trkpt><trkpt lat="41.600024482581986" lon="-4.881148677366884"><ele>831.0</ele><time>2026-04-11T06:57:24.998Z</time></trkpt><trkpt lat="41.60017395226479" lon="-4.88127369249269"><ele>830.6666666666667</ele><time>2026-04-11T06:57:25.998Z</time></trkpt><trkpt lat="41.6003381724948" lon="-4.881389953197438"><ele>830.3333333333334</ele><time>2026-04-11T06:57:26.998Z</time></trkpt><trkpt lat="41.600511646237614" lon="-4.881498221119859"><ele>830.0</ele><time>2026-04-11T06:57:27.998Z</time></trkpt><trkpt lat="41.600669299465" lon="-4.8815989576917564"><ele>830.0</ele><time>2026-04-11T06:57:28.998Z</time></trkpt><trkpt lat="41.60083007857736" lon="-4.881702989540587"><ele>830.0</ele><time>2026-04-11T06:57:29.998Z</time></trkpt><trkpt lat="41.60100775818165" lon="-4.881772734298177"><ele>830.0</ele><time>2026-04-11T06:57:30.998Z</time></trkpt><trkpt lat="41.601207283994164" lon="-4.88181360454374"><ele>832.0</ele><time>2026-04-11T06:57:31.998Z</time></trkpt><trkpt lat="41.60141705134674" lon="-4.881843460261115"><ele>834.0</ele><time>2026-04-11T06:57:32.998Z</time></trkpt><trkpt lat="41.601629630827794" lon="-4.881861537564927"><ele>836.0</ele><time>2026-04-11T06:57:33.998Z</time></trkpt><trkpt lat="41.60184513900038" lon="-4.881878667688145"><ele>837.6666666666667</ele><time>2026-04-11T06:57:34.998Z</time></trkpt><trkpt lat="41.60204389102086" lon="-4.881883706309617"><ele>839.3333333333333</ele><time>2026-04-11T06:57:35.998Z</time></trkpt><trkpt lat="41.60221624010144" lon="-4.881887666738852"><ele>841.0</ele><time>2026-04-11T06:57:36.998Z</time></trkpt><trkpt lat="41.602378326699466" lon="-4.881918785360906"><ele>841.0</ele><time>2026-04-11T06:57:37.998Z</time></trkpt><trkpt lat="41.60254822548731" lon="-4.881989812701825"><ele>841.0</ele><time>2026-04-11T06:57:38.998Z</time></trkpt><trkpt lat="41.60271437182054" lon="-4.882094603036293"><ele>841.0</ele><time>2026-04-11T06:57:39.998Z</time></trkpt><trkpt lat="41.602878417454946" lon="-4.882238663852184"><ele>841.3333333333333</ele><time>2026-04-11T06:57:40.998Z</time></trkpt><trkpt lat="41.603018289107936" lon="-4.882367803650463"><ele>841.6666666666667</ele><time>2026-04-11T06:57:41.998Z</time></trkpt><trkpt lat="41.60314620419746" lon="-4.8824924013521365"><ele>842.0</ele><time>2026-04-11T06:57:42.998Z</time></trkpt><trkpt lat="41.603253813746775" lon="-4.882634645363808"><ele>842.0</ele><time>2026-04-11T06:57:43.998Z</time></trkpt><trkpt lat="41.603348966261755" lon="-4.8828126629739526"><ele>842.0</ele><time>2026-04-11T06:57:44.998Z</time></trkpt><trkpt lat="41.60342075419308" lon="-4.88302120033635"><ele>842.0</ele><time>2026-04-11T06:57:45.998Z</time></trkpt><trkpt lat="41.603498699999406" lon="-4.883241517614404"><ele>842.0</ele><time>2026-04-11T06:57:46.998Z</time></trkpt><trkpt lat="41.60358287125127" lon="-4.883479858857024"><ele>842.0</ele><time>2026-04-11T06:57:47.998Z</time></trkpt><trkpt lat="41.603675232924516" lon="-4.883733152773045"><ele>842.0</ele><time>2026-04-11T06:57:48.998Z</time></trkpt><trkpt lat="41.60376930589449" lon="-4.883996760279191"><ele>841.0</ele><time>2026-04-11T06:57:49.998Z</time></trkpt><trkpt lat="41.603867678547" lon="-4.88427385244255"><ele>840.0</ele><time>2026-04-11T06:57:50.998Z</time></trkpt><trkpt lat="41.603962809628065" lon="-4.884540579254965"><ele>840.0</ele><time>2026-04-11T06:57:51.998Z</time></trkpt><trkpt lat="41.60405669365615" lon="-4.884804064582125"><ele>840.0</ele><time>2026-04-11T06:57:52.998Z</time></trkpt><trkpt lat="41.60415968504555" lon="-4.885082430039291"><ele>841.0</ele><time>2026-04-11T06:57:53.998Z</time></trkpt><trkpt lat="41.60427116661769" lon="-4.885364950102724"><ele>842.0</ele><time>2026-04-11T06:57:54.998Z</time></trkpt><trkpt lat="41.60438740617073" lon="-4.885656777755412"><ele>841.5</ele><time>2026-04-11T06:57:55.998Z</time></trkpt><trkpt lat="41.60450351312379" lon="-4.885953165702888"><ele>841.0</ele><time>2026-04-11T06:57:56.998Z</time></trkpt><trkpt lat="41.60461991091193" lon="-4.886250314738435"><ele>841.0</ele><time>2026-04-11T06:57:57.998Z</time></trkpt><trkpt lat="41.60473535488089" lon="-4.886546474985115"><ele>841.0</ele><time>2026-04-11T06:57:58.998Z</time></trkpt><trkpt lat="41.60485339464326" lon="-4.88684361707713"><ele>841.0</ele><time>2026-04-11T06:57:59.998Z</time></trkpt><trkpt lat="41.60497421359043" lon="-4.887144942566485"><ele>841.0</ele><time>2026-04-11T06:58:00.998Z</time></trkpt><trkpt lat="41.60508999993763" lon="-4.887436270252884"><ele>841.0</ele><time>2026-04-11T06:58:01.998Z</time></trkpt><trkpt lat="41.605202131419176" lon="-4.8877196061736505"><ele>841.0</ele><time>2026-04-11T06:58:02.998Z</time></trkpt><trkpt lat="41.60531239583622" lon="-4.8880023606221314"><ele>842.0</ele><time>2026-04-11T06:58:03.997Z</time></trkpt><trkpt lat="41.60541793483403" lon="-4.888301575865121"><ele>843.0</ele><time>2026-04-11T06:58:04.997Z</time></trkpt><trkpt lat="41.60551318244328" lon="-4.888612609876041"><ele>843.5</ele><time>2026-04-11T06:58:05.997Z</time></trkpt><trkpt lat="41.60559128089121" lon="-4.88892420008618"><ele>844.0</ele><time>2026-04-11T06:58:06.997Z</time></trkpt><trkpt lat="41.605672280332584" lon="-4.889231910075327"><ele>843.5</ele><time>2026-04-11T06:58:07.997Z</time></trkpt><trkpt lat="41.605756549668214" lon="-4.889531791173764"><ele>843.0</ele><time>2026-04-11T06:58:08.997Z</time></trkpt><trkpt lat="41.605839004180616" lon="-4.8898272470390864"><ele>842.5</ele><time>2026-04-11T06:58:09.997Z</time></trkpt><trkpt lat="41.605930584685545" lon="-4.890133721387087"><ele>842.0</ele><time>2026-04-11T06:58:10.997Z</time></trkpt><trkpt lat="41.60602338312407" lon="-4.890447551115527"><ele>842.0</ele><time>2026-04-11T06:58:12Z</time></trkpt><trkpt lat="41.606103037432526" lon="-4.8907512967992055"><ele>842.0</ele><time>2026-04-11T06:58:13Z</time></trkpt><trkpt lat="41.606190518285246" lon="-4.89105494710242"><ele>842.0</ele><time>2026-04-11T06:58:14Z</time></trkpt><trkpt lat="41.60627729190657" lon="-4.891348794094594"><ele>842.0</ele><time>2026-04-11T06:58:15Z</time></trkpt><trkpt lat="41.606391923158604" lon="-4.891632172294028"><ele>841.5</ele><time>2026-04-11T06:58:16Z</time></trkpt><trkpt lat="41.60652845142879" lon="-4.891898979068761"><ele>841.0</ele><time>2026-04-11T06:58:17Z</time></trkpt><trkpt lat="41.60668547391127" lon="-4.892148195555065"><ele>841.0</ele><time>2026-04-11T06:58:18Z</time></trkpt><trkpt lat="41.60682923327786" lon="-4.892397425679931"><ele>841.0</ele><time>2026-04-11T06:58:19Z</time></trkpt><trkpt lat="41.60696848624301" lon="-4.89265843417731"><ele>843.0</ele><time>2026-04-11T06:58:20Z</time></trkpt><trkpt lat="41.607109620766934" lon="-4.892918982908672"><ele>845.0</ele><time>2026-04-11T06:58:21Z</time></trkpt><trkpt lat="41.60725164193867" lon="-4.893178624131716"><ele>844.0</ele><time>2026-04-11T06:58:22Z</time></trkpt><trkpt lat="41.60738964543017" lon="-4.893437385464175"><ele>843.0</ele><time>2026-04-11T06:58:23Z</time></trkpt><trkpt lat="41.60753025424531" lon="-4.893694947707576"><ele>843.0</ele><time>2026-04-11T06:58:24Z</time></trkpt><trkpt lat="41.60766495013658" lon="-4.893936181645566"><ele>843.0</ele><time>2026-04-11T06:58:25Z</time></trkpt><trkpt lat="41.607788003464954" lon="-4.894163414238126"><ele>843.0</ele><time>2026-04-11T06:58:26Z</time></trkpt><trkpt lat="41.607905882268014" lon="-4.8944160104809535"><ele>842.0</ele><time>2026-04-11T06:58:27Z</time></trkpt><trkpt lat="41.608013836448954" lon="-4.894687897908426"><ele>841.0</ele><time>2026-04-11T06:58:28Z</time></trkpt><trkpt lat="41.60810662533074" lon="-4.894983930286024"><ele>841.0</ele><time>2026-04-11T06:58:29Z</time></trkpt><trkpt lat="41.60819622835787" lon="-4.895273263830313"><ele>841.0</ele><time>2026-04-11T06:58:30Z</time></trkpt><trkpt lat="41.608277032974634" lon="-4.895531540352791"><ele>841.0</ele><time>2026-04-11T06:58:31Z</time></trkpt><trkpt lat="41.608353491148" lon="-4.895765909638603"><ele>841.0</ele><time>2026-04-11T06:58:32Z</time></trkpt><trkpt lat="41.60842568153738" lon="-4.8959776646110456"><ele>841.0</ele><time>2026-04-11T06:58:33Z</time></trkpt><trkpt lat="41.60848578267095" lon="-4.896161931137027"><ele>841.0</ele><time>2026-04-11T06:58:34Z</time></trkpt><trkpt lat="41.60853057409476" lon="-4.896329225563436"><ele>841.0</ele><time>2026-04-11T06:58:35Z</time></trkpt><trkpt lat="41.60855227629465" lon="-4.896485429693328"><ele>841.0</ele><time>2026-04-11T06:58:36Z</time></trkpt><trkpt lat="41.60854469089022" lon="-4.896659825993271"><ele>841.0</ele><time>2026-04-11T06:58:37Z</time></trkpt><trkpt lat="41.608497742686104" lon="-4.89686189540748"><ele>841.0</ele><time>2026-04-11T06:58:38Z</time></trkpt><trkpt lat="41.6084344771313" lon="-4.89706133811243"><ele>839.0</ele><time>2026-04-11T06:58:39Z</time></trkpt><trkpt lat="41.60837254559407" lon="-4.897256177561167"><ele>837.0</ele><time>2026-04-11T06:58:40Z</time></trkpt><trkpt lat="41.60834071764948" lon="-4.897472145746313"><ele>835.0</ele><time>2026-04-11T06:58:41Z</time></trkpt><trkpt lat="41.60832712640465" lon="-4.8976986169470855"><ele>834.5</ele><time>2026-04-11T06:58:42Z</time></trkpt><trkpt lat="41.60833020769249" lon="-4.897913448714461"><ele>834.0</ele><time>2026-04-11T06:58:43Z</time></trkpt><trkpt lat="41.60833119600415" lon="-4.89811074806662"><ele>833.5</ele><time>2026-04-11T06:58:44Z</time></trkpt><trkpt lat="41.608346637357435" lon="-4.898284790919989"><ele>833.0</ele><time>2026-04-11T06:58:44.999Z</time></trkpt><trkpt lat="41.60839492395713" lon="-4.898429295849829"><ele>834.5</ele><time>2026-04-11T06:58:45.999Z</time></trkpt><trkpt lat="41.60848015819669" lon="-4.8985514111233925"><ele>836.0</ele><time>2026-04-11T06:58:46.999Z</time></trkpt><trkpt lat="41.60860869713675" lon="-4.898653983995884"><ele>837.5</ele><time>2026-04-11T06:58:47.999Z</time></trkpt><trkpt lat="41.608759806887896" lon="-4.898755021283536"><ele>839.0</ele><time>2026-04-11T06:58:48.999Z</time></trkpt><trkpt lat="41.6089087903497" lon="-4.898865787153836"><ele>837.3333333333334</ele><time>2026-04-11T06:58:49.999Z</time></trkpt><trkpt lat="41.60904822474702" lon="-4.898988711932513"><ele>835.6666666666667</ele><time>2026-04-11T06:58:50.999Z</time></trkpt><trkpt lat="41.60918413003082" lon="-4.899117911453438"><ele>834.0</ele><time>2026-04-11T06:58:51.999Z</time></trkpt><trkpt lat="41.609315445104016" lon="-4.89925142011999"><ele>834.0</ele><time>2026-04-11T06:58:52.999Z</time></trkpt><trkpt lat="41.60944052497979" lon="-4.899393346668473"><ele>834.0</ele><time>2026-04-11T06:58:53.999Z</time></trkpt><trkpt lat="41.609555471001265" lon="-4.899531094083439"><ele>834.0</ele><time>2026-04-11T06:58:54.999Z</time></trkpt><trkpt lat="41.60965781530131" lon="-4.899658616770896"><ele>828.75</ele><time>2026-04-11T06:58:55.999Z</time></trkpt><trkpt lat="41.609739339018574" lon="-4.899793749149805"><ele>823.5</ele><time>2026-04-11T06:58:56.999Z</time></trkpt><trkpt lat="41.60979876107793" lon="-4.899959000780706"><ele>818.25</ele><time>2026-04-11T06:58:57.999Z</time></trkpt><trkpt lat="41.60983859305495" lon="-4.90015416457733"><ele>813.0</ele><time>2026-04-11T06:58:58.999Z</time></trkpt><trkpt lat="41.609847884159166" lon="-4.9003613735204805"><ele>811.0</ele><time>2026-04-11T06:58:59.999Z</time></trkpt><trkpt lat="41.60982492035085" lon="-4.9005758211118025"><ele>809.0</ele><time>2026-04-11T06:59:00.999Z</time></trkpt><trkpt lat="41.6097797962163" lon="-4.900760727436228"><ele>807.0</ele><time>2026-04-11T06:59:01.999Z</time></trkpt><trkpt lat="41.60971715353842" lon="-4.900939077407326"><ele>805.6666666666667</ele><time>2026-04-11T06:59:02.999Z</time></trkpt><trkpt lat="41.60967066622594" lon="-4.901134856880255"><ele>804.3333333333334</ele><time>2026-04-11T06:59:03.999Z</time></trkpt><trkpt lat="41.6096613094516" lon="-4.901356067412701"><ele>803.0</ele><time>2026-04-11T06:59:04.999Z</time></trkpt><trkpt lat="41.60968406476806" lon="-4.901583474461035"><ele>802.3333333333334</ele><time>2026-04-11T06:59:05.999Z</time></trkpt><trkpt lat="41.60973407122129" lon="-4.901828024237836"><ele>801.6666666666667</ele><time>2026-04-11T06:59:06.999Z</time></trkpt><trkpt lat="41.60977444663151" lon="-4.902077192254"><ele>801.0</ele><time>2026-04-11T06:59:07.999Z</time></trkpt><trkpt lat="41.60980611427175" lon="-4.902308841667054"><ele>801.0</ele><time>2026-04-11T06:59:08.999Z</time></trkpt><trkpt lat="41.609835716159964" lon="-4.902532048456203"><ele>801.0</ele><time>2026-04-11T06:59:09.999Z</time></trkpt><trkpt lat="41.609871991218355" lon="-4.90273188043249"><ele>801.0</ele><time>2026-04-11T06:59:10.999Z</time></trkpt><trkpt lat="41.609934021692354" lon="-4.902923261624697"><ele>802.0</ele><time>2026-04-11T06:59:11.999Z</time></trkpt><trkpt lat="41.610026581553434" lon="-4.903088524481185"><ele>803.0</ele><time>2026-04-11T06:59:12.999Z</time></trkpt><trkpt lat="41.61015635923949" lon="-4.903226679178005"><ele>804.0</ele><time>2026-04-11T06:59:13.999Z</time></trkpt><trkpt lat="41.610280913058475" lon="-4.903355463274621"><ele>801.75</ele><time>2026-04-11T06:59:14.999Z</time></trkpt><trkpt lat="41.61036722142937" lon="-4.903494561024894"><ele>799.5</ele><time>2026-04-11T06:59:15.999Z</time></trkpt><trkpt lat="41.61042380376382" lon="-4.903664009816249"><ele>797.25</ele><time>2026-04-11T06:59:16.999Z</time></trkpt><trkpt lat="41.6104548999074" lon="-4.903864694724482"><ele>795.0</ele><time>2026-04-11T06:59:17.999Z</time></trkpt><trkpt lat="41.610461634931944" lon="-4.9040964768174"><ele>791.6666666666667</ele><time>2026-04-11T06:59:18.999Z</time></trkpt><trkpt lat="41.610453931750385" lon="-4.904348686606264"><ele>788.3333333333334</ele><time>2026-04-11T06:59:19.999Z</time></trkpt><trkpt lat="41.61042702155437" lon="-4.904581551715984"><ele>785.0</ele><time>2026-04-11T06:59:20.999Z</time></trkpt><trkpt lat="41.61041763915678" lon="-4.904782762459321"><ele>785.0</ele><time>2026-04-11T06:59:21.999Z</time></trkpt><trkpt lat="41.61039778500298" lon="-4.904937907259191"><ele>785.0</ele><time>2026-04-11T06:59:22.999Z</time></trkpt><trkpt lat="41.61035035077365" lon="-4.905085396978304"><ele>785.0</ele><time>2026-04-11T06:59:23.999Z</time></trkpt><trkpt lat="41.61025452802023" lon="-4.905236961902324"><ele>785.0</ele><time>2026-04-11T06:59:24.999Z</time></trkpt><trkpt lat="41.61012635753853" lon="-4.905391382047669"><ele>786.0</ele><time>2026-04-11T06:59:25.999Z</time></trkpt><trkpt lat="41.61000145770525" lon="-4.9055503640505975"><ele>787.0</ele><time>2026-04-11T06:59:26.999Z</time></trkpt><trkpt lat="41.60988411468595" lon="-4.905738960270198"><ele>788.0</ele><time>2026-04-11T06:59:27.998Z</time></trkpt><trkpt lat="41.60977951033046" lon="-4.905923969688786"><ele>787.3333333333334</ele><time>2026-04-11T06:59:28.998Z</time></trkpt><trkpt lat="41.60967080569279" lon="-4.906108341156168"><ele>786.6666666666667</ele><time>2026-04-11T06:59:29.998Z</time></trkpt><trkpt lat="41.609549377596856" lon="-4.9062907157750875"><ele>786.0</ele><time>2026-04-11T06:59:30.998Z</time></trkpt><trkpt lat="41.60942677110511" lon="-4.906470025832879"><ele>786.0</ele><time>2026-04-11T06:59:31.998Z</time></trkpt><trkpt lat="41.60930494774507" lon="-4.906644159564941"><ele>786.0</ele><time>2026-04-11T06:59:32.998Z</time></trkpt><trkpt lat="41.609184993111505" lon="-4.906812948675007"><ele>786.0</ele><time>2026-04-11T06:59:33.998Z</time></trkpt><trkpt lat="41.60907240806844" lon="-4.906966662371319"><ele>783.75</ele><time>2026-04-11T06:59:34.998Z</time></trkpt><trkpt lat="41.608965727205" lon="-4.907107281312634"><ele>781.5</ele><time>2026-04-11T06:59:35.998Z</time></trkpt><trkpt lat="41.6088645389129" lon="-4.907252094582444"><ele>779.25</ele><time>2026-04-11T06:59:36.998Z</time></trkpt><trkpt lat="41.60877939903648" lon="-4.9073945605732305"><ele>777.0</ele><time>2026-04-11T06:59:37.998Z</time></trkpt><trkpt lat="41.608707256994315" lon="-4.90754532412041"><ele>776.5</ele><time>2026-04-11T06:59:38.998Z</time></trkpt><trkpt lat="41.60865008388953" lon="-4.907700561414594"><ele>776.0</ele><time>2026-04-11T06:59:39.998Z</time></trkpt><trkpt lat="41.60861669499723" lon="-4.907867433442758"><ele>775.5</ele><time>2026-04-11T06:59:40.998Z</time></trkpt><trkpt lat="41.608595607318925" lon="-4.908052546788913"><ele>775.0</ele><time>2026-04-11T06:59:41.998Z</time></trkpt><trkpt lat="41.60859016578224" lon="-4.908224463944495"><ele>774.9999999999999</ele><time>2026-04-11T06:59:42.998Z</time></trkpt><trkpt lat="41.60858563298888" lon="-4.908361761162119"><ele>775.0</ele><time>2026-04-11T06:59:43.998Z</time></trkpt><trkpt lat="41.60858147518918" lon="-4.908464073329176"><ele>775.0</ele><time>2026-04-11T06:59:44.998Z</time></trkpt><trkpt lat="41.608586024898564" lon="-4.908567225097755"><ele>775.0</ele><time>2026-04-11T06:59:46.998Z</time></trkpt><trkpt lat="41.6085697058847" lon="-4.908676151475244"><ele>774.9999999999999</ele><time>2026-04-11T06:59:52.998Z</time></trkpt><trkpt lat="41.608529273745724" lon="-4.908747206739908"><ele>775.0</ele><time>2026-04-11T06:59:53.998Z</time></trkpt><trkpt lat="41.60847751196386" lon="-4.9088155447517465"><ele>774.8571428571428</ele><time>2026-04-11T06:59:54.998Z</time></trkpt><trkpt lat="41.608423382413406" lon="-4.908884284384273"><ele>774.7142857142857</ele><time>2026-04-11T06:59:55.998Z</time></trkpt><trkpt lat="41.608375074039465" lon="-4.908948263526245"><ele>774.5714285714286</ele><time>2026-04-11T06:59:56.998Z</time></trkpt><trkpt lat="41.60832590628912" lon="-4.909011207011988"><ele>774.4285714285713</ele><time>2026-04-11T06:59:57.998Z</time></trkpt><trkpt lat="41.60827315863936" lon="-4.909071435709334"><ele>774.2857142857143</ele><time>2026-04-11T06:59:58.998Z</time></trkpt><trkpt lat="41.60821979603335" lon="-4.909148432721036"><ele>774.1428571428571</ele><time>2026-04-11T06:59:59.998Z</time></trkpt><trkpt lat="41.6081787321063" lon="-4.909251161374779"><ele>774.0</ele><time>2026-04-11T07:00:00.998Z</time></trkpt><trkpt lat="41.60815772092908" lon="-4.909369497440567"><ele>774.0</ele><time>2026-04-11T07:00:01.998Z</time></trkpt><trkpt lat="41.60812882262558" lon="-4.9094896692832295"><ele>774.0</ele><time>2026-04-11T07:00:02.998Z</time></trkpt><trkpt lat="41.608084667869825" lon="-4.909587538611272"><ele>774.0</ele><time>2026-04-11T07:00:03.998Z</time></trkpt><trkpt lat="41.60803895111561" lon="-4.9096661885603075"><ele>774.0</ele><time>2026-04-11T07:00:04.998Z</time></trkpt><trkpt lat="41.6080181813407" lon="-4.909851506847173"><ele>774.0</ele><time>2026-04-11T07:00:06.998Z</time></trkpt><trkpt lat="41.60802228569927" lon="-4.909944898949018"><ele>774.0</ele><time>2026-04-11T07:00:07.998Z</time></trkpt><trkpt lat="41.60803511830028" lon="-4.910038011356308"><ele>774.0</ele><time>2026-04-11T07:00:12.997Z</time></trkpt><trkpt lat="41.608157927124275" lon="-4.9100658305675555"><ele>774.0</ele><time>2026-04-11T07:00:15.997Z</time></trkpt><trkpt lat="41.60825244369271" lon="-4.910058163308999"><ele>774.0</ele><time>2026-04-11T07:00:16.997Z</time></trkpt><trkpt lat="41.60833714752534" lon="-4.910076059268398"><ele>774.0</ele><time>2026-04-11T07:00:18Z</time></trkpt><trkpt lat="41.60842865602338" lon="-4.910054665991051"><ele>774.0</ele><time>2026-04-11T07:00:19Z</time></trkpt><trkpt lat="41.608494382183224" lon="-4.910015141084417"><ele>774.0</ele><time>2026-04-11T07:00:20Z</time></trkpt><trkpt lat="41.608579725680464" lon="-4.9099504874638615"><ele>774.0</ele><time>2026-04-11T07:00:22Z</time></trkpt><trkpt lat="41.60865430577984" lon="-4.909914583570602"><ele>774.0</ele><time>2026-04-11T07:00:24Z</time></trkpt><trkpt lat="41.60876640773738" lon="-4.909842959534362"><ele>774.0</ele><time>2026-04-11T07:00:26Z</time></trkpt><trkpt lat="41.60888679596682" lon="-4.9097921932361075"><ele>774.1666666666666</ele><time>2026-04-11T07:00:28Z</time></trkpt><trkpt lat="41.60895635867112" lon="-4.909761648568549"><ele>774.3333333333333</ele><time>2026-04-11T07:00:29Z</time></trkpt><trkpt lat="41.60902470321603" lon="-4.909737170981379"><ele>774.5</ele><time>2026-04-11T07:00:30Z</time></trkpt><trkpt lat="41.60909221574368" lon="-4.909721054245474"><ele>774.6666666666666</ele><time>2026-04-11T07:00:31Z</time></trkpt><trkpt lat="41.609207880782215" lon="-4.90968282427735"><ele>774.8333333333333</ele><time>2026-04-11T07:00:33Z</time></trkpt><trkpt lat="41.60927934623107" lon="-4.909664311365084"><ele>775.0</ele><time>2026-04-11T07:00:35Z</time></trkpt><trkpt lat="41.609348587297454" lon="-4.909635360838444"><ele>775.0</ele><time>2026-04-11T07:00:37Z</time></trkpt><trkpt lat="41.60928473683735" lon="-4.909610648089718"><ele>775.0</ele><time>2026-04-11T07:01:54.998Z</time></trkpt><trkpt lat="41.60922405152746" lon="-4.909406036420908"><ele>775.0</ele><time>2026-04-11T07:01:56.998Z</time></trkpt><trkpt lat="41.609216127642696" lon="-4.909307415176668"><ele>775.0</ele><time>2026-04-11T07:01:57.998Z</time></trkpt><trkpt lat="41.60919816903524" lon="-4.9092033270843745"><ele>775.0</ele><time>2026-04-11T07:01:58.998Z</time></trkpt><trkpt lat="41.609173408657234" lon="-4.909084903044106"><ele>774.8</ele><time>2026-04-11T07:01:59.998Z</time></trkpt><trkpt lat="41.60914806716958" lon="-4.908963734344152"><ele>774.6</ele><time>2026-04-11T07:02:00.998Z</time></trkpt><trkpt lat="41.609128100221305" lon="-4.908852202228426"><ele>774.4000000000001</ele><time>2026-04-11T07:02:01.998Z</time></trkpt><trkpt lat="41.609112569147044" lon="-4.908757918995141"><ele>774.2</ele><time>2026-04-11T07:02:02.998Z</time></trkpt><trkpt lat="41.609083994335286" lon="-4.908608241494788"><ele>774.0</ele><time>2026-04-11T07:02:04.998Z</time></trkpt><trkpt lat="41.609066174133915" lon="-4.908492716603528"><ele>774.0</ele><time>2026-04-11T07:02:06.998Z</time></trkpt><trkpt lat="41.60903197669561" lon="-4.908363517678893"><ele>774.0</ele><time>2026-04-11T07:02:08.998Z</time></trkpt><trkpt lat="41.60899930304168" lon="-4.908236758300069"><ele>774.0</ele><time>2026-04-11T07:02:10.998Z</time></trkpt><trkpt lat="41.60897895450042" lon="-4.908116706489294"><ele>774.0</ele><time>2026-04-11T07:02:13.998Z</time></trkpt><trkpt lat="41.60903003061043" lon="-4.908038919145994"><ele>774.0</ele><time>2026-04-11T07:02:15.998Z</time></trkpt><trkpt lat="41.60910036843579" lon="-4.9079406936623355"><ele>774.0</ele><time>2026-04-11T07:02:17.998Z</time></trkpt><trkpt lat="41.60913931804441" lon="-4.9078128485583505"><ele>774.0</ele><time>2026-04-11T07:02:19.997Z</time></trkpt><trkpt lat="41.60917907942221" lon="-4.907716127720154"><ele>774.0</ele><time>2026-04-11T07:02:20.997Z</time></trkpt><trkpt lat="41.60924527752668" lon="-4.9076077107302245"><ele>774.0</ele><time>2026-04-11T07:02:21.997Z</time></trkpt><trkpt lat="41.609335023183874" lon="-4.907490305336098"><ele>774.0</ele><time>2026-04-11T07:02:22.997Z</time></trkpt><trkpt lat="41.60943256050356" lon="-4.907360751112841"><ele>774.25</ele><time>2026-04-11T07:02:24Z</time></trkpt><trkpt lat="41.60952597350258" lon="-4.907243629397705"><ele>774.5</ele><time>2026-04-11T07:02:25Z</time></trkpt><trkpt lat="41.60962726174187" lon="-4.907139658166449"><ele>774.75</ele><time>2026-04-11T07:02:26Z</time></trkpt><trkpt lat="41.6097495159066" lon="-4.90702864533105"><ele>775.0</ele><time>2026-04-11T07:02:27Z</time></trkpt><trkpt lat="41.60987415427391" lon="-4.906915932396074"><ele>775.0</ele><time>2026-04-11T07:02:28Z</time></trkpt><trkpt lat="41.60998114498402" lon="-4.9068087280019395"><ele>775.0</ele><time>2026-04-11T07:02:29Z</time></trkpt><trkpt lat="41.6100813108176" lon="-4.906704157305924"><ele>775.0</ele><time>2026-04-11T07:02:30Z</time></trkpt><trkpt lat="41.610190952775696" lon="-4.906592151780337"><ele>775.0</ele><time>2026-04-11T07:02:31Z</time></trkpt><trkpt lat="41.610307231082864" lon="-4.906472863686322"><ele>776.0</ele><time>2026-04-11T07:02:32Z</time></trkpt><trkpt lat="41.61042417773457" lon="-4.906348262442276"><ele>777.0</ele><time>2026-04-11T07:02:33Z</time></trkpt><trkpt lat="41.6105464807789" lon="-4.906220536595923"><ele>778.0</ele><time>2026-04-11T07:02:34Z</time></trkpt><trkpt lat="41.610673561099695" lon="-4.906087488036593"><ele>778.0</ele><time>2026-04-11T07:02:35Z</time></trkpt><trkpt lat="41.6107987790626" lon="-4.905948337084087"><ele>778.0</ele><time>2026-04-11T07:02:36Z</time></trkpt><trkpt lat="41.61092040895474" lon="-4.905798137308047"><ele>778.0</ele><time>2026-04-11T07:02:37Z</time></trkpt><trkpt lat="41.61104993322567" lon="-4.905623741460746"><ele>778.0</ele><time>2026-04-11T07:02:38Z</time></trkpt><trkpt lat="41.6111779616191" lon="-4.905425165890737"><ele>778.0</ele><time>2026-04-11T07:02:39Z</time></trkpt><trkpt lat="41.611301089653026" lon="-4.905209138490613"><ele>778.0</ele><time>2026-04-11T07:02:40Z</time></trkpt><trkpt lat="41.611404016946054" lon="-4.90499328938696"><ele>778.6666666666666</ele><time>2026-04-11T07:02:41Z</time></trkpt><trkpt lat="41.611505388351915" lon="-4.904755562849585"><ele>779.3333333333333</ele><time>2026-04-11T07:02:42Z</time></trkpt><trkpt lat="41.61161082322501" lon="-4.904497127098958"><ele>780.0</ele><time>2026-04-11T07:02:43Z</time></trkpt><trkpt lat="41.611716955111525" lon="-4.904242156379265"><ele>782.0</ele><time>2026-04-11T07:02:44Z</time></trkpt><trkpt lat="41.61182310064024" lon="-4.903979345507784"><ele>784.0</ele><time>2026-04-11T07:02:45Z</time></trkpt><trkpt lat="41.611933211314124" lon="-4.903711882556871"><ele>783.5</ele><time>2026-04-11T07:02:46Z</time></trkpt><trkpt lat="41.61204834397128" lon="-4.903439179062924"><ele>783.0</ele><time>2026-04-11T07:02:47Z</time></trkpt><trkpt lat="41.612163718970756" lon="-4.90316717623759"><ele>782.5</ele><time>2026-04-11T07:02:48Z</time></trkpt><trkpt lat="41.612274994572104" lon="-4.90289638365662"><ele>782.0</ele><time>2026-04-11T07:02:49Z</time></trkpt><trkpt lat="41.61238393240619" lon="-4.902629516648269"><ele>782.6666666666667</ele><time>2026-04-11T07:02:50Z</time></trkpt><trkpt lat="41.61249118816802" lon="-4.902370373289142"><ele>783.3333333333333</ele><time>2026-04-11T07:02:51Z</time></trkpt><trkpt lat="41.612601582529564" lon="-4.90210800117633"><ele>784.0</ele><time>2026-04-11T07:02:52Z</time></trkpt><trkpt lat="41.61271573578052" lon="-4.901838357205148"><ele>787.0</ele><time>2026-04-11T07:02:53Z</time></trkpt><trkpt lat="41.612825591571614" lon="-4.9015696673707705"><ele>790.0</ele><time>2026-04-11T07:02:54Z</time></trkpt><trkpt lat="41.61293768186341" lon="-4.901301174706699"><ele>790.0</ele><time>2026-04-11T07:02:55Z</time></trkpt><trkpt lat="41.613059893817145" lon="-4.901045690124429"><ele>790.0</ele><time>2026-04-11T07:02:56Z</time></trkpt><trkpt lat="41.61319731643428" lon="-4.900805071939578"><ele>790.3333333333333</ele><time>2026-04-11T07:02:56.999Z</time></trkpt><trkpt lat="41.61334981166805" lon="-4.900593858880301"><ele>790.6666666666667</ele><time>2026-04-11T07:02:57.999Z</time></trkpt><trkpt lat="41.6135197321942" lon="-4.900403577841185"><ele>791.0</ele><time>2026-04-11T07:02:58.999Z</time></trkpt><trkpt lat="41.61369729021364" lon="-4.90023546528528"><ele>794.6666666666667</ele><time>2026-04-11T07:02:59.999Z</time></trkpt><trkpt lat="41.61388676259852" lon="-4.900093784284679"><ele>798.3333333333333</ele><time>2026-04-11T07:03:00.999Z</time></trkpt><trkpt lat="41.61408923150866" lon="-4.899974784847043"><ele>802.0</ele><time>2026-04-11T07:03:01.999Z</time></trkpt><trkpt lat="41.61430189129576" lon="-4.899883133011884"><ele>805.0</ele><time>2026-04-11T07:03:02.999Z</time></trkpt><trkpt lat="41.6145230099867" lon="-4.899808940143924"><ele>808.0</ele><time>2026-04-11T07:03:03.999Z</time></trkpt><trkpt lat="41.61475004216665" lon="-4.899766331853253"><ele>808.0</ele><time>2026-04-11T07:03:04.999Z</time></trkpt><trkpt lat="41.6149806435318" lon="-4.899764315394931"><ele>808.0</ele><time>2026-04-11T07:03:05.999Z</time></trkpt><trkpt lat="41.615213983371156" lon="-4.899788873895805"><ele>806.0</ele><time>2026-04-11T07:03:06.999Z</time></trkpt><trkpt lat="41.61544388077335" lon="-4.899849927552148"><ele>804.0</ele><time>2026-04-11T07:03:07.999Z</time></trkpt><trkpt lat="41.615665754256874" lon="-4.899934719089889"><ele>804.0</ele><time>2026-04-11T07:03:08.999Z</time></trkpt><trkpt lat="41.61589294785471" lon="-4.900053470871298"><ele>804.0</ele><time>2026-04-11T07:03:09.999Z</time></trkpt><trkpt lat="41.61611764158925" lon="-4.9001872075670665"><ele>806.0</ele><time>2026-04-11T07:03:10.999Z</time></trkpt><trkpt lat="41.616333886611926" lon="-4.900329138754893"><ele>808.0</ele><time>2026-04-11T07:03:11.999Z</time></trkpt><trkpt lat="41.61654443953867" lon="-4.9004703592512815"><ele>808.0</ele><time>2026-04-11T07:03:12.999Z</time></trkpt><trkpt lat="41.61674380888431" lon="-4.900604889205013"><ele>808.0</ele><time>2026-04-11T07:03:13.999Z</time></trkpt><trkpt lat="41.61695317690812" lon="-4.900742348198799"><ele>808.0</ele><time>2026-04-11T07:03:14.999Z</time></trkpt><trkpt lat="41.61716942842208" lon="-4.900877981480712"><ele>808.0</ele><time>2026-04-11T07:03:15.999Z</time></trkpt><trkpt lat="41.61737233333321" lon="-4.901000385719868"><ele>810.0</ele><time>2026-04-11T07:03:16.999Z</time></trkpt><trkpt lat="41.617577429732854" lon="-4.901119386353438"><ele>812.0</ele><time>2026-04-11T07:03:17.999Z</time></trkpt><trkpt lat="41.61779296819278" lon="-4.901231123078882"><ele>811.0</ele><time>2026-04-11T07:03:18.999Z</time></trkpt><trkpt lat="41.61801899959184" lon="-4.901327456090367"><ele>810.0</ele><time>2026-04-11T07:03:19.999Z</time></trkpt><trkpt lat="41.61825062934442" lon="-4.901406713712188"><ele>810.0</ele><time>2026-04-11T07:03:20.999Z</time></trkpt><trkpt lat="41.61848645102229" lon="-4.901480050387197"><ele>810.0</ele><time>2026-04-11T07:03:21.999Z</time></trkpt><trkpt lat="41.61872351032981" lon="-4.901560180390756"><ele>810.0</ele><time>2026-04-11T07:03:22.999Z</time></trkpt><trkpt lat="41.618960951483245" lon="-4.90164714448075"><ele>810.0</ele><time>2026-04-11T07:03:23.999Z</time></trkpt><trkpt lat="41.61920057574419" lon="-4.9017395551928695"><ele>811.5</ele><time>2026-04-11T07:03:24.999Z</time></trkpt><trkpt lat="41.619439838682325" lon="-4.901830587222295"><ele>813.0</ele><time>2026-04-11T07:03:25.999Z</time></trkpt><trkpt lat="41.619667776811504" lon="-4.90191541176383"><ele>814.0</ele><time>2026-04-11T07:03:26.999Z</time></trkpt><trkpt lat="41.61990567624691" lon="-4.901986546825606"><ele>815.0</ele><time>2026-04-11T07:03:27.999Z</time></trkpt><trkpt lat="41.620143910169425" lon="-4.902036023263276"><ele>817.5</ele><time>2026-04-11T07:03:28.999Z</time></trkpt><trkpt lat="41.620382613161695" lon="-4.902046761138706"><ele>820.0</ele><time>2026-04-11T07:03:29.999Z</time></trkpt><trkpt lat="41.62061420583478" lon="-4.902014710590822"><ele>820.0</ele><time>2026-04-11T07:03:30.999Z</time></trkpt><trkpt lat="41.62083852834701" lon="-4.901960089665399"><ele>820.0</ele><time>2026-04-11T07:03:31.999Z</time></trkpt><trkpt lat="41.62106550143227" lon="-4.90187256312602"><ele>819.5</ele><time>2026-04-11T07:03:32.999Z</time></trkpt><trkpt lat="41.621286816233976" lon="-4.901752355943777"><ele>819.0</ele><time>2026-04-11T07:03:33.999Z</time></trkpt><trkpt lat="41.62149850644781" lon="-4.901605525709375"><ele>819.0</ele><time>2026-04-11T07:03:34.999Z</time></trkpt><trkpt lat="41.62170247405889" lon="-4.901430127474532"><ele>819.0</ele><time>2026-04-11T07:03:35.999Z</time></trkpt><trkpt lat="41.62190208923179" lon="-4.901245751792101"><ele>819.5</ele><time>2026-04-11T07:03:36.999Z</time></trkpt><trkpt lat="41.62209975895245" lon="-4.901063625747981"><ele>820.0</ele><time>2026-04-11T07:03:37.999Z</time></trkpt><trkpt lat="41.62230557834123" lon="-4.900890045596729"><ele>820.0</ele><time>2026-04-11T07:03:38.998Z</time></trkpt><trkpt lat="41.62251169696879" lon="-4.900722613066594"><ele>820.0</ele><time>2026-04-11T07:03:39.998Z</time></trkpt><trkpt lat="41.622722825570996" lon="-4.900569934932739"><ele>823.5</ele><time>2026-04-11T07:03:40.998Z</time></trkpt><trkpt lat="41.622949870532814" lon="-4.900430996664931"><ele>827.0</ele><time>2026-04-11T07:03:41.998Z</time></trkpt><trkpt lat="41.62318969627752" lon="-4.90032214186914"><ele>827.0</ele><time>2026-04-11T07:03:42.998Z</time></trkpt><trkpt lat="41.623431421640824" lon="-4.900225062709617"><ele>827.0</ele><time>2026-04-11T07:03:43.998Z</time></trkpt><trkpt lat="41.62365799227332" lon="-4.900136905438347"><ele>826.5</ele><time>2026-04-11T07:03:44.998Z</time></trkpt><trkpt lat="41.6238898112277" lon="-4.900040350097251"><ele>826.0</ele><time>2026-04-11T07:03:45.998Z</time></trkpt><trkpt lat="41.62412061244561" lon="-4.899938162249655"><ele>826.0</ele><time>2026-04-11T07:03:46.998Z</time></trkpt><trkpt lat="41.62434900325086" lon="-4.899836856522309"><ele>826.0</ele><time>2026-04-11T07:03:47.998Z</time></trkpt><trkpt lat="41.624573634566865" lon="-4.899740708444347"><ele>828.0</ele><time>2026-04-11T07:03:48.998Z</time></trkpt><trkpt lat="41.624758262075254" lon="-4.899670866504017"><ele>830.0</ele><time>2026-04-11T07:03:49.998Z</time></trkpt><trkpt lat="41.62496177019306" lon="-4.899574292673271"><ele>832.0</ele><time>2026-04-11T07:03:50.998Z</time></trkpt><trkpt lat="41.62525915455478" lon="-4.899389849072541"><ele>831.5</ele><time>2026-04-11T07:03:51.998Z</time></trkpt><trkpt lat="41.62547810002174" lon="-4.899240068784573"><ele>831.0</ele><time>2026-04-11T07:03:52.998Z</time></trkpt><trkpt lat="41.62568385113538" lon="-4.899081520339563"><ele>831.0</ele><time>2026-04-11T07:03:53.998Z</time></trkpt><trkpt lat="41.62588593352398" lon="-4.898898953389951"><ele>831.0</ele><time>2026-04-11T07:03:54.998Z</time></trkpt><trkpt lat="41.626087588327806" lon="-4.8986900341401025"><ele>832.5</ele><time>2026-04-11T07:03:55.998Z</time></trkpt><trkpt lat="41.62626843776119" lon="-4.898456816579464"><ele>834.0</ele><time>2026-04-11T07:03:56.998Z</time></trkpt><trkpt lat="41.626418301462635" lon="-4.898207866591573"><ele>834.0</ele><time>2026-04-11T07:03:57.998Z</time></trkpt><trkpt lat="41.626557674655636" lon="-4.897952460592932"><ele>834.0</ele><time>2026-04-11T07:03:58.998Z</time></trkpt><trkpt lat="41.62669149057211" lon="-4.897676488810941"><ele>834.5</ele><time>2026-04-11T07:03:59.998Z</time></trkpt><trkpt lat="41.626819765012165" lon="-4.897391677629239"><ele>835.0</ele><time>2026-04-11T07:04:00.998Z</time></trkpt><trkpt lat="41.62694124030931" lon="-4.89709895609125"><ele>835.5</ele><time>2026-04-11T07:04:01.998Z</time></trkpt><trkpt lat="41.627054218431304" lon="-4.896799726081559"><ele>836.0</ele><time>2026-04-11T07:04:02.998Z</time></trkpt><trkpt lat="41.627163967854955" lon="-4.896508258319408"><ele>836.0</ele><time>2026-04-11T07:04:03.998Z</time></trkpt><trkpt lat="41.62727314266948" lon="-4.896211083405067"><ele>836.0</ele><time>2026-04-11T07:04:04.998Z</time></trkpt><trkpt lat="41.62737123658646" lon="-4.895912704259092"><ele>837.0</ele><time>2026-04-11T07:04:05.998Z</time></trkpt><trkpt lat="41.627458966117715" lon="-4.895615479326225"><ele>838.0</ele><time>2026-04-11T07:04:06.998Z</time></trkpt><trkpt lat="41.62754564679841" lon="-4.895312978300799"><ele>839.0</ele><time>2026-04-11T07:04:07.998Z</time></trkpt><trkpt lat="41.62763899285613" lon="-4.895016557003772"><ele>840.0</ele><time>2026-04-11T07:04:08.998Z</time></trkpt><trkpt lat="41.62773808107618" lon="-4.894723412304768"><ele>840.0</ele><time>2026-04-11T07:04:09.998Z</time></trkpt><trkpt lat="41.62784369591523" lon="-4.894437275427942"><ele>840.0</ele><time>2026-04-11T07:04:10.998Z</time></trkpt><trkpt lat="41.627951960647366" lon="-4.894157508367956"><ele>840.0</ele><time>2026-04-11T07:04:11.998Z</time></trkpt><trkpt lat="41.62806244547961" lon="-4.8938765547230805"><ele>840.0</ele><time>2026-04-11T07:04:12.998Z</time></trkpt><trkpt lat="41.62817463992101" lon="-4.893598295138264"><ele>841.0</ele><time>2026-04-11T07:04:13.998Z</time></trkpt><trkpt lat="41.62828802553832" lon="-4.8933174977475105"><ele>842.0</ele><time>2026-04-11T07:04:14.998Z</time></trkpt><trkpt lat="41.628397796297236" lon="-4.893037849448392"><ele>842.0</ele><time>2026-04-11T07:04:15.998Z</time></trkpt><trkpt lat="41.628507114162886" lon="-4.892757180318531"><ele>842.0</ele><time>2026-04-11T07:04:16.998Z</time></trkpt><trkpt lat="41.62861686578424" lon="-4.892482130714646"><ele>842.5</ele><time>2026-04-11T07:04:17.998Z</time></trkpt><trkpt lat="41.62872909499054" lon="-4.892207493767849"><ele>843.0</ele><time>2026-04-11T07:04:18.998Z</time></trkpt><trkpt lat="41.628841900383314" lon="-4.891931192287889"><ele>843.0</ele><time>2026-04-11T07:04:19.998Z</time></trkpt><trkpt lat="41.62895293698615" lon="-4.891653625461825"><ele>843.0</ele><time>2026-04-11T07:04:20.998Z</time></trkpt><trkpt lat="41.629059811404794" lon="-4.891381317004349"><ele>843.0</ele><time>2026-04-11T07:04:21.997Z</time></trkpt><trkpt lat="41.629170019411184" lon="-4.891102491056075"><ele>843.0</ele><time>2026-04-11T07:04:22.997Z</time></trkpt><trkpt lat="41.62927946372631" lon="-4.8908279712792035"><ele>843.0</ele><time>2026-04-11T07:04:23.997Z</time></trkpt><trkpt lat="41.629392903952606" lon="-4.890556862620091"><ele>843.0</ele><time>2026-04-11T07:04:24.997Z</time></trkpt><trkpt lat="41.62950679485087" lon="-4.890277384131342"><ele>843.5</ele><time>2026-04-11T07:04:25.997Z</time></trkpt><trkpt lat="41.62961586501544" lon="-4.890003137059229"><ele>844.0</ele><time>2026-04-11T07:04:26.997Z</time></trkpt><trkpt lat="41.62972542704918" lon="-4.889728235160622"><ele>844.0</ele><time>2026-04-11T07:04:27.997Z</time></trkpt><trkpt lat="41.62983458538298" lon="-4.889454254710988"><ele>844.0</ele><time>2026-04-11T07:04:28.997Z</time></trkpt><trkpt lat="41.62994622358259" lon="-4.889175098144603"><ele>843.5</ele><time>2026-04-11T07:04:30Z</time></trkpt><trkpt lat="41.630059727926614" lon="-4.88889315089348"><ele>843.0</ele><time>2026-04-11T07:04:31Z</time></trkpt><trkpt lat="41.63017061685542" lon="-4.888615895792985"><ele>843.5</ele><time>2026-04-11T07:04:32Z</time></trkpt><trkpt lat="41.63028166309355" lon="-4.888337512610145"><ele>844.0</ele><time>2026-04-11T07:04:33Z</time></trkpt><trkpt lat="41.63039340869274" lon="-4.888059978031208"><ele>844.0</ele><time>2026-04-11T07:04:34Z</time></trkpt><trkpt lat="41.63050592340652" lon="-4.887780543036844"><ele>844.0</ele><time>2026-04-11T07:04:35Z</time></trkpt><trkpt lat="41.63061700910342" lon="-4.887505288437757"><ele>844.0</ele><time>2026-04-11T07:04:36Z</time></trkpt><trkpt lat="41.6307299329823" lon="-4.887228406186156"><ele>844.0</ele><time>2026-04-11T07:04:37Z</time></trkpt><trkpt lat="41.63084373606261" lon="-4.886951685965265"><ele>844.0</ele><time>2026-04-11T07:04:38Z</time></trkpt><trkpt lat="41.63095793744716" lon="-4.886672282803687"><ele>844.0</ele><time>2026-04-11T07:04:39Z</time></trkpt><trkpt lat="41.631069285357604" lon="-4.886394443739573"><ele>844.0</ele><time>2026-04-11T07:04:40Z</time></trkpt><trkpt lat="41.631179310868205" lon="-4.886114944722253"><ele>844.0</ele><time>2026-04-11T07:04:41Z</time></trkpt><trkpt lat="41.63129160569654" lon="-4.885833999885178"><ele>843.0</ele><time>2026-04-11T07:04:42Z</time></trkpt><trkpt lat="41.63140363250923" lon="-4.885553591007282"><ele>842.0</ele><time>2026-04-11T07:04:43Z</time></trkpt><trkpt lat="41.631516254761635" lon="-4.885275926289918"><ele>843.0</ele><time>2026-04-11T07:04:44Z</time></trkpt><trkpt lat="41.631631574758" lon="-4.884995821947288"><ele>844.0</ele><time>2026-04-11T07:04:45Z</time></trkpt><trkpt lat="41.631745735424445" lon="-4.884714500319494"><ele>844.0</ele><time>2026-04-11T07:04:46Z</time></trkpt><trkpt lat="41.6318566230483" lon="-4.8844322864436425"><ele>844.0</ele><time>2026-04-11T07:04:47Z</time></trkpt><trkpt lat="41.63196716449831" lon="-4.8841481009551435"><ele>844.5</ele><time>2026-04-11T07:04:48Z</time></trkpt><trkpt lat="41.63207847957471" lon="-4.883869139877689"><ele>845.0</ele><time>2026-04-11T07:04:49Z</time></trkpt><trkpt lat="41.63219438659448" lon="-4.883590479548148"><ele>845.0</ele><time>2026-04-11T07:04:50Z</time></trkpt><trkpt lat="41.632310208586766" lon="-4.883312418988575"><ele>845.0</ele><time>2026-04-11T07:04:51Z</time></trkpt><trkpt lat="41.632423915761116" lon="-4.883032575765991"><ele>845.0</ele><time>2026-04-11T07:04:52Z</time></trkpt><trkpt lat="41.63253465124065" lon="-4.882753592427877"><ele>845.0</ele><time>2026-04-11T07:04:53Z</time></trkpt><trkpt lat="41.63264488878663" lon="-4.882473397271887"><ele>845.5</ele><time>2026-04-11T07:04:54Z</time></trkpt><trkpt lat="41.6327578437421" lon="-4.882188055512531"><ele>846.0</ele><time>2026-04-11T07:04:55Z</time></trkpt><trkpt lat="41.63287466460375" lon="-4.881897915473513"><ele>844.0</ele><time>2026-04-11T07:04:56Z</time></trkpt><trkpt lat="41.632993591382636" lon="-4.8816059558686975"><ele>842.0</ele><time>2026-04-11T07:04:57Z</time></trkpt><trkpt lat="41.63310760751922" lon="-4.8813234557676335"><ele>842.0</ele><time>2026-04-11T07:04:58Z</time></trkpt><trkpt lat="41.63322158609434" lon="-4.881033479282731"><ele>842.0</ele><time>2026-04-11T07:04:59Z</time></trkpt><trkpt lat="41.63333538142059" lon="-4.880747741484331"><ele>842.5</ele><time>2026-04-11T07:05:00Z</time></trkpt><trkpt lat="41.633452387606866" lon="-4.8804555232996885"><ele>843.0</ele><time>2026-04-11T07:05:01Z</time></trkpt><trkpt lat="41.63356736365792" lon="-4.880170445373283"><ele>844.0</ele><time>2026-04-11T07:05:01.999Z</time></trkpt><trkpt lat="41.633678956512014" lon="-4.879886804060138"><ele>845.0</ele><time>2026-04-11T07:05:02.999Z</time></trkpt><trkpt lat="41.63379196193721" lon="-4.879600185770662"><ele>845.0</ele><time>2026-04-11T07:05:03.999Z</time></trkpt><trkpt lat="41.63390937995342" lon="-4.879310714294634"><ele>845.0</ele><time>2026-04-11T07:05:04.999Z</time></trkpt><trkpt lat="41.634024495553405" lon="-4.879027845576285"><ele>844.5</ele><time>2026-04-11T07:05:05.999Z</time></trkpt><trkpt lat="41.63413913466902" lon="-4.878742330443233"><ele>844.0</ele><time>2026-04-11T07:05:06.999Z</time></trkpt><trkpt lat="41.63425461632513" lon="-4.878451910299407"><ele>844.5</ele><time>2026-04-11T07:05:07.999Z</time></trkpt><trkpt lat="41.63437019935735" lon="-4.878161802141116"><ele>845.0</ele><time>2026-04-11T07:05:08.999Z</time></trkpt><trkpt lat="41.634484438559284" lon="-4.877880119597361"><ele>844.5</ele><time>2026-04-11T07:05:09.999Z</time></trkpt><trkpt lat="41.63460240618394" lon="-4.877596926954975"><ele>844.0</ele><time>2026-04-11T07:05:10.999Z</time></trkpt><trkpt lat="41.634721559286874" lon="-4.877313104617885"><ele>844.0</ele><time>2026-04-11T07:05:11.999Z</time></trkpt><trkpt lat="41.634826926219326" lon="-4.87702139127263"><ele>844.0</ele><time>2026-04-11T07:05:12.999Z</time></trkpt><trkpt lat="41.634957089212264" lon="-4.876749757271468"><ele>844.5</ele><time>2026-04-11T07:05:13.999Z</time></trkpt><trkpt lat="41.63506947305477" lon="-4.876466531809369"><ele>845.0</ele><time>2026-04-11T07:05:14.999Z</time></trkpt><trkpt lat="41.6351822318345" lon="-4.876178799255764"><ele>845.0</ele><time>2026-04-11T07:05:15.999Z</time></trkpt><trkpt lat="41.63529433955408" lon="-4.875893942256372"><ele>845.0</ele><time>2026-04-11T07:05:16.999Z</time></trkpt><trkpt lat="41.635406947093564" lon="-4.875610606514383"><ele>844.5</ele><time>2026-04-11T07:05:17.999Z</time></trkpt><trkpt lat="41.63552094714132" lon="-4.875329413471237"><ele>844.0</ele><time>2026-04-11T07:05:18.999Z</time></trkpt><trkpt lat="41.63563424264386" lon="-4.875051739215421"><ele>843.5</ele><time>2026-04-11T07:05:19.999Z</time></trkpt><trkpt lat="41.63574957132081" lon="-4.874768203661591"><ele>843.0</ele><time>2026-04-11T07:05:20.999Z</time></trkpt><trkpt lat="41.63586310105134" lon="-4.874483558267187"><ele>844.0</ele><time>2026-04-11T07:05:21.999Z</time></trkpt><trkpt lat="41.63597669823006" lon="-4.874195918406713"><ele>845.0</ele><time>2026-04-11T07:05:22.999Z</time></trkpt><trkpt lat="41.63609103100595" lon="-4.87390530706082"><ele>845.0</ele><time>2026-04-11T07:05:23.999Z</time></trkpt><trkpt lat="41.63619686150346" lon="-4.873612864691726"><ele>845.0</ele><time>2026-04-11T07:05:24.999Z</time></trkpt><trkpt lat="41.636293267042916" lon="-4.873306305759265"><ele>845.0</ele><time>2026-04-11T07:05:25.999Z</time></trkpt><trkpt lat="41.63637003087178" lon="-4.873003376620392"><ele>845.0</ele><time>2026-04-11T07:05:26.999Z</time></trkpt><trkpt lat="41.63643588641362" lon="-4.872689233798597"><ele>845.0</ele><time>2026-04-11T07:05:27.999Z</time></trkpt><trkpt lat="41.636498342912745" lon="-4.872367608586805"><ele>845.0</ele><time>2026-04-11T07:05:28.999Z</time></trkpt><trkpt lat="41.63656057704947" lon="-4.872053897315436"><ele>844.5</ele><time>2026-04-11T07:05:29.999Z</time></trkpt><trkpt lat="41.6366235733991" lon="-4.871740354323949"><ele>844.0</ele><time>2026-04-11T07:05:30.999Z</time></trkpt><trkpt lat="41.636685659778855" lon="-4.871431371504708"><ele>844.0</ele><time>2026-04-11T07:05:31.999Z</time></trkpt><trkpt lat="41.6367477742581" lon="-4.871117930038692"><ele>844.0</ele><time>2026-04-11T07:05:32.999Z</time></trkpt><trkpt lat="41.63680825173396" lon="-4.870809046130038"><ele>844.0</ele><time>2026-04-11T07:05:33.999Z</time></trkpt><trkpt lat="41.63686787251131" lon="-4.870499247319046"><ele>844.0</ele><time>2026-04-11T07:05:34.999Z</time></trkpt><trkpt lat="41.63692785004422" lon="-4.870187639472151"><ele>844.0</ele><time>2026-04-11T07:05:35.999Z</time></trkpt><trkpt lat="41.6369857553495" lon="-4.869881326903345"><ele>844.0</ele><time>2026-04-11T07:05:36.999Z</time></trkpt><trkpt lat="41.637042765601045" lon="-4.869572315871806"><ele>844.5</ele><time>2026-04-11T07:05:37.999Z</time></trkpt><trkpt lat="41.637101349408894" lon="-4.869268027829277"><ele>845.0</ele><time>2026-04-11T07:05:38.999Z</time></trkpt><trkpt lat="41.63716409170913" lon="-4.868961509591364"><ele>845.0</ele><time>2026-04-11T07:05:39.999Z</time></trkpt><trkpt lat="41.637223273175145" lon="-4.868662081201768"><ele>845.0</ele><time>2026-04-11T07:05:40.999Z</time></trkpt><trkpt lat="41.63727650140118" lon="-4.868379183125965"><ele>845.0</ele><time>2026-04-11T07:05:41.999Z</time></trkpt><trkpt lat="41.63733086622719" lon="-4.868084709667396"><ele>845.0</ele><time>2026-04-11T07:05:42.999Z</time></trkpt><trkpt lat="41.63739262772205" lon="-4.867777465451941"><ele>845.0</ele><time>2026-04-11T07:05:43.998Z</time></trkpt><trkpt lat="41.637458192860485" lon="-4.8674587077445715"><ele>845.0</ele><time>2026-04-11T07:05:44.998Z</time></trkpt><trkpt lat="41.637522577020626" lon="-4.867133673717007"><ele>845.0</ele><time>2026-04-11T07:05:45.998Z</time></trkpt><trkpt lat="41.63758794014915" lon="-4.866812582061159"><ele>844.0</ele><time>2026-04-11T07:05:46.998Z</time></trkpt><trkpt lat="41.63765426972305" lon="-4.866487055698968"><ele>843.0</ele><time>2026-04-11T07:05:47.998Z</time></trkpt><trkpt lat="41.637717420778856" lon="-4.866162845037235"><ele>843.0</ele><time>2026-04-11T07:05:48.998Z</time></trkpt><trkpt lat="41.63777709941448" lon="-4.865846301826961"><ele>843.0</ele><time>2026-04-11T07:05:49.998Z</time></trkpt><trkpt lat="41.637839021660724" lon="-4.865525519331428"><ele>843.0</ele><time>2026-04-11T07:05:50.998Z</time></trkpt><trkpt lat="41.63790044701043" lon="-4.865218598133841"><ele>843.0</ele><time>2026-04-11T07:05:51.998Z</time></trkpt><trkpt lat="41.63795885571121" lon="-4.864913871770192"><ele>843.5</ele><time>2026-04-11T07:05:52.998Z</time></trkpt><trkpt lat="41.638021294699925" lon="-4.864604145305601"><ele>844.0</ele><time>2026-04-11T07:05:53.998Z</time></trkpt><trkpt lat="41.63808250057106" lon="-4.864296862516092"><ele>843.0</ele><time>2026-04-11T07:05:54.998Z</time></trkpt><trkpt lat="41.638142295042705" lon="-4.863994387344315"><ele>842.0</ele><time>2026-04-11T07:05:55.998Z</time></trkpt><trkpt lat="41.63819871658669" lon="-4.86371137042838"><ele>842.3333333333334</ele><time>2026-04-11T07:05:56.998Z</time></trkpt><trkpt lat="41.63824625652591" lon="-4.863432327726402"><ele>842.6666666666667</ele><time>2026-04-11T07:05:57.998Z</time></trkpt><trkpt lat="41.638281624146416" lon="-4.8631491956739135"><ele>843.0</ele><time>2026-04-11T07:05:58.998Z</time></trkpt><trkpt lat="41.63830250814205" lon="-4.862839943024404"><ele>843.0</ele><time>2026-04-11T07:05:59.998Z</time></trkpt><trkpt lat="41.6383025868661" lon="-4.862522365041739"><ele>843.0</ele><time>2026-04-11T07:06:00.998Z</time></trkpt><trkpt lat="41.63829557037783" lon="-4.86219702589062"><ele>843.0</ele><time>2026-04-11T07:06:01.998Z</time></trkpt><trkpt lat="41.638289111728575" lon="-4.861876199138926"><ele>843.0</ele><time>2026-04-11T07:06:02.998Z</time></trkpt><trkpt lat="41.63828279126104" lon="-4.8615797740163424"><ele>842.0</ele><time>2026-04-11T07:06:03.998Z</time></trkpt><trkpt lat="41.638282628946875" lon="-4.861308356550832"><ele>841.0</ele><time>2026-04-11T07:06:04.998Z</time></trkpt><trkpt lat="41.63829000415893" lon="-4.861046977014914"><ele>840.0</ele><time>2026-04-11T07:06:05.998Z</time></trkpt><trkpt lat="41.63830874652266" lon="-4.860824635188341"><ele>839.3333333333333</ele><time>2026-04-11T07:06:06.998Z</time></trkpt><trkpt lat="41.63834388648106" lon="-4.860616902984931"><ele>838.6666666666666</ele><time>2026-04-11T07:06:07.998Z</time></trkpt><trkpt lat="41.638398680884784" lon="-4.860397271813492"><ele>838.0</ele><time>2026-04-11T07:06:08.998Z</time></trkpt><trkpt lat="41.638475486327934" lon="-4.860162190481366"><ele>838.0</ele><time>2026-04-11T07:06:09.998Z</time></trkpt><trkpt lat="41.63857232311391" lon="-4.8599261619242595"><ele>838.0</ele><time>2026-04-11T07:06:10.998Z</time></trkpt><trkpt lat="41.63866371977109" lon="-4.859708561458415"><ele>838.0</ele><time>2026-04-11T07:06:11.998Z</time></trkpt><trkpt lat="41.638757775516" lon="-4.859480046024351"><ele>837.3333333333333</ele><time>2026-04-11T07:06:12.998Z</time></trkpt><trkpt lat="41.63884278494483" lon="-4.859255897658605"><ele>836.6666666666667</ele><time>2026-04-11T07:06:13.998Z</time></trkpt><trkpt lat="41.63891497162084" lon="-4.8590511202026905"><ele>836.0</ele><time>2026-04-11T07:06:14.998Z</time></trkpt><trkpt lat="41.63897616266111" lon="-4.858840114487241"><ele>836.0</ele><time>2026-04-11T07:06:15.998Z</time></trkpt><trkpt lat="41.63901108076264" lon="-4.858604935217479"><ele>836.0</ele><time>2026-04-11T07:06:16.998Z</time></trkpt><trkpt lat="41.63902513726823" lon="-4.858356660336346"><ele>836.0</ele><time>2026-04-11T07:06:17.998Z</time></trkpt><trkpt lat="41.639022768243706" lon="-4.858105091910665"><ele>834.0</ele><time>2026-04-11T07:06:18.998Z</time></trkpt><trkpt lat="41.639026720080395" lon="-4.857866406307569"><ele>832.0</ele><time>2026-04-11T07:06:19.998Z</time></trkpt><trkpt lat="41.63903743757122" lon="-4.8576390926943995"><ele>830.0</ele><time>2026-04-11T07:06:20.998Z</time></trkpt><trkpt lat="41.63904777541372" lon="-4.857429321714461"><ele>828.0</ele><time>2026-04-11T07:06:21.998Z</time></trkpt><trkpt lat="41.63905530301946" lon="-4.857217414537184"><ele>826.0</ele><time>2026-04-11T07:06:22.998Z</time></trkpt><trkpt lat="41.639060968013" lon="-4.857016798870302"><ele>824.0</ele><time>2026-04-11T07:06:23.998Z</time></trkpt><trkpt lat="41.63906798219173" lon="-4.856824268819977"><ele>823.5</ele><time>2026-04-11T07:06:24.998Z</time></trkpt><trkpt lat="41.63907680326757" lon="-4.856636433663058"><ele>823.0</ele><time>2026-04-11T07:06:25.997Z</time></trkpt><trkpt lat="41.63908494631688" lon="-4.856454503031338"><ele>822.5</ele><time>2026-04-11T07:06:26.997Z</time></trkpt><trkpt lat="41.63908576802441" lon="-4.856287338939715"><ele>822.0</ele><time>2026-04-11T07:06:27.997Z</time></trkpt><trkpt lat="41.63910158467962" lon="-4.856148543962973"><ele>822.0</ele><time>2026-04-11T07:06:28.997Z</time></trkpt><trkpt lat="41.639123024706365" lon="-4.856024627441707"><ele>822.0</ele><time>2026-04-11T07:06:29.997Z</time></trkpt><trkpt lat="41.639163293214395" lon="-4.855894730058038"><ele>822.0</ele><time>2026-04-11T07:06:30.997Z</time></trkpt><trkpt lat="41.63922379257815" lon="-4.85576705858309"><ele>822.0</ele><time>2026-04-11T07:06:31.997Z</time></trkpt><trkpt lat="41.639290790106095" lon="-4.855629464109165"><ele>822.0</ele><time>2026-04-11T07:06:32.997Z</time></trkpt><trkpt lat="41.63934499678923" lon="-4.85547857747253"><ele>821.0</ele><time>2026-04-11T07:06:33.997Z</time></trkpt><trkpt lat="41.63940478723576" lon="-4.855347184694134"><ele>820.0</ele><time>2026-04-11T07:06:34.997Z</time></trkpt><trkpt lat="41.63946815710534" lon="-4.8552497074264656"><ele>819.0</ele><time>2026-04-11T07:06:36Z</time></trkpt><trkpt lat="41.639501241886215" lon="-4.8551669544895875"><ele>818.0</ele><time>2026-04-11T07:06:37Z</time></trkpt><trkpt lat="41.63953904883809" lon="-4.855052137347556"><ele>817.0</ele><time>2026-04-11T07:06:39Z</time></trkpt><trkpt lat="41.639694854056884" lon="-4.855095537976618"><ele>816.6</ele><time>2026-04-11T07:06:54Z</time></trkpt><trkpt lat="41.639763095685026" lon="-4.8551714979826315"><ele>816.2</ele><time>2026-04-11T07:06:56Z</time></trkpt><trkpt lat="41.639842874978115" lon="-4.855270797466777"><ele>815.8</ele><time>2026-04-11T07:06:58Z</time></trkpt><trkpt lat="41.63991872502859" lon="-4.8553554604191165"><ele>815.4</ele><time>2026-04-11T07:07:00Z</time></trkpt><trkpt lat="41.6400220009678" lon="-4.855403346548849"><ele>815.0</ele><time>2026-04-11T07:07:02Z</time></trkpt><trkpt lat="41.64008343891424" lon="-4.855431519787024"><ele>815.0000000000001</ele><time>2026-04-11T07:07:03Z</time></trkpt><trkpt lat="41.640149232412796" lon="-4.855467562939629"><ele>815.0</ele><time>2026-04-11T07:07:04Z</time></trkpt><trkpt lat="41.640223633132294" lon="-4.855474818045671"><ele>815.0</ele><time>2026-04-11T07:07:05Z</time></trkpt><trkpt lat="41.64029755969404" lon="-4.855434399581032"><ele>815.0</ele><time>2026-04-11T07:07:06Z</time></trkpt><trkpt lat="41.640369694671286" lon="-4.855400566509327"><ele>815.0000000000001</ele><time>2026-04-11T07:07:07Z</time></trkpt><trkpt lat="41.64044534419519" lon="-4.855344784443316"><ele>815.0</ele><time>2026-04-11T07:07:08Z</time></trkpt><trkpt lat="41.640534867527904" lon="-4.855300405058948"><ele>814.5</ele><time>2026-04-11T07:07:08.999Z</time></trkpt><trkpt lat="41.64064192704249" lon="-4.855274305696087"><ele>814.0</ele><time>2026-04-11T07:07:09.999Z</time></trkpt><trkpt lat="41.64076208723233" lon="-4.855298370501899"><ele>813.5</ele><time>2026-04-11T07:07:10.999Z</time></trkpt><trkpt lat="41.64087569392612" lon="-4.855246756172464"><ele>813.0</ele><time>2026-04-11T07:07:11.999Z</time></trkpt><trkpt lat="41.64098451012305" lon="-4.855182192043936"><ele>813.0</ele><time>2026-04-11T07:07:12.999Z</time></trkpt><trkpt lat="41.64109770501656" lon="-4.855113375889403"><ele>813.0</ele><time>2026-04-11T07:07:13.999Z</time></trkpt><trkpt lat="41.64120829805996" lon="-4.855073345620806"><ele>813.0</ele><time>2026-04-11T07:07:14.999Z</time></trkpt><trkpt lat="41.64132888790926" lon="-4.855018302057415"><ele>813.0</ele><time>2026-04-11T07:07:15.999Z</time></trkpt><trkpt lat="41.6414598712134" lon="-4.854968355543721"><ele>813.0</ele><time>2026-04-11T07:07:16.999Z</time></trkpt><trkpt lat="41.641601562787805" lon="-4.854929973281434"><ele>813.0</ele><time>2026-04-11T07:07:17.999Z</time></trkpt><trkpt lat="41.641720039645726" lon="-4.854875601682935"><ele>813.0</ele><time>2026-04-11T07:07:18.999Z</time></trkpt><trkpt lat="41.641823461584316" lon="-4.854861501487546"><ele>813.0</ele><time>2026-04-11T07:07:19.999Z</time></trkpt><trkpt lat="41.64191778386722" lon="-4.854815822683116"><ele>814.5999999999999</ele><time>2026-04-11T07:07:20.999Z</time></trkpt><trkpt lat="41.642006373698564" lon="-4.854787274826935"><ele>816.1999999999999</ele><time>2026-04-11T07:07:21.999Z</time></trkpt><trkpt lat="41.642105547135124" lon="-4.854730268087631"><ele>817.8</ele><time>2026-04-11T07:07:22.999Z</time></trkpt><trkpt lat="41.6422151265424" lon="-4.854677853449033"><ele>819.4</ele><time>2026-04-11T07:07:23.999Z</time></trkpt><trkpt lat="41.64233182736567" lon="-4.854619537749636"><ele>821.0</ele><time>2026-04-11T07:07:24.999Z</time></trkpt><trkpt lat="41.642462111823235" lon="-4.8545454563309605"><ele>821.0</ele><time>2026-04-11T07:07:25.999Z</time></trkpt><trkpt lat="41.642604135867984" lon="-4.854464832762157"><ele>821.0</ele><time>2026-04-11T07:07:26.999Z</time></trkpt><trkpt lat="41.64276523897311" lon="-4.854403541777991"><ele>821.0</ele><time>2026-04-11T07:07:27.999Z</time></trkpt><trkpt lat="41.642913052132556" lon="-4.85434510437479"><ele>823.0</ele><time>2026-04-11T07:07:28.999Z</time></trkpt><trkpt lat="41.643060647222065" lon="-4.854271146769504"><ele>825.0</ele><time>2026-04-11T07:07:29.999Z</time></trkpt><trkpt lat="41.6432259700691" lon="-4.854232077598867"><ele>827.0</ele><time>2026-04-11T07:07:30.999Z</time></trkpt><trkpt lat="41.64340150979573" lon="-4.854159881479127"><ele>827.0</ele><time>2026-04-11T07:07:31.999Z</time></trkpt><trkpt lat="41.64359076570695" lon="-4.854086792184481"><ele>827.0</ele><time>2026-04-11T07:07:32.999Z</time></trkpt><trkpt lat="41.64377940446217" lon="-4.854013428196311"><ele>827.0</ele><time>2026-04-11T07:07:33.999Z</time></trkpt><trkpt lat="41.64395810734195" lon="-4.8539512931870545"><ele>829.6666666666667</ele><time>2026-04-11T07:07:34.999Z</time></trkpt><trkpt lat="41.64413243920656" lon="-4.853905291188797"><ele>832.3333333333333</ele><time>2026-04-11T07:07:35.999Z</time></trkpt><trkpt lat="41.64432569845796" lon="-4.853861707763412"><ele>835.0</ele><time>2026-04-11T07:07:36.999Z</time></trkpt><trkpt lat="41.644534354225506" lon="-4.853805205651203"><ele>835.6666666666666</ele><time>2026-04-11T07:07:37.999Z</time></trkpt><trkpt lat="41.644733974896944" lon="-4.853735281137225"><ele>836.3333333333333</ele><time>2026-04-11T07:07:38.999Z</time></trkpt><trkpt lat="41.644940741003886" lon="-4.853643263543012"><ele>837.0</ele><time>2026-04-11T07:07:39.999Z</time></trkpt><trkpt lat="41.64515286276174" lon="-4.853530830362326"><ele>838.0</ele><time>2026-04-11T07:07:40.999Z</time></trkpt><trkpt lat="41.64534323872767" lon="-4.853378620430608"><ele>839.0</ele><time>2026-04-11T07:07:41.999Z</time></trkpt><trkpt lat="41.64551947029639" lon="-4.853239930325378"><ele>840.0</ele><time>2026-04-11T07:07:42.999Z</time></trkpt><trkpt lat="41.645714643147635" lon="-4.8531068467862895"><ele>840.0</ele><time>2026-04-11T07:07:43.999Z</time></trkpt><trkpt lat="41.64591679015477" lon="-4.852953799158252"><ele>840.0</ele><time>2026-04-11T07:07:44.999Z</time></trkpt><trkpt lat="41.646134563812524" lon="-4.8528166304076485"><ele>840.5</ele><time>2026-04-11T07:07:45.999Z</time></trkpt><trkpt lat="41.64636738293487" lon="-4.852697351386192"><ele>841.0</ele><time>2026-04-11T07:07:46.999Z</time></trkpt><trkpt lat="41.64660165823955" lon="-4.852600325232891"><ele>841.0</ele><time>2026-04-11T07:07:47.999Z</time></trkpt><trkpt lat="41.646842407947595" lon="-4.852495212682875"><ele>841.0</ele><time>2026-04-11T07:07:48.999Z</time></trkpt><trkpt lat="41.64707595124623" lon="-4.852384726267786"><ele>843.0</ele><time>2026-04-11T07:07:49.999Z</time></trkpt><trkpt lat="41.647308726082095" lon="-4.852273303090535"><ele>845.0</ele><time>2026-04-11T07:07:50.999Z</time></trkpt><trkpt lat="41.647533528712096" lon="-4.852163123193558"><ele>845.0</ele><time>2026-04-11T07:07:51.999Z</time></trkpt><trkpt lat="41.647752871845235" lon="-4.852046977514528"><ele>845.0</ele><time>2026-04-11T07:07:52.998Z</time></trkpt><trkpt lat="41.64797061010038" lon="-4.851926835920775"><ele>844.5</ele><time>2026-04-11T07:07:53.998Z</time></trkpt><trkpt lat="41.64818987121889" lon="-4.851801230925531"><ele>844.0</ele><time>2026-04-11T07:07:54.998Z</time></trkpt><trkpt lat="41.64840721501083" lon="-4.85167643961477"><ele>844.0</ele><time>2026-04-11T07:07:55.998Z</time></trkpt><trkpt lat="41.64862435569498" lon="-4.851548989457907"><ele>844.0</ele><time>2026-04-11T07:07:56.998Z</time></trkpt><trkpt lat="41.648839114932294" lon="-4.851418718861479"><ele>844.0</ele><time>2026-04-11T07:07:57.998Z</time></trkpt><trkpt lat="41.64905027574187" lon="-4.851286870073666"><ele>844.0</ele><time>2026-04-11T07:07:58.998Z</time></trkpt><trkpt lat="41.64926492155049" lon="-4.851153772672428"><ele>844.5</ele><time>2026-04-11T07:07:59.998Z</time></trkpt><trkpt lat="41.64947845972343" lon="-4.85102010898865"><ele>845.0</ele><time>2026-04-11T07:08:00.998Z</time></trkpt><trkpt lat="41.649687733322004" lon="-4.850885977208311"><ele>845.0</ele><time>2026-04-11T07:08:01.998Z</time></trkpt><trkpt lat="41.64989835390922" lon="-4.850747751141059"><ele>845.0</ele><time>2026-04-11T07:08:02.998Z</time></trkpt><trkpt lat="41.6501027156943" lon="-4.850599946478041"><ele>845.5</ele><time>2026-04-11T07:08:03.998Z</time></trkpt><trkpt lat="41.650301067729316" lon="-4.850434811234283"><ele>846.0</ele><time>2026-04-11T07:08:04.998Z</time></trkpt><trkpt lat="41.65048828310891" lon="-4.85025468396181"><ele>845.0</ele><time>2026-04-11T07:08:05.998Z</time></trkpt><trkpt lat="41.650666345895075" lon="-4.850055439314608"><ele>844.0</ele><time>2026-04-11T07:08:06.998Z</time></trkpt><trkpt lat="41.65083111805704" lon="-4.849844174477191"><ele>844.0</ele><time>2026-04-11T07:08:07.998Z</time></trkpt><trkpt lat="41.65097750485196" lon="-4.849603690908241"><ele>844.0</ele><time>2026-04-11T07:08:08.998Z</time></trkpt><trkpt lat="41.65112261525924" lon="-4.849368092101112"><ele>843.5</ele><time>2026-04-11T07:08:09.998Z</time></trkpt><trkpt lat="41.651275120625655" lon="-4.849136794150131"><ele>843.0</ele><time>2026-04-11T07:08:10.998Z</time></trkpt><trkpt lat="41.65141365959488" lon="-4.8488839628294444"><ele>843.0</ele><time>2026-04-11T07:08:11.998Z</time></trkpt><trkpt lat="41.65156092973499" lon="-4.848623573505615"><ele>843.0</ele><time>2026-04-11T07:08:12.998Z</time></trkpt><trkpt lat="41.651710284160856" lon="-4.848362215372534"><ele>843.5</ele><time>2026-04-11T07:08:13.998Z</time></trkpt><trkpt lat="41.651862995562546" lon="-4.848098089798967"><ele>844.0</ele><time>2026-04-11T07:08:14.998Z</time></trkpt><trkpt lat="41.652017405154176" lon="-4.847830271023447"><ele>845.0</ele><time>2026-04-11T07:08:15.998Z</time></trkpt><trkpt lat="41.652173242454516" lon="-4.847559275252009"><ele>846.0</ele><time>2026-04-11T07:08:16.998Z</time></trkpt><trkpt lat="41.65232936545176" lon="-4.84729283267122"><ele>846.0</ele><time>2026-04-11T07:08:17.998Z</time></trkpt><trkpt lat="41.65248320768011" lon="-4.847031186865482"><ele>846.0</ele><time>2026-04-11T07:08:18.998Z</time></trkpt><trkpt lat="41.652636629085855" lon="-4.84677289922695"><ele>845.5</ele><time>2026-04-11T07:08:19.998Z</time></trkpt><trkpt lat="41.65279011214685" lon="-4.846517828008761"><ele>845.0</ele><time>2026-04-11T07:08:20.998Z</time></trkpt><trkpt lat="41.65294376049711" lon="-4.846264829076415"><ele>845.0</ele><time>2026-04-11T07:08:21.998Z</time></trkpt><trkpt lat="41.65310287140279" lon="-4.846005700536605"><ele>845.0</ele><time>2026-04-11T07:08:22.998Z</time></trkpt><trkpt lat="41.65326086177942" lon="-4.845749234876808"><ele>845.5</ele><time>2026-04-11T07:08:23.998Z</time></trkpt><trkpt lat="41.653410730611895" lon="-4.845500507302105"><ele>846.0</ele><time>2026-04-11T07:08:24.998Z</time></trkpt><trkpt lat="41.65356019650273" lon="-4.845255247634082"><ele>844.5</ele><time>2026-04-11T07:08:25.998Z</time></trkpt><trkpt lat="41.65371562415592" lon="-4.845010235508024"><ele>843.0</ele><time>2026-04-11T07:08:26.998Z</time></trkpt><trkpt lat="41.65387417935882" lon="-4.844769983797777"><ele>843.0</ele><time>2026-04-11T07:08:27.998Z</time></trkpt><trkpt lat="41.654042048494006" lon="-4.844536179701885"><ele>843.0</ele><time>2026-04-11T07:08:28.998Z</time></trkpt><trkpt lat="41.654187435636835" lon="-4.844283460318143"><ele>843.0</ele><time>2026-04-11T07:08:29.998Z</time></trkpt><trkpt lat="41.65437954177049" lon="-4.844114071560787"><ele>843.0</ele><time>2026-04-11T07:08:30.998Z</time></trkpt><trkpt lat="41.654529885024004" lon="-4.8439299883113085"><ele>843.0</ele><time>2026-04-11T07:08:31.998Z</time></trkpt><trkpt lat="41.654669188504705" lon="-4.843757297491259"><ele>843.6666666666667</ele><time>2026-04-11T07:08:32.998Z</time></trkpt><trkpt lat="41.654798866075794" lon="-4.843603367380982"><ele>844.3333333333334</ele><time>2026-04-11T07:08:33.998Z</time></trkpt><trkpt lat="41.654924544374815" lon="-4.843457975538231"><ele>845.0</ele><time>2026-04-11T07:08:34.998Z</time></trkpt><trkpt lat="41.655044199416345" lon="-4.843325886217824"><ele>845.0</ele><time>2026-04-11T07:08:35.997Z</time></trkpt><trkpt lat="41.6551638848282" lon="-4.843199122517585"><ele>845.0</ele><time>2026-04-11T07:08:36.997Z</time></trkpt><trkpt lat="41.65527394157364" lon="-4.843091193177849"><ele>845.0</ele><time>2026-04-11T07:08:37.997Z</time></trkpt><trkpt lat="41.655377010477004" lon="-4.8430001731992025"><ele>845.0</ele><time>2026-04-11T07:08:38.997Z</time></trkpt><trkpt lat="41.65546825736164" lon="-4.842921975218602"><ele>844.8</ele><time>2026-04-11T07:08:39.997Z</time></trkpt><trkpt lat="41.65554581692654" lon="-4.842857169065358"><ele>844.6</ele><time>2026-04-11T07:08:40.997Z</time></trkpt><trkpt lat="41.65561510217483" lon="-4.842810921142921"><ele>844.4000000000001</ele><time>2026-04-11T07:08:42Z</time></trkpt><trkpt lat="41.65571356854038" lon="-4.8427882494117584"><ele>844.2</ele><time>2026-04-11T07:08:44Z</time></trkpt><trkpt lat="41.655773463313444" lon="-4.84282412070142"><ele>844.0</ele><time>2026-04-11T07:08:47Z</time></trkpt><trkpt lat="41.655848845547645" lon="-4.842949495036619"><ele>844.0</ele><time>2026-04-11T07:08:49Z</time></trkpt><trkpt lat="41.65586677984109" lon="-4.8430531830132955"><ele>844.0</ele><time>2026-04-11T07:08:50Z</time></trkpt><trkpt lat="41.655879806632136" lon="-4.843160165937262"><ele>844.0</ele><time>2026-04-11T07:08:51Z</time></trkpt><trkpt lat="41.65590308803264" lon="-4.8432725528930884"><ele>844.0</ele><time>2026-04-11T07:08:52Z</time></trkpt><trkpt lat="41.655938796530705" lon="-4.8434096018534865"><ele>844.0</ele><time>2026-04-11T07:08:53Z</time></trkpt><trkpt lat="41.6559820516344" lon="-4.843563541891285"><ele>844.0</ele><time>2026-04-11T07:08:54Z</time></trkpt><trkpt lat="41.65603116055285" lon="-4.843727945767257"><ele>844.0</ele><time>2026-04-11T07:08:55Z</time></trkpt><trkpt lat="41.65607588563429" lon="-4.843886539703785"><ele>844.0</ele><time>2026-04-11T07:08:56Z</time></trkpt><trkpt lat="41.65611652500817" lon="-4.844051087180708"><ele>844.0</ele><time>2026-04-11T07:08:57Z</time></trkpt><trkpt lat="41.65615457056161" lon="-4.844244767025905"><ele>843.3333333333333</ele><time>2026-04-11T07:08:58Z</time></trkpt><trkpt lat="41.65619780317806" lon="-4.844466160423401"><ele>842.6666666666667</ele><time>2026-04-11T07:08:59Z</time></trkpt><trkpt lat="41.65624241115647" lon="-4.8446848571741885"><ele>842.0</ele><time>2026-04-11T07:09:00Z</time></trkpt><trkpt lat="41.656286999376746" lon="-4.844902160035161"><ele>842.3333333333334</ele><time>2026-04-11T07:09:01Z</time></trkpt><trkpt lat="41.656337975020946" lon="-4.845144741634908"><ele>842.6666666666667</ele><time>2026-04-11T07:09:02Z</time></trkpt><trkpt lat="41.65639243323868" lon="-4.845408054014786"><ele>843.0</ele><time>2026-04-11T07:09:03Z</time></trkpt><trkpt lat="41.656449386596485" lon="-4.845682195088035"><ele>843.3333333333333</ele><time>2026-04-11T07:09:04Z</time></trkpt><trkpt lat="41.6565105164728" lon="-4.845962303629964"><ele>843.6666666666666</ele><time>2026-04-11T07:09:05Z</time></trkpt><trkpt lat="41.65657141060821" lon="-4.846229333139572"><ele>844.0</ele><time>2026-04-11T07:09:06Z</time></trkpt><trkpt lat="41.65663379009328" lon="-4.846504542256601"><ele>844.0</ele><time>2026-04-11T07:09:07Z</time></trkpt><trkpt lat="41.65669735249802" lon="-4.846795572277831"><ele>844.0</ele><time>2026-04-11T07:09:08Z</time></trkpt><trkpt lat="41.65676180506717" lon="-4.84708999245716"><ele>844.0</ele><time>2026-04-11T07:09:09Z</time></trkpt><trkpt lat="41.65682625038951" lon="-4.8473899528399125"><ele>844.0</ele><time>2026-04-11T07:09:10Z</time></trkpt><trkpt lat="41.65688786905989" lon="-4.847672018408812"><ele>844.0</ele><time>2026-04-11T07:09:11Z</time></trkpt><trkpt lat="41.65695171003093" lon="-4.847951216725769"><ele>844.0</ele><time>2026-04-11T07:09:12Z</time></trkpt><trkpt lat="41.65701928458929" lon="-4.848236807530723"><ele>844.0</ele><time>2026-04-11T07:09:13Z</time></trkpt><trkpt lat="41.657087365297954" lon="-4.848536950224073"><ele>844.0</ele><time>2026-04-11T07:09:14Z</time></trkpt><trkpt lat="41.65715383179621" lon="-4.8488403156937245"><ele>844.0</ele><time>2026-04-11T07:09:15Z</time></trkpt><trkpt lat="41.6572204904829" lon="-4.849147386994001"><ele>844.5</ele><time>2026-04-11T07:09:16Z</time></trkpt><trkpt lat="41.65728878248308" lon="-4.849462714586567"><ele>845.0</ele><time>2026-04-11T07:09:16.999Z</time></trkpt><trkpt lat="41.65735768268122" lon="-4.849773253507622"><ele>845.0</ele><time>2026-04-11T07:09:17.999Z</time></trkpt><trkpt lat="41.657428528995894" lon="-4.850090936613861"><ele>845.0</ele><time>2026-04-11T07:09:18.999Z</time></trkpt><trkpt lat="41.6575042240851" lon="-4.850419048210449"><ele>845.5</ele><time>2026-04-11T07:09:19.999Z</time></trkpt><trkpt lat="41.65757723725189" lon="-4.850740983466566"><ele>846.0</ele><time>2026-04-11T07:09:20.999Z</time></trkpt><trkpt lat="41.65764627872548" lon="-4.851049679055335"><ele>846.5</ele><time>2026-04-11T07:09:21.999Z</time></trkpt><trkpt lat="41.6577111922612" lon="-4.851341973419313"><ele>847.0</ele><time>2026-04-11T07:09:22.999Z</time></trkpt><trkpt lat="41.65777618847112" lon="-4.851645575635956"><ele>845.0</ele><time>2026-04-11T07:09:23.999Z</time></trkpt><trkpt lat="41.65784303895541" lon="-4.851957544430522"><ele>843.0</ele><time>2026-04-11T07:09:24.999Z</time></trkpt><trkpt lat="41.657913402816625" lon="-4.852275517467153"><ele>843.0</ele><time>2026-04-11T07:09:25.999Z</time></trkpt><trkpt lat="41.65798562227464" lon="-4.852599492128615"><ele>843.0</ele><time>2026-04-11T07:09:26.999Z</time></trkpt><trkpt lat="41.65805682807682" lon="-4.852925158690519"><ele>843.5</ele><time>2026-04-11T07:09:27.999Z</time></trkpt><trkpt lat="41.65813076204394" lon="-4.853264132039642"><ele>844.0</ele><time>2026-04-11T07:09:28.999Z</time></trkpt><trkpt lat="41.65820638081213" lon="-4.853613226787248"><ele>844.0</ele><time>2026-04-11T07:09:29.999Z</time></trkpt><trkpt lat="41.658284550097896" lon="-4.853967998609158"><ele>844.0</ele><time>2026-04-11T07:09:30.999Z</time></trkpt><trkpt lat="41.65836577874477" lon="-4.854326464431711"><ele>844.5</ele><time>2026-04-11T07:09:31.999Z</time></trkpt><trkpt lat="41.658453083217836" lon="-4.854695294292553"><ele>845.0</ele><time>2026-04-11T07:09:32.999Z</time></trkpt><trkpt lat="41.658541415353646" lon="-4.855072282604075"><ele>844.5</ele><time>2026-04-11T07:09:33.999Z</time></trkpt><trkpt lat="41.658628831516744" lon="-4.8554542189168615"><ele>844.0</ele><time>2026-04-11T07:09:34.999Z</time></trkpt><trkpt lat="41.658715191399565" lon="-4.855845727089718"><ele>844.0</ele><time>2026-04-11T07:09:35.999Z</time></trkpt><trkpt lat="41.658800264439236" lon="-4.856238093890453"><ele>844.0</ele><time>2026-04-11T07:09:36.999Z</time></trkpt><trkpt lat="41.65888691002803" lon="-4.856629726566093"><ele>844.0</ele><time>2026-04-11T07:09:37.999Z</time></trkpt><trkpt lat="41.65897623915188" lon="-4.857022407599046"><ele>844.0</ele><time>2026-04-11T07:09:38.999Z</time></trkpt><trkpt lat="41.65906682776625" lon="-4.857415829158054"><ele>844.5</ele><time>2026-04-11T07:09:39.999Z</time></trkpt><trkpt lat="41.659155084832925" lon="-4.857806622067946"><ele>845.0</ele><time>2026-04-11T07:09:40.999Z</time></trkpt><trkpt lat="41.659241798645425" lon="-4.858195941772853"><ele>845.0</ele><time>2026-04-11T07:09:41.999Z</time></trkpt><trkpt lat="41.659328204325355" lon="-4.858581692862814"><ele>845.0</ele><time>2026-04-11T07:09:42.999Z</time></trkpt><trkpt lat="41.6594150531152" lon="-4.858968654813488"><ele>844.5</ele><time>2026-04-11T07:09:43.999Z</time></trkpt><trkpt lat="41.65950259562508" lon="-4.859354305304673"><ele>844.0</ele><time>2026-04-11T07:09:44.999Z</time></trkpt><trkpt lat="41.65958939793423" lon="-4.859734511693129"><ele>844.0</ele><time>2026-04-11T07:09:45.999Z</time></trkpt><trkpt lat="41.65967473258875" lon="-4.860114799554567"><ele>844.0</ele><time>2026-04-11T07:09:46.999Z</time></trkpt><trkpt lat="41.65975873020204" lon="-4.860493393874601"><ele>844.0</ele><time>2026-04-11T07:09:47.999Z</time></trkpt><trkpt lat="41.65984239617736" lon="-4.860869948761421"><ele>844.0</ele><time>2026-04-11T07:09:48.999Z</time></trkpt><trkpt lat="41.659926548018866" lon="-4.861239639916032"><ele>844.0</ele><time>2026-04-11T07:09:49.999Z</time></trkpt><trkpt lat="41.66001096701252" lon="-4.861612331722628"><ele>844.0</ele><time>2026-04-11T07:09:50.999Z</time></trkpt><trkpt lat="41.66009408949481" lon="-4.861983556180984"><ele>844.5</ele><time>2026-04-11T07:09:51.999Z</time></trkpt><trkpt lat="41.66017744825403" lon="-4.8623492057138415"><ele>845.0</ele><time>2026-04-11T07:09:52.999Z</time></trkpt><trkpt lat="41.660261121352725" lon="-4.862719675491054"><ele>845.0</ele><time>2026-04-11T07:09:53.999Z</time></trkpt><trkpt lat="41.660344023319105" lon="-4.863084533280226"><ele>845.0</ele><time>2026-04-11T07:09:54.999Z</time></trkpt><trkpt lat="41.66042520073532" lon="-4.863442922137829"><ele>845.0</ele><time>2026-04-11T07:09:55.999Z</time></trkpt><trkpt lat="41.66050533216851" lon="-4.8637976408843615"><ele>845.0</ele><time>2026-04-11T07:09:56.999Z</time></trkpt><trkpt lat="41.66058365375359" lon="-4.864145739758654"><ele>844.5</ele><time>2026-04-11T07:09:57.999Z</time></trkpt><trkpt lat="41.66066006849347" lon="-4.864495030451997"><ele>844.0</ele><time>2026-04-11T07:09:58.999Z</time></trkpt><trkpt lat="41.660733677798866" lon="-4.864837247273335"><ele>843.0</ele><time>2026-04-11T07:09:59.999Z</time></trkpt><trkpt lat="41.66080689111441" lon="-4.86517895354933"><ele>842.0</ele><time>2026-04-11T07:10:00.998Z</time></trkpt><trkpt lat="41.66087920582575" lon="-4.865511450761491"><ele>842.0</ele><time>2026-04-11T07:10:01.998Z</time></trkpt><trkpt lat="41.660952962245815" lon="-4.865840849476945"><ele>842.0</ele><time>2026-04-11T07:10:02.998Z</time></trkpt><trkpt lat="41.66102538514676" lon="-4.866168002311177"><ele>841.5</ele><time>2026-04-11T07:10:03.998Z</time></trkpt><trkpt lat="41.66109812994696" lon="-4.866489453214461"><ele>841.0</ele><time>2026-04-11T07:10:04.998Z</time></trkpt><trkpt lat="41.66117151449759" lon="-4.866807453964764"><ele>842.0</ele><time>2026-04-11T07:10:05.998Z</time></trkpt><trkpt lat="41.66124406690347" lon="-4.867123161820151"><ele>843.0</ele><time>2026-04-11T07:10:06.998Z</time></trkpt><trkpt lat="41.661315052302406" lon="-4.867434678710979"><ele>843.0</ele><time>2026-04-11T07:10:07.998Z</time></trkpt><trkpt lat="41.66138392581703" lon="-4.867744058958529"><ele>843.0</ele><time>2026-04-11T07:10:08.998Z</time></trkpt><trkpt lat="41.66145473246081" lon="-4.868057089824129"><ele>843.0</ele><time>2026-04-11T07:10:09.998Z</time></trkpt><trkpt lat="41.66152753149874" lon="-4.868367074240885"><ele>843.0</ele><time>2026-04-11T07:10:10.998Z</time></trkpt><trkpt lat="41.661598410342584" lon="-4.868672270891983"><ele>843.0</ele><time>2026-04-11T07:10:11.998Z</time></trkpt><trkpt lat="41.66166712601202" lon="-4.868976019763978"><ele>843.0</ele><time>2026-04-11T07:10:12.998Z</time></trkpt><trkpt lat="41.661734309771134" lon="-4.869279266485994"><ele>843.0</ele><time>2026-04-11T07:10:13.998Z</time></trkpt><trkpt lat="41.66179844881572" lon="-4.86958077205281"><ele>843.0</ele><time>2026-04-11T07:10:14.998Z</time></trkpt><trkpt lat="41.6618630382377" lon="-4.869883728217567"><ele>843.0</ele><time>2026-04-11T07:10:15.998Z</time></trkpt><trkpt lat="41.66192696176358" lon="-4.870179195092149"><ele>843.0</ele><time>2026-04-11T07:10:16.998Z</time></trkpt><trkpt lat="41.6619920643613" lon="-4.87046739125762"><ele>843.0</ele><time>2026-04-11T07:10:17.998Z</time></trkpt><trkpt lat="41.66205968774518" lon="-4.8707651769258"><ele>843.0</ele><time>2026-04-11T07:10:18.998Z</time></trkpt><trkpt lat="41.66212636339104" lon="-4.871065613867761"><ele>842.5</ele><time>2026-04-11T07:10:19.998Z</time></trkpt><trkpt lat="41.66219365831962" lon="-4.8713704802960045"><ele>842.0</ele><time>2026-04-11T07:10:20.998Z</time></trkpt><trkpt lat="41.66226232828287" lon="-4.871677604098435"><ele>842.0</ele><time>2026-04-11T07:10:21.998Z</time></trkpt><trkpt lat="41.66233175457947" lon="-4.871986476598746"><ele>842.0</ele><time>2026-04-11T07:10:22.998Z</time></trkpt><trkpt lat="41.66240102959159" lon="-4.872296604201993"><ele>842.0</ele><time>2026-04-11T07:10:23.998Z</time></trkpt><trkpt lat="41.66247122771389" lon="-4.872606347800937"><ele>842.0</ele><time>2026-04-11T07:10:24.998Z</time></trkpt><trkpt lat="41.662541918252835" lon="-4.872917813391926"><ele>842.0</ele><time>2026-04-11T07:10:25.998Z</time></trkpt><trkpt lat="41.662612561937046" lon="-4.873228684700865"><ele>842.0</ele><time>2026-04-11T07:10:26.998Z</time></trkpt><trkpt lat="41.66268127966086" lon="-4.873539882784543"><ele>842.5</ele><time>2026-04-11T07:10:27.998Z</time></trkpt><trkpt lat="41.66274934126767" lon="-4.873849350176188"><ele>843.0</ele><time>2026-04-11T07:10:28.998Z</time></trkpt><trkpt lat="41.662819112634416" lon="-4.874158024880956"><ele>843.5</ele><time>2026-04-11T07:10:29.998Z</time></trkpt><trkpt lat="41.662887781063375" lon="-4.874463954880255"><ele>844.0</ele><time>2026-04-11T07:10:30.998Z</time></trkpt><trkpt lat="41.66295719639837" lon="-4.874769570105159"><ele>844.0</ele><time>2026-04-11T07:10:31.998Z</time></trkpt><trkpt lat="41.663026899943944" lon="-4.8750729426932375"><ele>844.0</ele><time>2026-04-11T07:10:32.998Z</time></trkpt><trkpt lat="41.663095200746675" lon="-4.875373384089417"><ele>844.0</ele><time>2026-04-11T07:10:33.998Z</time></trkpt><trkpt lat="41.66316275187565" lon="-4.875676557108684"><ele>844.0</ele><time>2026-04-11T07:10:34.998Z</time></trkpt><trkpt lat="41.66322408564627" lon="-4.875968845481207"><ele>844.0</ele><time>2026-04-11T07:10:35.998Z</time></trkpt><trkpt lat="41.66328749583911" lon="-4.876272146359153"><ele>844.0</ele><time>2026-04-11T07:10:36.998Z</time></trkpt><trkpt lat="41.663350011857865" lon="-4.876574702685544"><ele>843.5</ele><time>2026-04-11T07:10:37.998Z</time></trkpt><trkpt lat="41.66341361709837" lon="-4.8768766622586535"><ele>843.0</ele><time>2026-04-11T07:10:38.998Z</time></trkpt><trkpt lat="41.663481328531134" lon="-4.877175889383021"><ele>843.0</ele><time>2026-04-11T07:10:39.998Z</time></trkpt><trkpt lat="41.66355204361333" lon="-4.877476068583537"><ele>843.0</ele><time>2026-04-11T07:10:40.998Z</time></trkpt><trkpt lat="41.66362119649291" lon="-4.877766860861689"><ele>844.0</ele><time>2026-04-11T07:10:41.998Z</time></trkpt><trkpt lat="41.66368923589624" lon="-4.878049631027339"><ele>845.0</ele><time>2026-04-11T07:10:42.997Z</time></trkpt><trkpt lat="41.66375704644993" lon="-4.878344468622499"><ele>845.5</ele><time>2026-04-11T07:10:43.997Z</time></trkpt><trkpt lat="41.66382740367078" lon="-4.878657030583086"><ele>846.0</ele><time>2026-04-11T07:10:44.997Z</time></trkpt><trkpt lat="41.66389892190865" lon="-4.878978276704088"><ele>846.0</ele><time>2026-04-11T07:10:45.997Z</time></trkpt><trkpt lat="41.66396960786084" lon="-4.879322021188427"><ele>846.0</ele><time>2026-04-11T07:10:46.997Z</time></trkpt><trkpt lat="41.66404453264724" lon="-4.879677292852645"><ele>846.0</ele><time>2026-04-11T07:10:48Z</time></trkpt><trkpt lat="41.66411898633766" lon="-4.880023963711655"><ele>846.0</ele><time>2026-04-11T07:10:49Z</time></trkpt><trkpt lat="41.66419278039818" lon="-4.880356407243839"><ele>845.0</ele><time>2026-04-11T07:10:50Z</time></trkpt><trkpt lat="41.66426496776549" lon="-4.880678143809371"><ele>844.0</ele><time>2026-04-11T07:10:51Z</time></trkpt><trkpt lat="41.66433804711611" lon="-4.880993695661098"><ele>843.5</ele><time>2026-04-11T07:10:52Z</time></trkpt><trkpt lat="41.664409598703855" lon="-4.881300533578999"><ele>843.0</ele><time>2026-04-11T07:10:53Z</time></trkpt><trkpt lat="41.664481613994184" lon="-4.881611128442123"><ele>843.5</ele><time>2026-04-11T07:10:54Z</time></trkpt><trkpt lat="41.66455186700999" lon="-4.881919773786236"><ele>844.0</ele><time>2026-04-11T07:10:55Z</time></trkpt><trkpt lat="41.66462324314469" lon="-4.882243624856296"><ele>844.0</ele><time>2026-04-11T07:10:56Z</time></trkpt><trkpt lat="41.664711597766754" lon="-4.882575193645408"><ele>844.0</ele><time>2026-04-11T07:10:57Z</time></trkpt><trkpt lat="41.664752767603105" lon="-4.8828671346485555"><ele>843.5</ele><time>2026-04-11T07:10:58Z</time></trkpt><trkpt lat="41.66482263545527" lon="-4.883181329309406"><ele>843.0</ele><time>2026-04-11T07:10:59Z</time></trkpt><trkpt lat="41.6648899838976" lon="-4.88349079187563"><ele>842.5</ele><time>2026-04-11T07:11:00Z</time></trkpt><trkpt lat="41.66496350305999" lon="-4.883806611844055"><ele>842.0</ele><time>2026-04-11T07:11:01Z</time></trkpt><trkpt lat="41.66504263819286" lon="-4.88413002461319"><ele>843.5</ele><time>2026-04-11T07:11:02Z</time></trkpt><trkpt lat="41.66514179784653" lon="-4.884482187536531"><ele>845.0</ele><time>2026-04-11T07:11:03Z</time></trkpt><trkpt lat="41.66519049492524" lon="-4.884759824561682"><ele>845.0</ele><time>2026-04-11T07:11:04Z</time></trkpt><trkpt lat="41.66525220132218" lon="-4.885065991525846"><ele>845.0</ele><time>2026-04-11T07:11:05Z</time></trkpt><trkpt lat="41.66531935026751" lon="-4.885385016102737"><ele>845.0</ele><time>2026-04-11T07:11:06Z</time></trkpt><trkpt lat="41.66539186941703" lon="-4.88570775800847"><ele>845.0</ele><time>2026-04-11T07:11:07Z</time></trkpt><trkpt lat="41.66545926810207" lon="-4.886013278567014"><ele>845.0</ele><time>2026-04-11T07:11:08Z</time></trkpt><trkpt lat="41.66553201157439" lon="-4.886328155595959"><ele>845.0</ele><time>2026-04-11T07:11:09Z</time></trkpt><trkpt lat="41.665604039782245" lon="-4.886646180293404"><ele>845.0</ele><time>2026-04-11T07:11:10Z</time></trkpt><trkpt lat="41.66567688134186" lon="-4.886966183032423"><ele>845.0</ele><time>2026-04-11T07:11:11Z</time></trkpt><trkpt lat="41.66574587837626" lon="-4.887278601513659"><ele>844.5</ele><time>2026-04-11T07:11:12Z</time></trkpt><trkpt lat="41.66581683230035" lon="-4.887597193573709"><ele>844.0</ele><time>2026-04-11T07:11:13Z</time></trkpt><trkpt lat="41.66588716219695" lon="-4.887915710991384"><ele>844.0</ele><time>2026-04-11T07:11:14Z</time></trkpt><trkpt lat="41.66595587783386" lon="-4.888230923401081"><ele>844.0</ele><time>2026-04-11T07:11:15Z</time></trkpt><trkpt lat="41.666026496353915" lon="-4.888546150137638"><ele>844.0</ele><time>2026-04-11T07:11:16Z</time></trkpt><trkpt lat="41.66609894253674" lon="-4.888863307590269"><ele>844.0</ele><time>2026-04-11T07:11:17Z</time></trkpt><trkpt lat="41.666170595723024" lon="-4.889177151835231"><ele>844.5</ele><time>2026-04-11T07:11:18Z</time></trkpt><trkpt lat="41.66624220374175" lon="-4.8894924147415"><ele>845.0</ele><time>2026-04-11T07:11:19Z</time></trkpt><trkpt lat="41.66631237536988" lon="-4.889808670882287"><ele>844.5</ele><time>2026-04-11T07:11:20Z</time></trkpt><trkpt lat="41.66638286518029" lon="-4.8901265500414945"><ele>844.0</ele><time>2026-04-11T07:11:21Z</time></trkpt><trkpt lat="41.66645240361922" lon="-4.89043888312677"><ele>844.0</ele><time>2026-04-11T07:11:21.999Z</time></trkpt><trkpt lat="41.666524062892854" lon="-4.890757923865562"><ele>844.0</ele><time>2026-04-11T07:11:22.999Z</time></trkpt><trkpt lat="41.6665935533677" lon="-4.891069620435823"><ele>844.5</ele><time>2026-04-11T07:11:23.999Z</time></trkpt><trkpt lat="41.66666386841927" lon="-4.891391192213333"><ele>845.0</ele><time>2026-04-11T07:11:24.999Z</time></trkpt><trkpt lat="41.66672884337163" lon="-4.8917017484686385"><ele>844.0</ele><time>2026-04-11T07:11:25.999Z</time></trkpt><trkpt lat="41.66679411231004" lon="-4.892017996864772"><ele>843.0</ele><time>2026-04-11T07:11:26.999Z</time></trkpt><trkpt lat="41.6668640152671" lon="-4.892336195257664"><ele>842.5</ele><time>2026-04-11T07:11:27.999Z</time></trkpt><trkpt lat="41.66694058494694" lon="-4.8926516524533605"><ele>842.0</ele><time>2026-04-11T07:11:28.999Z</time></trkpt><trkpt lat="41.667019842211786" lon="-4.892962459453878"><ele>842.0</ele><time>2026-04-11T07:11:29.999Z</time></trkpt><trkpt lat="41.6670932784575" lon="-4.893279090480066"><ele>842.0</ele><time>2026-04-11T07:11:30.999Z</time></trkpt><trkpt lat="41.66715664301933" lon="-4.893593418625738"><ele>843.0</ele><time>2026-04-11T07:11:31.999Z</time></trkpt><trkpt lat="41.667223970535844" lon="-4.893907836571149"><ele>844.0</ele><time>2026-04-11T07:11:32.999Z</time></trkpt><trkpt lat="41.66729744364318" lon="-4.894229962201953"><ele>843.5</ele><time>2026-04-11T07:11:33.999Z</time></trkpt><trkpt lat="41.667367464487775" lon="-4.894541495781084"><ele>843.0</ele><time>2026-04-11T07:11:34.999Z</time></trkpt><trkpt lat="41.66743860163464" lon="-4.894858438573996"><ele>842.0</ele><time>2026-04-11T07:11:35.999Z</time></trkpt><trkpt lat="41.667505057967084" lon="-4.895171785704714"><ele>841.0</ele><time>2026-04-11T07:11:36.999Z</time></trkpt><trkpt lat="41.66757939002123" lon="-4.895484231578746"><ele>841.0</ele><time>2026-04-11T07:11:37.999Z</time></trkpt><trkpt lat="41.66764972719516" lon="-4.895794023014962"><ele>841.0</ele><time>2026-04-11T07:11:38.999Z</time></trkpt><trkpt lat="41.667716459641994" lon="-4.896118275764225"><ele>842.0</ele><time>2026-04-11T07:11:39.999Z</time></trkpt><trkpt lat="41.667793731223135" lon="-4.896430707014478"><ele>843.0</ele><time>2026-04-11T07:11:40.999Z</time></trkpt><trkpt lat="41.66786663730529" lon="-4.896749323676915"><ele>843.0</ele><time>2026-04-11T07:11:41.999Z</time></trkpt><trkpt lat="41.667923451027164" lon="-4.897059871558925"><ele>843.0</ele><time>2026-04-11T07:11:42.999Z</time></trkpt><trkpt lat="41.6679875630905" lon="-4.897370524757787"><ele>843.5</ele><time>2026-04-11T07:11:43.999Z</time></trkpt><trkpt lat="41.66805835525496" lon="-4.897675017622293"><ele>844.0</ele><time>2026-04-11T07:11:44.999Z</time></trkpt><trkpt lat="41.66813215670704" lon="-4.897985389162346"><ele>844.0</ele><time>2026-04-11T07:11:45.999Z</time></trkpt><trkpt lat="41.66821295658977" lon="-4.898301300887262"><ele>844.0</ele><time>2026-04-11T07:11:46.999Z</time></trkpt><trkpt lat="41.66828989913669" lon="-4.8986218262862575"><ele>843.5</ele><time>2026-04-11T07:11:47.999Z</time></trkpt><trkpt lat="41.66835635137524" lon="-4.898939110378442"><ele>843.0</ele><time>2026-04-11T07:11:48.999Z</time></trkpt><trkpt lat="41.66842117926014" lon="-4.899259074109861"><ele>843.0</ele><time>2026-04-11T07:11:49.999Z</time></trkpt><trkpt lat="41.66848656301082" lon="-4.899575288826185"><ele>843.0</ele><time>2026-04-11T07:11:50.999Z</time></trkpt><trkpt lat="41.66855833572844" lon="-4.899893841662308"><ele>843.0</ele><time>2026-04-11T07:11:51.999Z</time></trkpt><trkpt lat="41.66863138977156" lon="-4.900209175287667"><ele>843.0</ele><time>2026-04-11T07:11:52.999Z</time></trkpt><trkpt lat="41.66870379331039" lon="-4.900527340053892"><ele>843.0</ele><time>2026-04-11T07:11:53.999Z</time></trkpt><trkpt lat="41.668775234829695" lon="-4.90084691456176"><ele>843.0</ele><time>2026-04-11T07:11:54.999Z</time></trkpt><trkpt lat="41.66884693606398" lon="-4.901167084608865"><ele>842.5</ele><time>2026-04-11T07:11:55.999Z</time></trkpt><trkpt lat="41.6689179366797" lon="-4.90148364381381"><ele>842.0</ele><time>2026-04-11T07:11:56.999Z</time></trkpt><trkpt lat="41.668989749424604" lon="-4.90180677348969"><ele>842.0</ele><time>2026-04-11T07:11:57.999Z</time></trkpt><trkpt lat="41.66905837371561" lon="-4.902121496774182"><ele>842.0</ele><time>2026-04-11T07:11:58.999Z</time></trkpt><trkpt lat="41.669126276224425" lon="-4.902439959856824"><ele>842.0</ele><time>2026-04-11T07:11:59.999Z</time></trkpt><trkpt lat="41.669196760467116" lon="-4.9027579160124235"><ele>842.0</ele><time>2026-04-11T07:12:00.999Z</time></trkpt><trkpt lat="41.669265000474645" lon="-4.903053418248948"><ele>842.0</ele><time>2026-04-11T07:12:01.999Z</time></trkpt><trkpt lat="41.66932716278828" lon="-4.903324163056669"><ele>842.0</ele><time>2026-04-11T07:12:02.999Z</time></trkpt><trkpt lat="41.66938719168143" lon="-4.903593938998111"><ele>842.0</ele><time>2026-04-11T07:12:03.998Z</time></trkpt><trkpt lat="41.66944809816841" lon="-4.903878713559692"><ele>840.6666666666667</ele><time>2026-04-11T07:12:04.998Z</time></trkpt><trkpt lat="41.66951404079242" lon="-4.904167655988815"><ele>839.3333333333333</ele><time>2026-04-11T07:12:05.998Z</time></trkpt><trkpt lat="41.66958038738348" lon="-4.904451695894499"><ele>838.0</ele><time>2026-04-11T07:12:06.998Z</time></trkpt><trkpt lat="41.669638850195874" lon="-4.904724309497174"><ele>837.6666666666666</ele><time>2026-04-11T07:12:07.998Z</time></trkpt><trkpt lat="41.66968962008858" lon="-4.904990865855206"><ele>837.3333333333333</ele><time>2026-04-11T07:12:08.998Z</time></trkpt><trkpt lat="41.669735368499396" lon="-4.905267308734762"><ele>837.0</ele><time>2026-04-11T07:12:09.998Z</time></trkpt><trkpt lat="41.669768091799" lon="-4.905536795746526"><ele>836.0</ele><time>2026-04-11T07:12:10.998Z</time></trkpt><trkpt lat="41.66978813168468" lon="-4.905802246731047"><ele>835.0</ele><time>2026-04-11T07:12:11.998Z</time></trkpt><trkpt lat="41.66979369635064" lon="-4.906078359444671"><ele>834.0</ele><time>2026-04-11T07:12:12.998Z</time></trkpt><trkpt lat="41.669789181938555" lon="-4.906373731040294"><ele>832.5</ele><time>2026-04-11T07:12:13.998Z</time></trkpt><trkpt lat="41.66977160943802" lon="-4.906695970087703"><ele>831.0</ele><time>2026-04-11T07:12:14.998Z</time></trkpt><trkpt lat="41.66974530893012" lon="-4.907005832336804"><ele>830.6666666666667</ele><time>2026-04-11T07:12:15.998Z</time></trkpt><trkpt lat="41.6697151082801" lon="-4.907303888178113"><ele>830.3333333333334</ele><time>2026-04-11T07:12:16.998Z</time></trkpt><trkpt lat="41.66968903987885" lon="-4.907597074051899"><ele>830.0</ele><time>2026-04-11T07:12:17.998Z</time></trkpt><trkpt lat="41.66966201550456" lon="-4.907908040408194"><ele>827.0</ele><time>2026-04-11T07:12:18.998Z</time></trkpt><trkpt lat="41.66964547248842" lon="-4.908220268966994"><ele>824.0</ele><time>2026-04-11T07:12:19.998Z</time></trkpt><trkpt lat="41.6696545875528" lon="-4.908537485151063"><ele>818.0</ele><time>2026-04-11T07:12:20.998Z</time></trkpt><trkpt lat="41.669690930100494" lon="-4.908851349135937"><ele>812.0</ele><time>2026-04-11T07:12:21.998Z</time></trkpt><trkpt lat="41.66974844475379" lon="-4.909157847763401"><ele>808.5</ele><time>2026-04-11T07:12:22.998Z</time></trkpt><trkpt lat="41.669820954112886" lon="-4.909459665940292"><ele>805.0</ele><time>2026-04-11T07:12:23.998Z</time></trkpt><trkpt lat="41.669910100133556" lon="-4.909749059967641"><ele>805.0</ele><time>2026-04-11T07:12:24.998Z</time></trkpt><trkpt lat="41.67001894435473" lon="-4.910032214703799"><ele>805.0</ele><time>2026-04-11T07:12:25.998Z</time></trkpt><trkpt lat="41.670149183234805" lon="-4.910309525166239"><ele>801.5</ele><time>2026-04-11T07:12:26.998Z</time></trkpt><trkpt lat="41.670297444763094" lon="-4.910577350821145"><ele>798.0</ele><time>2026-04-11T07:12:27.998Z</time></trkpt><trkpt lat="41.670461410450464" lon="-4.910833808338914"><ele>793.0</ele><time>2026-04-11T07:12:28.998Z</time></trkpt><trkpt lat="41.67063292971825" lon="-4.911076904170537"><ele>788.0</ele><time>2026-04-11T07:12:29.998Z</time></trkpt><trkpt lat="41.670806966434846" lon="-4.911314789256661"><ele>788.0</ele><time>2026-04-11T07:12:30.998Z</time></trkpt><trkpt lat="41.67097840745153" lon="-4.911562420750487"><ele>788.0</ele><time>2026-04-11T07:12:31.998Z</time></trkpt><trkpt lat="41.67113109389006" lon="-4.911802333991413"><ele>785.6666666666667</ele><time>2026-04-11T07:12:32.998Z</time></trkpt><trkpt lat="41.671286727509596" lon="-4.912020306489412"><ele>783.3333333333333</ele><time>2026-04-11T07:12:33.998Z</time></trkpt><trkpt lat="41.67145360357413" lon="-4.912208852524967"><ele>781.0</ele><time>2026-04-11T07:12:34.998Z</time></trkpt><trkpt lat="41.67163483692268" lon="-4.912359653324591"><ele>781.0</ele><time>2026-04-11T07:12:35.998Z</time></trkpt><trkpt lat="41.67182290376386" lon="-4.912487573304387"><ele>781.0</ele><time>2026-04-11T07:12:36.998Z</time></trkpt><trkpt lat="41.672022130451055" lon="-4.912615600671388"><ele>781.0</ele><time>2026-04-11T07:12:37.998Z</time></trkpt><trkpt lat="41.672215070285056" lon="-4.912749841248187"><ele>780.0</ele><time>2026-04-11T07:12:38.998Z</time></trkpt><trkpt lat="41.67240198219219" lon="-4.912888227966467"><ele>779.0</ele><time>2026-04-11T07:12:39.998Z</time></trkpt><trkpt lat="41.672586836540276" lon="-4.913025148339651"><ele>778.0</ele><time>2026-04-11T07:12:40.998Z</time></trkpt><trkpt lat="41.67275477112576" lon="-4.9131609591992325"><ele>778.0</ele><time>2026-04-11T07:12:41.998Z</time></trkpt><trkpt lat="41.67289459062752" lon="-4.913321534682559"><ele>778.0</ele><time>2026-04-11T07:12:42.998Z</time></trkpt><trkpt lat="41.67301789013352" lon="-4.913516330234684"><ele>778.0</ele><time>2026-04-11T07:12:43.998Z</time></trkpt><trkpt lat="41.67312881012198" lon="-4.913746695770832"><ele>778.3333333333333</ele><time>2026-04-11T07:12:44.998Z</time></trkpt><trkpt lat="41.673235790033935" lon="-4.913987832495205"><ele>778.6666666666667</ele><time>2026-04-11T07:12:45.998Z</time></trkpt><trkpt lat="41.6733498095081" lon="-4.914226258381508"><ele>779.0</ele><time>2026-04-11T07:12:46.997Z</time></trkpt><trkpt lat="41.673476647458685" lon="-4.914435819641755"><ele>780.6666666666667</ele><time>2026-04-11T07:12:47.997Z</time></trkpt><trkpt lat="41.67362707853799" lon="-4.914610624436129"><ele>782.3333333333333</ele><time>2026-04-11T07:12:48.997Z</time></trkpt><trkpt lat="41.67380442129155" lon="-4.914771358694261"><ele>784.0</ele><time>2026-04-11T07:12:49.997Z</time></trkpt><trkpt lat="41.67398399317899" lon="-4.914916021088462"><ele>784.0</ele><time>2026-04-11T07:12:50.997Z</time></trkpt><trkpt lat="41.67414623763434" lon="-4.915053049098206"><ele>784.0</ele><time>2026-04-11T07:12:51.997Z</time></trkpt><trkpt lat="41.67428086459178" lon="-4.915201158741273"><ele>784.0</ele><time>2026-04-11T07:12:52.997Z</time></trkpt><trkpt lat="41.674381757865994" lon="-4.915369018518052"><ele>784.25</ele><time>2026-04-11T07:12:54Z</time></trkpt><trkpt lat="41.67444767322375" lon="-4.915550293291886"><ele>784.5</ele><time>2026-04-11T07:12:55Z</time></trkpt><trkpt lat="41.67448265906701" lon="-4.915737252450394"><ele>784.75</ele><time>2026-04-11T07:12:56Z</time></trkpt><trkpt lat="41.67448739351244" lon="-4.915905375833579"><ele>785.0</ele><time>2026-04-11T07:12:57Z</time></trkpt><trkpt lat="41.67445851095077" lon="-4.91605668793612"><ele>785.25</ele><time>2026-04-11T07:12:58Z</time></trkpt><trkpt lat="41.67441780471645" lon="-4.916224943215688"><ele>785.5</ele><time>2026-04-11T07:12:59Z</time></trkpt><trkpt lat="41.6743512241533" lon="-4.9163944360688845"><ele>785.75</ele><time>2026-04-11T07:13:00Z</time></trkpt><trkpt lat="41.674260446250344" lon="-4.9165636570479565"><ele>786.0</ele><time>2026-04-11T07:13:01Z</time></trkpt><trkpt lat="41.674150658247065" lon="-4.916729415760012"><ele>786.6666666666667</ele><time>2026-04-11T07:13:02Z</time></trkpt><trkpt lat="41.67404497598795" lon="-4.916906987910708"><ele>787.3333333333334</ele><time>2026-04-11T07:13:03Z</time></trkpt><trkpt lat="41.67393734004787" lon="-4.9170936934422835"><ele>788.0</ele><time>2026-04-11T07:13:04Z</time></trkpt><trkpt lat="41.673851494217644" lon="-4.917259790123893"><ele>788.0</ele><time>2026-04-11T07:13:05Z</time></trkpt><trkpt lat="41.67379930437972" lon="-4.917380191987301"><ele>788.0</ele><time>2026-04-11T07:13:06Z</time></trkpt><trkpt lat="41.673800361593514" lon="-4.917539398522155"><ele>788.0</ele><time>2026-04-11T07:13:08Z</time></trkpt><trkpt lat="41.67381684784825" lon="-4.917637736558643"><ele>788.0</ele><time>2026-04-11T07:13:09Z</time></trkpt><trkpt lat="41.67383641880718" lon="-4.9177216394610594"><ele>788.0</ele><time>2026-04-11T07:13:10Z</time></trkpt><trkpt lat="41.67387767971546" lon="-4.917863621596026"><ele>788.2</ele><time>2026-04-11T07:13:12Z</time></trkpt><trkpt lat="41.673910368119635" lon="-4.917943235632054"><ele>788.4</ele><time>2026-04-11T07:13:13Z</time></trkpt><trkpt lat="41.67394686407591" lon="-4.9180342677963695"><ele>788.6</ele><time>2026-04-11T07:13:14Z</time></trkpt><trkpt lat="41.67404035854021" lon="-4.918143500183003"><ele>788.8000000000001</ele><time>2026-04-11T07:13:16Z</time></trkpt><trkpt lat="41.67414860696565" lon="-4.918218238827646"><ele>789.0</ele><time>2026-04-11T07:13:18Z</time></trkpt><trkpt lat="41.67420758341247" lon="-4.918267472954204"><ele>789.0</ele><time>2026-04-11T07:13:19Z</time></trkpt><trkpt lat="41.674272153793744" lon="-4.918314853615789"><ele>789.0</ele><time>2026-04-11T07:13:20Z</time></trkpt><trkpt lat="41.67435091003593" lon="-4.918360157911048"><ele>789.0</ele><time>2026-04-11T07:13:21Z</time></trkpt><trkpt lat="41.67445367757811" lon="-4.918394966074418"><ele>789.0</ele><time>2026-04-11T07:13:22Z</time></trkpt><trkpt lat="41.67457004757472" lon="-4.918448092383947"><ele>789.0</ele><time>2026-04-11T07:13:23Z</time></trkpt><trkpt lat="41.674698914170506" lon="-4.9185113032807815"><ele>789.6</ele><time>2026-04-11T07:13:24Z</time></trkpt><trkpt lat="41.674815601116876" lon="-4.918557166550899"><ele>790.2</ele><time>2026-04-11T07:13:25Z</time></trkpt><trkpt lat="41.67491172832221" lon="-4.918609716927345"><ele>790.8000000000001</ele><time>2026-04-11T07:13:26Z</time></trkpt><trkpt lat="41.674991940596385" lon="-4.918653475336538"><ele>791.4000000000001</ele><time>2026-04-11T07:13:27Z</time></trkpt><trkpt lat="41.67506558621974" lon="-4.918697324532266"><ele>792.0</ele><time>2026-04-11T07:13:27.999Z</time></trkpt><trkpt lat="41.67516073101935" lon="-4.9187514028131565"><ele>792.0</ele><time>2026-04-11T07:13:28.999Z</time></trkpt><trkpt lat="41.67525242833722" lon="-4.918802979275903"><ele>792.0</ele><time>2026-04-11T07:13:29.999Z</time></trkpt><trkpt lat="41.675316399440604" lon="-4.918855569619228"><ele>792.0</ele><time>2026-04-11T07:13:30.999Z</time></trkpt><trkpt lat="41.67536878591551" lon="-4.918918262253499"><ele>792.0</ele><time>2026-04-11T07:13:31.999Z</time></trkpt><trkpt lat="41.675428709353156" lon="-4.918972756071102"><ele>792.0</ele><time>2026-04-11T07:13:32.999Z</time></trkpt><trkpt lat="41.675515751536075" lon="-4.919024237841039"><ele>792.0</ele><time>2026-04-11T07:13:33.999Z</time></trkpt><trkpt lat="41.67560241265838" lon="-4.919048471154037"><ele>792.0</ele><time>2026-04-11T07:13:34.999Z</time></trkpt><trkpt lat="41.675701980225725" lon="-4.918978028253661"><ele>792.0</ele><time>2026-04-11T07:13:36.999Z</time></trkpt><trkpt lat="41.675756782334645" lon="-4.918918030922668"><ele>792.0</ele><time>2026-04-11T07:13:38.999Z</time></trkpt><trkpt lat="41.67584508565462" lon="-4.918869892592729"><ele>792.0</ele><time>2026-04-11T07:13:44.999Z</time></trkpt><trkpt lat="41.67597206488376" lon="-4.9188245065563585"><ele>792.0</ele><time>2026-04-11T07:13:46.999Z</time></trkpt><trkpt lat="41.67604383899229" lon="-4.918781959380258"><ele>792.1666666666666</ele><time>2026-04-11T07:13:47.999Z</time></trkpt><trkpt lat="41.67611611474293" lon="-4.918748872571539"><ele>792.3333333333333</ele><time>2026-04-11T07:13:48.999Z</time></trkpt><trkpt lat="41.676186784589135" lon="-4.918728983381503"><ele>792.5</ele><time>2026-04-11T07:13:49.999Z</time></trkpt><trkpt lat="41.67627606522192" lon="-4.91870277340443"><ele>792.6666666666666</ele><time>2026-04-11T07:13:50.999Z</time></trkpt><trkpt lat="41.67636816758677" lon="-4.918662432869376"><ele>792.8333333333333</ele><time>2026-04-11T07:13:51.999Z</time></trkpt><trkpt lat="41.676449396777215" lon="-4.918588832392682"><ele>793.0</ele><time>2026-04-11T07:13:52.999Z</time></trkpt><trkpt lat="41.67652025359651" lon="-4.918479632310101"><ele>792.25</ele><time>2026-04-11T07:13:53.999Z</time></trkpt><trkpt lat="41.67656844652952" lon="-4.918325258838136"><ele>791.5</ele><time>2026-04-11T07:13:54.999Z</time></trkpt><trkpt lat="41.676609820169666" lon="-4.9181497927084985"><ele>790.75</ele><time>2026-04-11T07:13:55.999Z</time></trkpt><trkpt lat="41.67664564375443" lon="-4.917992823298177"><ele>790.0</ele><time>2026-04-11T07:13:56.999Z</time></trkpt><trkpt lat="41.67669232170097" lon="-4.917820686184465"><ele>790.0</ele><time>2026-04-11T07:13:57.999Z</time></trkpt><trkpt lat="41.67675012768649" lon="-4.917620931123013"><ele>790.0</ele><time>2026-04-11T07:13:58.999Z</time></trkpt><trkpt lat="41.676802728446795" lon="-4.917435917576836"><ele>790.0</ele><time>2026-04-11T07:13:59.999Z</time></trkpt><trkpt lat="41.6768346416342" lon="-4.917222919104762"><ele>789.6666666666666</ele><time>2026-04-11T07:14:00.999Z</time></trkpt><trkpt lat="41.67683592512717" lon="-4.91699555106632"><ele>789.3333333333333</ele><time>2026-04-11T07:14:01.999Z</time></trkpt><trkpt lat="41.67682636250829" lon="-4.916789836926971"><ele>789.0</ele><time>2026-04-11T07:14:02.999Z</time></trkpt><trkpt lat="41.67682216859717" lon="-4.916606190427804"><ele>788.6</ele><time>2026-04-11T07:14:03.999Z</time></trkpt><trkpt lat="41.67683437356915" lon="-4.916451470305845"><ele>788.2</ele><time>2026-04-11T07:14:04.999Z</time></trkpt><trkpt lat="41.67686743367877" lon="-4.916325579008111"><ele>787.8000000000001</ele><time>2026-04-11T07:14:05.999Z</time></trkpt><trkpt lat="41.676932718909875" lon="-4.916240311849194"><ele>787.4000000000001</ele><time>2026-04-11T07:14:06.999Z</time></trkpt><trkpt lat="41.67703203544921" lon="-4.916180289228272"><ele>787.0</ele><time>2026-04-11T07:14:07.999Z</time></trkpt><trkpt lat="41.677158922722995" lon="-4.916143573396868"><ele>787.0</ele><time>2026-04-11T07:14:08.999Z</time></trkpt><trkpt lat="41.67729133922182" lon="-4.916105001993819"><ele>787.0</ele><time>2026-04-11T07:14:09.998Z</time></trkpt><trkpt lat="41.6774090575785" lon="-4.916062364782122"><ele>787.0</ele><time>2026-04-11T07:14:10.998Z</time></trkpt><trkpt lat="41.67750638354546" lon="-4.916003344690673"><ele>787.0</ele><time>2026-04-11T07:14:11.998Z</time></trkpt><trkpt lat="41.67758183239964" lon="-4.915908814804109"><ele>786.75</ele><time>2026-04-11T07:14:12.998Z</time></trkpt><trkpt lat="41.677623896458506" lon="-4.915769670032402"><ele>786.5</ele><time>2026-04-11T07:14:13.998Z</time></trkpt><trkpt lat="41.67762604752531" lon="-4.915601315881467"><ele>786.25</ele><time>2026-04-11T07:14:14.998Z</time></trkpt><trkpt lat="41.67759661121397" lon="-4.915423228962815"><ele>786.0</ele><time>2026-04-11T07:14:15.998Z</time></trkpt><trkpt lat="41.677567196574046" lon="-4.915212495415603"><ele>787.6666666666667</ele><time>2026-04-11T07:14:16.998Z</time></trkpt><trkpt lat="41.67754826480221" lon="-4.914995540515929"><ele>789.3333333333334</ele><time>2026-04-11T07:14:17.998Z</time></trkpt><trkpt lat="41.67753171647458" lon="-4.9147737176266695"><ele>791.0</ele><time>2026-04-11T07:14:18.998Z</time></trkpt><trkpt lat="41.67750451232426" lon="-4.914543015554283"><ele>791.0</ele><time>2026-04-11T07:14:19.998Z</time></trkpt><trkpt lat="41.67747246238201" lon="-4.914295071106122"><ele>791.0</ele><time>2026-04-11T07:14:20.998Z</time></trkpt><trkpt lat="41.677426010293196" lon="-4.91404465909902"><ele>791.0</ele><time>2026-04-11T07:14:21.998Z</time></trkpt><trkpt lat="41.67736099081376" lon="-4.913790869040578"><ele>792.0</ele><time>2026-04-11T07:14:22.998Z</time></trkpt><trkpt lat="41.677312094193624" lon="-4.913541759327531"><ele>793.0</ele><time>2026-04-11T07:14:23.998Z</time></trkpt><trkpt lat="41.677268761795176" lon="-4.913297245070804"><ele>794.0</ele><time>2026-04-11T07:14:24.998Z</time></trkpt><trkpt lat="41.67722837367532" lon="-4.913053993665265"><ele>795.0</ele><time>2026-04-11T07:14:25.998Z</time></trkpt><trkpt lat="41.67719086147387" lon="-4.912816409617103"><ele>796.0</ele><time>2026-04-11T07:14:26.998Z</time></trkpt><trkpt lat="41.67716088838239" lon="-4.912570432203382"><ele>797.0</ele><time>2026-04-11T07:14:27.998Z</time></trkpt><trkpt lat="41.6771484624076" lon="-4.912323417613938"><ele>797.0</ele><time>2026-04-11T07:14:28.998Z</time></trkpt><trkpt lat="41.677150369710766" lon="-4.912069287888788"><ele>797.0</ele><time>2026-04-11T07:14:29.998Z</time></trkpt><trkpt lat="41.67716579283929" lon="-4.9118106482103245"><ele>797.0</ele><time>2026-04-11T07:14:30.998Z</time></trkpt><trkpt lat="41.677198572748004" lon="-4.911545923969333"><ele>795.3333333333334</ele><time>2026-04-11T07:14:31.998Z</time></trkpt><trkpt lat="41.67723751025565" lon="-4.911282330441552"><ele>793.6666666666667</ele><time>2026-04-11T07:14:32.998Z</time></trkpt><trkpt lat="41.677291166836575" lon="-4.91103698515041"><ele>792.0</ele><time>2026-04-11T07:14:33.998Z</time></trkpt><trkpt lat="41.67737324683095" lon="-4.910794557507553"><ele>793.3333333333333</ele><time>2026-04-11T07:14:34.998Z</time></trkpt><trkpt lat="41.67748606652778" lon="-4.9105731892773035"><ele>794.6666666666666</ele><time>2026-04-11T07:14:35.998Z</time></trkpt><trkpt lat="41.67762492907396" lon="-4.9103853068853445"><ele>796.0</ele><time>2026-04-11T07:14:36.998Z</time></trkpt><trkpt lat="41.67779023551738" lon="-4.910212405736065"><ele>793.0</ele><time>2026-04-11T07:14:37.998Z</time></trkpt><trkpt lat="41.677965938914944" lon="-4.9100558487904"><ele>790.0</ele><time>2026-04-11T07:14:38.998Z</time></trkpt><trkpt lat="41.678148928462655" lon="-4.909915190295186"><ele>787.0</ele><time>2026-04-11T07:14:39.998Z</time></trkpt><trkpt lat="41.67833645661393" lon="-4.909780756990911"><ele>787.0</ele><time>2026-04-11T07:14:40.998Z</time></trkpt><trkpt lat="41.67851117050103" lon="-4.909622852023105"><ele>787.0</ele><time>2026-04-11T07:14:41.998Z</time></trkpt><trkpt lat="41.678656107126926" lon="-4.909417227125279"><ele>787.0</ele><time>2026-04-11T07:14:42.998Z</time></trkpt><trkpt lat="41.67878943436047" lon="-4.909188032127797"><ele>788.3333333333333</ele><time>2026-04-11T07:14:43.998Z</time></trkpt><trkpt lat="41.67891381555102" lon="-4.908946963345317"><ele>789.6666666666667</ele><time>2026-04-11T07:14:44.998Z</time></trkpt><trkpt lat="41.6790227519767" lon="-4.908729667788041"><ele>791.0</ele><time>2026-04-11T07:14:45.998Z</time></trkpt><trkpt lat="41.67912750747352" lon="-4.90853170223403"><ele>789.3333333333334</ele><time>2026-04-11T07:14:46.998Z</time></trkpt><trkpt lat="41.67922046515717" lon="-4.908339191803708"><ele>787.6666666666667</ele><time>2026-04-11T07:14:47.998Z</time></trkpt><trkpt lat="41.67931411439201" lon="-4.908129001388887"><ele>786.0</ele><time>2026-04-11T07:14:48.998Z</time></trkpt><trkpt lat="41.6794156420035" lon="-4.907903257311589"><ele>790.3333333333333</ele><time>2026-04-11T07:14:49.998Z</time></trkpt><trkpt lat="41.6795298464534" lon="-4.907656442594912"><ele>794.6666666666666</ele><time>2026-04-11T07:14:50.998Z</time></trkpt><trkpt lat="41.679646201149474" lon="-4.9074091630782055"><ele>799.0</ele><time>2026-04-11T07:14:51.998Z</time></trkpt><trkpt lat="41.679768539320314" lon="-4.907148424936085"><ele>799.0</ele><time>2026-04-11T07:14:52.997Z</time></trkpt><trkpt lat="41.67989077056659" lon="-4.9068943024308735"><ele>799.0</ele><time>2026-04-11T07:14:53.997Z</time></trkpt><trkpt lat="41.680010653328125" lon="-4.90662449783268"><ele>795.0</ele><time>2026-04-11T07:14:54.997Z</time></trkpt><trkpt lat="41.68012163011893" lon="-4.906336502473356"><ele>791.0</ele><time>2026-04-11T07:14:55.997Z</time></trkpt><trkpt lat="41.68022363893978" lon="-4.906035701330402"><ele>798.5</ele><time>2026-04-11T07:14:56.997Z</time></trkpt><trkpt lat="41.68031716043869" lon="-4.905729101579197"><ele>806.0</ele><time>2026-04-11T07:14:57.997Z</time></trkpt><trkpt lat="41.68040951312277" lon="-4.9054174235224375"><ele>806.0</ele><time>2026-04-11T07:14:58.997Z</time></trkpt><trkpt lat="41.680493280091106" lon="-4.905103059287483"><ele>806.0</ele><time>2026-04-11T07:15:00Z</time></trkpt><trkpt lat="41.68056625408022" lon="-4.9047833296981"><ele>803.0</ele><time>2026-04-11T07:15:01Z</time></trkpt><trkpt lat="41.68063042675692" lon="-4.9044772369893"><ele>800.0</ele><time>2026-04-11T07:15:02Z</time></trkpt><trkpt lat="41.68069037555508" lon="-4.90419840639526"><ele>798.3333333333334</ele><time>2026-04-11T07:15:03Z</time></trkpt><trkpt lat="41.68075028513825" lon="-4.903929107207104"><ele>796.6666666666667</ele><time>2026-04-11T07:15:04Z</time></trkpt><trkpt lat="41.68081421246848" lon="-4.903657194802134"><ele>795.0</ele><time>2026-04-11T07:15:05Z</time></trkpt><trkpt lat="41.68087875551166" lon="-4.903370210014367"><ele>792.3333333333333</ele><time>2026-04-11T07:15:06Z</time></trkpt><trkpt lat="41.68093809146602" lon="-4.9030951147129604"><ele>789.6666666666666</ele><time>2026-04-11T07:15:07Z</time></trkpt><trkpt lat="41.680993786409296" lon="-4.902843435602854"><ele>787.0</ele><time>2026-04-11T07:15:08Z</time></trkpt><trkpt lat="41.68105764880286" lon="-4.902578405448005"><ele>791.3333333333333</ele><time>2026-04-11T07:15:09Z</time></trkpt><trkpt lat="41.68114099682147" lon="-4.902314831650436"><ele>795.6666666666667</ele><time>2026-04-11T07:15:10Z</time></trkpt><trkpt lat="41.68125057122386" lon="-4.902067763065895"><ele>800.0</ele><time>2026-04-11T07:15:11Z</time></trkpt><trkpt lat="41.68138813593379" lon="-4.901833582573847"><ele>795.5</ele><time>2026-04-11T07:15:12Z</time></trkpt><trkpt lat="41.68155300317324" lon="-4.901621639959656"><ele>791.0</ele><time>2026-04-11T07:15:13Z</time></trkpt><trkpt lat="41.68172871526412" lon="-4.901428227448395"><ele>791.0</ele><time>2026-04-11T07:15:14Z</time></trkpt><trkpt lat="41.681898756646845" lon="-4.901232929685302"><ele>791.0</ele><time>2026-04-11T07:15:15Z</time></trkpt><trkpt lat="41.68204954992568" lon="-4.901018160755416"><ele>791.0</ele><time>2026-04-11T07:15:16Z</time></trkpt><trkpt lat="41.682174748246425" lon="-4.900788444029727"><ele>791.6666666666667</ele><time>2026-04-11T07:15:17Z</time></trkpt><trkpt lat="41.682280455991716" lon="-4.900538128506122"><ele>792.3333333333333</ele><time>2026-04-11T07:15:18Z</time></trkpt><trkpt lat="41.68235371366634" lon="-4.900280758467243"><ele>793.0</ele><time>2026-04-11T07:15:19Z</time></trkpt><trkpt lat="41.682398760499346" lon="-4.900007401038573"><ele>793.0</ele><time>2026-04-11T07:15:20Z</time></trkpt><trkpt lat="41.68241238705613" lon="-4.899734342189658"><ele>793.0</ele><time>2026-04-11T07:15:21Z</time></trkpt><trkpt lat="41.682408934556705" lon="-4.89945820428783"><ele>793.0</ele><time>2026-04-11T07:15:22Z</time></trkpt><trkpt lat="41.68237201365247" lon="-4.899183659387167"><ele>792.6666666666666</ele><time>2026-04-11T07:15:23Z</time></trkpt><trkpt lat="41.682311198495086" lon="-4.898919699419527"><ele>792.3333333333333</ele><time>2026-04-11T07:15:24Z</time></trkpt><trkpt lat="41.682225627004605" lon="-4.898667903537684"><ele>792.0</ele><time>2026-04-11T07:15:25Z</time></trkpt><trkpt lat="41.68211770730342" lon="-4.898423658575909"><ele>793.3333333333333</ele><time>2026-04-11T07:15:26Z</time></trkpt><trkpt lat="41.681999529842244" lon="-4.898180066996806"><ele>794.6666666666666</ele><time>2026-04-11T07:15:27Z</time></trkpt><trkpt lat="41.68188902682486" lon="-4.897926299566665"><ele>796.0</ele><time>2026-04-11T07:15:28Z</time></trkpt><trkpt lat="41.681795638823814" lon="-4.897664599474735"><ele>795.3333333333333</ele><time>2026-04-11T07:15:29Z</time></trkpt><trkpt lat="41.68172731511915" lon="-4.897394053665638"><ele>794.6666666666667</ele><time>2026-04-11T07:15:30Z</time></trkpt><trkpt lat="41.681685352983074" lon="-4.897110528397596"><ele>794.0</ele><time>2026-04-11T07:15:31Z</time></trkpt><trkpt lat="41.68167643408452" lon="-4.896819324142502"><ele>794.6666666666667</ele><time>2026-04-11T07:15:32Z</time></trkpt><trkpt lat="41.681698989860074" lon="-4.896533376901313"><ele>795.3333333333333</ele><time>2026-04-11T07:15:33Z</time></trkpt><trkpt lat="41.681750273418814" lon="-4.896250824612103"><ele>796.0</ele><time>2026-04-11T07:15:33.999Z</time></trkpt><trkpt lat="41.68182682307446" lon="-4.8959704263539825"><ele>807.0</ele><time>2026-04-11T07:15:34.999Z</time></trkpt><trkpt lat="41.681933592599094" lon="-4.895703266713296"><ele>818.0</ele><time>2026-04-11T07:15:35.999Z</time></trkpt><trkpt lat="41.68205561491565" lon="-4.895448770436381"><ele>818.0</ele><time>2026-04-11T07:15:36.999Z</time></trkpt><trkpt lat="41.6821771916051" lon="-4.895198346784387"><ele>818.0</ele><time>2026-04-11T07:15:37.999Z</time></trkpt><trkpt lat="41.68227375972001" lon="-4.894959561992121"><ele>818.0</ele><time>2026-04-11T07:15:38.999Z</time></trkpt><trkpt lat="41.68234629680315" lon="-4.894705278255648"><ele>814.3333333333334</ele><time>2026-04-11T07:15:39.999Z</time></trkpt><trkpt lat="41.68236656699078" lon="-4.89441968324446"><ele>810.6666666666667</ele><time>2026-04-11T07:15:40.999Z</time></trkpt><trkpt lat="41.68237814548255" lon="-4.894128713368657"><ele>807.0</ele><time>2026-04-11T07:15:41.999Z</time></trkpt><trkpt lat="41.68235975780092" lon="-4.893823870736757"><ele>804.5</ele><time>2026-04-11T07:15:42.999Z</time></trkpt><trkpt lat="41.68235720590926" lon="-4.893506748204703"><ele>802.0</ele><time>2026-04-11T07:15:43.999Z</time></trkpt><trkpt lat="41.682337083688424" lon="-4.893189550911198"><ele>802.0</ele><time>2026-04-11T07:15:44.999Z</time></trkpt><trkpt lat="41.68235282141088" lon="-4.892860239433772"><ele>802.0</ele><time>2026-04-11T07:15:45.999Z</time></trkpt><trkpt lat="41.682383529760784" lon="-4.892538902578628"><ele>802.0</ele><time>2026-04-11T07:15:46.999Z</time></trkpt><trkpt lat="41.68241187981639" lon="-4.89222345873073"><ele>802.0</ele><time>2026-04-11T07:15:47.999Z</time></trkpt><trkpt lat="41.68245303107679" lon="-4.891931841449839"><ele>800.0</ele><time>2026-04-11T07:15:48.999Z</time></trkpt><trkpt lat="41.68252025136332" lon="-4.891639955499849"><ele>798.0</ele><time>2026-04-11T07:15:49.999Z</time></trkpt><trkpt lat="41.682615713303555" lon="-4.891340904818489"><ele>798.0</ele><time>2026-04-11T07:15:50.999Z</time></trkpt><trkpt lat="41.682734385048555" lon="-4.891040228249467"><ele>798.0</ele><time>2026-04-11T07:15:51.999Z</time></trkpt><trkpt lat="41.682868291500235" lon="-4.890730242017674"><ele>800.5</ele><time>2026-04-11T07:15:52.999Z</time></trkpt><trkpt lat="41.68300175377519" lon="-4.89040626305535"><ele>803.0</ele><time>2026-04-11T07:15:53.999Z</time></trkpt><trkpt lat="41.68312882358153" lon="-4.890082735397231"><ele>803.0</ele><time>2026-04-11T07:15:54.999Z</time></trkpt><trkpt lat="41.68325468421178" lon="-4.889766162145551"><ele>803.0</ele><time>2026-04-11T07:15:55.999Z</time></trkpt><trkpt lat="41.683378825621254" lon="-4.8894580171716235"><ele>799.0</ele><time>2026-04-11T07:15:56.999Z</time></trkpt><trkpt lat="41.68349968222486" lon="-4.889157721744967"><ele>795.0</ele><time>2026-04-11T07:15:57.999Z</time></trkpt><trkpt lat="41.683613312837636" lon="-4.888874864541409"><ele>799.0</ele><time>2026-04-11T07:15:58.999Z</time></trkpt><trkpt lat="41.68371906589297" lon="-4.888613073320761"><ele>803.0</ele><time>2026-04-11T07:15:59.999Z</time></trkpt><trkpt lat="41.68377416105962" lon="-4.888333485917312"><ele>807.0</ele><time>2026-04-11T07:16:00.999Z</time></trkpt><trkpt lat="41.68381418120724" lon="-4.888066158978549"><ele>807.0</ele><time>2026-04-11T07:16:01.999Z</time></trkpt><trkpt lat="41.68382988051626" lon="-4.8877688902169405"><ele>807.0</ele><time>2026-04-11T07:16:02.999Z</time></trkpt><trkpt lat="41.68385083533953" lon="-4.8874520183551775"><ele>806.5</ele><time>2026-04-11T07:16:03.999Z</time></trkpt><trkpt lat="41.683869292838274" lon="-4.887142129876018"><ele>806.0</ele><time>2026-04-11T07:16:04.999Z</time></trkpt><trkpt lat="41.683925390321185" lon="-4.886828731750372"><ele>805.0</ele><time>2026-04-11T07:16:05.999Z</time></trkpt><trkpt lat="41.68400299710523" lon="-4.886516972549259"><ele>804.0</ele><time>2026-04-11T07:16:06.999Z</time></trkpt><trkpt lat="41.68409339316075" lon="-4.886202633166925"><ele>799.5</ele><time>2026-04-11T07:16:07.999Z</time></trkpt><trkpt lat="41.68415920973022" lon="-4.885886844483999"><ele>795.0</ele><time>2026-04-11T07:16:08.999Z</time></trkpt><trkpt lat="41.68422745945128" lon="-4.885569512323156"><ele>795.0</ele><time>2026-04-11T07:16:09.999Z</time></trkpt><trkpt lat="41.68428373802016" lon="-4.885249603257755"><ele>795.0</ele><time>2026-04-11T07:16:10.999Z</time></trkpt><trkpt lat="41.684331065017474" lon="-4.884951375802348"><ele>794.0</ele><time>2026-04-11T07:16:11.999Z</time></trkpt><trkpt lat="41.68437398688512" lon="-4.884669986861985"><ele>793.0</ele><time>2026-04-11T07:16:12.999Z</time></trkpt><trkpt lat="41.68442782616048" lon="-4.884383168901922"><ele>792.0</ele><time>2026-04-11T07:16:13.999Z</time></trkpt><trkpt lat="41.6844239081945" lon="-4.884088654513856"><ele>795.0</ele><time>2026-04-11T07:16:14.999Z</time></trkpt><trkpt lat="41.684472226771554" lon="-4.883803098742863"><ele>798.0</ele><time>2026-04-11T07:16:15.999Z</time></trkpt><trkpt lat="41.68447319315326" lon="-4.883486179848738"><ele>794.5</ele><time>2026-04-11T07:16:16.998Z</time></trkpt><trkpt lat="41.68438914649741" lon="-4.883140195494139"><ele>791.0</ele><time>2026-04-11T07:16:17.998Z</time></trkpt><trkpt lat="41.684183530300444" lon="-4.882878733586593"><ele>791.0</ele><time>2026-04-11T07:16:18.998Z</time></trkpt><trkpt lat="41.68397896577757" lon="-4.882725267323227"><ele>791.0</ele><time>2026-04-11T07:16:19.998Z</time></trkpt><trkpt lat="41.68377088517002" lon="-4.882574805305217"><ele>792.5</ele><time>2026-04-11T07:16:20.998Z</time></trkpt><trkpt lat="41.683564704174266" lon="-4.882412466053344"><ele>794.0</ele><time>2026-04-11T07:16:21.998Z</time></trkpt><trkpt lat="41.68337096724492" lon="-4.8822085011719425"><ele>794.0</ele><time>2026-04-11T07:16:22.998Z</time></trkpt><trkpt lat="41.68319934839978" lon="-4.881995803196711"><ele>794.0</ele><time>2026-04-11T07:16:23.998Z</time></trkpt><trkpt lat="41.68305299838613" lon="-4.881765536635088"><ele>795.0</ele><time>2026-04-11T07:16:24.998Z</time></trkpt><trkpt lat="41.68293805073221" lon="-4.88151594422723"><ele>796.0</ele><time>2026-04-11T07:16:25.998Z</time></trkpt><trkpt lat="41.68285639744629" lon="-4.881245183962994"><ele>797.0</ele><time>2026-04-11T07:16:26.998Z</time></trkpt><trkpt lat="41.682750631151656" lon="-4.88097804285436"><ele>796.0</ele><time>2026-04-11T07:16:27.998Z</time></trkpt><trkpt lat="41.68266755510587" lon="-4.880671644630791"><ele>795.0</ele><time>2026-04-11T07:16:28.998Z</time></trkpt><trkpt lat="41.68264387034398" lon="-4.880317031327109"><ele>794.0</ele><time>2026-04-11T07:16:29.998Z</time></trkpt><trkpt lat="41.68272503292431" lon="-4.879972146873904"><ele>793.0</ele><time>2026-04-11T07:16:30.998Z</time></trkpt><trkpt lat="41.68284562106456" lon="-4.879700248307575"><ele>796.0</ele><time>2026-04-11T07:16:31.998Z</time></trkpt><trkpt lat="41.68298254538997" lon="-4.879439359064305"><ele>799.0</ele><time>2026-04-11T07:16:32.998Z</time></trkpt><trkpt lat="41.68313577001279" lon="-4.879196385038922"><ele>799.0</ele><time>2026-04-11T07:16:33.998Z</time></trkpt><trkpt lat="41.6833066299735" lon="-4.87897129114757"><ele>799.0</ele><time>2026-04-11T07:16:34.998Z</time></trkpt><trkpt lat="41.683486422771956" lon="-4.878743674024729"><ele>800.5</ele><time>2026-04-11T07:16:35.998Z</time></trkpt><trkpt lat="41.68366144181388" lon="-4.878522703832538"><ele>802.0</ele><time>2026-04-11T07:16:36.998Z</time></trkpt><trkpt lat="41.68379406452719" lon="-4.878265168507036"><ele>802.0</ele><time>2026-04-11T07:16:37.998Z</time></trkpt><trkpt lat="41.683906372247165" lon="-4.878004539612952"><ele>802.0</ele><time>2026-04-11T07:16:38.998Z</time></trkpt><trkpt lat="41.68401942176537" lon="-4.877719975873041"><ele>800.5</ele><time>2026-04-11T07:16:39.998Z</time></trkpt><trkpt lat="41.68410049450771" lon="-4.877408755152425"><ele>799.0</ele><time>2026-04-11T07:16:40.998Z</time></trkpt><trkpt lat="41.68418850287159" lon="-4.8770899360680815"><ele>799.0</ele><time>2026-04-11T07:16:41.998Z</time></trkpt><trkpt lat="41.68428080941886" lon="-4.876774590937277"><ele>799.0</ele><time>2026-04-11T07:16:42.998Z</time></trkpt><trkpt lat="41.68437282033077" lon="-4.876460452884211"><ele>803.0</ele><time>2026-04-11T07:16:43.998Z</time></trkpt><trkpt lat="41.684454255928884" lon="-4.876144752090888"><ele>807.0</ele><time>2026-04-11T07:16:44.998Z</time></trkpt><trkpt lat="41.68451594657086" lon="-4.875828496101146"><ele>807.0</ele><time>2026-04-11T07:16:45.998Z</time></trkpt><trkpt lat="41.68456825319471" lon="-4.875498328029497"><ele>807.0</ele><time>2026-04-11T07:16:46.998Z</time></trkpt><trkpt lat="41.68461961705667" lon="-4.8751716369322775"><ele>805.0</ele><time>2026-04-11T07:16:47.998Z</time></trkpt><trkpt lat="41.684671354358464" lon="-4.87484839346478"><ele>803.0</ele><time>2026-04-11T07:16:48.998Z</time></trkpt><trkpt lat="41.684725384595566" lon="-4.874526170100376"><ele>801.0</ele><time>2026-04-11T07:16:49.998Z</time></trkpt><trkpt lat="41.684781408586794" lon="-4.874200320053826"><ele>799.0</ele><time>2026-04-11T07:16:50.998Z</time></trkpt><trkpt lat="41.68483625702333" lon="-4.873879631773595"><ele>799.0</ele><time>2026-04-11T07:16:51.998Z</time></trkpt><trkpt lat="41.68488950331619" lon="-4.873555221746439"><ele>799.0</ele><time>2026-04-11T07:16:52.998Z</time></trkpt><trkpt lat="41.68494351824343" lon="-4.8732399115818"><ele>798.5</ele><time>2026-04-11T07:16:53.998Z</time></trkpt><trkpt lat="41.68501059268108" lon="-4.872940504719157"><ele>798.0</ele><time>2026-04-11T07:16:54.998Z</time></trkpt><trkpt lat="41.68508943890407" lon="-4.8726546104490325"><ele>797.6666666666667</ele><time>2026-04-11T07:16:55.998Z</time></trkpt><trkpt lat="41.68518183405418" lon="-4.87237944960722"><ele>797.3333333333334</ele><time>2026-04-11T07:16:56.998Z</time></trkpt><trkpt lat="41.68527362593918" lon="-4.872114024268865"><ele>797.0</ele><time>2026-04-11T07:16:57.998Z</time></trkpt><trkpt lat="41.68532907875232" lon="-4.871841035844944"><ele>800.6666666666667</ele><time>2026-04-11T07:16:58.998Z</time></trkpt><trkpt lat="41.685347207139436" lon="-4.8715796177244695"><ele>804.3333333333333</ele><time>2026-04-11T07:16:59.997Z</time></trkpt><trkpt lat="41.68535829527231" lon="-4.871322709498152"><ele>808.0</ele><time>2026-04-11T07:17:00.997Z</time></trkpt><trkpt lat="41.68539099934238" lon="-4.8710997181691855"><ele>807.0</ele><time>2026-04-11T07:17:01.997Z</time></trkpt><trkpt lat="41.68545480558166" lon="-4.870890617698016"><ele>806.0</ele><time>2026-04-11T07:17:02.997Z</time></trkpt><trkpt lat="41.68554233340313" lon="-4.870700354907785"><ele>805.0</ele><time>2026-04-11T07:17:03.997Z</time></trkpt><trkpt lat="41.685642479121384" lon="-4.870544897557068"><ele>805.0</ele><time>2026-04-11T07:17:04.997Z</time></trkpt><trkpt lat="41.68574352081766" lon="-4.870427179202555"><ele>805.0</ele><time>2026-04-11T07:17:06Z</time></trkpt><trkpt lat="41.68585767464248" lon="-4.870356132391655"><ele>805.0</ele><time>2026-04-11T07:17:07Z</time></trkpt><trkpt lat="41.68599514528267" lon="-4.870317021370765"><ele>805.0</ele><time>2026-04-11T07:17:08Z</time></trkpt><trkpt lat="41.68614286476439" lon="-4.870323342130348"><ele>805.3333333333333</ele><time>2026-04-11T07:17:09Z</time></trkpt><trkpt lat="41.6863044705933" lon="-4.870382076246568"><ele>805.6666666666667</ele><time>2026-04-11T07:17:10Z</time></trkpt><trkpt lat="41.68646460369021" lon="-4.870459371008856"><ele>806.0</ele><time>2026-04-11T07:17:11Z</time></trkpt><trkpt lat="41.686600996143284" lon="-4.870520401768512"><ele>806.0</ele><time>2026-04-11T07:17:12Z</time></trkpt><trkpt lat="41.68672766498181" lon="-4.870532948856878"><ele>806.0</ele><time>2026-04-11T07:17:13Z</time></trkpt><trkpt lat="41.6868290589405" lon="-4.870485977466402"><ele>806.0</ele><time>2026-04-11T07:17:14Z</time></trkpt><trkpt lat="41.68690130800764" lon="-4.870388057973655"><ele>806.0</ele><time>2026-04-11T07:17:15Z</time></trkpt><trkpt lat="41.68694132241466" lon="-4.870246832565446"><ele>807.5</ele><time>2026-04-11T07:17:16Z</time></trkpt><trkpt lat="41.68697660010061" lon="-4.8700704961158054"><ele>809.0</ele><time>2026-04-11T07:17:17Z</time></trkpt><trkpt lat="41.687001755012766" lon="-4.869883991370972"><ele>810.5</ele><time>2026-04-11T07:17:18Z</time></trkpt><trkpt lat="41.68700883271167" lon="-4.869691522132127"><ele>812.0</ele><time>2026-04-11T07:17:19Z</time></trkpt><trkpt lat="41.68698575349652" lon="-4.869491628079926"><ele>812.0</ele><time>2026-04-11T07:17:20Z</time></trkpt><trkpt lat="41.68693232633606" lon="-4.869287391096324"><ele>812.0</ele><time>2026-04-11T07:17:21Z</time></trkpt><trkpt lat="41.68688636252868" lon="-4.869088930975355"><ele>812.0</ele><time>2026-04-11T07:17:22Z</time></trkpt><trkpt lat="41.68686979623192" lon="-4.868855356930444"><ele>813.6666666666667</ele><time>2026-04-11T07:17:23Z</time></trkpt><trkpt lat="41.68687527559196" lon="-4.868600593949347"><ele>815.3333333333333</ele><time>2026-04-11T07:17:24Z</time></trkpt><trkpt lat="41.68690079054112" lon="-4.8683391699749805"><ele>817.0</ele><time>2026-04-11T07:17:25Z</time></trkpt><trkpt lat="41.68694529369517" lon="-4.8680666965868875"><ele>817.0</ele><time>2026-04-11T07:17:26Z</time></trkpt><trkpt lat="41.68699337502308" lon="-4.867780995476184"><ele>817.0</ele><time>2026-04-11T07:17:27Z</time></trkpt><trkpt lat="41.68703780191324" lon="-4.867495136833996"><ele>817.0</ele><time>2026-04-11T07:17:28Z</time></trkpt><trkpt lat="41.68708358497449" lon="-4.867215373076456"><ele>815.3333333333333</ele><time>2026-04-11T07:17:29Z</time></trkpt><trkpt lat="41.68714470203665" lon="-4.8669676724375375"><ele>813.6666666666667</ele><time>2026-04-11T07:17:30Z</time></trkpt><trkpt lat="41.687225694628395" lon="-4.866747048832047"><ele>812.0</ele><time>2026-04-11T07:17:31Z</time></trkpt><trkpt lat="41.68733700612057" lon="-4.866516294635451"><ele>808.5</ele><time>2026-04-11T07:17:32Z</time></trkpt><trkpt lat="41.68747295668646" lon="-4.866280488919637"><ele>805.0</ele><time>2026-04-11T07:17:33Z</time></trkpt><trkpt lat="41.68762032425881" lon="-4.866045193063072"><ele>807.0</ele><time>2026-04-11T07:17:34Z</time></trkpt><trkpt lat="41.68776457835611" lon="-4.865790244665802"><ele>809.0</ele><time>2026-04-11T07:17:35Z</time></trkpt><trkpt lat="41.687907205633174" lon="-4.865534712028689"><ele>809.0</ele><time>2026-04-11T07:17:36Z</time></trkpt><trkpt lat="41.68804652204781" lon="-4.865288442834154"><ele>809.0</ele><time>2026-04-11T07:17:37Z</time></trkpt><trkpt lat="41.6881901443379" lon="-4.865031374966041"><ele>808.0</ele><time>2026-04-11T07:17:38Z</time></trkpt><trkpt lat="41.68833506134729" lon="-4.864766019138702"><ele>807.0</ele><time>2026-04-11T07:17:38.999Z</time></trkpt><trkpt lat="41.68848581454494" lon="-4.864509905142165"><ele>808.0</ele><time>2026-04-11T07:17:39.999Z</time></trkpt><trkpt lat="41.6886507617258" lon="-4.864266623372321"><ele>809.0</ele><time>2026-04-11T07:17:40.999Z</time></trkpt><trkpt lat="41.68882945722972" lon="-4.86403784921964"><ele>809.0</ele><time>2026-04-11T07:17:41.999Z</time></trkpt><trkpt lat="41.68901695090984" lon="-4.863827614114677"><ele>809.0</ele><time>2026-04-11T07:17:42.999Z</time></trkpt><trkpt lat="41.689205321209606" lon="-4.86361817657627"><ele>809.5</ele><time>2026-04-11T07:17:43.999Z</time></trkpt><trkpt lat="41.68938621551115" lon="-4.863402929025017"><ele>810.0</ele><time>2026-04-11T07:17:44.999Z</time></trkpt><trkpt lat="41.68955290967872" lon="-4.863171105574464"><ele>810.0</ele><time>2026-04-11T07:17:45.999Z</time></trkpt><trkpt lat="41.68970807779065" lon="-4.862926452228526"><ele>810.0</ele><time>2026-04-11T07:17:46.999Z</time></trkpt><trkpt lat="41.689851400229394" lon="-4.862671674572053"><ele>809.5</ele><time>2026-04-11T07:17:47.999Z</time></trkpt><trkpt lat="41.68999227628917" lon="-4.862414714044514"><ele>809.0</ele><time>2026-04-11T07:17:48.999Z</time></trkpt><trkpt lat="41.69013772285691" lon="-4.8621681590087125"><ele>811.0</ele><time>2026-04-11T07:17:49.999Z</time></trkpt><trkpt lat="41.69028408146657" lon="-4.861927423820944"><ele>813.0</ele><time>2026-04-11T07:17:50.999Z</time></trkpt><trkpt lat="41.690429364041435" lon="-4.861685383652936"><ele>813.0</ele><time>2026-04-11T07:17:51.999Z</time></trkpt><trkpt lat="41.690574010391124" lon="-4.861444139052285"><ele>813.0</ele><time>2026-04-11T07:17:52.999Z</time></trkpt><trkpt lat="41.6907188053711" lon="-4.861204443368934"><ele>813.0</ele><time>2026-04-11T07:17:53.999Z</time></trkpt><trkpt lat="41.69086575596776" lon="-4.860979726072214"><ele>813.0</ele><time>2026-04-11T07:17:54.999Z</time></trkpt><trkpt lat="41.69103663434342" lon="-4.8607613991746765"><ele>814.0</ele><time>2026-04-11T07:17:55.999Z</time></trkpt><trkpt lat="41.69123114117509" lon="-4.860556551288807"><ele>815.0</ele><time>2026-04-11T07:17:56.999Z</time></trkpt><trkpt lat="41.69143824161218" lon="-4.860368593550935"><ele>815.0</ele><time>2026-04-11T07:17:57.999Z</time></trkpt><trkpt lat="41.69164864449865" lon="-4.860182367309366"><ele>815.0</ele><time>2026-04-11T07:17:58.999Z</time></trkpt><trkpt lat="41.69185300774445" lon="-4.8599845242951805"><ele>815.5</ele><time>2026-04-11T07:17:59.999Z</time></trkpt><trkpt lat="41.692043588237865" lon="-4.859774128750355"><ele>816.0</ele><time>2026-04-11T07:18:00.999Z</time></trkpt><trkpt lat="41.69221326233145" lon="-4.859536553073156"><ele>816.0</ele><time>2026-04-11T07:18:01.999Z</time></trkpt><trkpt lat="41.69236836191812" lon="-4.8593009603902"><ele>816.0</ele><time>2026-04-11T07:18:02.999Z</time></trkpt><trkpt lat="41.692511321328276" lon="-4.859079310638097"><ele>815.0</ele><time>2026-04-11T07:18:03.999Z</time></trkpt><trkpt lat="41.6926655395939" lon="-4.8588691131616955"><ele>814.0</ele><time>2026-04-11T07:18:04.999Z</time></trkpt><trkpt lat="41.692850216069075" lon="-4.858657969303106"><ele>813.5</ele><time>2026-04-11T07:18:05.999Z</time></trkpt><trkpt lat="41.69305125088854" lon="-4.858489148589737"><ele>813.0</ele><time>2026-04-11T07:18:06.999Z</time></trkpt><trkpt lat="41.693267746725276" lon="-4.858345265841035"><ele>813.0</ele><time>2026-04-11T07:18:07.999Z</time></trkpt><trkpt lat="41.69348786302179" lon="-4.8582035043294685"><ele>813.0</ele><time>2026-04-11T07:18:08.999Z</time></trkpt><trkpt lat="41.69370600064902" lon="-4.858053705286792"><ele>816.0</ele><time>2026-04-11T07:18:09.999Z</time></trkpt><trkpt lat="41.69391869171235" lon="-4.857902824579833"><ele>819.0</ele><time>2026-04-11T07:18:10.999Z</time></trkpt><trkpt lat="41.694133007557184" lon="-4.857746540631708"><ele>819.0</ele><time>2026-04-11T07:18:11.999Z</time></trkpt><trkpt lat="41.69431790069899" lon="-4.857566487274028"><ele>819.0</ele><time>2026-04-11T07:18:12.999Z</time></trkpt><trkpt lat="41.694496014433646" lon="-4.857388939559066"><ele>819.0</ele><time>2026-04-11T07:18:13.999Z</time></trkpt><trkpt lat="41.694673996324035" lon="-4.857195200883441"><ele>819.0</ele><time>2026-04-11T07:18:14.999Z</time></trkpt><trkpt lat="41.69483787090351" lon="-4.8569587342426725"><ele>816.5</ele><time>2026-04-11T07:18:15.999Z</time></trkpt><trkpt lat="41.69498918602539" lon="-4.856717580623897"><ele>814.0</ele><time>2026-04-11T07:18:16.999Z</time></trkpt><trkpt lat="41.695131711298515" lon="-4.856469626447435"><ele>818.5</ele><time>2026-04-11T07:18:17.999Z</time></trkpt><trkpt lat="41.69527718901737" lon="-4.856202630821429"><ele>823.0</ele><time>2026-04-11T07:18:18.999Z</time></trkpt><trkpt lat="41.69543143746347" lon="-4.855941971118194"><ele>823.0</ele><time>2026-04-11T07:18:19.999Z</time></trkpt><trkpt lat="41.69558287481985" lon="-4.855698701919922"><ele>823.0</ele><time>2026-04-11T07:18:20.998Z</time></trkpt><trkpt lat="41.69571880965063" lon="-4.855469895194618"><ele>823.0</ele><time>2026-04-11T07:18:21.998Z</time></trkpt><trkpt lat="41.695853441637425" lon="-4.855236604966516"><ele>823.0</ele><time>2026-04-11T07:18:22.998Z</time></trkpt><trkpt lat="41.695943411511045" lon="-4.854977777490029"><ele>823.0</ele><time>2026-04-11T07:18:23.998Z</time></trkpt><trkpt lat="41.6960248386583" lon="-4.854716035722609"><ele>824.3333333333333</ele><time>2026-04-11T07:18:24.998Z</time></trkpt><trkpt lat="41.6960807340519" lon="-4.8544400501391145"><ele>825.6666666666667</ele><time>2026-04-11T07:18:25.998Z</time></trkpt><trkpt lat="41.69611595164986" lon="-4.854138750409491"><ele>827.0</ele><time>2026-04-11T07:18:26.998Z</time></trkpt><trkpt lat="41.69615609152783" lon="-4.853828108111525"><ele>827.0</ele><time>2026-04-11T07:18:27.998Z</time></trkpt><trkpt lat="41.696179873426814" lon="-4.853518272885471"><ele>827.0</ele><time>2026-04-11T07:18:28.998Z</time></trkpt><trkpt lat="41.696212840058486" lon="-4.85320427538409"><ele>827.0</ele><time>2026-04-11T07:18:29.998Z</time></trkpt><trkpt lat="41.69625116711408" lon="-4.85288816650596"><ele>827.0</ele><time>2026-04-11T07:18:30.998Z</time></trkpt><trkpt lat="41.69628365694006" lon="-4.852585172398402"><ele>827.0</ele><time>2026-04-11T07:18:31.998Z</time></trkpt><trkpt lat="41.6963107901969" lon="-4.852295751837522"><ele>827.0</ele><time>2026-04-11T07:18:32.998Z</time></trkpt><trkpt lat="41.696335780218504" lon="-4.852025589936724"><ele>827.0</ele><time>2026-04-11T07:18:33.998Z</time></trkpt><trkpt lat="41.69636047785054" lon="-4.851768906449295"><ele>826.6666666666667</ele><time>2026-04-11T07:18:34.998Z</time></trkpt><trkpt lat="41.696374021752696" lon="-4.851507915208734"><ele>826.3333333333333</ele><time>2026-04-11T07:18:35.998Z</time></trkpt><trkpt lat="41.6964018484113" lon="-4.851240727517047"><ele>826.0</ele><time>2026-04-11T07:18:36.998Z</time></trkpt><trkpt lat="41.696514850295856" lon="-4.8509705140845005"><ele>824.0</ele><time>2026-04-11T07:18:37.998Z</time></trkpt><trkpt lat="41.69661812351638" lon="-4.850700562652765"><ele>822.0</ele><time>2026-04-11T07:18:38.998Z</time></trkpt><trkpt lat="41.696736233484664" lon="-4.8504307312873935"><ele>822.0</ele><time>2026-04-11T07:18:39.998Z</time></trkpt><trkpt lat="41.69683972798744" lon="-4.850158048890913"><ele>822.0</ele><time>2026-04-11T07:18:40.998Z</time></trkpt><trkpt lat="41.696910276607" lon="-4.849879756264765"><ele>822.0</ele><time>2026-04-11T07:18:41.998Z</time></trkpt><trkpt lat="41.696950281871125" lon="-4.84959327929954"><ele>823.0</ele><time>2026-04-11T07:18:42.998Z</time></trkpt><trkpt lat="41.69697029029815" lon="-4.849320674505018"><ele>824.0</ele><time>2026-04-11T07:18:43.998Z</time></trkpt><trkpt lat="41.69696162320298" lon="-4.849037455842114"><ele>825.0</ele><time>2026-04-11T07:18:44.998Z</time></trkpt><trkpt lat="41.696923346078236" lon="-4.8487423296745895"><ele>825.3333333333333</ele><time>2026-04-11T07:18:45.998Z</time></trkpt><trkpt lat="41.69687973293287" lon="-4.848448498405456"><ele>825.6666666666666</ele><time>2026-04-11T07:18:46.998Z</time></trkpt><trkpt lat="41.69684348727437" lon="-4.848163174223789"><ele>826.0</ele><time>2026-04-11T07:18:47.998Z</time></trkpt><trkpt lat="41.69683432856433" lon="-4.847861407436798"><ele>826.0</ele><time>2026-04-11T07:18:48.998Z</time></trkpt><trkpt lat="41.69685676941765" lon="-4.847547300631009"><ele>826.0</ele><time>2026-04-11T07:18:49.998Z</time></trkpt><trkpt lat="41.69690699268262" lon="-4.847237150000369"><ele>825.0</ele><time>2026-04-11T07:18:50.998Z</time></trkpt><trkpt lat="41.696960054614664" lon="-4.8469381799639875"><ele>824.0</ele><time>2026-04-11T07:18:51.998Z</time></trkpt><trkpt lat="41.697004594409115" lon="-4.846656503938202"><ele>823.0</ele><time>2026-04-11T07:18:52.998Z</time></trkpt><trkpt lat="41.697040718048186" lon="-4.846391551126532"><ele>823.0</ele><time>2026-04-11T07:18:53.998Z</time></trkpt><trkpt lat="41.697100666337555" lon="-4.846137533271098"><ele>823.0</ele><time>2026-04-11T07:18:54.998Z</time></trkpt><trkpt lat="41.69719083809497" lon="-4.845920544684427"><ele>823.0</ele><time>2026-04-11T07:18:55.998Z</time></trkpt><trkpt lat="41.697288736460344" lon="-4.845742576561548"><ele>823.25</ele><time>2026-04-11T07:18:56.998Z</time></trkpt><trkpt lat="41.69736386739536" lon="-4.84560132563353"><ele>823.5</ele><time>2026-04-11T07:18:57.998Z</time></trkpt><trkpt lat="41.69742944490797" lon="-4.84545730924846"><ele>823.75</ele><time>2026-04-11T07:18:58.998Z</time></trkpt><trkpt lat="41.69749019383418" lon="-4.845309154713295"><ele>824.0</ele><time>2026-04-11T07:18:59.998Z</time></trkpt><trkpt lat="41.697549861984754" lon="-4.845158845489822"><ele>825.25</ele><time>2026-04-11T07:19:00.998Z</time></trkpt><trkpt lat="41.6975994898639" lon="-4.845007829722875"><ele>826.5</ele><time>2026-04-11T07:19:01.998Z</time></trkpt><trkpt lat="41.69763277333737" lon="-4.844860714480052"><ele>827.75</ele><time>2026-04-11T07:19:02.998Z</time></trkpt><trkpt lat="41.69765819653453" lon="-4.84470618518075"><ele>829.0</ele><time>2026-04-11T07:19:03.997Z</time></trkpt><trkpt lat="41.69767547959885" lon="-4.844558480999501"><ele>829.0</ele><time>2026-04-11T07:19:04.997Z</time></trkpt><trkpt lat="41.69768303392958" lon="-4.8444119166279345"><ele>829.0</ele><time>2026-04-11T07:19:05.997Z</time></trkpt><trkpt lat="41.697670471737496" lon="-4.8442567957246565"><ele>829.0</ele><time>2026-04-11T07:19:06.997Z</time></trkpt><trkpt lat="41.69763015708096" lon="-4.844080109695932"><ele>829.0</ele><time>2026-04-11T07:19:07.997Z</time></trkpt><trkpt lat="41.69757068815846" lon="-4.843889668616093"><ele>828.6666666666666</ele><time>2026-04-11T07:19:08.997Z</time></trkpt><trkpt lat="41.69750947313998" lon="-4.843685285441129"><ele>828.3333333333333</ele><time>2026-04-11T07:19:09.997Z</time></trkpt><trkpt lat="41.69745593749536" lon="-4.843479988015091"><ele>828.0</ele><time>2026-04-11T07:19:10.997Z</time></trkpt><trkpt lat="41.697403878793736" lon="-4.843300243092545"><ele>829.5</ele><time>2026-04-11T07:19:12Z</time></trkpt><trkpt lat="41.69735957455405" lon="-4.843137824365562"><ele>831.0</ele><time>2026-04-11T07:19:13Z</time></trkpt><trkpt lat="41.697320795459355" lon="-4.842975585914941"><ele>832.5</ele><time>2026-04-11T07:19:14Z</time></trkpt><trkpt lat="41.69729033483374" lon="-4.842821153939072"><ele>834.0</ele><time>2026-04-11T07:19:15Z</time></trkpt><trkpt lat="41.69727186307807" lon="-4.842652734982536"><ele>835.3333333333333</ele><time>2026-04-11T07:19:16Z</time></trkpt><trkpt lat="41.697263691915616" lon="-4.842459798862801"><ele>836.6666666666666</ele><time>2026-04-11T07:19:17Z</time></trkpt><trkpt lat="41.69726222586168" lon="-4.842234652924531"><ele>838.0</ele><time>2026-04-11T07:19:18Z</time></trkpt><trkpt lat="41.697263338725485" lon="-4.842009575929055"><ele>838.0</ele><time>2026-04-11T07:19:19Z</time></trkpt><trkpt lat="41.69726824975577" lon="-4.8418028903403405"><ele>838.0</ele><time>2026-04-11T07:19:20Z</time></trkpt><trkpt lat="41.69727618308737" lon="-4.841611623596477"><ele>838.0</ele><time>2026-04-11T07:19:21Z</time></trkpt><trkpt lat="41.69727212863052" lon="-4.841421004374553"><ele>838.0</ele><time>2026-04-11T07:19:22Z</time></trkpt><trkpt lat="41.69728477882489" lon="-4.841250925803925"><ele>838.0</ele><time>2026-04-11T07:19:23Z</time></trkpt><trkpt lat="41.6973188744612" lon="-4.841099435828577"><ele>838.0</ele><time>2026-04-11T07:19:24Z</time></trkpt><trkpt lat="41.69738499119284" lon="-4.840966794942193"><ele>838.0</ele><time>2026-04-11T07:19:25Z</time></trkpt><trkpt lat="41.69747632252447" lon="-4.840852508574119"><ele>838.0</ele><time>2026-04-11T07:19:26Z</time></trkpt><trkpt lat="41.697586050772706" lon="-4.840741960763652"><ele>838.0</ele><time>2026-04-11T07:19:27Z</time></trkpt><trkpt lat="41.69769555873975" lon="-4.840628880304478"><ele>838.0</ele><time>2026-04-11T07:19:28Z</time></trkpt><trkpt lat="41.69780506905133" lon="-4.84049882359693"><ele>838.0</ele><time>2026-04-11T07:19:29Z</time></trkpt><trkpt lat="41.69791601578471" lon="-4.840373680066645"><ele>838.0</ele><time>2026-04-11T07:19:30Z</time></trkpt><trkpt lat="41.6980273562135" lon="-4.8402487244461545"><ele>838.0</ele><time>2026-04-11T07:19:31Z</time></trkpt><trkpt lat="41.69814950430587" lon="-4.840127606403925"><ele>838.0</ele><time>2026-04-11T07:19:32Z</time></trkpt><trkpt lat="41.69828264381777" lon="-4.840015480588292"><ele>838.0</ele><time>2026-04-11T07:19:33Z</time></trkpt><trkpt lat="41.698422525622306" lon="-4.839924969430123"><ele>838.0</ele><time>2026-04-11T07:19:34Z</time></trkpt><trkpt lat="41.698542094582486" lon="-4.8398525502012895"><ele>838.0</ele><time>2026-04-11T07:19:35Z</time></trkpt><trkpt lat="41.69864368745307" lon="-4.83976523108035"><ele>838.0</ele><time>2026-04-11T07:19:36Z</time></trkpt><trkpt lat="41.69870364823222" lon="-4.839669871056985"><ele>838.0</ele><time>2026-04-11T07:19:37Z</time></trkpt><trkpt lat="41.69872205959003" lon="-4.83953877054642"><ele>838.0</ele><time>2026-04-11T07:19:38Z</time></trkpt><trkpt lat="41.698725857928956" lon="-4.8393836542947675"><ele>838.0</ele><time>2026-04-11T07:19:39Z</time></trkpt><trkpt lat="41.69870246785433" lon="-4.839214248439637"><ele>838.0</ele><time>2026-04-11T07:19:40Z</time></trkpt><trkpt lat="41.69866946043788" lon="-4.839050072777825"><ele>838.0</ele><time>2026-04-11T07:19:41Z</time></trkpt><trkpt lat="41.69859265945012" lon="-4.838894447082878"><ele>838.0</ele><time>2026-04-11T07:19:42Z</time></trkpt><trkpt lat="41.6985622254266" lon="-4.838720475920949"><ele>838.0</ele><time>2026-04-11T07:19:43Z</time></trkpt><trkpt lat="41.69854234098315" lon="-4.838526134645062"><ele>838.0</ele><time>2026-04-11T07:19:44Z</time></trkpt><trkpt lat="41.698523650977954" lon="-4.8383118430869505"><ele>838.0</ele><time>2026-04-11T07:19:45Z</time></trkpt><trkpt lat="41.69852313840948" lon="-4.838100085186965"><ele>838.2</ele><time>2026-04-11T07:19:46Z</time></trkpt><trkpt lat="41.69850838883481" lon="-4.837928562092877"><ele>838.4</ele><time>2026-04-11T07:19:47Z</time></trkpt><trkpt lat="41.698499571287535" lon="-4.837775916146032"><ele>838.6</ele><time>2026-04-11T07:19:47.999Z</time></trkpt><trkpt lat="41.698476742671325" lon="-4.837641192670925"><ele>838.8000000000001</ele><time>2026-04-11T07:19:48.999Z</time></trkpt><trkpt lat="41.69846809462285" lon="-4.837509585835355"><ele>839.0</ele><time>2026-04-11T07:19:49.999Z</time></trkpt><trkpt lat="41.69847599456821" lon="-4.837375419849561"><ele>839.0</ele><time>2026-04-11T07:19:50.999Z</time></trkpt><trkpt lat="41.69846047480956" lon="-4.8372321485432295"><ele>839.0</ele><time>2026-04-11T07:19:51.999Z</time></trkpt><trkpt lat="41.69845159392687" lon="-4.837078649837782"><ele>839.0</ele><time>2026-04-11T07:19:52.999Z</time></trkpt><trkpt lat="41.69842463870404" lon="-4.836928491903125"><ele>839.0</ele><time>2026-04-11T07:19:53.999Z</time></trkpt><trkpt lat="41.698413043514684" lon="-4.836774821387172"><ele>839.0</ele><time>2026-04-11T07:19:54.999Z</time></trkpt><trkpt lat="41.69840264287759" lon="-4.8366262889731795"><ele>839.0</ele><time>2026-04-11T07:19:55.999Z</time></trkpt><trkpt lat="41.69839195560052" lon="-4.83647366331359"><ele>839.0</ele><time>2026-04-11T07:19:56.999Z</time></trkpt><trkpt lat="41.698389586931356" lon="-4.8363221034261805"><ele>839.0</ele><time>2026-04-11T07:19:57.999Z</time></trkpt><trkpt lat="41.69838598973851" lon="-4.836185229846556"><ele>839.0</ele><time>2026-04-11T07:19:58.999Z</time></trkpt><trkpt lat="41.69837944709184" lon="-4.83605614319777"><ele>839.3333333333334</ele><time>2026-04-11T07:19:59.999Z</time></trkpt><trkpt lat="41.69835442305999" lon="-4.835932806932724"><ele>839.6666666666667</ele><time>2026-04-11T07:20:00.999Z</time></trkpt><trkpt lat="41.69834701085908" lon="-4.835827398945362"><ele>840.0</ele><time>2026-04-11T07:20:01.999Z</time></trkpt><trkpt lat="41.69835246346454" lon="-4.835719687614946"><ele>840.3333333333333</ele><time>2026-04-11T07:20:02.999Z</time></trkpt><trkpt lat="41.69834085557014" lon="-4.835609064667364"><ele>840.6666666666666</ele><time>2026-04-11T07:20:03.999Z</time></trkpt><trkpt lat="41.698333085350356" lon="-4.835496714449859"><ele>841.0</ele><time>2026-04-11T07:20:04.999Z</time></trkpt><trkpt lat="41.698329828512044" lon="-4.835385610753404"><ele>840.9999999999999</ele><time>2026-04-11T07:20:05.999Z</time></trkpt><trkpt lat="41.69830738504173" lon="-4.835277619994392"><ele>841.0</ele><time>2026-04-11T07:20:06.999Z</time></trkpt><trkpt lat="41.69830007463549" lon="-4.835176205163243"><ele>841.0</ele><time>2026-04-11T07:20:07.999Z</time></trkpt><trkpt lat="41.698292021948596" lon="-4.835064487067862"><ele>841.0</ele><time>2026-04-11T07:20:08.999Z</time></trkpt><trkpt lat="41.69828349298481" lon="-4.834946161437434"><ele>840.9999999999999</ele><time>2026-04-11T07:20:09.999Z</time></trkpt><trkpt lat="41.69827519315637" lon="-4.834831014655532"><ele>841.0</ele><time>2026-04-11T07:20:10.999Z</time></trkpt><trkpt lat="41.69826631593925" lon="-4.834707857556078"><ele>841.0</ele><time>2026-04-11T07:20:11.999Z</time></trkpt><trkpt lat="41.69825733006492" lon="-4.834583193028901"><ele>841.0</ele><time>2026-04-11T07:20:12.999Z</time></trkpt><trkpt lat="41.69824835100692" lon="-4.834458623028328"><ele>841.0</ele><time>2026-04-11T07:20:13.999Z</time></trkpt><trkpt lat="41.698254548257786" lon="-4.834331310917603"><ele>841.0</ele><time>2026-04-11T07:20:14.999Z</time></trkpt><trkpt lat="41.6982406455537" lon="-4.834199253074771"><ele>841.0</ele><time>2026-04-11T07:20:15.999Z</time></trkpt><trkpt lat="41.69823330445923" lon="-4.83407068430258"><ele>841.25</ele><time>2026-04-11T07:20:16.999Z</time></trkpt><trkpt lat="41.69822158098413" lon="-4.83392922458021"><ele>841.5</ele><time>2026-04-11T07:20:17.999Z</time></trkpt><trkpt lat="41.69820033400036" lon="-4.833780509411922"><ele>841.75</ele><time>2026-04-11T07:20:18.999Z</time></trkpt><trkpt lat="41.69820512944234" lon="-4.833615395326449"><ele>842.0</ele><time>2026-04-11T07:20:19.999Z</time></trkpt><trkpt lat="41.69819130362401" lon="-4.833457994193411"><ele>842.25</ele><time>2026-04-11T07:20:20.999Z</time></trkpt><trkpt lat="41.698178300338114" lon="-4.8332895770631605"><ele>842.5</ele><time>2026-04-11T07:20:21.999Z</time></trkpt><trkpt lat="41.698162899478575" lon="-4.833103375732509"><ele>842.75</ele><time>2026-04-11T07:20:22.999Z</time></trkpt><trkpt lat="41.69814866594693" lon="-4.83289451599274"><ele>843.0</ele><time>2026-04-11T07:20:23.999Z</time></trkpt><trkpt lat="41.69813426333103" lon="-4.832669674472016"><ele>843.5</ele><time>2026-04-11T07:20:24.999Z</time></trkpt><trkpt lat="41.69812340432192" lon="-4.832470657442721"><ele>844.0</ele><time>2026-04-11T07:20:25.999Z</time></trkpt><trkpt lat="41.69811324023103" lon="-4.832302321359625"><ele>844.5</ele><time>2026-04-11T07:20:26.999Z</time></trkpt><trkpt lat="41.698101556165724" lon="-4.832150797299953"><ele>845.0</ele><time>2026-04-11T07:20:27.999Z</time></trkpt><trkpt lat="41.698090005903836" lon="-4.832016023494388"><ele>845.0000000000001</ele><time>2026-04-11T07:20:28.999Z</time></trkpt><trkpt lat="41.6980769013381" lon="-4.831893534257751"><ele>845.0</ele><time>2026-04-11T07:20:29.999Z</time></trkpt><trkpt lat="41.69805530727754" lon="-4.831803257836808"><ele>845.0</ele><time>2026-04-11T07:20:30.999Z</time></trkpt><trkpt lat="41.69801526406129" lon="-4.831730875059671"><ele>845.0</ele><time>2026-04-11T07:20:31.998Z</time></trkpt><trkpt lat="41.69794018719921" lon="-4.831703989628382"><ele>845.0000000000001</ele><time>2026-04-11T07:20:32.998Z</time></trkpt><trkpt lat="41.69787268356611" lon="-4.831637659391055"><ele>845.0</ele><time>2026-04-11T07:20:33.998Z</time></trkpt><trkpt lat="41.697783518816124" lon="-4.83161320369144"><ele>844.6</ele><time>2026-04-11T07:20:34.998Z</time></trkpt><trkpt lat="41.69769164742463" lon="-4.831583301085311"><ele>844.2</ele><time>2026-04-11T07:20:35.998Z</time></trkpt><trkpt lat="41.697612855888245" lon="-4.831535685967124"><ele>843.8</ele><time>2026-04-11T07:20:36.998Z</time></trkpt><trkpt lat="41.69752805132419" lon="-4.831464507886978"><ele>843.4</ele><time>2026-04-11T07:20:37.998Z</time></trkpt><trkpt lat="41.69744475734994" lon="-4.831382724867333"><ele>843.0</ele><time>2026-04-11T07:20:38.998Z</time></trkpt><trkpt lat="41.697360662138394" lon="-4.83128768321189"><ele>843.0</ele><time>2026-04-11T07:20:39.998Z</time></trkpt><trkpt lat="41.69729075618536" lon="-4.831172514336412"><ele>843.0</ele><time>2026-04-11T07:20:40.998Z</time></trkpt><trkpt lat="41.69723527220027" lon="-4.831043596127073"><ele>843.0</ele><time>2026-04-11T07:20:41.998Z</time></trkpt><trkpt lat="41.69719152574919" lon="-4.8309199137438075"><ele>843.0</ele><time>2026-04-11T07:20:42.998Z</time></trkpt><trkpt lat="41.69716986649334" lon="-4.830810281482243"><ele>843.0</ele><time>2026-04-11T07:20:43.998Z</time></trkpt><trkpt lat="41.69714356945201" lon="-4.830730612450704"><ele>843.2</ele><time>2026-04-11T07:20:44.998Z</time></trkpt><trkpt lat="41.697164170981104" lon="-4.8305977672233675"><ele>843.4</ele><time>2026-04-11T07:20:46.998Z</time></trkpt><trkpt lat="41.69720667286814" lon="-4.830521889411995"><ele>843.6</ele><time>2026-04-11T07:21:00.998Z</time></trkpt><trkpt lat="41.697255911162706" lon="-4.830420451672877"><ele>843.8000000000001</ele><time>2026-04-11T07:21:02.998Z</time></trkpt><trkpt lat="41.697344436849534" lon="-4.830436902624307"><ele>844.0</ele><time>2026-04-11T07:21:03.998Z</time></trkpt><trkpt lat="41.69746678936704" lon="-4.830460789548526"><ele>844.0</ele><time>2026-04-11T07:21:05.998Z</time></trkpt><trkpt lat="41.69753612757316" lon="-4.830490651584249"><ele>844.0</ele><time>2026-04-11T07:21:06.998Z</time></trkpt><trkpt lat="41.69760883535306" lon="-4.830530878901734"><ele>844.0</ele><time>2026-04-11T07:21:07.998Z</time></trkpt><trkpt lat="41.697681905937856" lon="-4.830568934219137"><ele>844.0</ele><time>2026-04-11T07:21:08.998Z</time></trkpt><trkpt lat="41.69774573893455" lon="-4.830611524296754"><ele>844.0</ele><time>2026-04-11T07:21:09.998Z</time></trkpt><trkpt lat="41.69780532462215" lon="-4.830662307193287"><ele>844.0</ele><time>2026-04-11T07:21:10.998Z</time></trkpt><trkpt lat="41.69784371369906" lon="-4.83073837937091"><ele>844.0</ele><time>2026-04-11T07:21:11.998Z</time></trkpt><trkpt lat="41.697896283021485" lon="-4.830805764660681"><ele>844.0</ele><time>2026-04-11T07:21:12.998Z</time></trkpt><trkpt lat="41.69795300127786" lon="-4.830889964785468"><ele>844.0</ele><time>2026-04-11T07:21:13.998Z</time></trkpt><trkpt lat="41.69802403589468" lon="-4.830981758163579"><ele>844.0</ele><time>2026-04-11T07:21:14.997Z</time></trkpt><trkpt lat="41.69806075932799" lon="-4.83111424419486"><ele>844.0</ele><time>2026-04-11T07:21:15.997Z</time></trkpt><trkpt lat="41.69810025560481" lon="-4.8312452999458575"><ele>844.0</ele><time>2026-04-11T07:21:16.997Z</time></trkpt><trkpt lat="41.69813198677014" lon="-4.831364448766611"><ele>843.9999999999999</ele><time>2026-04-11T07:21:18Z</time></trkpt><trkpt lat="41.698166767803514" lon="-4.831448403041842"><ele>844.0</ele><time>2026-04-11T07:21:19Z</time></trkpt><trkpt lat="41.69818541120248" lon="-4.831534626771228"><ele>844.0</ele><time>2026-04-11T07:21:20Z</time></trkpt><trkpt lat="41.69821157508362" lon="-4.831617230411217"><ele>844.0</ele><time>2026-04-11T07:21:21Z</time></trkpt><trkpt lat="41.69823761345093" lon="-4.831722166220949"><ele>843.9999999999999</ele><time>2026-04-11T07:21:22Z</time></trkpt><trkpt lat="41.69831954501611" lon="-4.831813643039028"><ele>844.0</ele><time>2026-04-11T07:21:23Z</time></trkpt><trkpt lat="41.698393119898746" lon="-4.831924081661087"><ele>844.25</ele><time>2026-04-11T07:21:24Z</time></trkpt><trkpt lat="41.69848069744968" lon="-4.832034006206832"><ele>844.5</ele><time>2026-04-11T07:21:25Z</time></trkpt><trkpt lat="41.69857506982806" lon="-4.832142100495234"><ele>844.75</ele><time>2026-04-11T07:21:26Z</time></trkpt><trkpt lat="41.698669656807844" lon="-4.832249679219038"><ele>845.0</ele><time>2026-04-11T07:21:27Z</time></trkpt><trkpt lat="41.69877267176866" lon="-4.832372746545164"><ele>845.0</ele><time>2026-04-11T07:21:28Z</time></trkpt><trkpt lat="41.698891358707236" lon="-4.8325160149690145"><ele>845.0</ele><time>2026-04-11T07:21:29Z</time></trkpt><trkpt lat="41.699011420943705" lon="-4.832663904942793"><ele>845.0</ele><time>2026-04-11T07:21:30Z</time></trkpt><trkpt lat="41.69913171843699" lon="-4.832811144763321"><ele>845.0</ele><time>2026-04-11T07:21:31Z</time></trkpt><trkpt lat="41.69926821813472" lon="-4.832973381550289"><ele>845.0</ele><time>2026-04-11T07:21:32Z</time></trkpt><trkpt lat="41.6994159414502" lon="-4.833145525095511"><ele>845.0</ele><time>2026-04-11T07:21:33Z</time></trkpt><trkpt lat="41.699567661060875" lon="-4.833325013420913"><ele>844.3333333333334</ele><time>2026-04-11T07:21:34Z</time></trkpt><trkpt lat="41.699713886369516" lon="-4.833500022012197"><ele>843.6666666666667</ele><time>2026-04-11T07:21:35Z</time></trkpt><trkpt lat="41.699859761475494" lon="-4.833671368307798"><ele>843.0</ele><time>2026-04-11T07:21:36Z</time></trkpt><trkpt lat="41.69999714904196" lon="-4.8338360699729614"><ele>843.0</ele><time>2026-04-11T07:21:37Z</time></trkpt><trkpt lat="41.700130048042375" lon="-4.833992222392183"><ele>843.0</ele><time>2026-04-11T07:21:38Z</time></trkpt><trkpt lat="41.70026491773469" lon="-4.834151809681039"><ele>843.0</ele><time>2026-04-11T07:21:39Z</time></trkpt><trkpt lat="41.70039032310287" lon="-4.834303542714821"><ele>844.0</ele><time>2026-04-11T07:21:40Z</time></trkpt><trkpt lat="41.70050499284173" lon="-4.834441267950597"><ele>845.0</ele><time>2026-04-11T07:21:41Z</time></trkpt><trkpt lat="41.70060948482347" lon="-4.834568492599241"><ele>846.0</ele><time>2026-04-11T07:21:42Z</time></trkpt><trkpt lat="41.70070169622931" lon="-4.834678978704773"><ele>847.0</ele><time>2026-04-11T07:21:43Z</time></trkpt><trkpt lat="41.70077697010957" lon="-4.834763245820763"><ele>847.0</ele><time>2026-04-11T07:21:44Z</time></trkpt><trkpt lat="41.70084198099035" lon="-4.834833387629193"><ele>847.0</ele><time>2026-04-11T07:21:45Z</time></trkpt><trkpt lat="41.70089552085698" lon="-4.834883663911032"><ele>847.0</ele><time>2026-04-11T07:21:46Z</time></trkpt><trkpt lat="41.70099466226671" lon="-4.834948202349799"><ele>847.0</ele><time>2026-04-11T07:21:48Z</time></trkpt><trkpt lat="41.70109396351237" lon="-4.834945013773438"><ele>847.0</ele><time>2026-04-11T07:21:50Z</time></trkpt><trkpt lat="41.70120745881317" lon="-4.834864495691434"><ele>846.9999999999999</ele><time>2026-04-11T07:21:51.999Z</time></trkpt><trkpt lat="41.701251874334346" lon="-4.8347928896257555"><ele>847.0</ele><time>2026-04-11T07:21:52.999Z</time></trkpt><trkpt lat="41.70125759031237" lon="-4.834693878401441"><ele>847.0</ele><time>2026-04-11T07:21:53.999Z</time></trkpt><trkpt lat="41.70127945150353" lon="-4.834585457611844"><ele>847.0</ele><time>2026-04-11T07:21:54.999Z</time></trkpt><trkpt lat="41.70129472441043" lon="-4.834455412136591"><ele>846.9999999999999</ele><time>2026-04-11T07:21:55.999Z</time></trkpt><trkpt lat="41.70131124719804" lon="-4.8343125833588925"><ele>847.0</ele><time>2026-04-11T07:21:56.999Z</time></trkpt><trkpt lat="41.701353078418244" lon="-4.834176642238207"><ele>846.75</ele><time>2026-04-11T07:21:57.999Z</time></trkpt><trkpt lat="41.70139358147732" lon="-4.834012707880251"><ele>846.5</ele><time>2026-04-11T07:21:58.999Z</time></trkpt><trkpt lat="41.70144730732919" lon="-4.83382580549139"><ele>846.25</ele><time>2026-04-11T07:21:59.999Z</time></trkpt><trkpt lat="41.701512706645836" lon="-4.833627896098776"><ele>846.0</ele><time>2026-04-11T07:22:00.999Z</time></trkpt><trkpt lat="41.70158073505512" lon="-4.833434605566589"><ele>845.6666666666667</ele><time>2026-04-11T07:22:01.999Z</time></trkpt><trkpt lat="41.701641758822745" lon="-4.833244912755999"><ele>845.3333333333334</ele><time>2026-04-11T07:22:02.999Z</time></trkpt><trkpt lat="41.70170566871561" lon="-4.8330427303710914"><ele>845.0</ele><time>2026-04-11T07:22:03.999Z</time></trkpt><trkpt lat="41.701780071984885" lon="-4.832819508061613"><ele>845.0</ele><time>2026-04-11T07:22:04.999Z</time></trkpt><trkpt lat="41.70185356016952" lon="-4.832590303550307"><ele>845.0</ele><time>2026-04-11T07:22:05.999Z</time></trkpt><trkpt lat="41.701929903956035" lon="-4.832358848101955"><ele>845.0</ele><time>2026-04-11T07:22:06.999Z</time></trkpt><trkpt lat="41.702007269394656" lon="-4.832116856024276"><ele>845.3333333333334</ele><time>2026-04-11T07:22:07.999Z</time></trkpt><trkpt lat="41.70208424590966" lon="-4.831875260354425"><ele>845.6666666666667</ele><time>2026-04-11T07:22:08.999Z</time></trkpt><trkpt lat="41.70215932142922" lon="-4.831645874603545"><ele>846.0</ele><time>2026-04-11T07:22:09.999Z</time></trkpt><trkpt lat="41.702238898165795" lon="-4.831409294559569"><ele>845.6666666666667</ele><time>2026-04-11T07:22:10.999Z</time></trkpt><trkpt lat="41.7023235704544" lon="-4.831153419496094"><ele>845.3333333333334</ele><time>2026-04-11T07:22:11.999Z</time></trkpt><trkpt lat="41.70240971539834" lon="-4.830889092823638"><ele>845.0</ele><time>2026-04-11T07:22:12.999Z</time></trkpt><trkpt lat="41.70249946857874" lon="-4.83061862357837"><ele>845.0</ele><time>2026-04-11T07:22:13.999Z</time></trkpt><trkpt lat="41.702593049280594" lon="-4.830338419472546"><ele>845.0</ele><time>2026-04-11T07:22:14.999Z</time></trkpt><trkpt lat="41.70268125632401" lon="-4.830070749577543"><ele>845.0</ele><time>2026-04-11T07:22:15.999Z</time></trkpt><trkpt lat="41.70276712492568" lon="-4.829815396240086"><ele>844.5</ele><time>2026-04-11T07:22:16.999Z</time></trkpt><trkpt lat="41.702867486134096" lon="-4.829545324299141"><ele>844.0</ele><time>2026-04-11T07:22:17.999Z</time></trkpt><trkpt lat="41.702983714997856" lon="-4.829276785591727"><ele>845.0</ele><time>2026-04-11T07:22:18.999Z</time></trkpt><trkpt lat="41.70311476633506" lon="-4.829009309336086"><ele>846.0</ele><time>2026-04-11T07:22:19.999Z</time></trkpt><trkpt lat="41.703256526459796" lon="-4.828746850552062"><ele>846.0</ele><time>2026-04-11T07:22:20.999Z</time></trkpt><trkpt lat="41.703409480266764" lon="-4.828479703395494"><ele>846.0</ele><time>2026-04-11T07:22:21.999Z</time></trkpt><trkpt lat="41.703563263621575" lon="-4.828233364850453"><ele>845.5</ele><time>2026-04-11T07:22:22.999Z</time></trkpt><trkpt lat="41.70371371178798" lon="-4.828000429727027"><ele>845.0</ele><time>2026-04-11T07:22:23.999Z</time></trkpt><trkpt lat="41.703855821351205" lon="-4.827742309744486"><ele>844.5</ele><time>2026-04-11T07:22:24.999Z</time></trkpt><trkpt lat="41.70402030754084" lon="-4.827505087907381"><ele>844.0</ele><time>2026-04-11T07:22:25.999Z</time></trkpt><trkpt lat="41.704168838037035" lon="-4.827238939863369"><ele>844.0</ele><time>2026-04-11T07:22:26.999Z</time></trkpt><trkpt lat="41.70430383624818" lon="-4.826972478408887"><ele>844.0</ele><time>2026-04-11T07:22:27.999Z</time></trkpt><trkpt lat="41.70443072956948" lon="-4.826684372155908"><ele>845.0</ele><time>2026-04-11T07:22:28.999Z</time></trkpt><trkpt lat="41.70451768655503" lon="-4.826384481403483"><ele>846.0</ele><time>2026-04-11T07:22:29.999Z</time></trkpt><trkpt lat="41.704601363742256" lon="-4.826081872087579"><ele>844.5</ele><time>2026-04-11T07:22:30.999Z</time></trkpt><trkpt lat="41.70467906590404" lon="-4.8257712787549645"><ele>843.0</ele><time>2026-04-11T07:22:31.999Z</time></trkpt><trkpt lat="41.704759813535645" lon="-4.825468570422791"><ele>843.0</ele><time>2026-04-11T07:22:32.999Z</time></trkpt><trkpt lat="41.70482588684938" lon="-4.825146807277601"><ele>843.0</ele><time>2026-04-11T07:22:33.998Z</time></trkpt><trkpt lat="41.704895435783754" lon="-4.824823196904454"><ele>844.0</ele><time>2026-04-11T07:22:34.998Z</time></trkpt><trkpt lat="41.7049618827192" lon="-4.824449261969064"><ele>845.0</ele><time>2026-04-11T07:22:35.998Z</time></trkpt><trkpt lat="41.70500830826003" lon="-4.8241164551244875"><ele>845.0</ele><time>2026-04-11T07:22:36.998Z</time></trkpt><trkpt lat="41.70507546467966" lon="-4.823864479246491"><ele>845.0</ele><time>2026-04-11T07:22:37.998Z</time></trkpt><trkpt lat="41.70510166931467" lon="-4.823545740398614"><ele>845.0</ele><time>2026-04-11T07:22:38.998Z</time></trkpt><trkpt lat="41.70511165868839" lon="-4.823219586470362"><ele>845.0</ele><time>2026-04-11T07:22:39.998Z</time></trkpt><trkpt lat="41.70510819594127" lon="-4.8228794042684795"><ele>845.0</ele><time>2026-04-11T07:22:40.998Z</time></trkpt><trkpt lat="41.70509317347433" lon="-4.82254993495618"><ele>846.0</ele><time>2026-04-11T07:22:41.998Z</time></trkpt><trkpt lat="41.70506871228862" lon="-4.822216638289196"><ele>847.0</ele><time>2026-04-11T07:22:42.998Z</time></trkpt><trkpt lat="41.70504284512857" lon="-4.821894595985105"><ele>847.0</ele><time>2026-04-11T07:22:43.998Z</time></trkpt><trkpt lat="41.705016626763474" lon="-4.821562820149405"><ele>847.0</ele><time>2026-04-11T07:22:44.998Z</time></trkpt><trkpt lat="41.704992479300735" lon="-4.821229680883346"><ele>845.5</ele><time>2026-04-11T07:22:45.998Z</time></trkpt><trkpt lat="41.7049690649567" lon="-4.820901685944639"><ele>844.0</ele><time>2026-04-11T07:22:46.998Z</time></trkpt><trkpt lat="41.70494029165079" lon="-4.820571030710933"><ele>844.0</ele><time>2026-04-11T07:22:47.998Z</time></trkpt><trkpt lat="41.70488806950791" lon="-4.820249173770707"><ele>844.0</ele><time>2026-04-11T07:22:48.998Z</time></trkpt><trkpt lat="41.70481090930427" lon="-4.819935193001844"><ele>844.5</ele><time>2026-04-11T07:22:49.998Z</time></trkpt><trkpt lat="41.70471596912977" lon="-4.819624640672008"><ele>845.0</ele><time>2026-04-11T07:22:50.998Z</time></trkpt><trkpt lat="41.704606893841465" lon="-4.819325971754834"><ele>845.5</ele><time>2026-04-11T07:22:51.998Z</time></trkpt><trkpt lat="41.70448589027601" lon="-4.819038974683433"><ele>846.0</ele><time>2026-04-11T07:22:52.998Z</time></trkpt><trkpt lat="41.70436393808959" lon="-4.818754098844473"><ele>846.0</ele><time>2026-04-11T07:22:53.998Z</time></trkpt><trkpt lat="41.704246333463644" lon="-4.818456227445732"><ele>846.0</ele><time>2026-04-11T07:22:54.998Z</time></trkpt><trkpt lat="41.70414781385531" lon="-4.818153074470775"><ele>846.0</ele><time>2026-04-11T07:22:55.998Z</time></trkpt><trkpt lat="41.704072448174465" lon="-4.817844079017285"><ele>846.0</ele><time>2026-04-11T07:22:56.998Z</time></trkpt><trkpt lat="41.70401663460639" lon="-4.817543319553002"><ele>846.5</ele><time>2026-04-11T07:22:57.998Z</time></trkpt><trkpt lat="41.70397905007292" lon="-4.817226083294261"><ele>847.0</ele><time>2026-04-11T07:22:58.998Z</time></trkpt><trkpt lat="41.70395289063837" lon="-4.816899967370802"><ele>845.5</ele><time>2026-04-11T07:22:59.998Z</time></trkpt><trkpt lat="41.703955130323195" lon="-4.816565141026041"><ele>844.0</ele><time>2026-04-11T07:23:00.998Z</time></trkpt><trkpt lat="41.70396862534947" lon="-4.816225157429581"><ele>843.5</ele><time>2026-04-11T07:23:01.998Z</time></trkpt><trkpt lat="41.70398425979959" lon="-4.815902402092918"><ele>843.0</ele><time>2026-04-11T07:23:02.998Z</time></trkpt><trkpt lat="41.704002071339964" lon="-4.815566182936239"><ele>843.0</ele><time>2026-04-11T07:23:03.998Z</time></trkpt><trkpt lat="41.70402065615183" lon="-4.815225672331462"><ele>843.0</ele><time>2026-04-11T07:23:04.998Z</time></trkpt><trkpt lat="41.704041274311955" lon="-4.8148784316298725"><ele>842.5</ele><time>2026-04-11T07:23:05.998Z</time></trkpt><trkpt lat="41.70406129880083" lon="-4.814538363124332"><ele>842.0</ele><time>2026-04-11T07:23:06.998Z</time></trkpt><trkpt lat="41.70408367878128" lon="-4.814187563491986"><ele>841.5</ele><time>2026-04-11T07:23:07.998Z</time></trkpt><trkpt lat="41.7041201788" lon="-4.813841224914545"><ele>841.0</ele><time>2026-04-11T07:23:08.998Z</time></trkpt><trkpt lat="41.704151959669645" lon="-4.813513583528907"><ele>840.0</ele><time>2026-04-11T07:23:09.998Z</time></trkpt><trkpt lat="41.704186255230816" lon="-4.813185416627297"><ele>839.0</ele><time>2026-04-11T07:23:10.998Z</time></trkpt><trkpt lat="41.7042255119361" lon="-4.812860707151259"><ele>838.5</ele><time>2026-04-11T07:23:11.998Z</time></trkpt><trkpt lat="41.70426554565392" lon="-4.812543247419346"><ele>838.0</ele><time>2026-04-11T07:23:12.998Z</time></trkpt><trkpt lat="41.70430866019744" lon="-4.812227176637371"><ele>838.0</ele><time>2026-04-11T07:23:13.998Z</time></trkpt><trkpt lat="41.70435351220465" lon="-4.811908831927813"><ele>838.0</ele><time>2026-04-11T07:23:14.998Z</time></trkpt><trkpt lat="41.704390787208354" lon="-4.811584517007674"><ele>837.0</ele><time>2026-04-11T07:23:15.998Z</time></trkpt><trkpt lat="41.70440730076934" lon="-4.811258888099227"><ele>836.0</ele><time>2026-04-11T07:23:16.997Z</time></trkpt><trkpt lat="41.70440290438581" lon="-4.810929109367458"><ele>835.0</ele><time>2026-04-11T07:23:17.997Z</time></trkpt><trkpt lat="41.70437770789947" lon="-4.810608691717503"><ele>834.0</ele><time>2026-04-11T07:23:18.997Z</time></trkpt><trkpt lat="41.70433791010674" lon="-4.810274286769423"><ele>833.0</ele><time>2026-04-11T07:23:19.997Z</time></trkpt><trkpt lat="41.70426940778787" lon="-4.809950506048918"><ele>832.0</ele><time>2026-04-11T07:23:20.997Z</time></trkpt><trkpt lat="41.70418247260168" lon="-4.809653447460411"><ele>832.0</ele><time>2026-04-11T07:23:21.997Z</time></trkpt><trkpt lat="41.70408139038854" lon="-4.80935263961567"><ele>832.0</ele><time>2026-04-11T07:23:22.997Z</time></trkpt><trkpt lat="41.703971462724226" lon="-4.809046520891545"><ele>831.5</ele><time>2026-04-11T07:23:24Z</time></trkpt><trkpt lat="41.703851526178084" lon="-4.808749791895923"><ele>831.0</ele><time>2026-04-11T07:23:25Z</time></trkpt><trkpt lat="41.7037272703518" lon="-4.808460380591098"><ele>831.0</ele><time>2026-04-11T07:23:26Z</time></trkpt><trkpt lat="41.703601996892345" lon="-4.808169854030707"><ele>831.0</ele><time>2026-04-11T07:23:27Z</time></trkpt><trkpt lat="41.703486372807944" lon="-4.807894246666806"><ele>826.5</ele><time>2026-04-11T07:23:28Z</time></trkpt><trkpt lat="41.70338590796203" lon="-4.807620895938322"><ele>822.0</ele><time>2026-04-11T07:23:29Z</time></trkpt><trkpt lat="41.703300025086996" lon="-4.80734066311937"><ele>822.0</ele><time>2026-04-11T07:23:30Z</time></trkpt><trkpt lat="41.70322904246857" lon="-4.807047747768918"><ele>822.0</ele><time>2026-04-11T07:23:31Z</time></trkpt><trkpt lat="41.7031699329332" lon="-4.806747757066843"><ele>823.0</ele><time>2026-04-11T07:23:32Z</time></trkpt><trkpt lat="41.70312573720671" lon="-4.806433262972587"><ele>824.0</ele><time>2026-04-11T07:23:33Z</time></trkpt><trkpt lat="41.703105667249076" lon="-4.80610326088281"><ele>823.5</ele><time>2026-04-11T07:23:34Z</time></trkpt><trkpt lat="41.703109303630484" lon="-4.805760378247793"><ele>823.0</ele><time>2026-04-11T07:23:35Z</time></trkpt><trkpt lat="41.703121765005825" lon="-4.805416274738018"><ele>820.5</ele><time>2026-04-11T07:23:36Z</time></trkpt><trkpt lat="41.70315013556422" lon="-4.805062231410014"><ele>818.0</ele><time>2026-04-11T07:23:37Z</time></trkpt><trkpt lat="41.7031902057016" lon="-4.8047108179964875"><ele>818.0</ele><time>2026-04-11T07:23:38Z</time></trkpt><trkpt lat="41.70323489191361" lon="-4.804354409005314"><ele>818.0</ele><time>2026-04-11T07:23:39Z</time></trkpt><trkpt lat="41.70327532405603" lon="-4.8040033158204825"><ele>813.0</ele><time>2026-04-11T07:23:40Z</time></trkpt><trkpt lat="41.70330844442302" lon="-4.803646439327486"><ele>808.0</ele><time>2026-04-11T07:23:41Z</time></trkpt><trkpt lat="41.703320579755705" lon="-4.803302753545825"><ele>806.5</ele><time>2026-04-11T07:23:42Z</time></trkpt><trkpt lat="41.703311659198" lon="-4.802967234167763"><ele>805.0</ele><time>2026-04-11T07:23:43Z</time></trkpt><trkpt lat="41.703280171007" lon="-4.802633765900477"><ele>805.0</ele><time>2026-04-11T07:23:44Z</time></trkpt><trkpt lat="41.703224636270946" lon="-4.802312492320663"><ele>805.0</ele><time>2026-04-11T07:23:45Z</time></trkpt><trkpt lat="41.703152127859966" lon="-4.801994094640736"><ele>806.0</ele><time>2026-04-11T07:23:46Z</time></trkpt><trkpt lat="41.70307150702164" lon="-4.801683604841371"><ele>807.0</ele><time>2026-04-11T07:23:47Z</time></trkpt><trkpt lat="41.70298608738555" lon="-4.801382269764854"><ele>807.0</ele><time>2026-04-11T07:23:48Z</time></trkpt><trkpt lat="41.702915779941726" lon="-4.801073369933539"><ele>807.0</ele><time>2026-04-11T07:23:49Z</time></trkpt><trkpt lat="41.702868238019" lon="-4.8007609660554555"><ele>808.0</ele><time>2026-04-11T07:23:50Z</time></trkpt><trkpt lat="41.70283875691026" lon="-4.800463716565716"><ele>809.0</ele><time>2026-04-11T07:23:51Z</time></trkpt><trkpt lat="41.70282486527116" lon="-4.800149079680265"><ele>806.5</ele><time>2026-04-11T07:23:52Z</time></trkpt><trkpt lat="41.70283170852343" lon="-4.799825941848025"><ele>804.0</ele><time>2026-04-11T07:23:53Z</time></trkpt><trkpt lat="41.70286441613719" lon="-4.799495102279149"><ele>799.5</ele><time>2026-04-11T07:23:54Z</time></trkpt><trkpt lat="41.7029149783557" lon="-4.799162249851673"><ele>795.0</ele><time>2026-04-11T07:23:55Z</time></trkpt><trkpt lat="41.70299368082863" lon="-4.798839364456516"><ele>795.0</ele><time>2026-04-11T07:23:56Z</time></trkpt><trkpt lat="41.70308736299371" lon="-4.7985165154822"><ele>795.0</ele><time>2026-04-11T07:23:57Z</time></trkpt><trkpt lat="41.70318692544566" lon="-4.798193937899171"><ele>792.5</ele><time>2026-04-11T07:23:58Z</time></trkpt><trkpt lat="41.70328820216078" lon="-4.7978678823132785"><ele>790.0</ele><time>2026-04-11T07:23:59Z</time></trkpt><trkpt lat="41.703384440488094" lon="-4.797539601243469"><ele>788.0</ele><time>2026-04-11T07:23:59.999Z</time></trkpt><trkpt lat="41.70347940916699" lon="-4.797206242250834"><ele>786.0</ele><time>2026-04-11T07:24:00.999Z</time></trkpt><trkpt lat="41.70357552316493" lon="-4.7968711841891105"><ele>785.0</ele><time>2026-04-11T07:24:01.999Z</time></trkpt><trkpt lat="41.70367342799008" lon="-4.7965348447885185"><ele>784.0</ele><time>2026-04-11T07:24:02.999Z</time></trkpt><trkpt lat="41.70376840622144" lon="-4.79619841287019"><ele>783.5</ele><time>2026-04-11T07:24:03.999Z</time></trkpt><trkpt lat="41.70385574431999" lon="-4.795862164808412"><ele>783.0</ele><time>2026-04-11T07:24:04.999Z</time></trkpt><trkpt lat="41.703927718831814" lon="-4.795533486670002"><ele>783.0</ele><time>2026-04-11T07:24:05.999Z</time></trkpt><trkpt lat="41.703978881997514" lon="-4.79520076179605"><ele>783.0</ele><time>2026-04-11T07:24:06.999Z</time></trkpt><trkpt lat="41.704015567683825" lon="-4.794863857937771"><ele>783.0</ele><time>2026-04-11T07:24:07.999Z</time></trkpt><trkpt lat="41.70404515431372" lon="-4.794530973739779"><ele>783.0</ele><time>2026-04-11T07:24:08.999Z</time></trkpt><trkpt lat="41.70407770181499" lon="-4.794202784331796"><ele>781.5</ele><time>2026-04-11T07:24:09.999Z</time></trkpt><trkpt lat="41.70411338452193" lon="-4.79387780918718"><ele>780.0</ele><time>2026-04-11T07:24:10.999Z</time></trkpt><trkpt lat="41.7041504101788" lon="-4.793546551367969"><ele>780.5</ele><time>2026-04-11T07:24:11.999Z</time></trkpt><trkpt lat="41.7041888059833" lon="-4.793234016918655"><ele>781.0</ele><time>2026-04-11T07:24:12.999Z</time></trkpt><trkpt lat="41.704233990020526" lon="-4.792926518798026"><ele>781.5</ele><time>2026-04-11T07:24:13.999Z</time></trkpt><trkpt lat="41.704286836649054" lon="-4.792614198593739"><ele>782.0</ele><time>2026-04-11T07:24:14.999Z</time></trkpt><trkpt lat="41.70434184324678" lon="-4.792300482382519"><ele>782.0</ele><time>2026-04-11T07:24:15.999Z</time></trkpt><trkpt lat="41.70439590696912" lon="-4.791985018690557"><ele>782.0</ele><time>2026-04-11T07:24:16.999Z</time></trkpt><trkpt lat="41.70444917279992" lon="-4.791669519547414"><ele>779.0</ele><time>2026-04-11T07:24:17.999Z</time></trkpt><trkpt lat="41.704502950015005" lon="-4.791351144647798"><ele>776.0</ele><time>2026-04-11T07:24:18.999Z</time></trkpt><trkpt lat="41.70455893161887" lon="-4.79103211281098"><ele>776.0</ele><time>2026-04-11T07:24:19.999Z</time></trkpt><trkpt lat="41.7046157466735" lon="-4.790711443838019"><ele>776.0</ele><time>2026-04-11T07:24:20.999Z</time></trkpt><trkpt lat="41.704676103864955" lon="-4.7903792238239085"><ele>776.0</ele><time>2026-04-11T07:24:21.999Z</time></trkpt><trkpt lat="41.70472761183713" lon="-4.790055216571022"><ele>776.0</ele><time>2026-04-11T07:24:22.999Z</time></trkpt><trkpt lat="41.70478483307363" lon="-4.789724193576013"><ele>776.0</ele><time>2026-04-11T07:24:23.999Z</time></trkpt><trkpt lat="41.70484430500076" lon="-4.789389510140068"><ele>776.0</ele><time>2026-04-11T07:24:24.999Z</time></trkpt><trkpt lat="41.704901479896826" lon="-4.789054206119415"><ele>776.0</ele><time>2026-04-11T07:24:25.999Z</time></trkpt><trkpt lat="41.704954198453706" lon="-4.7887168189849465"><ele>776.0</ele><time>2026-04-11T07:24:26.999Z</time></trkpt><trkpt lat="41.705000865770835" lon="-4.788383169009125"><ele>774.5</ele><time>2026-04-11T07:24:27.999Z</time></trkpt><trkpt lat="41.70504468574044" lon="-4.788046524532489"><ele>773.0</ele><time>2026-04-11T07:24:28.999Z</time></trkpt><trkpt lat="41.705083464090485" lon="-4.787715685574859"><ele>772.5</ele><time>2026-04-11T07:24:29.999Z</time></trkpt><trkpt lat="41.70511857464659" lon="-4.787394147997332"><ele>772.0</ele><time>2026-04-11T07:24:30.999Z</time></trkpt><trkpt lat="41.70515795378251" lon="-4.7870664305933905"><ele>771.0</ele><time>2026-04-11T07:24:31.999Z</time></trkpt><trkpt lat="41.7051906539042" lon="-4.78675004228125"><ele>770.0</ele><time>2026-04-11T07:24:32.999Z</time></trkpt><trkpt lat="41.70522043130891" lon="-4.786433685589363"><ele>768.0</ele><time>2026-04-11T07:24:33.999Z</time></trkpt><trkpt lat="41.7052472118542" lon="-4.786122864124801"><ele>766.0</ele><time>2026-04-11T07:24:34.999Z</time></trkpt><trkpt lat="41.705278089347466" lon="-4.785803673627016"><ele>765.0</ele><time>2026-04-11T07:24:35.999Z</time></trkpt><trkpt lat="41.70530844175942" lon="-4.785485080312187"><ele>764.0</ele><time>2026-04-11T07:24:36.999Z</time></trkpt><trkpt lat="41.70533886969671" lon="-4.78517051726405"><ele>763.0</ele><time>2026-04-11T07:24:37.999Z</time></trkpt><trkpt lat="41.70536740299357" lon="-4.784852008946421"><ele>762.0</ele><time>2026-04-11T07:24:38.999Z</time></trkpt><trkpt lat="41.70539471935704" lon="-4.784536686965504"><ele>761.0</ele><time>2026-04-11T07:24:39.999Z</time></trkpt><trkpt lat="41.705424082192856" lon="-4.784210215656159"><ele>760.0</ele><time>2026-04-11T07:24:40.999Z</time></trkpt><trkpt lat="41.70545683407084" lon="-4.783882627153549"><ele>760.0</ele><time>2026-04-11T07:24:41.999Z</time></trkpt><trkpt lat="41.70549060641957" lon="-4.783560662852735"><ele>760.0</ele><time>2026-04-11T07:24:42.998Z</time></trkpt><trkpt lat="41.70552394602406" lon="-4.783239924938"><ele>760.5</ele><time>2026-04-11T07:24:43.998Z</time></trkpt><trkpt lat="41.70555592116968" lon="-4.782916371483582"><ele>761.0</ele><time>2026-04-11T07:24:44.998Z</time></trkpt><trkpt lat="41.70558681567305" lon="-4.782595984102314"><ele>760.0</ele><time>2026-04-11T07:24:45.998Z</time></trkpt><trkpt lat="41.70561511173119" lon="-4.782280706206577"><ele>759.0</ele><time>2026-04-11T07:24:46.998Z</time></trkpt><trkpt lat="41.70564293185889" lon="-4.781962449837008"><ele>758.5</ele><time>2026-04-11T07:24:47.998Z</time></trkpt><trkpt lat="41.70567182673151" lon="-4.781650777117509"><ele>758.0</ele><time>2026-04-11T07:24:48.998Z</time></trkpt><trkpt lat="41.705702383178945" lon="-4.7813313299078475"><ele>758.5</ele><time>2026-04-11T07:24:49.998Z</time></trkpt><trkpt lat="41.70573517024539" lon="-4.781008192608042"><ele>759.0</ele><time>2026-04-11T07:24:50.998Z</time></trkpt><trkpt lat="41.705767179706655" lon="-4.780689957912151"><ele>759.0</ele><time>2026-04-11T07:24:51.998Z</time></trkpt><trkpt lat="41.705798168738134" lon="-4.780358535747233"><ele>759.0</ele><time>2026-04-11T07:24:52.998Z</time></trkpt><trkpt lat="41.70582931347546" lon="-4.7800387602121"><ele>759.0</ele><time>2026-04-11T07:24:53.998Z</time></trkpt><trkpt lat="41.70586001445992" lon="-4.779716179189921"><ele>759.0</ele><time>2026-04-11T07:24:54.998Z</time></trkpt><trkpt lat="41.70588928674916" lon="-4.77939378683387"><ele>759.5</ele><time>2026-04-11T07:24:55.998Z</time></trkpt><trkpt lat="41.70591826425169" lon="-4.779073314560977"><ele>760.0</ele><time>2026-04-11T07:24:56.998Z</time></trkpt><trkpt lat="41.70594743451118" lon="-4.7787669753907185"><ele>760.3333333333334</ele><time>2026-04-11T07:24:57.998Z</time></trkpt><trkpt lat="41.705975152176016" lon="-4.778480524646422"><ele>760.6666666666666</ele><time>2026-04-11T07:24:58.998Z</time></trkpt><trkpt lat="41.70600384460003" lon="-4.778200278926805"><ele>761.0</ele><time>2026-04-11T07:24:59.998Z</time></trkpt><trkpt lat="41.70604027468183" lon="-4.77793630722384"><ele>758.6666666666666</ele><time>2026-04-11T07:25:00.998Z</time></trkpt><trkpt lat="41.70609139684548" lon="-4.777666127846926"><ele>756.3333333333334</ele><time>2026-04-11T07:25:01.998Z</time></trkpt><trkpt lat="41.706156768510404" lon="-4.777394431354103"><ele>754.0</ele><time>2026-04-11T07:25:02.998Z</time></trkpt><trkpt lat="41.70623598606608" lon="-4.7771304037936435"><ele>754.0</ele><time>2026-04-11T07:25:03.998Z</time></trkpt><trkpt lat="41.70633262590389" lon="-4.776875158941579"><ele>754.0</ele><time>2026-04-11T07:25:04.998Z</time></trkpt><trkpt lat="41.706442099633655" lon="-4.776630952850836"><ele>754.0</ele><time>2026-04-11T07:25:05.998Z</time></trkpt><trkpt lat="41.70655193138823" lon="-4.776382675887775"><ele>754.0</ele><time>2026-04-11T07:25:06.998Z</time></trkpt><trkpt lat="41.70665593250171" lon="-4.776124115617207"><ele>754.0</ele><time>2026-04-11T07:25:07.998Z</time></trkpt><trkpt lat="41.706753559471835" lon="-4.775862958333287"><ele>754.0</ele><time>2026-04-11T07:25:08.998Z</time></trkpt><trkpt lat="41.706843661115876" lon="-4.775594512470716"><ele>753.6666666666667</ele><time>2026-04-11T07:25:09.998Z</time></trkpt><trkpt lat="41.706917438056564" lon="-4.775321816876183"><ele>753.3333333333334</ele><time>2026-04-11T07:25:10.998Z</time></trkpt><trkpt lat="41.70697025562797" lon="-4.775050905210841"><ele>753.0</ele><time>2026-04-11T07:25:11.998Z</time></trkpt><trkpt lat="41.70700495118543" lon="-4.774765693313622"><ele>752.6666666666666</ele><time>2026-04-11T07:25:12.998Z</time></trkpt><trkpt lat="41.70702679734584" lon="-4.774467631047568"><ele>752.3333333333333</ele><time>2026-04-11T07:25:13.998Z</time></trkpt><trkpt lat="41.70704796226632" lon="-4.774169563882969"><ele>752.0</ele><time>2026-04-11T07:25:14.998Z</time></trkpt><trkpt lat="41.70707390163807" lon="-4.773860742427813"><ele>753.5</ele><time>2026-04-11T07:25:15.998Z</time></trkpt><trkpt lat="41.707101500889785" lon="-4.773553795257554"><ele>755.0</ele><time>2026-04-11T07:25:16.998Z</time></trkpt><trkpt lat="41.707124046078796" lon="-4.773259620804137"><ele>755.0</ele><time>2026-04-11T07:25:17.998Z</time></trkpt><trkpt lat="41.70713723579564" lon="-4.772974037565687"><ele>755.0</ele><time>2026-04-11T07:25:18.998Z</time></trkpt><trkpt lat="41.70714047616322" lon="-4.772690742482546"><ele>755.0</ele><time>2026-04-11T07:25:19.998Z</time></trkpt><trkpt lat="41.70713292035741" lon="-4.772406530343298"><ele>755.3333333333333</ele><time>2026-04-11T07:25:20.998Z</time></trkpt><trkpt lat="41.707111319646486" lon="-4.772126843605293"><ele>755.6666666666666</ele><time>2026-04-11T07:25:21.998Z</time></trkpt><trkpt lat="41.70708523528116" lon="-4.771846143377176"><ele>756.0</ele><time>2026-04-11T07:25:22.998Z</time></trkpt><trkpt lat="41.70705678238043" lon="-4.771565496866435"><ele>756.0</ele><time>2026-04-11T07:25:23.998Z</time></trkpt><trkpt lat="41.707030740738055" lon="-4.77128473699982"><ele>756.0</ele><time>2026-04-11T07:25:24.997Z</time></trkpt><trkpt lat="41.70700429039236" lon="-4.771008373308256"><ele>756.0</ele><time>2026-04-11T07:25:25.997Z</time></trkpt><trkpt lat="41.70698249889321" lon="-4.7707372353786335"><ele>755.0</ele><time>2026-04-11T07:25:26.997Z</time></trkpt><trkpt lat="41.706960974398385" lon="-4.770464226566494"><ele>754.0</ele><time>2026-04-11T07:25:27.997Z</time></trkpt><trkpt lat="41.70693324252099" lon="-4.770190992333445"><ele>753.0</ele><time>2026-04-11T07:25:28.997Z</time></trkpt><trkpt lat="41.70689477146487" lon="-4.769928054169726"><ele>752.6666666666666</ele><time>2026-04-11T07:25:30Z</time></trkpt><trkpt lat="41.70684470418885" lon="-4.769676177531859"><ele>752.3333333333333</ele><time>2026-04-11T07:25:31Z</time></trkpt><trkpt lat="41.706788294330465" lon="-4.769446177422856"><ele>752.0</ele><time>2026-04-11T07:25:32Z</time></trkpt><trkpt lat="41.706734361300036" lon="-4.769225181093512"><ele>751.6666666666666</ele><time>2026-04-11T07:25:33Z</time></trkpt><trkpt lat="41.706691703908746" lon="-4.769011470548053"><ele>751.3333333333334</ele><time>2026-04-11T07:25:34Z</time></trkpt><trkpt lat="41.70665570712112" lon="-4.768807444352792"><ele>751.0</ele><time>2026-04-11T07:25:35Z</time></trkpt><trkpt lat="41.70662663829789" lon="-4.768609658530527"><ele>751.0</ele><time>2026-04-11T07:25:36Z</time></trkpt><trkpt lat="41.70660445743593" lon="-4.768425928973906"><ele>751.0</ele><time>2026-04-11T07:25:37Z</time></trkpt><trkpt lat="41.706590175217116" lon="-4.7682648504513665"><ele>751.0</ele><time>2026-04-11T07:25:38Z</time></trkpt><trkpt lat="41.706581152579815" lon="-4.768131721611347"><ele>751.0</ele><time>2026-04-11T07:25:39Z</time></trkpt><trkpt lat="41.70657451831202" lon="-4.768001216173899"><ele>751.0</ele><time>2026-04-11T07:25:40Z</time></trkpt><trkpt lat="41.70656452370144" lon="-4.767869601480507"><ele>751.0</ele><time>2026-04-11T07:25:41Z</time></trkpt><trkpt lat="41.70655706217942" lon="-4.767739109152708"><ele>751.0</ele><time>2026-04-11T07:25:42Z</time></trkpt><trkpt lat="41.70655117122525" lon="-4.767609915076508"><ele>751.0</ele><time>2026-04-11T07:25:43Z</time></trkpt><trkpt lat="41.70654782736911" lon="-4.767484730944735"><ele>751.0</ele><time>2026-04-11T07:25:44Z</time></trkpt><trkpt lat="41.70654797448385" lon="-4.767372106568561"><ele>750.8333333333334</ele><time>2026-04-11T07:25:45Z</time></trkpt><trkpt lat="41.70655573305241" lon="-4.767271374985778"><ele>750.6666666666667</ele><time>2026-04-11T07:25:46Z</time></trkpt><trkpt lat="41.70655281101727" lon="-4.767185672689968"><ele>750.5</ele><time>2026-04-11T07:25:47Z</time></trkpt><trkpt lat="41.70653789139198" lon="-4.767049899473562"><ele>750.3333333333334</ele><time>2026-04-11T07:25:49Z</time></trkpt><trkpt lat="41.70654240130221" lon="-4.766911493055511"><ele>750.1666666666666</ele><time>2026-04-11T07:25:51Z</time></trkpt><trkpt lat="41.706544654808724" lon="-4.766820114647187"><ele>750.0</ele><time>2026-04-11T07:25:52Z</time></trkpt><trkpt lat="41.70654345158267" lon="-4.766722674576841"><ele>749.7142857142858</ele><time>2026-04-11T07:25:53Z</time></trkpt><trkpt lat="41.706539055609255" lon="-4.766621676150182"><ele>749.4285714285713</ele><time>2026-04-11T07:25:54Z</time></trkpt><trkpt lat="41.70653567611083" lon="-4.7665291911518715"><ele>749.1428571428571</ele><time>2026-04-11T07:25:55Z</time></trkpt><trkpt lat="41.70652920089271" lon="-4.766430148352422"><ele>748.8571428571429</ele><time>2026-04-11T07:25:56Z</time></trkpt><trkpt lat="41.70652736595623" lon="-4.766326789119935"><ele>748.5714285714287</ele><time>2026-04-11T07:25:57Z</time></trkpt><trkpt lat="41.7065277897965" lon="-4.766219877253444"><ele>748.2857142857142</ele><time>2026-04-11T07:25:58Z</time></trkpt><trkpt lat="41.70653106547849" lon="-4.766122012873865"><ele>748.0</ele><time>2026-04-11T07:25:59Z</time></trkpt><trkpt lat="41.70653378072795" lon="-4.76601311392369"><ele>747.5999999999999</ele><time>2026-04-11T07:26:00Z</time></trkpt><trkpt lat="41.70654280387529" lon="-4.765901121303708"><ele>747.1999999999999</ele><time>2026-04-11T07:26:01Z</time></trkpt><trkpt lat="41.70655843270387" lon="-4.765769007811144"><ele>746.8</ele><time>2026-04-11T07:26:02Z</time></trkpt><trkpt lat="41.7065847229922" lon="-4.765626120736334"><ele>746.4</ele><time>2026-04-11T07:26:03Z</time></trkpt><trkpt lat="41.7066130750801" lon="-4.765470772516838"><ele>746.0</ele><time>2026-04-11T07:26:04Z</time></trkpt><trkpt lat="41.70663612856992" lon="-4.765319309471443"><ele>746.0</ele><time>2026-04-11T07:26:04.999Z</time></trkpt><trkpt lat="41.706636123403754" lon="-4.76517474427973"><ele>746.0</ele><time>2026-04-11T07:26:05.999Z</time></trkpt><trkpt lat="41.70667028680544" lon="-4.765052214556787"><ele>746.0</ele><time>2026-04-11T07:26:06.999Z</time></trkpt><trkpt lat="41.70668802134195" lon="-4.764930571569446"><ele>746.0</ele><time>2026-04-11T07:26:07.999Z</time></trkpt><trkpt lat="41.706713925464776" lon="-4.764800403180984"><ele>746.0</ele><time>2026-04-11T07:26:08.999Z</time></trkpt><trkpt lat="41.70672642324399" lon="-4.764660171482224"><ele>746.0</ele><time>2026-04-11T07:26:09.999Z</time></trkpt><trkpt lat="41.706763222955736" lon="-4.764538462453833"><ele>746.0</ele><time>2026-04-11T07:26:10.999Z</time></trkpt><trkpt lat="41.706787990481665" lon="-4.764429883714876"><ele>746.0</ele><time>2026-04-11T07:26:11.999Z</time></trkpt><trkpt lat="41.70680867035937" lon="-4.764331552447036"><ele>746.0</ele><time>2026-04-11T07:26:12.999Z</time></trkpt><trkpt lat="41.706825380607356" lon="-4.764244454838136"><ele>746.0</ele><time>2026-04-11T07:26:13.999Z</time></trkpt><trkpt lat="41.70683206732885" lon="-4.764097856196107"><ele>746.0</ele><time>2026-04-11T07:26:15.999Z</time></trkpt><trkpt lat="41.706810520927505" lon="-4.763978708924931"><ele>745.6666666666666</ele><time>2026-04-11T07:26:17.999Z</time></trkpt><trkpt lat="41.706809698263044" lon="-4.76389200733662"><ele>745.3333333333333</ele><time>2026-04-11T07:26:18.999Z</time></trkpt><trkpt lat="41.70679629389587" lon="-4.763799079174903"><ele>745.0</ele><time>2026-04-11T07:26:19.999Z</time></trkpt><trkpt lat="41.70679912302293" lon="-4.763686496738785"><ele>744.6666666666666</ele><time>2026-04-11T07:26:20.999Z</time></trkpt><trkpt lat="41.706819688985014" lon="-4.763562511698086"><ele>744.3333333333334</ele><time>2026-04-11T07:26:21.999Z</time></trkpt><trkpt lat="41.70683314969099" lon="-4.763428139562965"><ele>744.0</ele><time>2026-04-11T07:26:22.999Z</time></trkpt><trkpt lat="41.706844364103105" lon="-4.7632932668536085"><ele>743.8333333333334</ele><time>2026-04-11T07:26:23.999Z</time></trkpt><trkpt lat="41.70685601319079" lon="-4.763170765840428"><ele>743.6666666666666</ele><time>2026-04-11T07:26:24.999Z</time></trkpt><trkpt lat="41.706866999983355" lon="-4.763036713679205"><ele>743.5</ele><time>2026-04-11T07:26:25.999Z</time></trkpt><trkpt lat="41.70687679926043" lon="-4.762925197786751"><ele>743.3333333333333</ele><time>2026-04-11T07:26:26.999Z</time></trkpt><trkpt lat="41.706888794342525" lon="-4.762828257690127"><ele>743.1666666666666</ele><time>2026-04-11T07:26:27.999Z</time></trkpt><trkpt lat="41.70687491951642" lon="-4.762728660222582"><ele>743.0</ele><time>2026-04-11T07:26:29.999Z</time></trkpt><trkpt lat="41.706813648811135" lon="-4.762654544448215"><ele>742.8571428571429</ele><time>2026-04-11T07:26:31.999Z</time></trkpt><trkpt lat="41.70675077233322" lon="-4.762638570230131"><ele>742.7142857142857</ele><time>2026-04-11T07:26:32.999Z</time></trkpt><trkpt lat="41.70667675939254" lon="-4.7626573377569725"><ele>742.5714285714286</ele><time>2026-04-11T07:26:33.999Z</time></trkpt><trkpt lat="41.70660721874051" lon="-4.762617187293634"><ele>742.4285714285714</ele><time>2026-04-11T07:26:34.999Z</time></trkpt><trkpt lat="41.706536191525366" lon="-4.7625992861707385"><ele>742.2857142857142</ele><time>2026-04-11T07:26:35.999Z</time></trkpt><trkpt lat="41.70646560279039" lon="-4.762582121800205"><ele>742.1428571428571</ele><time>2026-04-11T07:26:36.999Z</time></trkpt><trkpt lat="41.70639236833333" lon="-4.762562415994881"><ele>742.0</ele><time>2026-04-11T07:26:37.999Z</time></trkpt><trkpt lat="41.7062994639061" lon="-4.76253115142862"><ele>742.0</ele><time>2026-04-11T07:26:38.999Z</time></trkpt><trkpt lat="41.706188403767634" lon="-4.762496085036388"><ele>742.0</ele><time>2026-04-11T07:26:39.999Z</time></trkpt><trkpt lat="41.706069964798516" lon="-4.762460836246265"><ele>742.0</ele><time>2026-04-11T07:26:40.999Z</time></trkpt><trkpt lat="41.70595019222905" lon="-4.762414131613314"><ele>742.0</ele><time>2026-04-11T07:26:41.999Z</time></trkpt><trkpt lat="41.70583391931237" lon="-4.762352024984304"><ele>742.25</ele><time>2026-04-11T07:26:42.999Z</time></trkpt><trkpt lat="41.705727786791996" lon="-4.762282041215956"><ele>742.5</ele><time>2026-04-11T07:26:43.999Z</time></trkpt><trkpt lat="41.705605085469614" lon="-4.762210395268365"><ele>742.75</ele><time>2026-04-11T07:26:44.999Z</time></trkpt><trkpt lat="41.70548072667675" lon="-4.762100816131738"><ele>743.0</ele><time>2026-04-11T07:26:45.999Z</time></trkpt><trkpt lat="41.70535105221163" lon="-4.761976453250795"><ele>743.0</ele><time>2026-04-11T07:26:46.998Z</time></trkpt><trkpt lat="41.705216453127704" lon="-4.761845961929482"><ele>743.0</ele><time>2026-04-11T07:26:47.998Z</time></trkpt><trkpt lat="41.70510114764458" lon="-4.7617091623060155"><ele>743.0</ele><time>2026-04-11T07:26:48.998Z</time></trkpt><trkpt lat="41.70497541413061" lon="-4.761595562686657"><ele>743.0</ele><time>2026-04-11T07:26:49.998Z</time></trkpt><trkpt lat="41.70484405305203" lon="-4.761473854455327"><ele>743.0</ele><time>2026-04-11T07:26:50.998Z</time></trkpt><trkpt lat="41.70471562175384" lon="-4.761344957224047"><ele>743.0</ele><time>2026-04-11T07:26:51.998Z</time></trkpt><trkpt lat="41.70458036077738" lon="-4.761215154792873"><ele>743.0</ele><time>2026-04-11T07:26:52.998Z</time></trkpt><trkpt lat="41.70444688852841" lon="-4.761090861459076"><ele>743.0</ele><time>2026-04-11T07:26:53.998Z</time></trkpt><trkpt lat="41.704311984214314" lon="-4.760963345307017"><ele>743.0</ele><time>2026-04-11T07:26:54.998Z</time></trkpt><trkpt lat="41.704173818576685" lon="-4.760840646988422"><ele>743.3333333333333</ele><time>2026-04-11T07:26:55.998Z</time></trkpt><trkpt lat="41.704028599752995" lon="-4.7607282330810845"><ele>743.6666666666666</ele><time>2026-04-11T07:26:56.998Z</time></trkpt><trkpt lat="41.70389090764635" lon="-4.760597271748577"><ele>744.0</ele><time>2026-04-11T07:26:57.998Z</time></trkpt><trkpt lat="41.70374945503156" lon="-4.760462538654194"><ele>744.0</ele><time>2026-04-11T07:26:58.998Z</time></trkpt><trkpt lat="41.70360412532725" lon="-4.760324234196133"><ele>744.0</ele><time>2026-04-11T07:26:59.998Z</time></trkpt><trkpt lat="41.70346178572842" lon="-4.760191178856063"><ele>744.0</ele><time>2026-04-11T07:27:00.998Z</time></trkpt><trkpt lat="41.70332028814502" lon="-4.76005832703603"><ele>743.6666666666666</ele><time>2026-04-11T07:27:01.998Z</time></trkpt><trkpt lat="41.70317962827463" lon="-4.759925034243228"><ele>743.3333333333333</ele><time>2026-04-11T07:27:02.998Z</time></trkpt><trkpt lat="41.70304270885754" lon="-4.759797144187376"><ele>743.0</ele><time>2026-04-11T07:27:03.998Z</time></trkpt><trkpt lat="41.702911521165824" lon="-4.759676004430385"><ele>743.0</ele><time>2026-04-11T07:27:04.998Z</time></trkpt><trkpt lat="41.70279161317729" lon="-4.759558162823472"><ele>743.0</ele><time>2026-04-11T07:27:05.998Z</time></trkpt><trkpt lat="41.70266728459374" lon="-4.759480052271539"><ele>743.0</ele><time>2026-04-11T07:27:06.998Z</time></trkpt><trkpt lat="41.70254684213856" lon="-4.759432461323284"><ele>743.0</ele><time>2026-04-11T07:27:07.998Z</time></trkpt><trkpt lat="41.70243537374343" lon="-4.759402412702236"><ele>742.8</ele><time>2026-04-11T07:27:08.998Z</time></trkpt><trkpt lat="41.70233490559136" lon="-4.759403875830744"><ele>742.5999999999999</ele><time>2026-04-11T07:27:09.998Z</time></trkpt><trkpt lat="41.70225850767719" lon="-4.759365031352082"><ele>742.4000000000001</ele><time>2026-04-11T07:27:10.998Z</time></trkpt><trkpt lat="41.70221420230812" lon="-4.759258050672814"><ele>742.2</ele><time>2026-04-11T07:27:11.998Z</time></trkpt><trkpt lat="41.70220597894217" lon="-4.759141834624036"><ele>742.0</ele><time>2026-04-11T07:27:12.998Z</time></trkpt><trkpt lat="41.702202377962344" lon="-4.7590223627892625"><ele>742.0</ele><time>2026-04-11T07:27:13.998Z</time></trkpt><trkpt lat="41.70212279646314" lon="-4.758940361234207"><ele>742.0</ele><time>2026-04-11T07:27:14.998Z</time></trkpt><trkpt lat="41.702050495113234" lon="-4.75884923147263"><ele>742.0</ele><time>2026-04-11T07:27:15.998Z</time></trkpt><trkpt lat="41.70197094726542" lon="-4.758755527537909"><ele>742.0</ele><time>2026-04-11T07:27:16.998Z</time></trkpt><trkpt lat="41.70185619129699" lon="-4.758686812400485"><ele>742.0</ele><time>2026-04-11T07:27:17.998Z</time></trkpt><trkpt lat="41.70174499277002" lon="-4.758583027116178"><ele>744.0</ele><time>2026-04-11T07:27:18.998Z</time></trkpt><trkpt lat="41.70162490068947" lon="-4.7584709411272526"><ele>746.0</ele><time>2026-04-11T07:27:19.998Z</time></trkpt><trkpt lat="41.701497682971066" lon="-4.758325085771491"><ele>748.0</ele><time>2026-04-11T07:27:20.998Z</time></trkpt><trkpt lat="41.7013506309107" lon="-4.758187800855822"><ele>748.0</ele><time>2026-04-11T07:27:21.998Z</time></trkpt><trkpt lat="41.701199971415704" lon="-4.7580440332418785"><ele>748.0</ele><time>2026-04-11T07:27:22.998Z</time></trkpt><trkpt lat="41.70103226319351" lon="-4.757912159812133"><ele>748.0</ele><time>2026-04-11T07:27:23.998Z</time></trkpt><trkpt lat="41.70088901671607" lon="-4.757751413434358"><ele>748.6666666666667</ele><time>2026-04-11T07:27:24.998Z</time></trkpt><trkpt lat="41.70074746219075" lon="-4.7576223703152865"><ele>749.3333333333334</ele><time>2026-04-11T07:27:25.998Z</time></trkpt><trkpt lat="41.70059704333729" lon="-4.757483381615048"><ele>750.0</ele><time>2026-04-11T07:27:26.998Z</time></trkpt><trkpt lat="41.7004483403918" lon="-4.757336891910094"><ele>750.0</ele><time>2026-04-11T07:27:27.998Z</time></trkpt><trkpt lat="41.70028460264651" lon="-4.757207189845354"><ele>750.0</ele><time>2026-04-11T07:27:28.998Z</time></trkpt><trkpt lat="41.70012785799518" lon="-4.75706123943797"><ele>750.0</ele><time>2026-04-11T07:27:29.997Z</time></trkpt><trkpt lat="41.699974341725216" lon="-4.756892095954614"><ele>748.6666666666666</ele><time>2026-04-11T07:27:30.997Z</time></trkpt><trkpt lat="41.69980598583746" lon="-4.756734582998418"><ele>747.3333333333333</ele><time>2026-04-11T07:27:31.997Z</time></trkpt><trkpt lat="41.69963768215749" lon="-4.756578260414073"><ele>746.0</ele><time>2026-04-11T07:27:32.997Z</time></trkpt><trkpt lat="41.699466490891695" lon="-4.756417441826234"><ele>746.3333333333333</ele><time>2026-04-11T07:27:33.997Z</time></trkpt><trkpt lat="41.69929008126377" lon="-4.756252038415815"><ele>746.6666666666666</ele><time>2026-04-11T07:27:34.997Z</time></trkpt><trkpt lat="41.69911679622704" lon="-4.756089583180645"><ele>747.0</ele><time>2026-04-11T07:27:36Z</time></trkpt><trkpt lat="41.6989396744946" lon="-4.755926723755298"><ele>747.3333333333334</ele><time>2026-04-11T07:27:37Z</time></trkpt><trkpt lat="41.69876123570244" lon="-4.755770990223678"><ele>747.6666666666667</ele><time>2026-04-11T07:27:38Z</time></trkpt><trkpt lat="41.698577562137686" lon="-4.755626718155694"><ele>748.0</ele><time>2026-04-11T07:27:39Z</time></trkpt><trkpt lat="41.69839185097918" lon="-4.7554938161693565"><ele>750.3333333333334</ele><time>2026-04-11T07:27:40Z</time></trkpt><trkpt lat="41.69819818294924" lon="-4.755365625080793"><ele>752.6666666666666</ele><time>2026-04-11T07:27:41Z</time></trkpt><trkpt lat="41.69799631424318" lon="-4.755244294135418"><ele>755.0</ele><time>2026-04-11T07:27:42Z</time></trkpt><trkpt lat="41.6977917275685" lon="-4.7551365508785866"><ele>756.3333333333333</ele><time>2026-04-11T07:27:43Z</time></trkpt><trkpt lat="41.697582531245146" lon="-4.755036890737412"><ele>757.6666666666666</ele><time>2026-04-11T07:27:44Z</time></trkpt><trkpt lat="41.69737336851155" lon="-4.754943571213781"><ele>759.0</ele><time>2026-04-11T07:27:45Z</time></trkpt><trkpt lat="41.69716762527015" lon="-4.754851312640693"><ele>759.0</ele><time>2026-04-11T07:27:46Z</time></trkpt><trkpt lat="41.69694214029936" lon="-4.7547509217286485"><ele>759.0</ele><time>2026-04-11T07:27:47Z</time></trkpt><trkpt lat="41.696707379055425" lon="-4.754646579857719"><ele>762.0</ele><time>2026-04-11T07:27:48Z</time></trkpt><trkpt lat="41.696475559618385" lon="-4.754537204238711"><ele>765.0</ele><time>2026-04-11T07:27:49Z</time></trkpt><trkpt lat="41.696256888185715" lon="-4.754428881612666"><ele>762.5</ele><time>2026-04-11T07:27:50Z</time></trkpt><trkpt lat="41.69603045420987" lon="-4.754304708583153"><ele>760.0</ele><time>2026-04-11T07:27:51Z</time></trkpt><trkpt lat="41.69580021224536" lon="-4.7541562463737685"><ele>760.0</ele><time>2026-04-11T07:27:52Z</time></trkpt><trkpt lat="41.69558193643468" lon="-4.753993697608144"><ele>760.0</ele><time>2026-04-11T07:27:53Z</time></trkpt><trkpt lat="41.695376208129794" lon="-4.753808471356401"><ele>757.5</ele><time>2026-04-11T07:27:54Z</time></trkpt><trkpt lat="41.69517944841173" lon="-4.753608087820567"><ele>755.0</ele><time>2026-04-11T07:27:55Z</time></trkpt><trkpt lat="41.69498440932552" lon="-4.753400503742805"><ele>754.5</ele><time>2026-04-11T07:27:56Z</time></trkpt><trkpt lat="41.69479282442047" lon="-4.753182073964668"><ele>754.0</ele><time>2026-04-11T07:27:57Z</time></trkpt><trkpt lat="41.69461020038056" lon="-4.752950871898383"><ele>756.0</ele><time>2026-04-11T07:27:58Z</time></trkpt><trkpt lat="41.6944325302253" lon="-4.752703311577105"><ele>758.0</ele><time>2026-04-11T07:27:59Z</time></trkpt><trkpt lat="41.69426273682161" lon="-4.752453483020644"><ele>751.5</ele><time>2026-04-11T07:28:00Z</time></trkpt><trkpt lat="41.694072014660875" lon="-4.752215658857241"><ele>745.0</ele><time>2026-04-11T07:28:01Z</time></trkpt><trkpt lat="41.693891398175204" lon="-4.751964672768836"><ele>745.5</ele><time>2026-04-11T07:28:02Z</time></trkpt><trkpt lat="41.69370854532794" lon="-4.75171931873943"><ele>746.0</ele><time>2026-04-11T07:28:03Z</time></trkpt><trkpt lat="41.69351831231298" lon="-4.7514915290728865"><ele>742.0</ele><time>2026-04-11T07:28:04Z</time></trkpt><trkpt lat="41.69331817721293" lon="-4.751276199760233"><ele>738.0</ele><time>2026-04-11T07:28:05Z</time></trkpt><trkpt lat="41.693115513582875" lon="-4.751079082403026"><ele>739.0</ele><time>2026-04-11T07:28:06Z</time></trkpt><trkpt lat="41.69290102790695" lon="-4.750898531076538"><ele>740.0</ele><time>2026-04-11T07:28:07Z</time></trkpt><trkpt lat="41.692680413948025" lon="-4.750734255530333"><ele>735.5</ele><time>2026-04-11T07:28:08Z</time></trkpt><trkpt lat="41.69245809944553" lon="-4.750587268378789"><ele>731.0</ele><time>2026-04-11T07:28:09Z</time></trkpt><trkpt lat="41.69225080683081" lon="-4.750462697683089"><ele>731.0</ele><time>2026-04-11T07:28:10Z</time></trkpt><trkpt lat="41.69206009805381" lon="-4.750351471480037"><ele>731.0</ele><time>2026-04-11T07:28:11Z</time></trkpt><trkpt lat="41.69187925224573" lon="-4.750248410766539"><ele>731.0</ele><time>2026-04-11T07:28:11.999Z</time></trkpt><trkpt lat="41.69171087897222" lon="-4.750131359247251"><ele>731.3333333333333</ele><time>2026-04-11T07:28:12.999Z</time></trkpt><trkpt lat="41.69154935876814" lon="-4.750038589359117"><ele>731.6666666666666</ele><time>2026-04-11T07:28:13.999Z</time></trkpt><trkpt lat="41.69139758994629" lon="-4.749976486459378"><ele>732.0</ele><time>2026-04-11T07:28:14.999Z</time></trkpt><trkpt lat="41.691268422995485" lon="-4.749902811844586"><ele>732.0</ele><time>2026-04-11T07:28:15.999Z</time></trkpt><trkpt lat="41.69113219577034" lon="-4.749824289291269"><ele>732.0</ele><time>2026-04-11T07:28:16.999Z</time></trkpt><trkpt lat="41.69099358845164" lon="-4.749721805003807"><ele>732.0</ele><time>2026-04-11T07:28:17.999Z</time></trkpt><trkpt lat="41.690839916995664" lon="-4.749632947438631"><ele>732.3333333333334</ele><time>2026-04-11T07:28:18.999Z</time></trkpt><trkpt lat="41.690686095528974" lon="-4.749541201100014"><ele>732.6666666666667</ele><time>2026-04-11T07:28:19.999Z</time></trkpt><trkpt lat="41.69052316206076" lon="-4.74944940634971"><ele>733.0</ele><time>2026-04-11T07:28:20.999Z</time></trkpt><trkpt lat="41.69035531934632" lon="-4.7493586065565125"><ele>733.3333333333334</ele><time>2026-04-11T07:28:21.999Z</time></trkpt><trkpt lat="41.69018503873107" lon="-4.749265559166342"><ele>733.6666666666666</ele><time>2026-04-11T07:28:22.999Z</time></trkpt><trkpt lat="41.69000970094119" lon="-4.749166301469013"><ele>734.0</ele><time>2026-04-11T07:28:23.999Z</time></trkpt><trkpt lat="41.6898306368724" lon="-4.749061358817657"><ele>734.0</ele><time>2026-04-11T07:28:24.999Z</time></trkpt><trkpt lat="41.68964439572013" lon="-4.7489558118504975"><ele>734.0</ele><time>2026-04-11T07:28:25.999Z</time></trkpt><trkpt lat="41.68945742811539" lon="-4.748851843656706"><ele>734.0</ele><time>2026-04-11T07:28:26.999Z</time></trkpt><trkpt lat="41.68926760245235" lon="-4.74874586381425"><ele>734.0</ele><time>2026-04-11T07:28:27.999Z</time></trkpt><trkpt lat="41.689072844773705" lon="-4.748661553521691"><ele>734.0</ele><time>2026-04-11T07:28:28.999Z</time></trkpt><trkpt lat="41.68888464619723" lon="-4.74853573211434"><ele>734.0</ele><time>2026-04-11T07:28:29.999Z</time></trkpt><trkpt lat="41.688691390474915" lon="-4.748435510835848"><ele>735.6666666666666</ele><time>2026-04-11T07:28:30.999Z</time></trkpt><trkpt lat="41.68849080799478" lon="-4.748334088856121"><ele>737.3333333333334</ele><time>2026-04-11T07:28:31.999Z</time></trkpt><trkpt lat="41.68829184240098" lon="-4.748237655205122"><ele>739.0</ele><time>2026-04-11T07:28:32.999Z</time></trkpt><trkpt lat="41.68808446483068" lon="-4.748143515030857"><ele>739.0</ele><time>2026-04-11T07:28:33.999Z</time></trkpt><trkpt lat="41.68788796072284" lon="-4.748052350107218"><ele>739.0</ele><time>2026-04-11T07:28:34.999Z</time></trkpt><trkpt lat="41.687690125746094" lon="-4.747960578394097"><ele>739.0</ele><time>2026-04-11T07:28:35.999Z</time></trkpt><trkpt lat="41.68749141106219" lon="-4.7478656156199355"><ele>740.6666666666667</ele><time>2026-04-11T07:28:36.999Z</time></trkpt><trkpt lat="41.687296362285004" lon="-4.747769544303175"><ele>742.3333333333334</ele><time>2026-04-11T07:28:37.999Z</time></trkpt><trkpt lat="41.68710414463824" lon="-4.747677601559714"><ele>744.0</ele><time>2026-04-11T07:28:38.999Z</time></trkpt><trkpt lat="41.68691066314843" lon="-4.7475898002430315"><ele>747.0</ele><time>2026-04-11T07:28:39.999Z</time></trkpt><trkpt lat="41.686716072574946" lon="-4.747501343495899"><ele>750.0</ele><time>2026-04-11T07:28:40.999Z</time></trkpt><trkpt lat="41.68652657601909" lon="-4.747407815847475"><ele>753.0</ele><time>2026-04-11T07:28:41.999Z</time></trkpt><trkpt lat="41.68633833939888" lon="-4.74730771872313"><ele>753.0</ele><time>2026-04-11T07:28:42.999Z</time></trkpt><trkpt lat="41.68614755183861" lon="-4.747204903729546"><ele>753.0</ele><time>2026-04-11T07:28:43.999Z</time></trkpt><trkpt lat="41.68595814761881" lon="-4.747099552529594"><ele>753.0</ele><time>2026-04-11T07:28:44.999Z</time></trkpt><trkpt lat="41.68575934406593" lon="-4.746988089524059"><ele>752.6666666666666</ele><time>2026-04-11T07:28:45.999Z</time></trkpt><trkpt lat="41.68555983921668" lon="-4.746875221594073"><ele>752.3333333333333</ele><time>2026-04-11T07:28:46.999Z</time></trkpt><trkpt lat="41.68535522546369" lon="-4.746757184110162"><ele>752.0</ele><time>2026-04-11T07:28:47.999Z</time></trkpt><trkpt lat="41.68515107371757" lon="-4.746633026940532"><ele>755.5</ele><time>2026-04-11T07:28:48.999Z</time></trkpt><trkpt lat="41.68494457323783" lon="-4.746497697630425"><ele>759.0</ele><time>2026-04-11T07:28:49.999Z</time></trkpt><trkpt lat="41.68474147231722" lon="-4.7463554236943235"><ele>759.0</ele><time>2026-04-11T07:28:50.999Z</time></trkpt><trkpt lat="41.6845469282595" lon="-4.746212428075624"><ele>759.0</ele><time>2026-04-11T07:28:51.999Z</time></trkpt><trkpt lat="41.68438002627519" lon="-4.746073501784293"><ele>759.0</ele><time>2026-04-11T07:28:52.999Z</time></trkpt><trkpt lat="41.684225046589475" lon="-4.745937053505168"><ele>758.6666666666666</ele><time>2026-04-11T07:28:53.999Z</time></trkpt><trkpt lat="41.684068883935026" lon="-4.745784491501418"><ele>758.3333333333333</ele><time>2026-04-11T07:28:54.998Z</time></trkpt><trkpt lat="41.68391569421704" lon="-4.745625520848129"><ele>758.0</ele><time>2026-04-11T07:28:55.998Z</time></trkpt><trkpt lat="41.68376560509287" lon="-4.745472721062029"><ele>758.0</ele><time>2026-04-11T07:28:56.998Z</time></trkpt><trkpt lat="41.68361956176892" lon="-4.7453260322344235"><ele>758.0</ele><time>2026-04-11T07:28:57.998Z</time></trkpt><trkpt lat="41.68347298279139" lon="-4.745177169203513"><ele>758.0</ele><time>2026-04-11T07:28:58.998Z</time></trkpt><trkpt lat="41.68332711670327" lon="-4.745030791701866"><ele>758.6666666666666</ele><time>2026-04-11T07:28:59.998Z</time></trkpt><trkpt lat="41.68317832480659" lon="-4.744895746117856"><ele>759.3333333333334</ele><time>2026-04-11T07:29:00.998Z</time></trkpt><trkpt lat="41.68302365711458" lon="-4.744762620363192"><ele>760.0</ele><time>2026-04-11T07:29:01.998Z</time></trkpt><trkpt lat="41.68286056705403" lon="-4.744640472474693"><ele>759.6666666666667</ele><time>2026-04-11T07:29:02.998Z</time></trkpt><trkpt lat="41.68269840897746" lon="-4.744518910677232"><ele>759.3333333333334</ele><time>2026-04-11T07:29:03.998Z</time></trkpt><trkpt lat="41.68253454222383" lon="-4.744389665406099"><ele>759.0</ele><time>2026-04-11T07:29:04.998Z</time></trkpt><trkpt lat="41.68237400595229" lon="-4.744261748431182"><ele>759.0</ele><time>2026-04-11T07:29:05.998Z</time></trkpt><trkpt lat="41.682206098238794" lon="-4.744131857700173"><ele>759.0</ele><time>2026-04-11T07:29:06.998Z</time></trkpt><trkpt lat="41.68203751445969" lon="-4.744003971986273"><ele>759.0</ele><time>2026-04-11T07:29:07.998Z</time></trkpt><trkpt lat="41.68187614198826" lon="-4.743875894844527"><ele>759.25</ele><time>2026-04-11T07:29:08.998Z</time></trkpt><trkpt lat="41.68173532036933" lon="-4.743771848335907"><ele>759.5</ele><time>2026-04-11T07:29:09.998Z</time></trkpt><trkpt lat="41.68162904907802" lon="-4.7436913978017925"><ele>759.75</ele><time>2026-04-11T07:29:10.998Z</time></trkpt><trkpt lat="41.68154462723565" lon="-4.743625394845539"><ele>760.0</ele><time>2026-04-11T07:29:11.998Z</time></trkpt><trkpt lat="41.68146318565034" lon="-4.743567352070818"><ele>759.6</ele><time>2026-04-11T07:29:12.998Z</time></trkpt><trkpt lat="41.68137106675006" lon="-4.7435019566648595"><ele>759.2</ele><time>2026-04-11T07:29:13.998Z</time></trkpt><trkpt lat="41.68128140298537" lon="-4.743434104525216"><ele>758.8</ele><time>2026-04-11T07:29:14.998Z</time></trkpt><trkpt lat="41.681193512464226" lon="-4.743362238691927"><ele>758.4</ele><time>2026-04-11T07:29:15.998Z</time></trkpt><trkpt lat="41.68110843236533" lon="-4.743291303380078"><ele>758.0</ele><time>2026-04-11T07:29:16.998Z</time></trkpt><trkpt lat="41.68102062601254" lon="-4.743220885021056"><ele>757.4</ele><time>2026-04-11T07:29:17.998Z</time></trkpt><trkpt lat="41.68093786687086" lon="-4.743156975850366"><ele>756.8</ele><time>2026-04-11T07:29:18.998Z</time></trkpt><trkpt lat="41.68086616796213" lon="-4.743101816610707"><ele>756.2</ele><time>2026-04-11T07:29:19.998Z</time></trkpt><trkpt lat="41.680796660681125" lon="-4.74304326580266"><ele>755.6</ele><time>2026-04-11T07:29:20.998Z</time></trkpt><trkpt lat="41.68071591803178" lon="-4.742974499892098"><ele>755.0</ele><time>2026-04-11T07:29:21.998Z</time></trkpt><trkpt lat="41.68063041661051" lon="-4.74290255062127"><ele>755.0</ele><time>2026-04-11T07:29:22.998Z</time></trkpt><trkpt lat="41.68054629594196" lon="-4.742827954926351"><ele>755.0</ele><time>2026-04-11T07:29:23.998Z</time></trkpt><trkpt lat="41.68046154606079" lon="-4.7427508797273905"><ele>755.0</ele><time>2026-04-11T07:29:24.998Z</time></trkpt><trkpt lat="41.68037545834766" lon="-4.742671554463031"><ele>755.0</ele><time>2026-04-11T07:29:25.998Z</time></trkpt><trkpt lat="41.6802824916973" lon="-4.742581833105442"><ele>755.0</ele><time>2026-04-11T07:29:26.998Z</time></trkpt><trkpt lat="41.680186646107394" lon="-4.742483165874362"><ele>753.25</ele><time>2026-04-11T07:29:27.998Z</time></trkpt><trkpt lat="41.68009183627467" lon="-4.742372411850388"><ele>751.5</ele><time>2026-04-11T07:29:28.998Z</time></trkpt><trkpt lat="41.67999765185405" lon="-4.742268967317715"><ele>749.75</ele><time>2026-04-11T07:29:29.998Z</time></trkpt><trkpt lat="41.67990262948047" lon="-4.742166041284835"><ele>748.0</ele><time>2026-04-11T07:29:30.998Z</time></trkpt><trkpt lat="41.67979708747853" lon="-4.742056989824563"><ele>748.0</ele><time>2026-04-11T07:29:31.998Z</time></trkpt><trkpt lat="41.679685034606905" lon="-4.741941047140966"><ele>748.0</ele><time>2026-04-11T07:29:32.998Z</time></trkpt><trkpt lat="41.6795764916168" lon="-4.741826334044602"><ele>748.0</ele><time>2026-04-11T07:29:33.998Z</time></trkpt><trkpt lat="41.679472329311324" lon="-4.741716355932052"><ele>748.0</ele><time>2026-04-11T07:29:34.998Z</time></trkpt><trkpt lat="41.67937369527536" lon="-4.741614801653087"><ele>748.4</ele><time>2026-04-11T07:29:35.998Z</time></trkpt><trkpt lat="41.67927897778619" lon="-4.741527734626906"><ele>748.8</ele><time>2026-04-11T07:29:36.997Z</time></trkpt><trkpt lat="41.67918951409799" lon="-4.741463079169822"><ele>749.2</ele><time>2026-04-11T07:29:37.997Z</time></trkpt><trkpt lat="41.67909189885907" lon="-4.741417182346363"><ele>749.6</ele><time>2026-04-11T07:29:38.997Z</time></trkpt><trkpt lat="41.67898880800478" lon="-4.74138932907622"><ele>750.0</ele><time>2026-04-11T07:29:39.997Z</time></trkpt><trkpt lat="41.67887927818013" lon="-4.741380165686044"><ele>750.0</ele><time>2026-04-11T07:29:40.997Z</time></trkpt><trkpt lat="41.67878230829555" lon="-4.741404297867394"><ele>750.0</ele><time>2026-04-11T07:29:42Z</time></trkpt><trkpt lat="41.678693097197446" lon="-4.741456293985224"><ele>750.0</ele><time>2026-04-11T07:29:43Z</time></trkpt><trkpt lat="41.678586332078254" lon="-4.741528778749834"><ele>750.0</ele><time>2026-04-11T07:29:44Z</time></trkpt><trkpt lat="41.67847155891403" lon="-4.741610806308982"><ele>750.0</ele><time>2026-04-11T07:29:45Z</time></trkpt><trkpt lat="41.678353002804634" lon="-4.741701040204945"><ele>750.0</ele><time>2026-04-11T07:29:46Z</time></trkpt><trkpt lat="41.67822759390377" lon="-4.74179859976476"><ele>750.0</ele><time>2026-04-11T07:29:47Z</time></trkpt><trkpt lat="41.67809751050376" lon="-4.741896568054885"><ele>750.0</ele><time>2026-04-11T07:29:48Z</time></trkpt><trkpt lat="41.677960875243286" lon="-4.742010591636617"><ele>750.0</ele><time>2026-04-11T07:29:49Z</time></trkpt><trkpt lat="41.677817704602305" lon="-4.742125784437821"><ele>750.0</ele><time>2026-04-11T07:29:50Z</time></trkpt><trkpt lat="41.677668346254606" lon="-4.742250443482901"><ele>750.0</ele><time>2026-04-11T07:29:51Z</time></trkpt><trkpt lat="41.677534243091614" lon="-4.742405412027992"><ele>750.3333333333334</ele><time>2026-04-11T07:29:52Z</time></trkpt><trkpt lat="41.677406614834716" lon="-4.7425448228740965"><ele>750.6666666666667</ele><time>2026-04-11T07:29:53Z</time></trkpt><trkpt lat="41.677282627662855" lon="-4.742695146846864"><ele>751.0</ele><time>2026-04-11T07:29:54Z</time></trkpt><trkpt lat="41.67716614785828" lon="-4.742849694042288"><ele>752.3333333333334</ele><time>2026-04-11T07:29:55Z</time></trkpt><trkpt lat="41.677062929217925" lon="-4.7430182275082355"><ele>753.6666666666666</ele><time>2026-04-11T07:29:56Z</time></trkpt><trkpt lat="41.67698095998728" lon="-4.74319855730753"><ele>755.0</ele><time>2026-04-11T07:29:57Z</time></trkpt><trkpt lat="41.67691413151585" lon="-4.74339893700237"><ele>755.6666666666666</ele><time>2026-04-11T07:29:58Z</time></trkpt><trkpt lat="41.67684605145994" lon="-4.743610464019743"><ele>756.3333333333334</ele><time>2026-04-11T07:29:59Z</time></trkpt><trkpt lat="41.676773436773956" lon="-4.743839360556422"><ele>757.0</ele><time>2026-04-11T07:30:00Z</time></trkpt><trkpt lat="41.67670218439263" lon="-4.744082282602663"><ele>757.0</ele><time>2026-04-11T07:30:01Z</time></trkpt><trkpt lat="41.67663441863209" lon="-4.744335092276272"><ele>757.0</ele><time>2026-04-11T07:30:02Z</time></trkpt><trkpt lat="41.676566570525914" lon="-4.744598956586466"><ele>757.0</ele><time>2026-04-11T07:30:03Z</time></trkpt><trkpt lat="41.67650097377806" lon="-4.74487158815698"><ele>757.3333333333334</ele><time>2026-04-11T07:30:04Z</time></trkpt><trkpt lat="41.676440872666454" lon="-4.745148534198746"><ele>757.6666666666666</ele><time>2026-04-11T07:30:05Z</time></trkpt><trkpt lat="41.6763932770105" lon="-4.745419589265972"><ele>758.0</ele><time>2026-04-11T07:30:06Z</time></trkpt><trkpt lat="41.67634643501624" lon="-4.745709364916446"><ele>760.5</ele><time>2026-04-11T07:30:07Z</time></trkpt><trkpt lat="41.67629798548758" lon="-4.746013749410339"><ele>763.0</ele><time>2026-04-11T07:30:08Z</time></trkpt><trkpt lat="41.67626135897865" lon="-4.7463259158402185"><ele>764.0</ele><time>2026-04-11T07:30:09Z</time></trkpt><trkpt lat="41.67622689671899" lon="-4.7466471566479"><ele>765.0</ele><time>2026-04-11T07:30:10Z</time></trkpt><trkpt lat="41.67619418961739" lon="-4.746975143624457"><ele>765.5</ele><time>2026-04-11T07:30:11Z</time></trkpt><trkpt lat="41.676168543097525" lon="-4.7473105893861804"><ele>766.0</ele><time>2026-04-11T07:30:12Z</time></trkpt><trkpt lat="41.67615157736029" lon="-4.747655745041168"><ele>765.5</ele><time>2026-04-11T07:30:13Z</time></trkpt><trkpt lat="41.67614730857337" lon="-4.748001760971522"><ele>765.0</ele><time>2026-04-11T07:30:14Z</time></trkpt><trkpt lat="41.676159169782395" lon="-4.748348545508805"><ele>765.5</ele><time>2026-04-11T07:30:15Z</time></trkpt><trkpt lat="41.67618061607703" lon="-4.748696460970034"><ele>766.0</ele><time>2026-04-11T07:30:16Z</time></trkpt><trkpt lat="41.6762073385894" lon="-4.7490350318934045"><ele>766.0</ele><time>2026-04-11T07:30:16.999Z</time></trkpt><trkpt lat="41.67624171744645" lon="-4.74936970844896"><ele>766.0</ele><time>2026-04-11T07:30:17.999Z</time></trkpt><trkpt lat="41.67628236346111" lon="-4.7496994296738375"><ele>765.0</ele><time>2026-04-11T07:30:18.999Z</time></trkpt><trkpt lat="41.67632982868451" lon="-4.750022295605496"><ele>764.0</ele><time>2026-04-11T07:30:19.999Z</time></trkpt><trkpt lat="41.676381663212155" lon="-4.750339530085657"><ele>763.5</ele><time>2026-04-11T07:30:20.999Z</time></trkpt><trkpt lat="41.67644143534167" lon="-4.750669736435193"><ele>763.0</ele><time>2026-04-11T07:30:21.999Z</time></trkpt><trkpt lat="41.67651460605506" lon="-4.751021211408317"><ele>763.0</ele><time>2026-04-11T07:30:22.999Z</time></trkpt><trkpt lat="41.676572819884434" lon="-4.751345716193573"><ele>763.0</ele><time>2026-04-11T07:30:23.999Z</time></trkpt><trkpt lat="41.67661325296595" lon="-4.751605207124318"><ele>763.0</ele><time>2026-04-11T07:30:24.999Z</time></trkpt><trkpt lat="41.676663709804004" lon="-4.751918420374742"><ele>763.5</ele><time>2026-04-11T07:30:25.999Z</time></trkpt><trkpt lat="41.67671007791483" lon="-4.7522441253738394"><ele>764.0</ele><time>2026-04-11T07:30:26.999Z</time></trkpt><trkpt lat="41.67674565705181" lon="-4.7525667174754505"><ele>764.5</ele><time>2026-04-11T07:30:27.999Z</time></trkpt><trkpt lat="41.676772556575465" lon="-4.752897542604172"><ele>765.0</ele><time>2026-04-11T07:30:28.999Z</time></trkpt><trkpt lat="41.676788067777025" lon="-4.7532176967133575"><ele>765.0</ele><time>2026-04-11T07:30:29.999Z</time></trkpt><trkpt lat="41.676796102950014" lon="-4.753545732756065"><ele>765.0</ele><time>2026-04-11T07:30:30.999Z</time></trkpt><trkpt lat="41.676797544950496" lon="-4.753876383901357"><ele>765.0</ele><time>2026-04-11T07:30:31.999Z</time></trkpt><trkpt lat="41.67678546381164" lon="-4.754201153985887"><ele>765.0</ele><time>2026-04-11T07:30:32.999Z</time></trkpt><trkpt lat="41.676764460752025" lon="-4.754526992907912"><ele>763.5</ele><time>2026-04-11T07:30:33.999Z</time></trkpt><trkpt lat="41.67673387946722" lon="-4.75485101970918"><ele>762.0</ele><time>2026-04-11T07:30:34.999Z</time></trkpt><trkpt lat="41.676696281891275" lon="-4.755172084135553"><ele>759.0</ele><time>2026-04-11T07:30:35.999Z</time></trkpt><trkpt lat="41.676644698184745" lon="-4.7555065306037"><ele>756.0</ele><time>2026-04-11T07:30:36.999Z</time></trkpt><trkpt lat="41.67658511071825" lon="-4.755831838791659"><ele>755.0</ele><time>2026-04-11T07:30:37.999Z</time></trkpt><trkpt lat="41.67652228094965" lon="-4.75618872199365"><ele>754.0</ele><time>2026-04-11T07:30:38.999Z</time></trkpt><trkpt lat="41.67644137830528" lon="-4.756445076040375"><ele>754.0</ele><time>2026-04-11T07:30:39.999Z</time></trkpt><trkpt lat="41.676361931286344" lon="-4.756745863441944"><ele>754.0</ele><time>2026-04-11T07:30:40.999Z</time></trkpt><trkpt lat="41.676269008622114" lon="-4.757052123953818"><ele>753.0</ele><time>2026-04-11T07:30:41.999Z</time></trkpt><trkpt lat="41.67617166129092" lon="-4.757354546182087"><ele>752.0</ele><time>2026-04-11T07:30:42.999Z</time></trkpt><trkpt lat="41.67605926280573" lon="-4.757647750199188"><ele>750.0</ele><time>2026-04-11T07:30:43.999Z</time></trkpt><trkpt lat="41.67593719335929" lon="-4.7579300118250485"><ele>748.0</ele><time>2026-04-11T07:30:44.999Z</time></trkpt><trkpt lat="41.67581034351013" lon="-4.758206139449127"><ele>748.0</ele><time>2026-04-11T07:30:45.999Z</time></trkpt><trkpt lat="41.675673461257425" lon="-4.758481064924031"><ele>748.0</ele><time>2026-04-11T07:30:46.999Z</time></trkpt><trkpt lat="41.6755327286242" lon="-4.758746830855906"><ele>745.5</ele><time>2026-04-11T07:30:47.999Z</time></trkpt><trkpt lat="41.675393122602244" lon="-4.75899469474543"><ele>743.0</ele><time>2026-04-11T07:30:48.999Z</time></trkpt><trkpt lat="41.675251878590174" lon="-4.759230093844246"><ele>741.0</ele><time>2026-04-11T07:30:49.999Z</time></trkpt><trkpt lat="41.67509919407232" lon="-4.759456816024045"><ele>739.0</ele><time>2026-04-11T07:30:50.999Z</time></trkpt><trkpt lat="41.67494114196615" lon="-4.759678699639176"><ele>739.0</ele><time>2026-04-11T07:30:51.999Z</time></trkpt><trkpt lat="41.67477927666697" lon="-4.759891076989027"><ele>739.0</ele><time>2026-04-11T07:30:52.999Z</time></trkpt><trkpt lat="41.67461262919262" lon="-4.760095529483219"><ele>738.3333333333334</ele><time>2026-04-11T07:30:53.999Z</time></trkpt><trkpt lat="41.674444641241905" lon="-4.760285791863088"><ele>737.6666666666666</ele><time>2026-04-11T07:30:54.999Z</time></trkpt><trkpt lat="41.67427157574891" lon="-4.7604692166361255"><ele>737.0</ele><time>2026-04-11T07:30:55.999Z</time></trkpt><trkpt lat="41.67408646303081" lon="-4.760647005656796"><ele>736.5</ele><time>2026-04-11T07:30:56.999Z</time></trkpt><trkpt lat="41.67389408061419" lon="-4.76081703559468"><ele>736.0</ele><time>2026-04-11T07:30:57.999Z</time></trkpt><trkpt lat="41.67369788827792" lon="-4.76097679351428"><ele>733.0</ele><time>2026-04-11T07:30:58.998Z</time></trkpt><trkpt lat="41.67350013942882" lon="-4.761129401380253"><ele>730.0</ele><time>2026-04-11T07:30:59.998Z</time></trkpt><trkpt lat="41.673299504946186" lon="-4.761277705230146"><ele>730.0</ele><time>2026-04-11T07:31:00.998Z</time></trkpt><trkpt lat="41.67309716604617" lon="-4.76141324429734"><ele>730.0</ele><time>2026-04-11T07:31:01.998Z</time></trkpt><trkpt lat="41.67289598916982" lon="-4.761533375621311"><ele>730.0</ele><time>2026-04-11T07:31:02.998Z</time></trkpt><trkpt lat="41.67268839053712" lon="-4.761646347072885"><ele>728.0</ele><time>2026-04-11T07:31:03.998Z</time></trkpt><trkpt lat="41.67247797677418" lon="-4.761749075311571"><ele>726.0</ele><time>2026-04-11T07:31:04.998Z</time></trkpt><trkpt lat="41.6722633579956" lon="-4.761840355939028"><ele>724.0</ele><time>2026-04-11T07:31:05.998Z</time></trkpt><trkpt lat="41.67204609367688" lon="-4.761921601375768"><ele>724.0</ele><time>2026-04-11T07:31:06.998Z</time></trkpt><trkpt lat="41.67182932083143" lon="-4.761993493952"><ele>724.0</ele><time>2026-04-11T07:31:07.998Z</time></trkpt><trkpt lat="41.67160973233129" lon="-4.762058076693857"><ele>724.0</ele><time>2026-04-11T07:31:08.998Z</time></trkpt><trkpt lat="41.671392302040864" lon="-4.762113438331429"><ele>724.0</ele><time>2026-04-11T07:31:09.998Z</time></trkpt><trkpt lat="41.6711736195645" lon="-4.762155677679929"><ele>724.0</ele><time>2026-04-11T07:31:10.998Z</time></trkpt><trkpt lat="41.670956203424126" lon="-4.762183723339427"><ele>724.0</ele><time>2026-04-11T07:31:11.998Z</time></trkpt><trkpt lat="41.67074075271926" lon="-4.762201351852535"><ele>723.6666666666667</ele><time>2026-04-11T07:31:12.998Z</time></trkpt><trkpt lat="41.670528161240945" lon="-4.762210566715195"><ele>723.3333333333334</ele><time>2026-04-11T07:31:13.998Z</time></trkpt><trkpt lat="41.670310940306166" lon="-4.762211296269448"><ele>723.0</ele><time>2026-04-11T07:31:14.998Z</time></trkpt><trkpt lat="41.670095143497925" lon="-4.762203177194323"><ele>723.0</ele><time>2026-04-11T07:31:15.998Z</time></trkpt><trkpt lat="41.66988265166016" lon="-4.762188780195689"><ele>723.0</ele><time>2026-04-11T07:31:16.998Z</time></trkpt><trkpt lat="41.66967779214286" lon="-4.762162906292062"><ele>723.0</ele><time>2026-04-11T07:31:17.998Z</time></trkpt><trkpt lat="41.6694704505747" lon="-4.762127206289684"><ele>723.6666666666666</ele><time>2026-04-11T07:31:18.998Z</time></trkpt><trkpt lat="41.66926511143281" lon="-4.762080283142698"><ele>724.3333333333333</ele><time>2026-04-11T07:31:19.998Z</time></trkpt><trkpt lat="41.669053379941055" lon="-4.762025937143173"><ele>725.0</ele><time>2026-04-11T07:31:20.998Z</time></trkpt><trkpt lat="41.668843765821435" lon="-4.76196243331401"><ele>725.0</ele><time>2026-04-11T07:31:21.998Z</time></trkpt><trkpt lat="41.66863826357769" lon="-4.761891271378853"><ele>725.0</ele><time>2026-04-11T07:31:22.998Z</time></trkpt><trkpt lat="41.668438306531286" lon="-4.761812537259296"><ele>725.0</ele><time>2026-04-11T07:31:23.998Z</time></trkpt><trkpt lat="41.66824572385785" lon="-4.761728170535888"><ele>724.6666666666666</ele><time>2026-04-11T07:31:24.998Z</time></trkpt><trkpt lat="41.668052781090964" lon="-4.761639373751052"><ele>724.3333333333334</ele><time>2026-04-11T07:31:25.998Z</time></trkpt><trkpt lat="41.6678560531338" lon="-4.761549726129566"><ele>724.0</ele><time>2026-04-11T07:31:26.998Z</time></trkpt><trkpt lat="41.667661428450046" lon="-4.761461671219"><ele>724.0</ele><time>2026-04-11T07:31:27.998Z</time></trkpt><trkpt lat="41.667475977355565" lon="-4.761380573792773"><ele>724.0</ele><time>2026-04-11T07:31:28.998Z</time></trkpt><trkpt lat="41.66728007506182" lon="-4.761300129202254"><ele>724.0</ele><time>2026-04-11T07:31:29.998Z</time></trkpt><trkpt lat="41.66707562358993" lon="-4.761220546210564"><ele>724.0</ele><time>2026-04-11T07:31:30.998Z</time></trkpt><trkpt lat="41.666866756455306" lon="-4.7611405539479374"><ele>724.0</ele><time>2026-04-11T07:31:31.998Z</time></trkpt><trkpt lat="41.66665819921082" lon="-4.761062049401068"><ele>724.0</ele><time>2026-04-11T07:31:32.998Z</time></trkpt><trkpt lat="41.66644610832063" lon="-4.7609803954189545"><ele>724.0</ele><time>2026-04-11T07:31:33.998Z</time></trkpt><trkpt lat="41.66623838917793" lon="-4.760895847586812"><ele>724.0</ele><time>2026-04-11T07:31:34.998Z</time></trkpt><trkpt lat="41.66602465835375" lon="-4.760812721157202"><ele>724.0</ele><time>2026-04-11T07:31:35.998Z</time></trkpt><trkpt lat="41.665813997500436" lon="-4.760736569130387"><ele>724.6666666666667</ele><time>2026-04-11T07:31:36.998Z</time></trkpt><trkpt lat="41.665597287400495" lon="-4.76065977601887"><ele>725.3333333333334</ele><time>2026-04-11T07:31:37.998Z</time></trkpt><trkpt lat="41.66537953948913" lon="-4.760585354507574"><ele>726.0</ele><time>2026-04-11T07:31:38.998Z</time></trkpt><trkpt lat="41.66515817708253" lon="-4.76051744840974"><ele>726.0</ele><time>2026-04-11T07:31:39.998Z</time></trkpt><trkpt lat="41.664928738839905" lon="-4.760461235392212"><ele>726.0</ele><time>2026-04-11T07:31:40.998Z</time></trkpt><trkpt lat="41.66470199953196" lon="-4.760414189035283"><ele>726.0</ele><time>2026-04-11T07:31:41.997Z</time></trkpt><trkpt lat="41.66446312384658" lon="-4.760366346095921"><ele>726.0</ele><time>2026-04-11T07:31:42.997Z</time></trkpt><trkpt lat="41.66422117826243" lon="-4.76032535661842"><ele>726.0</ele><time>2026-04-11T07:31:43.997Z</time></trkpt><trkpt lat="41.66396859431001" lon="-4.760291542303833"><ele>726.0</ele><time>2026-04-11T07:31:44.997Z</time></trkpt><trkpt lat="41.66370876104385" lon="-4.760259618962661"><ele>726.0</ele><time>2026-04-11T07:31:45.997Z</time></trkpt><trkpt lat="41.663446219655924" lon="-4.760236107805955"><ele>726.0</ele><time>2026-04-11T07:31:46.997Z</time></trkpt><trkpt lat="41.66317886431637" lon="-4.760234334373834"><ele>726.0</ele><time>2026-04-11T07:31:48Z</time></trkpt><trkpt lat="41.66291425306068" lon="-4.760245713172683"><ele>726.0</ele><time>2026-04-11T07:31:49Z</time></trkpt><trkpt lat="41.66265139779664" lon="-4.76026687069188"><ele>725.0</ele><time>2026-04-11T07:31:50Z</time></trkpt><trkpt lat="41.66238305181934" lon="-4.760304227066403"><ele>724.0</ele><time>2026-04-11T07:31:51Z</time></trkpt><trkpt lat="41.66211025406936" lon="-4.760360738781489"><ele>725.0</ele><time>2026-04-11T07:31:52Z</time></trkpt><trkpt lat="41.66183047858966" lon="-4.760428936333165"><ele>726.0</ele><time>2026-04-11T07:31:53Z</time></trkpt><trkpt lat="41.66155966312747" lon="-4.760512203520585"><ele>726.0</ele><time>2026-04-11T07:31:54Z</time></trkpt><trkpt lat="41.6612987851678" lon="-4.760611761023058"><ele>726.0</ele><time>2026-04-11T07:31:55Z</time></trkpt><trkpt lat="41.661042728121785" lon="-4.760714116929707"><ele>726.5</ele><time>2026-04-11T07:31:56Z</time></trkpt><trkpt lat="41.660778542788705" lon="-4.7608066113353384"><ele>727.0</ele><time>2026-04-11T07:31:57Z</time></trkpt><trkpt lat="41.66051518835094" lon="-4.760899525220899"><ele>726.5</ele><time>2026-04-11T07:31:58Z</time></trkpt><trkpt lat="41.66025092208101" lon="-4.760996259097676"><ele>726.0</ele><time>2026-04-11T07:31:59Z</time></trkpt><trkpt lat="41.65998815888883" lon="-4.761093268574719"><ele>726.0</ele><time>2026-04-11T07:32:00Z</time></trkpt><trkpt lat="41.659796920554626" lon="-4.761291470171682"><ele>726.0</ele><time>2026-04-11T07:32:01Z</time></trkpt><trkpt lat="41.65955880156298" lon="-4.761442206275594"><ele>724.0</ele><time>2026-04-11T07:32:02Z</time></trkpt><trkpt lat="41.659323719337216" lon="-4.761595137565674"><ele>722.0</ele><time>2026-04-11T07:32:03Z</time></trkpt><trkpt lat="41.659092491072634" lon="-4.761751319395104"><ele>722.5</ele><time>2026-04-11T07:32:04Z</time></trkpt><trkpt lat="41.65886407052092" lon="-4.761914917374712"><ele>723.0</ele><time>2026-04-11T07:32:05Z</time></trkpt><trkpt lat="41.65863879483013" lon="-4.762073848595011"><ele>721.0</ele><time>2026-04-11T07:32:06Z</time></trkpt><trkpt lat="41.65842009956334" lon="-4.762239792921436"><ele>719.0</ele><time>2026-04-11T07:32:07Z</time></trkpt><trkpt lat="41.658197812282815" lon="-4.762402029051701"><ele>719.0</ele><time>2026-04-11T07:32:08Z</time></trkpt><trkpt lat="41.65797063852431" lon="-4.7625686648923855"><ele>719.0</ele><time>2026-04-11T07:32:09Z</time></trkpt><trkpt lat="41.657747588196" lon="-4.7627360817090585"><ele>718.0</ele><time>2026-04-11T07:32:10Z</time></trkpt><trkpt lat="41.657528214760994" lon="-4.762904436712219"><ele>717.0</ele><time>2026-04-11T07:32:11Z</time></trkpt><trkpt lat="41.65730509498765" lon="-4.763075169982286"><ele>717.0</ele><time>2026-04-11T07:32:12Z</time></trkpt><trkpt lat="41.6570856004882" lon="-4.763248367669789"><ele>717.0</ele><time>2026-04-11T07:32:13Z</time></trkpt><trkpt lat="41.65686441736621" lon="-4.7634184171754965"><ele>718.0</ele><time>2026-04-11T07:32:14Z</time></trkpt><trkpt lat="41.65664169699713" lon="-4.76358899632831"><ele>719.0</ele><time>2026-04-11T07:32:15Z</time></trkpt><trkpt lat="41.65642225353116" lon="-4.763753926749188"><ele>719.0</ele><time>2026-04-11T07:32:16Z</time></trkpt><trkpt lat="41.656202721915534" lon="-4.763918056247353"><ele>719.0</ele><time>2026-04-11T07:32:17Z</time></trkpt><trkpt lat="41.65597859385532" lon="-4.7640787939605715"><ele>718.5</ele><time>2026-04-11T07:32:18Z</time></trkpt><trkpt lat="41.655752834867364" lon="-4.764231355484635"><ele>718.0</ele><time>2026-04-11T07:32:19Z</time></trkpt><trkpt lat="41.65552295932336" lon="-4.764376453051839"><ele>718.0</ele><time>2026-04-11T07:32:20Z</time></trkpt><trkpt lat="41.655288500355816" lon="-4.7645054727002965"><ele>718.0</ele><time>2026-04-11T07:32:21Z</time></trkpt><trkpt lat="41.65505163226961" lon="-4.764619383542988"><ele>716.5</ele><time>2026-04-11T07:32:22Z</time></trkpt><trkpt lat="41.654811619084" lon="-4.76472823357003"><ele>715.0</ele><time>2026-04-11T07:32:22.999Z</time></trkpt><trkpt lat="41.654570060955265" lon="-4.764831120760505"><ele>713.5</ele><time>2026-04-11T07:32:23.999Z</time></trkpt><trkpt lat="41.654326842616626" lon="-4.7649242189325305"><ele>712.0</ele><time>2026-04-11T07:32:24.999Z</time></trkpt><trkpt lat="41.65408573794003" lon="-4.765005722293401"><ele>712.0</ele><time>2026-04-11T07:32:25.999Z</time></trkpt><trkpt lat="41.65384947145645" lon="-4.765071624828953"><ele>712.0</ele><time>2026-04-11T07:32:26.999Z</time></trkpt><trkpt lat="41.653598723822604" lon="-4.765131171884534"><ele>710.5</ele><time>2026-04-11T07:32:27.999Z</time></trkpt><trkpt lat="41.653349676696834" lon="-4.765182498769549"><ele>709.0</ele><time>2026-04-11T07:32:28.999Z</time></trkpt><trkpt lat="41.653097653619945" lon="-4.765229588496108"><ele>708.5</ele><time>2026-04-11T07:32:29.999Z</time></trkpt><trkpt lat="41.65284805140762" lon="-4.7652605943742365"><ele>708.0</ele><time>2026-04-11T07:32:30.999Z</time></trkpt><trkpt lat="41.6525954664324" lon="-4.76527866893354"><ele>708.0</ele><time>2026-04-11T07:32:31.999Z</time></trkpt><trkpt lat="41.652343682135125" lon="-4.7652891894051335"><ele>708.0</ele><time>2026-04-11T07:32:32.999Z</time></trkpt><trkpt lat="41.65208983606993" lon="-4.7652875468959355"><ele>708.0</ele><time>2026-04-11T07:32:33.999Z</time></trkpt><trkpt lat="41.651835564268566" lon="-4.765283080593195"><ele>708.0</ele><time>2026-04-11T07:32:34.999Z</time></trkpt><trkpt lat="41.65158221218066" lon="-4.765274237003446"><ele>708.0</ele><time>2026-04-11T07:32:35.999Z</time></trkpt><trkpt lat="41.6513297128385" lon="-4.765252281544226"><ele>708.0</ele><time>2026-04-11T07:32:36.999Z</time></trkpt><trkpt lat="41.651074267808966" lon="-4.7652229836215145"><ele>708.5</ele><time>2026-04-11T07:32:37.999Z</time></trkpt><trkpt lat="41.65082245213494" lon="-4.765206943411455"><ele>709.0</ele><time>2026-04-11T07:32:38.999Z</time></trkpt><trkpt lat="41.650567884352895" lon="-4.765199167069162"><ele>709.0</ele><time>2026-04-11T07:32:39.999Z</time></trkpt><trkpt lat="41.650304971114444" lon="-4.765197372510241"><ele>709.0</ele><time>2026-04-11T07:32:40.999Z</time></trkpt><trkpt lat="41.65004358642241" lon="-4.765199165166149"><ele>712.5</ele><time>2026-04-11T07:32:41.999Z</time></trkpt><trkpt lat="41.64978323601013" lon="-4.765214143258501"><ele>716.0</ele><time>2026-04-11T07:32:42.999Z</time></trkpt><trkpt lat="41.649523703771514" lon="-4.765245116576536"><ele>717.0</ele><time>2026-04-11T07:32:43.999Z</time></trkpt><trkpt lat="41.64926361042716" lon="-4.765287836911454"><ele>718.0</ele><time>2026-04-11T07:32:44.999Z</time></trkpt><trkpt lat="41.64900498740476" lon="-4.765337084870523"><ele>718.0</ele><time>2026-04-11T07:32:45.999Z</time></trkpt><trkpt lat="41.6487463395861" lon="-4.7653930515769565"><ele>718.0</ele><time>2026-04-11T07:32:46.999Z</time></trkpt><trkpt lat="41.648487743659864" lon="-4.765456810513175"><ele>718.0</ele><time>2026-04-11T07:32:47.999Z</time></trkpt><trkpt lat="41.64823379529627" lon="-4.765531941437977"><ele>718.0</ele><time>2026-04-11T07:32:48.999Z</time></trkpt><trkpt lat="41.64797954916886" lon="-4.76561952990965"><ele>716.5</ele><time>2026-04-11T07:32:49.999Z</time></trkpt><trkpt lat="41.647727570708845" lon="-4.765715350253759"><ele>715.0</ele><time>2026-04-11T07:32:50.999Z</time></trkpt><trkpt lat="41.64747689006999" lon="-4.765817604593836"><ele>715.0</ele><time>2026-04-11T07:32:51.999Z</time></trkpt><trkpt lat="41.64722764151371" lon="-4.765926305183873"><ele>715.0</ele><time>2026-04-11T07:32:52.999Z</time></trkpt><trkpt lat="41.64697962825742" lon="-4.766042929070467"><ele>714.5</ele><time>2026-04-11T07:32:53.999Z</time></trkpt><trkpt lat="41.646735996959876" lon="-4.76616551312618"><ele>714.0</ele><time>2026-04-11T07:32:54.999Z</time></trkpt><trkpt lat="41.64649060374524" lon="-4.766289996085223"><ele>714.0</ele><time>2026-04-11T07:32:55.999Z</time></trkpt><trkpt lat="41.64624759466775" lon="-4.766415769104981"><ele>714.0</ele><time>2026-04-11T07:32:56.999Z</time></trkpt><trkpt lat="41.646004350156566" lon="-4.766550366859876"><ele>713.5</ele><time>2026-04-11T07:32:57.999Z</time></trkpt><trkpt lat="41.64576390851654" lon="-4.766690791461038"><ele>713.0</ele><time>2026-04-11T07:32:58.999Z</time></trkpt><trkpt lat="41.64552474272768" lon="-4.7668368718028695"><ele>713.0</ele><time>2026-04-11T07:32:59.999Z</time></trkpt><trkpt lat="41.645289398990485" lon="-4.766985186129972"><ele>713.0</ele><time>2026-04-11T07:33:00.999Z</time></trkpt><trkpt lat="41.6450594926952" lon="-4.767137774127761"><ele>713.0</ele><time>2026-04-11T07:33:01.999Z</time></trkpt><trkpt lat="41.64483326663375" lon="-4.767297036846505"><ele>713.0</ele><time>2026-04-11T07:33:02.999Z</time></trkpt><trkpt lat="41.64462179676514" lon="-4.767454248383394"><ele>713.0</ele><time>2026-04-11T07:33:03.999Z</time></trkpt><trkpt lat="41.64442278510823" lon="-4.7676216699956"><ele>713.0</ele><time>2026-04-11T07:33:04.999Z</time></trkpt><trkpt lat="41.64422696746913" lon="-4.76779423847773"><ele>713.0</ele><time>2026-04-11T07:33:05.999Z</time></trkpt><trkpt lat="41.64402798035144" lon="-4.767952759183658"><ele>713.0</ele><time>2026-04-11T07:33:06.998Z</time></trkpt><trkpt lat="41.64385034424775" lon="-4.768096897539589"><ele>713.0</ele><time>2026-04-11T07:33:07.998Z</time></trkpt><trkpt lat="41.64369487337348" lon="-4.768228821031816"><ele>713.25</ele><time>2026-04-11T07:33:08.998Z</time></trkpt><trkpt lat="41.64356061137952" lon="-4.768345416184022"><ele>713.5</ele><time>2026-04-11T07:33:09.998Z</time></trkpt><trkpt lat="41.64344526581756" lon="-4.768448362170986"><ele>713.75</ele><time>2026-04-11T07:33:10.998Z</time></trkpt><trkpt lat="41.64333720790714" lon="-4.768542242156069"><ele>714.0</ele><time>2026-04-11T07:33:11.998Z</time></trkpt><trkpt lat="41.64323806478549" lon="-4.768633657748245"><ele>714.0</ele><time>2026-04-11T07:33:12.998Z</time></trkpt><trkpt lat="41.64315001952076" lon="-4.768720974519597"><ele>714.0</ele><time>2026-04-11T07:33:13.998Z</time></trkpt><trkpt lat="41.643073944871965" lon="-4.768814501940083"><ele>714.0</ele><time>2026-04-11T07:33:14.998Z</time></trkpt><trkpt lat="41.6430214040791" lon="-4.7689283389818025"><ele>714.0</ele><time>2026-04-11T07:33:15.998Z</time></trkpt><trkpt lat="41.64299260276949" lon="-4.769066777236878"><ele>714.0</ele><time>2026-04-11T07:33:16.998Z</time></trkpt><trkpt lat="41.64299858078012" lon="-4.7692104931930075"><ele>714.0</ele><time>2026-04-11T07:33:17.998Z</time></trkpt><trkpt lat="41.64303154862836" lon="-4.769356864516039"><ele>714.0</ele><time>2026-04-11T07:33:18.998Z</time></trkpt><trkpt lat="41.64309329304372" lon="-4.769484814999271"><ele>714.0</ele><time>2026-04-11T07:33:19.998Z</time></trkpt><trkpt lat="41.64318491635742" lon="-4.769578764315787"><ele>714.0</ele><time>2026-04-11T07:33:20.998Z</time></trkpt><trkpt lat="41.64329727899014" lon="-4.769631908346727"><ele>714.25</ele><time>2026-04-11T07:33:21.998Z</time></trkpt><trkpt lat="41.64341474227682" lon="-4.769640852123578"><ele>714.5</ele><time>2026-04-11T07:33:22.998Z</time></trkpt><trkpt lat="41.643527741374974" lon="-4.769608240660387"><ele>714.75</ele><time>2026-04-11T07:33:23.998Z</time></trkpt><trkpt lat="41.643637988069784" lon="-4.769544155511591"><ele>715.0</ele><time>2026-04-11T07:33:24.998Z</time></trkpt><trkpt lat="41.64374397228199" lon="-4.769450918883187"><ele>714.25</ele><time>2026-04-11T07:33:25.998Z</time></trkpt><trkpt lat="41.643837722046605" lon="-4.769325137331739"><ele>713.5</ele><time>2026-04-11T07:33:26.998Z</time></trkpt><trkpt lat="41.643920964927055" lon="-4.769187779226525"><ele>712.75</ele><time>2026-04-11T07:33:27.998Z</time></trkpt><trkpt lat="41.643991013821804" lon="-4.769046410634915"><ele>712.0</ele><time>2026-04-11T07:33:28.998Z</time></trkpt><trkpt lat="41.644044874511316" lon="-4.768873533883633"><ele>712.0</ele><time>2026-04-11T07:33:29.998Z</time></trkpt><trkpt lat="41.644082554563326" lon="-4.768693202791719"><ele>712.0</ele><time>2026-04-11T07:33:30.998Z</time></trkpt><trkpt lat="41.644104144903224" lon="-4.768493174317916"><ele>712.0</ele><time>2026-04-11T07:33:31.998Z</time></trkpt><trkpt lat="41.64410735174419" lon="-4.768289717898517"><ele>712.0</ele><time>2026-04-11T07:33:32.998Z</time></trkpt><trkpt lat="41.64408512805828" lon="-4.768077489698188"><ele>712.3333333333334</ele><time>2026-04-11T07:33:33.998Z</time></trkpt><trkpt lat="41.64403941699325" lon="-4.767867297483555"><ele>712.6666666666666</ele><time>2026-04-11T07:33:34.998Z</time></trkpt><trkpt lat="41.64397091984137" lon="-4.767664990295388"><ele>713.0</ele><time>2026-04-11T07:33:35.998Z</time></trkpt><trkpt lat="41.643883692953025" lon="-4.7674615975362205"><ele>713.6666666666666</ele><time>2026-04-11T07:33:36.998Z</time></trkpt><trkpt lat="41.64378571316555" lon="-4.767262829834849"><ele>714.3333333333334</ele><time>2026-04-11T07:33:37.998Z</time></trkpt><trkpt lat="41.64368847962675" lon="-4.767062508583701"><ele>715.0</ele><time>2026-04-11T07:33:38.998Z</time></trkpt><trkpt lat="41.64359592203186" lon="-4.76684622927666"><ele>717.3333333333334</ele><time>2026-04-11T07:33:39.998Z</time></trkpt><trkpt lat="41.64350941027983" lon="-4.766621325224774"><ele>719.6666666666666</ele><time>2026-04-11T07:33:40.998Z</time></trkpt><trkpt lat="41.643430418311134" lon="-4.766396940031696"><ele>722.0</ele><time>2026-04-11T07:33:41.998Z</time></trkpt><trkpt lat="41.643353285751004" lon="-4.766149856352428"><ele>721.0</ele><time>2026-04-11T07:33:42.998Z</time></trkpt><trkpt lat="41.64328774559371" lon="-4.765899034558827"><ele>720.0</ele><time>2026-04-11T07:33:43.998Z</time></trkpt><trkpt lat="41.643238387937615" lon="-4.765640541219294"><ele>719.0</ele><time>2026-04-11T07:33:44.998Z</time></trkpt><trkpt lat="41.643206179660616" lon="-4.7653965323711125"><ele>719.0</ele><time>2026-04-11T07:33:45.998Z</time></trkpt><trkpt lat="41.643181150058155" lon="-4.765148992886589"><ele>719.0</ele><time>2026-04-11T07:33:46.998Z</time></trkpt><trkpt lat="41.64316682447801" lon="-4.764893269517952"><ele>719.0</ele><time>2026-04-11T07:33:47.998Z</time></trkpt><trkpt lat="41.64316561652827" lon="-4.764634838383448"><ele>719.0</ele><time>2026-04-11T07:33:48.997Z</time></trkpt><trkpt lat="41.64317108210316" lon="-4.764392571477171"><ele>719.0</ele><time>2026-04-11T07:33:49.997Z</time></trkpt><trkpt lat="41.6431801103707" lon="-4.7641525854773805"><ele>719.0</ele><time>2026-04-11T07:33:50.997Z</time></trkpt><trkpt lat="41.643188693515654" lon="-4.763912528263285"><ele>719.6666666666666</ele><time>2026-04-11T07:33:51.997Z</time></trkpt><trkpt lat="41.643201344910516" lon="-4.763676612361824"><ele>720.3333333333334</ele><time>2026-04-11T07:33:52.997Z</time></trkpt><trkpt lat="41.64321418496374" lon="-4.763433807222629"><ele>721.0</ele><time>2026-04-11T07:33:54Z</time></trkpt><trkpt lat="41.64322745841179" lon="-4.763179726723491"><ele>719.6666666666667</ele><time>2026-04-11T07:33:55Z</time></trkpt><trkpt lat="41.643239467941015" lon="-4.762918335366228"><ele>718.3333333333334</ele><time>2026-04-11T07:33:56Z</time></trkpt><trkpt lat="41.64324572660102" lon="-4.762663896872934"><ele>717.0</ele><time>2026-04-11T07:33:57Z</time></trkpt><trkpt lat="41.643242918689296" lon="-4.7624102941661155"><ele>717.0</ele><time>2026-04-11T07:33:58Z</time></trkpt><trkpt lat="41.643232765384774" lon="-4.762175009424066"><ele>717.0</ele><time>2026-04-11T07:33:59Z</time></trkpt><trkpt lat="41.64321148292369" lon="-4.761948783566967"><ele>717.0</ele><time>2026-04-11T07:34:00Z</time></trkpt><trkpt lat="41.64317967792567" lon="-4.761736077992691"><ele>716.5</ele><time>2026-04-11T07:34:01Z</time></trkpt><trkpt lat="41.64316397232851" lon="-4.7615351338193275"><ele>716.0</ele><time>2026-04-11T07:34:02Z</time></trkpt><trkpt lat="41.643144708218315" lon="-4.761347870597905"><ele>715.5</ele><time>2026-04-11T07:34:03Z</time></trkpt><trkpt lat="41.64312731094524" lon="-4.761192434078282"><ele>715.0</ele><time>2026-04-11T07:34:04Z</time></trkpt><trkpt lat="41.643096130170775" lon="-4.761059850282572"><ele>715.1666666666667</ele><time>2026-04-11T07:34:05Z</time></trkpt><trkpt lat="41.643099378587195" lon="-4.7609428714933975"><ele>715.3333333333334</ele><time>2026-04-11T07:34:06Z</time></trkpt><trkpt lat="41.6430881889694" lon="-4.760843746368524"><ele>715.5</ele><time>2026-04-11T07:34:07Z</time></trkpt><trkpt lat="41.64306207900511" lon="-4.760752902737718"><ele>715.6666666666666</ele><time>2026-04-11T07:34:08Z</time></trkpt><trkpt lat="41.64306640161635" lon="-4.760652729826474"><ele>715.8333333333333</ele><time>2026-04-11T07:34:09Z</time></trkpt><trkpt lat="41.64305641532598" lon="-4.760565722163215"><ele>716.0</ele><time>2026-04-11T07:34:10Z</time></trkpt><trkpt lat="41.643031380473" lon="-4.760461309285053"><ele>716.0</ele><time>2026-04-11T07:34:11Z</time></trkpt><trkpt lat="41.643018949744956" lon="-4.760342822010361"><ele>716.0</ele><time>2026-04-11T07:34:12Z</time></trkpt><trkpt lat="41.64301970064504" lon="-4.760219611461041"><ele>716.0</ele><time>2026-04-11T07:34:13Z</time></trkpt><trkpt lat="41.643006915837525" lon="-4.760093989193206"><ele>716.0</ele><time>2026-04-11T07:34:14Z</time></trkpt><trkpt lat="41.64288756721392" lon="-4.759988797844499"><ele>716.0</ele><time>2026-04-11T07:34:15Z</time></trkpt><trkpt lat="41.6428188344248" lon="-4.759875570817303"><ele>716.0</ele><time>2026-04-11T07:34:16Z</time></trkpt><trkpt lat="41.642756960106944" lon="-4.759772504561752"><ele>716.0</ele><time>2026-04-11T07:34:17Z</time></trkpt><trkpt lat="41.64270131813183" lon="-4.759690150701598"><ele>716.0</ele><time>2026-04-11T07:34:18Z</time></trkpt><trkpt lat="41.64264491788732" lon="-4.759632251937481"><ele>716.0</ele><time>2026-04-11T07:34:19Z</time></trkpt><trkpt lat="41.642581909575746" lon="-4.759605813026411"><ele>716.0</ele><time>2026-04-11T07:34:20Z</time></trkpt><trkpt lat="41.64251145712572" lon="-4.759602064720624"><ele>716.0</ele><time>2026-04-11T07:34:21Z</time></trkpt><trkpt lat="41.642444852848236" lon="-4.759635833386193"><ele>716.0</ele><time>2026-04-11T07:34:23Z</time></trkpt><trkpt lat="41.642501273818695" lon="-4.759785519460666"><ele>716.0</ele><time>2026-04-11T07:34:25Z</time></trkpt><trkpt lat="41.64257962186004" lon="-4.75978372338044"><ele>716.0</ele><time>2026-04-11T07:34:27Z</time></trkpt><trkpt lat="41.642696204574804" lon="-4.759831242375974"><ele>716.0</ele><time>2026-04-11T07:34:28.999Z</time></trkpt><trkpt lat="41.6427289183542" lon="-4.759931629055643"><ele>716.0</ele><time>2026-04-11T07:34:29.999Z</time></trkpt><trkpt lat="41.642767577923024" lon="-4.760027391218243"><ele>716.0</ele><time>2026-04-11T07:34:30.999Z</time></trkpt><trkpt lat="41.64281493681944" lon="-4.760125127257035"><ele>716.0</ele><time>2026-04-11T07:34:31.999Z</time></trkpt><trkpt lat="41.64284738299697" lon="-4.76023353819089"><ele>716.0</ele><time>2026-04-11T07:34:32.999Z</time></trkpt><trkpt lat="41.64287767861005" lon="-4.760347780391984"><ele>716.0</ele><time>2026-04-11T07:34:33.999Z</time></trkpt><trkpt lat="41.64291048167237" lon="-4.7604933679320425"><ele>716.0</ele><time>2026-04-11T07:34:34.999Z</time></trkpt><trkpt lat="41.64293849465982" lon="-4.760654453286872"><ele>716.0</ele><time>2026-04-11T07:34:35.999Z</time></trkpt><trkpt lat="41.64296228613863" lon="-4.760818796500642"><ele>716.0</ele><time>2026-04-11T07:34:36.999Z</time></trkpt><trkpt lat="41.642984025708515" lon="-4.760986845746767"><ele>716.0</ele><time>2026-04-11T07:34:37.999Z</time></trkpt><trkpt lat="41.64300798506784" lon="-4.7611818955943015"><ele>716.0</ele><time>2026-04-11T07:34:38.999Z</time></trkpt><trkpt lat="41.6430337311342" lon="-4.761389682107687"><ele>715.75</ele><time>2026-04-11T07:34:39.999Z</time></trkpt><trkpt lat="41.64305491667676" lon="-4.7615928441050155"><ele>715.5</ele><time>2026-04-11T07:34:40.999Z</time></trkpt><trkpt lat="41.64307266289399" lon="-4.76179037011855"><ele>715.25</ele><time>2026-04-11T07:34:41.999Z</time></trkpt><trkpt lat="41.643083958564645" lon="-4.761959894117773"><ele>715.0</ele><time>2026-04-11T07:34:42.999Z</time></trkpt><trkpt lat="41.64308546466263" lon="-4.762108427973481"><ele>715.3333333333334</ele><time>2026-04-11T07:34:43.999Z</time></trkpt><trkpt lat="41.643078696930104" lon="-4.762239908213384"><ele>715.6666666666667</ele><time>2026-04-11T07:34:44.999Z</time></trkpt><trkpt lat="41.643055371223845" lon="-4.762354426981805"><ele>716.0</ele><time>2026-04-11T07:34:45.999Z</time></trkpt><trkpt lat="41.64302128506213" lon="-4.7624556164000955"><ele>716.3333333333334</ele><time>2026-04-11T07:34:46.999Z</time></trkpt><trkpt lat="41.64298587718016" lon="-4.76252889303433"><ele>716.6666666666666</ele><time>2026-04-11T07:34:47.999Z</time></trkpt><trkpt lat="41.642966383491064" lon="-4.762610345549365"><ele>717.0</ele><time>2026-04-11T07:34:49.999Z</time></trkpt><trkpt lat="41.642857193586934" lon="-4.762570804851345"><ele>717.1666666666666</ele><time>2026-04-11T07:34:50.999Z</time></trkpt><trkpt lat="41.64273895808079" lon="-4.762551174442163"><ele>717.3333333333334</ele><time>2026-04-11T07:34:52.999Z</time></trkpt><trkpt lat="41.642667456865546" lon="-4.762555235850205"><ele>717.5</ele><time>2026-04-11T07:34:53.999Z</time></trkpt><trkpt lat="41.642599299134055" lon="-4.762557893613468"><ele>717.6666666666667</ele><time>2026-04-11T07:34:54.999Z</time></trkpt><trkpt lat="41.64252913364561" lon="-4.762560379306443"><ele>717.8333333333334</ele><time>2026-04-11T07:34:55.999Z</time></trkpt><trkpt lat="41.64246564636998" lon="-4.762555796196861"><ele>718.0</ele><time>2026-04-11T07:34:56.999Z</time></trkpt><trkpt lat="41.64242569110842" lon="-4.76241521674208"><ele>718.0</ele><time>2026-04-11T07:35:01.999Z</time></trkpt><trkpt lat="41.64243326330405" lon="-4.762321650723327"><ele>718.0</ele><time>2026-04-11T07:35:03.999Z</time></trkpt><trkpt lat="41.64243358936241" lon="-4.7622205091152665"><ele>718.0</ele><time>2026-04-11T07:35:05.999Z</time></trkpt><trkpt lat="41.64243221797995" lon="-4.762125185759209"><ele>718.0</ele><time>2026-04-11T07:35:07.999Z</time></trkpt><trkpt lat="41.642434892026124" lon="-4.762015143349589"><ele>718.0</ele><time>2026-04-11T07:35:10.999Z</time></trkpt><trkpt lat="41.6424349128979" lon="-4.76190561811738"><ele>718.0</ele><time>2026-04-11T07:35:12.998Z</time></trkpt><trkpt lat="41.642438826885105" lon="-4.7618196002131095"><ele>716.0</ele><time>2026-04-11T07:35:18.998Z</time></trkpt></trkseg></trk></gpx>